<gpx xmlns="http://www.topografix.com/GPX/1/1" xmlns:xsi="http://www.w3.org/2001/XMLSchema-instance" creator="Graphhopper version 0.13" version="1.1" xmlns:gh="https://graphhopper.com/public/schema/gpx/1.1"><metadata><copyright author="OpenStreetMap contributors" /><link href="http://graphhopper.com"><text>GraphHopper GPX</text></link><time>2021-08-03T05:27:04Z</time></metadata><trk><name>Track</name><trkseg><trkpt lat="47.623854" lon="13.644435"><ele>541.4</ele><time>2021-08-03T05:27:04Z</time></trkpt></trkseg><trkseg><trkpt lat="47.623854" lon="13.644435"><ele>541.4</ele><time>2021-08-03T05:27:04Z</time></trkpt><trkpt lat="47.624025" lon="13.644789"><ele>541.4</ele><time>2021-08-03T05:27:33Z</time></trkpt><trkpt lat="47.624164" lon="13.644854"><ele>541.4</ele><time>2021-08-03T05:27:38Z</time></trkpt><trkpt lat="47.624367" lon="13.64463"><ele>542.0</ele><time>2021-08-03T05:27:43Z</time></trkpt><trkpt lat="47.624379" lon="13.644688"><ele>542.0</ele><time>2021-08-03T05:27:44Z</time></trkpt><trkpt lat="47.624985" lon="13.644014"><ele>541.56</ele></trkpt><trkpt lat="47.62526" lon="13.643674"><ele>542.6</ele></trkpt><trkpt lat="47.625667" lon="13.643116"><ele>543.6</ele></trkpt><trkpt lat="47.625862" lon="13.642815"><ele>551.0</ele><time>2021-08-03T05:28:28Z</time></trkpt><trkpt lat="47.625833" lon="13.64277"><ele>539.2</ele><time>2021-08-03T05:28:33Z</time></trkpt><trkpt lat="47.625811" lon="13.642551"><ele>539.88</ele></trkpt><trkpt lat="47.625819" lon="13.642347"><ele>539.08</ele></trkpt><trkpt lat="47.625845" lon="13.642164"><ele>539.49</ele></trkpt><trkpt lat="47.626227" lon="13.640557"><ele>536.22</ele></trkpt><trkpt lat="47.626341" lon="13.640239"><ele>535.36</ele></trkpt><trkpt lat="47.62676" lon="13.639548"><ele>539.0</ele></trkpt><trkpt lat="47.626868" lon="13.639325"><ele>536.67</ele></trkpt><trkpt lat="47.626981" lon="13.63902"><ele>532.0</ele></trkpt><trkpt lat="47.627119" lon="13.63856"><ele>531.0</ele></trkpt><trkpt lat="47.627288" lon="13.638211"><ele>528.0</ele></trkpt><trkpt lat="47.627401" lon="13.638063"><ele>531.05</ele></trkpt><trkpt lat="47.6276" lon="13.63789"><ele>531.05</ele></trkpt><trkpt lat="47.628013" lon="13.637626"><ele>530.05</ele></trkpt><trkpt lat="47.628082" lon="13.637562"><ele>529.66</ele></trkpt><trkpt lat="47.628166" lon="13.637418"><ele>529.49</ele></trkpt><trkpt lat="47.628512" lon="13.636566"><ele>522.73</ele></trkpt><trkpt lat="47.62859" lon="13.636469"><ele>523.0</ele></trkpt><trkpt lat="47.628686" lon="13.636441"><ele>522.0</ele><time>2021-08-03T05:30:33Z</time></trkpt><trkpt lat="47.62884" lon="13.636044"><ele>522.0</ele><time>2021-08-03T05:30:40Z</time></trkpt><trkpt lat="47.628876" lon="13.636087"><ele>522.0</ele><time>2021-08-03T05:30:41Z</time></trkpt><trkpt lat="47.629182" lon="13.635299"><ele>519.0</ele><time>2021-08-03T05:31:05Z</time></trkpt><trkpt lat="47.62927" lon="13.635219"><ele>518.32</ele></trkpt><trkpt lat="47.629485" lon="13.634812"><ele>518.04</ele></trkpt><trkpt lat="47.629535" lon="13.634635"><ele>517.4</ele></trkpt><trkpt lat="47.629567" lon="13.634407"><ele>517.4</ele></trkpt><trkpt lat="47.629555" lon="13.634317"><ele>517.4</ele><time>2021-08-03T05:31:23Z</time></trkpt><trkpt lat="47.63008" lon="13.633026"><ele>512.6</ele></trkpt><trkpt lat="47.630413" lon="13.632344"><ele>511.35</ele></trkpt><trkpt lat="47.63089" lon="13.631537"><ele>511.07</ele></trkpt><trkpt lat="47.631145" lon="13.631269"><ele>510.51</ele></trkpt><trkpt lat="47.631352" lon="13.631127"><ele>509.8</ele><time>2021-08-03T05:33:17Z</time></trkpt><trkpt lat="47.631239" lon="13.630743"><ele>508.2</ele></trkpt><trkpt lat="47.631233" lon="13.630615"><ele>508.2</ele></trkpt><trkpt lat="47.63137" lon="13.629899"><ele>507.58</ele></trkpt><trkpt lat="47.631375" lon="13.629754"><ele>507.48</ele></trkpt><trkpt lat="47.631312" lon="13.629603"><ele>507.4</ele></trkpt><trkpt lat="47.631209" lon="13.629474"><ele>507.0</ele></trkpt><trkpt lat="47.631211" lon="13.629293"><ele>507.0</ele></trkpt><trkpt lat="47.63127" lon="13.629034"><ele>506.36</ele></trkpt><trkpt lat="47.631388" lon="13.628861"><ele>506.2</ele></trkpt><trkpt lat="47.631726" lon="13.628591"><ele>507.35</ele></trkpt><trkpt lat="47.631875" lon="13.628448"><ele>508.2</ele></trkpt><trkpt lat="47.6322" lon="13.628047"><ele>507.4</ele></trkpt><trkpt lat="47.632491" lon="13.627824"><ele>508.13</ele></trkpt><trkpt lat="47.632931" lon="13.627267"><ele>508.03</ele></trkpt><trkpt lat="47.632995" lon="13.627173"><ele>508.2</ele></trkpt><trkpt lat="47.633054" lon="13.627027"><ele>506.43</ele></trkpt><trkpt lat="47.633221" lon="13.6265"><ele>505.89</ele></trkpt><trkpt lat="47.633316" lon="13.626284"><ele>505.94</ele></trkpt><trkpt lat="47.633491" lon="13.626106"><ele>505.89</ele></trkpt><trkpt lat="47.633949" lon="13.625806"><ele>505.67</ele></trkpt><trkpt lat="47.634194" lon="13.625605"><ele>505.2</ele><time>2021-08-03T05:35:17Z</time></trkpt><trkpt lat="47.634874" lon="13.625056"><ele>506.59</ele></trkpt><trkpt lat="47.635071" lon="13.624861"><ele>506.63</ele></trkpt><trkpt lat="47.63528" lon="13.624526"><ele>507.8</ele></trkpt><trkpt lat="47.635516" lon="13.624018"><ele>506.4</ele></trkpt><trkpt lat="47.635701" lon="13.623484"><ele>506.14</ele></trkpt><trkpt lat="47.635854" lon="13.62293"><ele>506.04</ele></trkpt><trkpt lat="47.635971" lon="13.622389"><ele>505.32</ele></trkpt><trkpt lat="47.636291" lon="13.620491"><ele>500.8</ele><time>2021-08-03T05:36:51Z</time></trkpt><trkpt lat="47.636326" lon="13.620502"><ele>500.8</ele><time>2021-08-03T05:36:52Z</time></trkpt><trkpt lat="47.636843" lon="13.619916"><ele>499.6</ele></trkpt><trkpt lat="47.63732" lon="13.619469"><ele>499.1</ele></trkpt><trkpt lat="47.637583" lon="13.619248"><ele>498.98</ele></trkpt><trkpt lat="47.637832" lon="13.619092"><ele>498.2</ele></trkpt><trkpt lat="47.638122" lon="13.618997"><ele>498.2</ele><time>2021-08-03T05:37:38Z</time></trkpt><trkpt lat="47.63808" lon="13.618818"><ele>498.2</ele></trkpt><trkpt lat="47.638045" lon="13.618469"><ele>498.2</ele></trkpt><trkpt lat="47.638053" lon="13.618212"><ele>498.4</ele><time>2021-08-03T05:37:50Z</time></trkpt><trkpt lat="47.638187" lon="13.618207"><ele>498.63</ele></trkpt><trkpt lat="47.638394" lon="13.618166"><ele>498.7</ele></trkpt><trkpt lat="47.638687" lon="13.618042"><ele>498.67</ele></trkpt><trkpt lat="47.638877" lon="13.617933"><ele>499.0</ele></trkpt><trkpt lat="47.63908" lon="13.617859"><ele>499.07</ele></trkpt><trkpt lat="47.63953" lon="13.61777"><ele>499.4</ele></trkpt><trkpt lat="47.639654" lon="13.61772"><ele>499.4</ele></trkpt><trkpt lat="47.639926" lon="13.617665"><ele>499.77</ele></trkpt><trkpt lat="47.640132" lon="13.6176"><ele>500.6</ele></trkpt><trkpt lat="47.6404" lon="13.617481"><ele>499.7</ele></trkpt><trkpt lat="47.640541" lon="13.617394"><ele>499.4</ele></trkpt><trkpt lat="47.640742" lon="13.617142"><ele>499.4</ele></trkpt><trkpt lat="47.640784" lon="13.617062"><ele>499.4</ele></trkpt><trkpt lat="47.640815" lon="13.616929"><ele>499.4</ele><time>2021-08-03T05:38:57Z</time></trkpt><trkpt lat="47.64121" lon="13.616458"><ele>499.4</ele></trkpt><trkpt lat="47.641392" lon="13.616268"><ele>499.4</ele></trkpt><trkpt lat="47.641542" lon="13.616167"><ele>499.4</ele></trkpt><trkpt lat="47.641686" lon="13.616143"><ele>499.25</ele></trkpt><trkpt lat="47.641897" lon="13.616165"><ele>499.26</ele></trkpt><trkpt lat="47.642259" lon="13.616137"><ele>499.2</ele><time>2021-08-03T05:39:33Z</time></trkpt><trkpt lat="47.64222" lon="13.615858"><ele>498.5</ele></trkpt><trkpt lat="47.642127" lon="13.615485"><ele>497.8</ele></trkpt><trkpt lat="47.642087" lon="13.614732"><ele>497.4</ele></trkpt><trkpt lat="47.642169" lon="13.614461"><ele>497.14</ele></trkpt><trkpt lat="47.642317" lon="13.61416"><ele>497.09</ele></trkpt><trkpt lat="47.642352" lon="13.614"><ele>497.11</ele></trkpt><trkpt lat="47.642379" lon="13.61343"><ele>497.24</ele></trkpt><trkpt lat="47.64241" lon="13.613353"><ele>497.29</ele></trkpt><trkpt lat="47.6425" lon="13.613273"><ele>497.6</ele><time>2021-08-03T05:40:19Z</time></trkpt><trkpt lat="47.642792" lon="13.613296"><ele>496.23</ele></trkpt><trkpt lat="47.64312" lon="13.613276"><ele>495.6</ele></trkpt><trkpt lat="47.643249" lon="13.613339"><ele>496.24</ele></trkpt><trkpt lat="47.643298" lon="13.613405"><ele>496.17</ele></trkpt><trkpt lat="47.643421" lon="13.613423"><ele>495.8</ele><time>2021-08-03T05:40:40Z</time></trkpt><trkpt lat="47.643459" lon="13.613239"><ele>495.27</ele></trkpt><trkpt lat="47.643462" lon="13.612921"><ele>495.0</ele></trkpt><trkpt lat="47.643422" lon="13.612649"><ele>495.0</ele></trkpt><trkpt lat="47.643336" lon="13.611657"><ele>495.0</ele></trkpt><trkpt lat="47.643362" lon="13.610899"><ele>494.52</ele></trkpt><trkpt lat="47.643419" lon="13.610577"><ele>494.42</ele></trkpt><trkpt lat="47.643427" lon="13.609721"><ele>493.53</ele></trkpt><trkpt lat="47.643407" lon="13.609311"><ele>493.28</ele></trkpt><trkpt lat="47.643425" lon="13.6092"><ele>493.3</ele></trkpt><trkpt lat="47.643511" lon="13.608936"><ele>493.32</ele></trkpt><trkpt lat="47.6436" lon="13.608485"><ele>493.4</ele></trkpt><trkpt lat="47.643598" lon="13.608188"><ele>495.6</ele><time>2021-08-03T05:42:00Z</time></trkpt><trkpt lat="47.643806" lon="13.607938"><ele>495.82</ele></trkpt><trkpt lat="47.644394" lon="13.607491"><ele>495.86</ele><time>2021-08-03T05:42:31Z</time></trkpt></trkseg><trkseg><trkpt lat="47.644394" lon="13.607491"><ele>495.86</ele><time>2021-08-03T05:27:04Z</time></trkpt><trkpt lat="47.644466" lon="13.607437"><ele>495.87</ele></trkpt><trkpt lat="47.644982" lon="13.60726"><ele>496.36</ele></trkpt><trkpt lat="47.645358" lon="13.607075"><ele>496.85</ele></trkpt><trkpt lat="47.646068" lon="13.60677"><ele>497.38</ele></trkpt><trkpt lat="47.647121" lon="13.606389"><ele>499.18</ele></trkpt><trkpt lat="47.648187" lon="13.606102"><ele>498.28</ele></trkpt><trkpt lat="47.648673" lon="13.60604"><ele>496.4</ele></trkpt><trkpt lat="47.650807" lon="13.605654"><ele>498.89</ele></trkpt><trkpt lat="47.651571" lon="13.605538"><ele>498.12</ele></trkpt><trkpt lat="47.651955" lon="13.605506"><ele>496.73</ele></trkpt><trkpt lat="47.652536" lon="13.605563"><ele>495.32</ele></trkpt><trkpt lat="47.652912" lon="13.605662"><ele>495.16</ele></trkpt><trkpt lat="47.653383" lon="13.605865"><ele>489.8</ele><time>2021-08-03T05:32:10Z</time></trkpt><trkpt lat="47.653861" lon="13.60616"><ele>490.25</ele></trkpt><trkpt lat="47.654126" lon="13.606382"><ele>490.14</ele></trkpt><trkpt lat="47.654434" lon="13.606691"><ele>491.2</ele></trkpt><trkpt lat="47.654602" lon="13.606907"><ele>491.28</ele></trkpt><trkpt lat="47.654974" lon="13.607301"><ele>491.27</ele></trkpt><trkpt lat="47.655391" lon="13.607656"><ele>491.32</ele></trkpt><trkpt lat="47.655819" lon="13.60795"><ele>491.39</ele></trkpt><trkpt lat="47.656129" lon="13.608126"><ele>491.31</ele></trkpt><trkpt lat="47.656315" lon="13.608205"><ele>490.8</ele></trkpt><trkpt lat="47.656733" lon="13.608251"><ele>489.24</ele></trkpt><trkpt lat="47.656981" lon="13.608225"><ele>489.03</ele></trkpt><trkpt lat="47.657389" lon="13.6081"><ele>488.88</ele></trkpt><trkpt lat="47.657974" lon="13.607779"><ele>488.11</ele></trkpt><trkpt lat="47.658242" lon="13.607571"><ele>487.97</ele></trkpt><trkpt lat="47.658593" lon="13.607228"><ele>487.85</ele></trkpt><trkpt lat="47.658699" lon="13.607154"><ele>487.87</ele></trkpt><trkpt lat="47.658927" lon="13.607076"><ele>488.02</ele></trkpt><trkpt lat="47.659128" lon="13.607041"><ele>488.11</ele></trkpt><trkpt lat="47.659304" lon="13.60705"><ele>488.4</ele></trkpt><trkpt lat="47.659492" lon="13.607109"><ele>488.91</ele><time>2021-08-03T05:36:38Z</time></trkpt></trkseg><trkseg><trkpt lat="47.659492" lon="13.607109"><ele>488.91</ele><time>2021-08-03T05:27:04Z</time></trkpt><trkpt lat="47.659999" lon="13.60731"><ele>489.19</ele></trkpt><trkpt lat="47.660782" lon="13.607815"><ele>485.8</ele><time>2021-08-03T05:28:00Z</time></trkpt><trkpt lat="47.660765" lon="13.60796"><ele>485.8</ele></trkpt><trkpt lat="47.660768" lon="13.608122"><ele>485.8</ele></trkpt><trkpt lat="47.660823" lon="13.608529"><ele>489.4</ele></trkpt><trkpt lat="47.660893" lon="13.608811"><ele>494.8</ele><time>2021-08-03T05:28:15Z</time></trkpt><trkpt lat="47.661051" lon="13.608699"><ele>491.88</ele></trkpt><trkpt lat="47.661506" lon="13.608458"><ele>491.67</ele></trkpt><trkpt lat="47.661723" lon="13.608319"><ele>490.98</ele></trkpt><trkpt lat="47.662019" lon="13.608175"><ele>490.56</ele></trkpt><trkpt lat="47.662366" lon="13.608036"><ele>489.38</ele></trkpt><trkpt lat="47.662678" lon="13.607955"><ele>488.51</ele></trkpt><trkpt lat="47.663175" lon="13.607892"><ele>487.54</ele></trkpt><trkpt lat="47.663811" lon="13.607913"><ele>486.44</ele></trkpt><trkpt lat="47.664351" lon="13.607993"><ele>485.5</ele></trkpt><trkpt lat="47.664697" lon="13.608074"><ele>484.2</ele></trkpt><trkpt lat="47.665022" lon="13.608202"><ele>484.5</ele></trkpt><trkpt lat="47.665682" lon="13.608536"><ele>486.1</ele><time>2021-08-03T05:31:33Z</time></trkpt></trkseg><trkseg><trkpt lat="47.665682" lon="13.608536"><ele>486.1</ele><time>2021-08-03T05:27:04Z</time></trkpt><trkpt lat="47.66711" lon="13.609272"><ele>486.21</ele></trkpt><trkpt lat="47.667701" lon="13.609554"><ele>486.7</ele></trkpt><trkpt lat="47.669162" lon="13.610096"><ele>488.82</ele></trkpt><trkpt lat="47.669628" lon="13.610364"><ele>490.64</ele></trkpt><trkpt lat="47.669869" lon="13.610551"><ele>491.54</ele><time>2021-08-03T05:30:01Z</time></trkpt></trkseg><trkseg><trkpt lat="47.669869" lon="13.610551"><ele>491.54</ele><time>2021-08-03T05:27:04Z</time></trkpt><trkpt lat="47.670342" lon="13.611067"><ele>494.8</ele><time>2021-08-03T05:27:28Z</time></trkpt><trkpt lat="47.670049" lon="13.610872"><ele>496.28</ele></trkpt><trkpt lat="47.669896" lon="13.610817"><ele>496.35</ele></trkpt><trkpt lat="47.669757" lon="13.610808"><ele>495.91</ele></trkpt><trkpt lat="47.669041" lon="13.61097"><ele>497.42</ele></trkpt><trkpt lat="47.668809" lon="13.610977"><ele>498.3</ele></trkpt><trkpt lat="47.668641" lon="13.610896"><ele>499.29</ele></trkpt><trkpt lat="47.668134" lon="13.610364"><ele>499.09</ele></trkpt><trkpt lat="47.667806" lon="13.610113"><ele>496.77</ele></trkpt><trkpt lat="47.667759" lon="13.610045"><ele>493.2</ele><time>2021-08-03T05:28:30Z</time></trkpt><trkpt lat="47.667728" lon="13.610046"><ele>499.6</ele><time>2021-08-03T05:28:33Z</time></trkpt></trkseg><trkseg><trkpt lat="47.667728" lon="13.610046"><ele>499.6</ele><time>2021-08-03T05:27:04Z</time></trkpt><trkpt lat="47.667388" lon="13.610055"><ele>505.99</ele></trkpt><trkpt lat="47.667241" lon="13.610085"><ele>505.83</ele></trkpt><trkpt lat="47.666673" lon="13.610354"><ele>508.24</ele></trkpt><trkpt lat="47.666352" lon="13.610546"><ele>508.74</ele></trkpt><trkpt lat="47.666302" lon="13.610599"><ele>509.28</ele></trkpt><trkpt lat="47.666253" lon="13.61077"><ele>514.16</ele><time>2021-08-03T05:27:59Z</time></trkpt></trkseg><trkseg><trkpt lat="47.666253" lon="13.61077"><ele>514.16</ele><time>2021-08-03T05:27:04Z</time></trkpt><trkpt lat="47.666065" lon="13.611413"><ele>519.04</ele></trkpt><trkpt lat="47.665827" lon="13.611975"><ele>525.78</ele></trkpt><trkpt lat="47.665695" lon="13.612807"><ele>538.04</ele></trkpt><trkpt lat="47.665747" lon="13.61335"><ele>540.15</ele></trkpt><trkpt lat="47.665772" lon="13.613865"><ele>545.18</ele></trkpt><trkpt lat="47.665792" lon="13.613961"><ele>545.77</ele></trkpt><trkpt lat="47.665942" lon="13.614327"><ele>570.91</ele><time>2021-08-03T05:28:36Z</time></trkpt></trkseg><trkseg><trkpt lat="47.665942" lon="13.614327"><ele>570.91</ele><time>2021-08-03T05:27:04Z</time></trkpt><trkpt lat="47.665964" lon="13.614527"><ele>566.89</ele></trkpt><trkpt lat="47.665948" lon="13.61461"><ele>568.35</ele></trkpt><trkpt lat="47.665911" lon="13.614659"><ele>568.91</ele></trkpt><trkpt lat="47.665827" lon="13.614668"><ele>567.35</ele></trkpt><trkpt lat="47.665701" lon="13.614588"><ele>563.79</ele></trkpt><trkpt lat="47.665185" lon="13.613928"><ele>560.94</ele></trkpt><trkpt lat="47.664867" lon="13.613449"><ele>558.8</ele><time>2021-08-03T05:27:58Z</time></trkpt></trkseg><trkseg><trkpt lat="47.664867" lon="13.613449"><ele>558.8</ele><time>2021-08-03T05:27:04Z</time></trkpt><trkpt lat="47.664756" lon="13.613347"><ele>554.83</ele></trkpt><trkpt lat="47.664677" lon="13.61336"><ele>554.04</ele></trkpt><trkpt lat="47.664616" lon="13.613404"><ele>553.82</ele></trkpt><trkpt lat="47.664487" lon="13.613643"><ele>552.97</ele></trkpt><trkpt lat="47.664407" lon="13.613731"><ele>552.86</ele></trkpt><trkpt lat="47.664377" lon="13.613736"><ele>552.0</ele></trkpt><trkpt lat="47.663883" lon="13.613557"><ele>560.8</ele></trkpt><trkpt lat="47.663627" lon="13.613419"><ele>563.0</ele><time>2021-08-03T05:27:52Z</time></trkpt><trkpt lat="47.663286" lon="13.613111"><ele>561.68</ele></trkpt><trkpt lat="47.663044" lon="13.612835"><ele>563.78</ele></trkpt><trkpt lat="47.662855" lon="13.612678"><ele>563.78</ele></trkpt><trkpt lat="47.662624" lon="13.612596"><ele>563.78</ele></trkpt><trkpt lat="47.662366" lon="13.612457"><ele>564.2</ele></trkpt><trkpt lat="47.662202" lon="13.612257"><ele>566.15</ele></trkpt><trkpt lat="47.662093" lon="13.612173"><ele>566.56</ele></trkpt><trkpt lat="47.661922" lon="13.612128"><ele>566.81</ele><time>2021-08-03T05:28:57Z</time></trkpt></trkseg><trkseg><trkpt lat="47.661922" lon="13.612128"><ele>566.81</ele><time>2021-08-03T05:27:04Z</time></trkpt><trkpt lat="47.661839" lon="13.612148"><ele>566.88</ele></trkpt><trkpt lat="47.661784" lon="13.612204"><ele>567.02</ele></trkpt><trkpt lat="47.661783" lon="13.61234"><ele>568.4</ele><time>2021-08-03T05:27:13Z</time></trkpt><trkpt lat="47.661862" lon="13.61241"><ele>574.47</ele></trkpt><trkpt lat="47.662025" lon="13.612439"><ele>573.8</ele></trkpt><trkpt lat="47.662188" lon="13.612498"><ele>574.23</ele></trkpt><trkpt lat="47.662294" lon="13.612684"><ele>576.24</ele></trkpt><trkpt lat="47.662425" lon="13.612973"><ele>577.8</ele></trkpt><trkpt lat="47.662797" lon="13.61353"><ele>579.38</ele></trkpt><trkpt lat="47.663032" lon="13.613802"><ele>583.55</ele></trkpt><trkpt lat="47.663225" lon="13.614119"><ele>585.75</ele></trkpt><trkpt lat="47.663421" lon="13.614237"><ele>586.35</ele></trkpt><trkpt lat="47.663546" lon="13.614439"><ele>588.37</ele></trkpt><trkpt lat="47.663798" lon="13.615052"><ele>590.7</ele></trkpt><trkpt lat="47.663809" lon="13.615294"><ele>591.54</ele></trkpt><trkpt lat="47.664005" lon="13.615728"><ele>593.92</ele></trkpt><trkpt lat="47.664077" lon="13.615974"><ele>597.36</ele></trkpt><trkpt lat="47.664088" lon="13.616135"><ele>619.2</ele></trkpt><trkpt lat="47.664194" lon="13.61644"><ele>608.86</ele></trkpt><trkpt lat="47.664864" lon="13.61795"><ele>611.01</ele></trkpt><trkpt lat="47.665002" lon="13.618349"><ele>613.89</ele></trkpt><trkpt lat="47.665495" lon="13.619081"><ele>621.77</ele></trkpt><trkpt lat="47.666077" lon="13.619864"><ele>632.48</ele></trkpt><trkpt lat="47.666532" lon="13.620514"><ele>645.86</ele></trkpt><trkpt lat="47.66708" lon="13.621885"><ele>671.4</ele><time>2021-08-03T05:32:05Z</time></trkpt><trkpt lat="47.667294" lon="13.62229"><ele>686.79</ele></trkpt><trkpt lat="47.667555" lon="13.622576"><ele>685.51</ele></trkpt><trkpt lat="47.667835" lon="13.622822"><ele>683.54</ele></trkpt><trkpt lat="47.668076" lon="13.622986"><ele>682.58</ele></trkpt><trkpt lat="47.668197" lon="13.623139"><ele>683.08</ele></trkpt><trkpt lat="47.668203" lon="13.62325"><ele>683.05</ele><time>2021-08-03T05:32:56Z</time></trkpt></trkseg><trkseg><trkpt lat="47.668203" lon="13.62325"><ele>683.05</ele><time>2021-08-03T05:27:04Z</time></trkpt><trkpt lat="47.668207" lon="13.623334"><ele>683.01</ele></trkpt><trkpt lat="47.668128" lon="13.623477"><ele>684.36</ele></trkpt><trkpt lat="47.668031" lon="13.623513"><ele>684.91</ele></trkpt><trkpt lat="47.667907" lon="13.62339"><ele>685.13</ele></trkpt><trkpt lat="47.667694" lon="13.623262"><ele>685.47</ele></trkpt><trkpt lat="47.667514" lon="13.623267"><ele>685.92</ele></trkpt><trkpt lat="47.667362" lon="13.6232"><ele>686.14</ele></trkpt><trkpt lat="47.667121" lon="13.622868"><ele>687.19</ele></trkpt><trkpt lat="47.666911" lon="13.622694"><ele>693.67</ele></trkpt><trkpt lat="47.666715" lon="13.622709"><ele>694.49</ele></trkpt><trkpt lat="47.666473" lon="13.622837"><ele>697.34</ele></trkpt><trkpt lat="47.666243" lon="13.622807"><ele>700.54</ele></trkpt><trkpt lat="47.666022" lon="13.622627"><ele>703.35</ele></trkpt><trkpt lat="47.665815" lon="13.62233"><ele>704.78</ele></trkpt><trkpt lat="47.665557" lon="13.622055"><ele>707.48</ele><time>2021-08-03T05:28:49Z</time></trkpt></trkseg><trkseg><trkpt lat="47.665557" lon="13.622055"><ele>707.48</ele><time>2021-08-03T05:27:04Z</time></trkpt><trkpt lat="47.665303" lon="13.621929"><ele>708.34</ele></trkpt><trkpt lat="47.665095" lon="13.622092"><ele>708.6</ele><time>2021-08-03T05:27:21Z</time></trkpt><trkpt lat="47.665084" lon="13.622138"><ele>714.72</ele></trkpt><trkpt lat="47.664994" lon="13.622235"><ele>728.2</ele><time>2021-08-03T05:27:30Z</time></trkpt><trkpt lat="47.664922" lon="13.622255"><ele>727.94</ele></trkpt><trkpt lat="47.664851" lon="13.622247"><ele>727.97</ele></trkpt><trkpt lat="47.664729" lon="13.622175"><ele>727.97</ele></trkpt><trkpt lat="47.664359" lon="13.62165"><ele>727.37</ele><time>2021-08-03T05:27:56Z</time></trkpt></trkseg><trkseg><trkpt lat="47.664359" lon="13.62165"><ele>727.37</ele><time>2021-08-03T05:27:04Z</time></trkpt><trkpt lat="47.664186" lon="13.621404"><ele>726.77</ele></trkpt><trkpt lat="47.664108" lon="13.621237"><ele>727.36</ele></trkpt><trkpt lat="47.664079" lon="13.62112"><ele>728.18</ele></trkpt><trkpt lat="47.664044" lon="13.620776"><ele>728.16</ele></trkpt><trkpt lat="47.663999" lon="13.620663"><ele>727.6</ele></trkpt><trkpt lat="47.663862" lon="13.620462"><ele>727.62</ele></trkpt><trkpt lat="47.663719" lon="13.620182"><ele>727.05</ele></trkpt><trkpt lat="47.663674" lon="13.620127"><ele>726.52</ele></trkpt><trkpt lat="47.663595" lon="13.620106"><ele>726.03</ele></trkpt><trkpt lat="47.663394" lon="13.620126"><ele>726.6</ele></trkpt><trkpt lat="47.663301" lon="13.620107"><ele>730.45</ele></trkpt><trkpt lat="47.662781" lon="13.619745"><ele>738.11</ele></trkpt><trkpt lat="47.662147" lon="13.619353"><ele>751.52</ele></trkpt><trkpt lat="47.661648" lon="13.61932"><ele>753.53</ele></trkpt><trkpt lat="47.661583" lon="13.619283"><ele>754.13</ele></trkpt><trkpt lat="47.66144" lon="13.619143"><ele>755.91</ele></trkpt><trkpt lat="47.661265" lon="13.619076"><ele>754.63</ele></trkpt><trkpt lat="47.661096" lon="13.618869"><ele>753.71</ele></trkpt><trkpt lat="47.660893" lon="13.618793"><ele>753.15</ele></trkpt><trkpt lat="47.660822" lon="13.618745"><ele>753.45</ele></trkpt><trkpt lat="47.660096" lon="13.618184"><ele>752.74</ele></trkpt><trkpt lat="47.660004" lon="13.618166"><ele>752.48</ele></trkpt><trkpt lat="47.659956" lon="13.618214"><ele>752.0</ele></trkpt><trkpt lat="47.659937" lon="13.618269"><ele>751.68</ele></trkpt><trkpt lat="47.659942" lon="13.61832"><ele>751.38</ele></trkpt><trkpt lat="47.659976" lon="13.618384"><ele>751.55</ele></trkpt><trkpt lat="47.660088" lon="13.61844"><ele>764.4</ele><time>2021-08-03T05:30:13Z</time></trkpt><trkpt lat="47.660066" lon="13.618494"><ele>764.4</ele></trkpt><trkpt lat="47.660034" lon="13.618516"><ele>764.4</ele></trkpt><trkpt lat="47.659771" lon="13.61844"><ele>760.77</ele></trkpt><trkpt lat="47.659595" lon="13.618469"><ele>760.49</ele></trkpt><trkpt lat="47.659486" lon="13.618572"><ele>760.28</ele></trkpt><trkpt lat="47.659426" lon="13.618785"><ele>759.6</ele></trkpt><trkpt lat="47.659397" lon="13.619065"><ele>763.36</ele></trkpt><trkpt lat="47.659367" lon="13.619121"><ele>762.42</ele></trkpt><trkpt lat="47.65935" lon="13.619413"><ele>781.0</ele><time>2021-08-03T05:32:26Z</time></trkpt><trkpt lat="47.659351" lon="13.619642"><ele>781.0</ele></trkpt><trkpt lat="47.659296" lon="13.619999"><ele>781.0</ele></trkpt><trkpt lat="47.659267" lon="13.620099"><ele>806.5</ele></trkpt><trkpt lat="47.65926" lon="13.620525"><ele>807.66</ele></trkpt><trkpt lat="47.659222" lon="13.620604"><ele>808.32</ele></trkpt><trkpt lat="47.659189" lon="13.620967"><ele>812.07</ele></trkpt><trkpt lat="47.659003" lon="13.621139"><ele>809.73</ele></trkpt><trkpt lat="47.658968" lon="13.621198"><ele>808.45</ele></trkpt><trkpt lat="47.658945" lon="13.621265"><ele>807.43</ele></trkpt><trkpt lat="47.658891" lon="13.621727"><ele>807.2</ele></trkpt><trkpt lat="47.658792" lon="13.622054"><ele>808.32</ele></trkpt><trkpt lat="47.658547" lon="13.62235"><ele>809.25</ele></trkpt><trkpt lat="47.658423" lon="13.622565"><ele>810.74</ele></trkpt><trkpt lat="47.658276" lon="13.622753"><ele>808.03</ele></trkpt><trkpt lat="47.658248" lon="13.622834"><ele>807.32</ele></trkpt><trkpt lat="47.658262" lon="13.62299"><ele>807.82</ele></trkpt><trkpt lat="47.658249" lon="13.623052"><ele>807.84</ele></trkpt><trkpt lat="47.658028" lon="13.623498"><ele>808.04</ele><time>2021-08-03T05:38:46Z</time></trkpt></trkseg><trkseg><trkpt lat="47.658028" lon="13.623498"><ele>808.04</ele><time>2021-08-03T05:27:04Z</time></trkpt><trkpt lat="47.657917" lon="13.623723"><ele>808.23</ele></trkpt><trkpt lat="47.657537" lon="13.624254"><ele>808.7</ele></trkpt><trkpt lat="47.657326" lon="13.624374"><ele>811.47</ele></trkpt><trkpt lat="47.65728" lon="13.624432"><ele>812.51</ele></trkpt><trkpt lat="47.657077" lon="13.62494"><ele>812.85</ele></trkpt><trkpt lat="47.656861" lon="13.625231"><ele>814.54</ele></trkpt><trkpt lat="47.656799" lon="13.625361"><ele>815.52</ele></trkpt><trkpt lat="47.656474" lon="13.625731"><ele>809.02</ele></trkpt><trkpt lat="47.65626" lon="13.625891"><ele>809.2</ele><time>2021-08-03T05:31:10Z</time></trkpt><trkpt lat="47.656322" lon="13.625872"><ele>816.34</ele><time>2021-08-03T05:31:19Z</time></trkpt></trkseg><trkseg><trkpt lat="47.656322" lon="13.625872"><ele>816.34</ele><time>2021-08-03T05:27:04Z</time></trkpt><trkpt lat="47.656432" lon="13.625836"><ele>823.48</ele></trkpt><trkpt lat="47.656644" lon="13.625685"><ele>822.45</ele></trkpt><trkpt lat="47.656776" lon="13.625553"><ele>824.15</ele></trkpt><trkpt lat="47.656929" lon="13.625463"><ele>825.62</ele></trkpt><trkpt lat="47.657065" lon="13.6253"><ele>826.92</ele></trkpt><trkpt lat="47.65722" lon="13.625192"><ele>826.83</ele></trkpt><trkpt lat="47.65744" lon="13.624897"><ele>827.65</ele></trkpt><trkpt lat="47.657518" lon="13.624718"><ele>836.08</ele></trkpt><trkpt lat="47.657579" lon="13.624669"><ele>838.4</ele></trkpt><trkpt lat="47.65776" lon="13.624628"><ele>839.19</ele></trkpt><trkpt lat="47.657868" lon="13.624552"><ele>843.3</ele></trkpt><trkpt lat="47.65801" lon="13.624383"><ele>844.95</ele></trkpt><trkpt lat="47.658567" lon="13.623618"><ele>859.72</ele></trkpt><trkpt lat="47.658598" lon="13.62361"><ele>860.69</ele></trkpt><trkpt lat="47.658606" lon="13.623676"><ele>861.58</ele></trkpt><trkpt lat="47.658481" lon="13.623846"><ele>871.4</ele></trkpt><trkpt lat="47.658373" lon="13.624125"><ele>877.2</ele></trkpt><trkpt lat="47.658238" lon="13.624542"><ele>876.04</ele></trkpt><trkpt lat="47.658121" lon="13.625001"><ele>877.4</ele><time>2021-08-03T05:33:42Z</time></trkpt></trkseg><trkseg><trkpt lat="47.658121" lon="13.625001"><ele>877.4</ele><time>2021-08-03T05:27:05Z</time></trkpt><trkpt lat="47.657991" lon="13.625219"><ele>879.32</ele></trkpt><trkpt lat="47.657913" lon="13.625714"><ele>882.05</ele></trkpt><trkpt lat="47.657688" lon="13.626196"><ele>889.36</ele></trkpt><trkpt lat="47.657446" lon="13.626849"><ele>892.02</ele><time>2021-08-03T05:29:29Z</time></trkpt></trkseg><trkseg><trkpt lat="47.657446" lon="13.626849"><ele>892.02</ele><time>2021-08-03T05:27:05Z</time></trkpt><trkpt lat="47.657413" lon="13.62694"><ele>894.68</ele></trkpt><trkpt lat="47.657286" lon="13.627133"><ele>893.81</ele></trkpt><trkpt lat="47.65706" lon="13.627691"><ele>894.66</ele></trkpt><trkpt lat="47.657025" lon="13.627873"><ele>895.65</ele></trkpt><trkpt lat="47.657043" lon="13.628048"><ele>895.07</ele></trkpt><trkpt lat="47.656977" lon="13.628283"><ele>913.22</ele></trkpt><trkpt lat="47.656881" lon="13.628379"><ele>914.86</ele></trkpt><trkpt lat="47.656709" lon="13.628508"><ele>916.07</ele></trkpt><trkpt lat="47.656499" lon="13.628744"><ele>915.06</ele></trkpt><trkpt lat="47.656357" lon="13.628935"><ele>914.39</ele></trkpt><trkpt lat="47.656156" lon="13.62913"><ele>914.7</ele></trkpt><trkpt lat="47.656051" lon="13.62918"><ele>915.17</ele></trkpt><trkpt lat="47.65597" lon="13.629383"><ele>916.35</ele><time>2021-08-03T05:31:10Z</time></trkpt></trkseg><trkseg><trkpt lat="47.65597" lon="13.629383"><ele>916.35</ele><time>2021-08-03T05:27:05Z</time></trkpt><trkpt lat="47.655929" lon="13.629512"><ele>917.08</ele></trkpt><trkpt lat="47.655861" lon="13.629612"><ele>918.57</ele></trkpt><trkpt lat="47.655698" lon="13.629632"><ele>917.87</ele></trkpt><trkpt lat="47.655537" lon="13.629804"><ele>917.32</ele></trkpt><trkpt lat="47.65547" lon="13.629932"><ele>917.52</ele></trkpt><trkpt lat="47.655265" lon="13.630095"><ele>919.44</ele></trkpt><trkpt lat="47.6552" lon="13.630185"><ele>921.07</ele></trkpt><trkpt lat="47.655189" lon="13.630324"><ele>922.69</ele></trkpt><trkpt lat="47.655128" lon="13.630406"><ele>924.25</ele></trkpt><trkpt lat="47.654909" lon="13.630908"><ele>928.46</ele></trkpt><trkpt lat="47.654802" lon="13.631093"><ele>930.79</ele></trkpt><trkpt lat="47.654641" lon="13.631254"><ele>934.7</ele></trkpt><trkpt lat="47.654502" lon="13.631515"><ele>942.85</ele></trkpt><trkpt lat="47.654405" lon="13.631863"><ele>947.28</ele></trkpt><trkpt lat="47.654346" lon="13.632021"><ele>950.91</ele></trkpt><trkpt lat="47.654317" lon="13.632164"><ele>952.81</ele></trkpt><trkpt lat="47.654266" lon="13.632908"><ele>963.7</ele></trkpt><trkpt lat="47.65422" lon="13.633164"><ele>971.21</ele></trkpt><trkpt lat="47.654229" lon="13.633635"><ele>976.86</ele></trkpt><trkpt lat="47.654192" lon="13.633936"><ele>978.61</ele></trkpt><trkpt lat="47.654194" lon="13.634267"><ele>982.97</ele></trkpt><trkpt lat="47.654221" lon="13.634427"><ele>983.65</ele></trkpt><trkpt lat="47.654225" lon="13.634706"><ele>985.28</ele></trkpt><trkpt lat="47.654309" lon="13.635003"><ele>995.6</ele><time>2021-08-03T05:34:50Z</time></trkpt><trkpt lat="47.654308" lon="13.635013"><ele>997.73</ele><time>2021-08-03T05:34:50Z</time></trkpt></trkseg><trkseg><trkpt lat="47.654308" lon="13.635013"><ele>997.73</ele><time>2021-08-03T05:27:05Z</time></trkpt><trkpt lat="47.6543" lon="13.635322"><ele>999.47</ele></trkpt><trkpt lat="47.654332" lon="13.635988"><ele>1000.73</ele></trkpt><trkpt lat="47.654364" lon="13.636102"><ele>1000.75</ele></trkpt><trkpt lat="47.654416" lon="13.636194"><ele>1000.76</ele></trkpt><trkpt lat="47.654511" lon="13.636296"><ele>1000.77</ele></trkpt><trkpt lat="47.654577" lon="13.636442"><ele>1000.78</ele></trkpt><trkpt lat="47.654736" lon="13.637254"><ele>1002.19</ele></trkpt><trkpt lat="47.654752" lon="13.637829"><ele>1005.89</ele><time>2021-08-03T05:28:03Z</time></trkpt></trkseg><trkseg><trkpt lat="47.654752" lon="13.637829"><ele>1005.89</ele><time>2021-08-03T05:27:05Z</time></trkpt><trkpt lat="47.654761" lon="13.637921"><ele>1007.42</ele></trkpt><trkpt lat="47.65471" lon="13.638287"><ele>1007.51</ele></trkpt><trkpt lat="47.654658" lon="13.638522"><ele>1007.72</ele></trkpt><trkpt lat="47.654662" lon="13.638817"><ele>1008.08</ele></trkpt><trkpt lat="47.654747" lon="13.63946"><ele>1002.4</ele><time>2021-08-03T05:27:37Z</time></trkpt><trkpt lat="47.654767" lon="13.639561"><ele>1002.4</ele></trkpt><trkpt lat="47.654833" lon="13.639724"><ele>1002.4</ele><time>2021-08-03T05:27:43Z</time></trkpt><trkpt lat="47.654918" lon="13.639682"><ele>1002.4</ele><time>2021-08-03T05:27:46Z</time></trkpt><trkpt lat="47.655038" lon="13.640105"><ele>1021.57</ele></trkpt><trkpt lat="47.655118" lon="13.64027"><ele>1020.93</ele></trkpt><trkpt lat="47.655212" lon="13.640325"><ele>1020.18</ele></trkpt><trkpt lat="47.655421" lon="13.640356"><ele>1019.31</ele></trkpt><trkpt lat="47.655487" lon="13.640403"><ele>1025.4</ele><time>2021-08-03T05:28:15Z</time></trkpt><trkpt lat="47.655549" lon="13.640475"><ele>1023.72</ele></trkpt><trkpt lat="47.655586" lon="13.640605"><ele>1023.58</ele></trkpt><trkpt lat="47.655603" lon="13.640832"><ele>1025.02</ele></trkpt><trkpt lat="47.655606" lon="13.641356"><ele>1026.49</ele></trkpt><trkpt lat="47.655637" lon="13.641564"><ele>1028.75</ele></trkpt><trkpt lat="47.655725" lon="13.641677"><ele>1030.88</ele></trkpt><trkpt lat="47.656044" lon="13.641828"><ele>1034.81</ele></trkpt><trkpt lat="47.656132" lon="13.641922"><ele>1035.49</ele></trkpt><trkpt lat="47.656165" lon="13.641991"><ele>1036.79</ele><time>2021-08-03T05:29:04Z</time></trkpt></trkseg><trkseg><trkpt lat="47.656165" lon="13.641991"><ele>1036.79</ele><time>2021-08-03T05:27:05Z</time></trkpt><trkpt lat="47.656312" lon="13.642305"><ele>1038.08</ele></trkpt><trkpt lat="47.656398" lon="13.642405"><ele>1038.9</ele></trkpt><trkpt lat="47.65647" lon="13.642444"><ele>1039.85</ele></trkpt><trkpt lat="47.65686" lon="13.642538"><ele>1043.62</ele></trkpt><trkpt lat="47.656914" lon="13.642628"><ele>1044.4</ele></trkpt><trkpt lat="47.65697" lon="13.642999"><ele>1044.5</ele></trkpt><trkpt lat="47.657026" lon="13.643181"><ele>1044.43</ele></trkpt><trkpt lat="47.657114" lon="13.64328"><ele>1044.69</ele></trkpt><trkpt lat="47.657537" lon="13.643397"><ele>1045.49</ele></trkpt><trkpt lat="47.657654" lon="13.64355"><ele>1046.14</ele></trkpt><trkpt lat="47.657717" lon="13.643702"><ele>1045.85</ele></trkpt><trkpt lat="47.657753" lon="13.643865"><ele>1045.79</ele></trkpt><trkpt lat="47.657822" lon="13.644047"><ele>1045.76</ele></trkpt><trkpt lat="47.657915" lon="13.644138"><ele>1046.09</ele></trkpt><trkpt lat="47.657959" lon="13.644152"><ele>1045.98</ele><time>2021-08-03T05:28:29Z</time></trkpt></trkseg><trkseg><trkpt lat="47.657959" lon="13.644152"><ele>1045.98</ele><time>2021-08-03T05:27:05Z</time></trkpt><trkpt lat="47.658109" lon="13.644199"><ele>1045.87</ele></trkpt><trkpt lat="47.658308" lon="13.644224"><ele>1047.84</ele></trkpt><trkpt lat="47.658524" lon="13.644303"><ele>1048.8</ele></trkpt><trkpt lat="47.658759" lon="13.644459"><ele>1050.24</ele></trkpt><trkpt lat="47.659022" lon="13.64452"><ele>1053.73</ele></trkpt><trkpt lat="47.659204" lon="13.644489"><ele>1056.52</ele></trkpt><trkpt lat="47.659481" lon="13.644358"><ele>1059.54</ele></trkpt><trkpt lat="47.659649" lon="13.644254"><ele>1059.92</ele></trkpt><trkpt lat="47.659895" lon="13.644006"><ele>1062.73</ele></trkpt><trkpt lat="47.660127" lon="13.643823"><ele>1063.69</ele></trkpt><trkpt lat="47.660234" lon="13.64377"><ele>1062.97</ele></trkpt><trkpt lat="47.660355" lon="13.643764"><ele>1063.22</ele></trkpt><trkpt lat="47.660576" lon="13.64389"><ele>1070.2</ele></trkpt><trkpt lat="47.660836" lon="13.643898"><ele>1069.3</ele></trkpt><trkpt lat="47.660989" lon="13.643835"><ele>1069.29</ele><time>2021-08-03T05:28:52Z</time></trkpt></trkseg><trkseg><trkpt lat="47.660989" lon="13.643835"><ele>1069.29</ele><time>2021-08-03T05:27:05Z</time></trkpt><trkpt lat="47.661181" lon="13.643757"><ele>1069.27</ele></trkpt><trkpt lat="47.66157" lon="13.643715"><ele>1069.21</ele></trkpt><trkpt lat="47.661754" lon="13.643743"><ele>1068.67</ele></trkpt><trkpt lat="47.661919" lon="13.643827"><ele>1068.53</ele></trkpt><trkpt lat="47.662075" lon="13.643852"><ele>1067.83</ele></trkpt><trkpt lat="47.662444" lon="13.64381"><ele>1066.94</ele></trkpt><trkpt lat="47.662796" lon="13.64374"><ele>1066.56</ele></trkpt><trkpt lat="47.663042" lon="13.643608"><ele>1065.21</ele></trkpt><trkpt lat="47.663581" lon="13.64297"><ele>1062.24</ele></trkpt><trkpt lat="47.663811" lon="13.642854"><ele>1061.65</ele></trkpt><trkpt lat="47.663892" lon="13.642881"><ele>1061.25</ele></trkpt><trkpt lat="47.663919" lon="13.642985"><ele>1061.08</ele></trkpt><trkpt lat="47.663903" lon="13.643102"><ele>1060.92</ele></trkpt><trkpt lat="47.663819" lon="13.643357"><ele>1061.04</ele></trkpt><trkpt lat="47.663604" lon="13.643729"><ele>1062.65</ele></trkpt><trkpt lat="47.663372" lon="13.643931"><ele>1063.94</ele></trkpt><trkpt lat="47.663219" lon="13.644445"><ele>1066.08</ele></trkpt><trkpt lat="47.662963" lon="13.64519"><ele>1079.2</ele></trkpt><trkpt lat="47.662817" lon="13.645487"><ele>1082.63</ele><time>2021-08-03T05:30:00Z</time></trkpt></trkseg><trkseg><trkpt lat="47.662817" lon="13.645487"><ele>1082.63</ele><time>2021-08-03T05:27:05Z</time></trkpt><trkpt lat="47.662666" lon="13.645695"><ele>1084.01</ele></trkpt><trkpt lat="47.662676" lon="13.646031"><ele>1085.78</ele></trkpt><trkpt lat="47.662735" lon="13.646342"><ele>1088.16</ele></trkpt><trkpt lat="47.66274" lon="13.646542"><ele>1088.21</ele></trkpt><trkpt lat="47.6627" lon="13.646782"><ele>1088.8</ele></trkpt><trkpt lat="47.662547" lon="13.647271"><ele>1090.87</ele></trkpt><trkpt lat="47.66253" lon="13.647425"><ele>1092.52</ele></trkpt><trkpt lat="47.662615" lon="13.647619"><ele>1092.88</ele></trkpt><trkpt lat="47.662736" lon="13.647816"><ele>1094.68</ele></trkpt><trkpt lat="47.662842" lon="13.647952"><ele>1094.89</ele></trkpt><trkpt lat="47.662926" lon="13.648118"><ele>1093.76</ele></trkpt><trkpt lat="47.662992" lon="13.648488"><ele>1093.07</ele></trkpt><trkpt lat="47.663069" lon="13.649198"><ele>1088.4</ele><time>2021-08-03T05:28:34Z</time></trkpt><trkpt lat="47.662879" lon="13.649496"><ele>1083.61</ele></trkpt><trkpt lat="47.66282" lon="13.649676"><ele>1084.09</ele></trkpt><trkpt lat="47.662776" lon="13.649899"><ele>1083.7</ele></trkpt><trkpt lat="47.662746" lon="13.650271"><ele>1084.0</ele></trkpt><trkpt lat="47.662668" lon="13.650436"><ele>1083.31</ele></trkpt><trkpt lat="47.662332" lon="13.651006"><ele>1080.13</ele></trkpt><trkpt lat="47.662214" lon="13.651137"><ele>1078.56</ele></trkpt><trkpt lat="47.661849" lon="13.651342"><ele>1075.53</ele></trkpt><trkpt lat="47.661589" lon="13.651446"><ele>1072.67</ele></trkpt><trkpt lat="47.661354" lon="13.651652"><ele>1070.84</ele></trkpt><trkpt lat="47.661211" lon="13.651845"><ele>1070.35</ele></trkpt><trkpt lat="47.661118" lon="13.65201"><ele>1069.86</ele></trkpt><trkpt lat="47.66109" lon="13.65218"><ele>1069.83</ele></trkpt><trkpt lat="47.661117" lon="13.652342"><ele>1069.31</ele></trkpt><trkpt lat="47.661113" lon="13.652499"><ele>1069.32</ele></trkpt><trkpt lat="47.660991" lon="13.653111"><ele>1069.15</ele></trkpt><trkpt lat="47.660995" lon="13.653309"><ele>1069.83</ele></trkpt><trkpt lat="47.661043" lon="13.653507"><ele>1069.89</ele></trkpt><trkpt lat="47.661138" lon="13.653694"><ele>1070.6</ele></trkpt><trkpt lat="47.661533" lon="13.654005"><ele>1077.32</ele></trkpt><trkpt lat="47.661619" lon="13.654168"><ele>1076.69</ele></trkpt><trkpt lat="47.661716" lon="13.654651"><ele>1079.24</ele></trkpt><trkpt lat="47.661696" lon="13.654798"><ele>1079.84</ele></trkpt><trkpt lat="47.661442" lon="13.655429"><ele>1081.29</ele></trkpt><trkpt lat="47.66125" lon="13.655745"><ele>1085.23</ele></trkpt><trkpt lat="47.66109" lon="13.656159"><ele>1089.79</ele></trkpt><trkpt lat="47.660993" lon="13.656603"><ele>1091.62</ele></trkpt><trkpt lat="47.66093" lon="13.657188"><ele>1094.67</ele></trkpt><trkpt lat="47.660993" lon="13.657438"><ele>1096.04</ele></trkpt><trkpt lat="47.66107" lon="13.657596"><ele>1096.59</ele></trkpt><trkpt lat="47.661158" lon="13.657728"><ele>1097.12</ele></trkpt><trkpt lat="47.661192" lon="13.657859"><ele>1098.23</ele></trkpt><trkpt lat="47.661196" lon="13.658043"><ele>1098.81</ele></trkpt><trkpt lat="47.661145" lon="13.65822"><ele>1099.38</ele></trkpt><trkpt lat="47.661044" lon="13.658453"><ele>1099.95</ele></trkpt><trkpt lat="47.660972" lon="13.658705"><ele>1100.54</ele></trkpt><trkpt lat="47.660972" lon="13.658852"><ele>1100.44</ele></trkpt><trkpt lat="47.661024" lon="13.658962"><ele>1101.01</ele></trkpt><trkpt lat="47.661139" lon="13.659075"><ele>1101.53</ele></trkpt><trkpt lat="47.66133" lon="13.659165"><ele>1102.97</ele></trkpt><trkpt lat="47.66148" lon="13.65932"><ele>1104.2</ele></trkpt><trkpt lat="47.6616" lon="13.659583"><ele>1105.61</ele></trkpt><trkpt lat="47.661785" lon="13.659779"><ele>1109.79</ele></trkpt><trkpt lat="47.661954" lon="13.65987"><ele>1111.53</ele></trkpt><trkpt lat="47.662081" lon="13.660012"><ele>1113.68</ele></trkpt><trkpt lat="47.662238" lon="13.660095"><ele>1114.35</ele></trkpt><trkpt lat="47.662398" lon="13.66011"><ele>1115.06</ele></trkpt><trkpt lat="47.662526" lon="13.660075"><ele>1115.92</ele></trkpt><trkpt lat="47.662645" lon="13.660111"><ele>1117.69</ele></trkpt><trkpt lat="47.662744" lon="13.660194"><ele>1119.6</ele></trkpt><trkpt lat="47.662806" lon="13.66039"><ele>1120.11</ele></trkpt><trkpt lat="47.662779" lon="13.660565"><ele>1121.69</ele></trkpt><trkpt lat="47.662597" lon="13.660906"><ele>1120.46</ele></trkpt><trkpt lat="47.662406" lon="13.661546"><ele>1120.36</ele></trkpt><trkpt lat="47.662282" lon="13.661765"><ele>1119.65</ele></trkpt><trkpt lat="47.662192" lon="13.661984"><ele>1118.64</ele></trkpt><trkpt lat="47.662178" lon="13.662141"><ele>1116.73</ele></trkpt><trkpt lat="47.662128" lon="13.66227"><ele>1115.6</ele></trkpt><trkpt lat="47.661938" lon="13.662342"><ele>1114.09</ele></trkpt><trkpt lat="47.6618" lon="13.662427"><ele>1112.87</ele></trkpt><trkpt lat="47.661351" lon="13.662881"><ele>1110.78</ele><time>2021-08-03T05:35:41Z</time></trkpt></trkseg><trkseg><trkpt lat="47.661351" lon="13.662881"><ele>1110.78</ele><time>2021-08-03T05:27:05Z</time></trkpt><trkpt lat="47.661301" lon="13.662942"><ele>1111.04</ele></trkpt><trkpt lat="47.661235" lon="13.663092"><ele>1111.06</ele></trkpt><trkpt lat="47.661256" lon="13.663844"><ele>1111.81</ele></trkpt><trkpt lat="47.661195" lon="13.664081"><ele>1112.23</ele></trkpt><trkpt lat="47.660948" lon="13.664692"><ele>1113.78</ele></trkpt><trkpt lat="47.660875" lon="13.664759"><ele>1114.48</ele></trkpt><trkpt lat="47.660556" lon="13.66479"><ele>1112.88</ele></trkpt><trkpt lat="47.660482" lon="13.664921"><ele>1112.68</ele></trkpt><trkpt lat="47.660386" lon="13.665235"><ele>1111.35</ele></trkpt><trkpt lat="47.660272" lon="13.665467"><ele>1110.4</ele></trkpt><trkpt lat="47.66019" lon="13.665682"><ele>1109.51</ele></trkpt><trkpt lat="47.660179" lon="13.665829"><ele>1108.24</ele></trkpt><trkpt lat="47.660233" lon="13.66638"><ele>1108.07</ele></trkpt><trkpt lat="47.66023" lon="13.666627"><ele>1106.01</ele></trkpt><trkpt lat="47.660179" lon="13.666842"><ele>1106.59</ele></trkpt><trkpt lat="47.660093" lon="13.667008"><ele>1107.16</ele></trkpt><trkpt lat="47.659999" lon="13.66708"><ele>1107.2</ele></trkpt><trkpt lat="47.659457" lon="13.667294"><ele>1107.7</ele></trkpt><trkpt lat="47.659348" lon="13.667274"><ele>1107.81</ele></trkpt><trkpt lat="47.659121" lon="13.667142"><ele>1108.02</ele></trkpt><trkpt lat="47.658812" lon="13.667091"><ele>1108.28</ele></trkpt><trkpt lat="47.658707" lon="13.667025"><ele>1108.09</ele></trkpt><trkpt lat="47.658628" lon="13.666935"><ele>1108.27</ele></trkpt><trkpt lat="47.658512" lon="13.66674"><ele>1108.47</ele></trkpt><trkpt lat="47.658446" lon="13.666685"><ele>1108.54</ele></trkpt><trkpt lat="47.65836" lon="13.666673"><ele>1109.2</ele></trkpt><trkpt lat="47.657952" lon="13.66687"><ele>1116.29</ele></trkpt><trkpt lat="47.657442" lon="13.667247"><ele>1116.91</ele></trkpt><trkpt lat="47.657175" lon="13.667531"><ele>1120.2</ele></trkpt><trkpt lat="47.656874" lon="13.668073"><ele>1105.83</ele></trkpt><trkpt lat="47.656806" lon="13.668165"><ele>1106.94</ele></trkpt><trkpt lat="47.656333" lon="13.668565"><ele>1103.95</ele></trkpt><trkpt lat="47.656149" lon="13.668663"><ele>1100.23</ele></trkpt><trkpt lat="47.65605" lon="13.668683"><ele>1100.83</ele></trkpt><trkpt lat="47.655968" lon="13.668739"><ele>1100.79</ele></trkpt><trkpt lat="47.655927" lon="13.668805"><ele>1101.06</ele></trkpt><trkpt lat="47.655499" lon="13.669893"><ele>1094.9</ele></trkpt><trkpt lat="47.65551" lon="13.669989"><ele>1094.43</ele></trkpt><trkpt lat="47.655561" lon="13.670053"><ele>1093.93</ele></trkpt><trkpt lat="47.655777" lon="13.670177"><ele>1091.72</ele></trkpt><trkpt lat="47.655806" lon="13.670219"><ele>1091.49</ele></trkpt><trkpt lat="47.655879" lon="13.670461"><ele>1091.03</ele></trkpt><trkpt lat="47.655937" lon="13.670504"><ele>1091.18</ele></trkpt><trkpt lat="47.655988" lon="13.670513"><ele>1091.55</ele></trkpt><trkpt lat="47.656096" lon="13.670468"><ele>1092.06</ele></trkpt><trkpt lat="47.656246" lon="13.670357"><ele>1093.11</ele></trkpt><trkpt lat="47.656316" lon="13.670332"><ele>1094.82</ele></trkpt><trkpt lat="47.656372" lon="13.67035"><ele>1094.9</ele></trkpt><trkpt lat="47.656415" lon="13.670396"><ele>1094.98</ele></trkpt><trkpt lat="47.656448" lon="13.670494"><ele>1094.48</ele></trkpt><trkpt lat="47.656437" lon="13.670789"><ele>1090.86</ele></trkpt><trkpt lat="47.65646" lon="13.670973"><ele>1090.93</ele></trkpt><trkpt lat="47.65646" lon="13.671105"><ele>1090.93</ele></trkpt><trkpt lat="47.656424" lon="13.671213"><ele>1090.71</ele></trkpt><trkpt lat="47.65635" lon="13.671309"><ele>1090.72</ele></trkpt><trkpt lat="47.656088" lon="13.671461"><ele>1089.87</ele></trkpt><trkpt lat="47.656003" lon="13.671547"><ele>1089.9</ele></trkpt><trkpt lat="47.655786" lon="13.671946"><ele>1089.83</ele></trkpt><trkpt lat="47.655716" lon="13.672033"><ele>1089.57</ele></trkpt><trkpt lat="47.655638" lon="13.672068"><ele>1087.34</ele></trkpt><trkpt lat="47.655549" lon="13.672052"><ele>1086.26</ele></trkpt><trkpt lat="47.655402" lon="13.671795"><ele>1085.36</ele></trkpt><trkpt lat="47.655242" lon="13.671675"><ele>1084.31</ele></trkpt><trkpt lat="47.655133" lon="13.671634"><ele>1082.61</ele></trkpt><trkpt lat="47.655019" lon="13.671658"><ele>1081.35</ele></trkpt><trkpt lat="47.654801" lon="13.671799"><ele>1074.0</ele><time>2021-08-03T05:34:12Z</time></trkpt><trkpt lat="47.654771" lon="13.671788"><ele>1063.14</ele></trkpt><trkpt lat="47.65463" lon="13.671563"><ele>1063.19</ele></trkpt><trkpt lat="47.654526" lon="13.671354"><ele>1062.96</ele></trkpt><trkpt lat="47.654373" lon="13.670939"><ele>1062.52</ele></trkpt><trkpt lat="47.654291" lon="13.670603"><ele>1061.3</ele></trkpt><trkpt lat="47.654326" lon="13.670161"><ele>1060.82</ele></trkpt><trkpt lat="47.654303" lon="13.670063"><ele>1060.89</ele></trkpt><trkpt lat="47.654085" lon="13.669781"><ele>1057.92</ele><time>2021-08-03T05:35:09Z</time></trkpt></trkseg><trkseg><trkpt lat="47.654085" lon="13.669781"><ele>1057.92</ele><time>2021-08-03T05:27:05Z</time></trkpt><trkpt lat="47.653944" lon="13.66938"><ele>1057.18</ele></trkpt><trkpt lat="47.653831" lon="13.668894"><ele>1053.67</ele></trkpt><trkpt lat="47.653825" lon="13.668688"><ele>1050.6</ele></trkpt><trkpt lat="47.653739" lon="13.668206"><ele>1030.0</ele><time>2021-08-03T05:27:45Z</time></trkpt><trkpt lat="47.6537" lon="13.668057"><ele>1023.76</ele></trkpt><trkpt lat="47.653457" lon="13.667491"><ele>1023.64</ele></trkpt><trkpt lat="47.653316" lon="13.666975"><ele>1023.21</ele><time>2021-08-03T05:28:16Z</time></trkpt></trkseg><trkseg><trkpt lat="47.653316" lon="13.666975"><ele>1023.21</ele><time>2021-08-03T05:27:05Z</time></trkpt><trkpt lat="47.653272" lon="13.666886"><ele>1022.4</ele></trkpt><trkpt lat="47.653174" lon="13.666798"><ele>1022.04</ele></trkpt><trkpt lat="47.652966" lon="13.666653"><ele>1020.18</ele></trkpt><trkpt lat="47.652822" lon="13.66663"><ele>1018.4</ele></trkpt><trkpt lat="47.652184" lon="13.666867"><ele>1015.43</ele></trkpt><trkpt lat="47.651837" lon="13.667064"><ele>1015.09</ele></trkpt><trkpt lat="47.651748" lon="13.667181"><ele>1015.14</ele></trkpt><trkpt lat="47.65166" lon="13.667368"><ele>1015.81</ele></trkpt><trkpt lat="47.651588" lon="13.667474"><ele>1015.86</ele></trkpt><trkpt lat="47.65127" lon="13.667703"><ele>1017.83</ele></trkpt><trkpt lat="47.651188" lon="13.667855"><ele>1019.18</ele></trkpt><trkpt lat="47.651067" lon="13.668206"><ele>1020.68</ele></trkpt><trkpt lat="47.650972" lon="13.668347"><ele>1022.29</ele></trkpt><trkpt lat="47.650764" lon="13.668566"><ele>1025.41</ele><time>2021-08-03T05:28:49Z</time></trkpt></trkseg><trkseg><trkpt lat="47.650764" lon="13.668566"><ele>1025.41</ele><time>2021-08-03T05:27:05Z</time></trkpt><trkpt lat="47.650339" lon="13.669011"><ele>1028.54</ele></trkpt><trkpt lat="47.650214" lon="13.669219"><ele>1031.59</ele></trkpt><trkpt lat="47.650128" lon="13.669445"><ele>1032.99</ele></trkpt><trkpt lat="47.649886" lon="13.670546"><ele>1031.73</ele></trkpt><trkpt lat="47.649829" lon="13.670736"><ele>1031.51</ele></trkpt><trkpt lat="47.649624" lon="13.671157"><ele>1042.18</ele></trkpt><trkpt lat="47.649523" lon="13.671294"><ele>1042.46</ele></trkpt><trkpt lat="47.649117" lon="13.671493"><ele>1037.51</ele></trkpt><trkpt lat="47.648836" lon="13.671687"><ele>1038.06</ele></trkpt><trkpt lat="47.648712" lon="13.671823"><ele>1038.57</ele></trkpt><trkpt lat="47.648464" lon="13.672263"><ele>1037.14</ele></trkpt><trkpt lat="47.648258" lon="13.672384"><ele>1016.0</ele><time>2021-08-03T05:29:18Z</time></trkpt><trkpt lat="47.648189" lon="13.672431"><ele>1022.24</ele><time>2021-08-03T05:29:21Z</time></trkpt></trkseg><trkseg><trkpt lat="47.648189" lon="13.672431"><ele>1022.24</ele><time>2021-08-03T05:27:05Z</time></trkpt><trkpt lat="47.647931" lon="13.672653"><ele>1029.13</ele></trkpt><trkpt lat="47.647765" lon="13.672739"><ele>1029.38</ele></trkpt><trkpt lat="47.647686" lon="13.672898"><ele>1029.55</ele></trkpt><trkpt lat="47.647644" lon="13.673058"><ele>1029.67</ele></trkpt><trkpt lat="47.647633" lon="13.673196"><ele>1029.72</ele></trkpt><trkpt lat="47.647659" lon="13.673399"><ele>1030.53</ele></trkpt><trkpt lat="47.647648" lon="13.673549"><ele>1031.04</ele></trkpt><trkpt lat="47.64758" lon="13.673672"><ele>1031.44</ele></trkpt><trkpt lat="47.64743" lon="13.673716"><ele>1031.13</ele></trkpt><trkpt lat="47.647292" lon="13.673677"><ele>1030.61</ele></trkpt><trkpt lat="47.647135" lon="13.673675"><ele>1029.89</ele></trkpt><trkpt lat="47.647026" lon="13.673792"><ele>1029.97</ele></trkpt><trkpt lat="47.646934" lon="13.673933"><ele>1029.04</ele></trkpt><trkpt lat="47.646829" lon="13.674186"><ele>1028.37</ele></trkpt><trkpt lat="47.646773" lon="13.674434"><ele>1027.81</ele></trkpt><trkpt lat="47.646764" lon="13.674727"><ele>1026.76</ele></trkpt><trkpt lat="47.646798" lon="13.675258"><ele>1024.29</ele></trkpt><trkpt lat="47.646791" lon="13.675424"><ele>1021.93</ele></trkpt><trkpt lat="47.646715" lon="13.67578"><ele>1023.42</ele></trkpt><trkpt lat="47.646639" lon="13.675975"><ele>1022.89</ele></trkpt><trkpt lat="47.646456" lon="13.676209"><ele>1020.02</ele></trkpt><trkpt lat="47.646251" lon="13.676519"><ele>1016.47</ele></trkpt><trkpt lat="47.646133" lon="13.67657"><ele>1013.49</ele></trkpt><trkpt lat="47.645885" lon="13.676584"><ele>1008.81</ele></trkpt><trkpt lat="47.645688" lon="13.676561"><ele>1005.54</ele></trkpt><trkpt lat="47.645457" lon="13.676393"><ele>999.52</ele></trkpt><trkpt lat="47.645113" lon="13.67621"><ele>994.36</ele></trkpt><trkpt lat="47.645085" lon="13.676172"><ele>991.99</ele><time>2021-08-03T05:29:57Z</time></trkpt></trkseg><trkseg><trkpt lat="47.645085" lon="13.676172"><ele>991.99</ele><time>2021-08-03T05:27:05Z</time></trkpt><trkpt lat="47.644993" lon="13.676051"><ele>989.62</ele></trkpt><trkpt lat="47.644873" lon="13.675377"><ele>958.13</ele></trkpt><trkpt lat="47.644792" lon="13.675208"><ele>958.84</ele></trkpt><trkpt lat="47.643734" lon="13.674443"><ele>950.54</ele></trkpt><trkpt lat="47.643338" lon="13.674294"><ele>947.76</ele><time>2021-08-03T05:28:10Z</time></trkpt></trkseg><trkseg><trkpt lat="47.643338" lon="13.674294"><ele>947.76</ele><time>2021-08-03T05:27:05Z</time></trkpt><trkpt lat="47.642523" lon="13.67328"><ele>935.8</ele></trkpt><trkpt lat="47.642328" lon="13.673076"><ele>925.42</ele></trkpt><trkpt lat="47.642118" lon="13.673026"><ele>925.62</ele></trkpt><trkpt lat="47.64182" lon="13.673009"><ele>924.36</ele></trkpt><trkpt lat="47.641705" lon="13.67296"><ele>924.62</ele></trkpt><trkpt lat="47.64166" lon="13.672889"><ele>923.81</ele></trkpt><trkpt lat="47.641501" lon="13.672267"><ele>922.82</ele></trkpt><trkpt lat="47.641465" lon="13.67199"><ele>920.91</ele></trkpt><trkpt lat="47.641408" lon="13.671276"><ele>903.8</ele><time>2021-08-03T05:28:25Z</time></trkpt><trkpt lat="47.6412" lon="13.670595"><ele>894.31</ele></trkpt><trkpt lat="47.64098" lon="13.669752"><ele>893.25</ele></trkpt><trkpt lat="47.640912" lon="13.668907"><ele>883.8</ele><time>2021-08-03T05:29:07Z</time></trkpt><trkpt lat="47.640858" lon="13.668805"><ele>877.28</ele></trkpt><trkpt lat="47.640656" lon="13.668227"><ele>874.34</ele></trkpt><trkpt lat="47.640401" lon="13.667891"><ele>872.44</ele></trkpt><trkpt lat="47.640113" lon="13.667667"><ele>872.37</ele></trkpt><trkpt lat="47.639693" lon="13.667164"><ele>861.22</ele></trkpt><trkpt lat="47.639274" lon="13.666828"><ele>859.72</ele></trkpt><trkpt lat="47.638646" lon="13.666425"><ele>852.84</ele></trkpt><trkpt lat="47.638187" lon="13.666082"><ele>844.87</ele><time>2021-08-03T05:30:33Z</time></trkpt></trkseg><trkseg><trkpt lat="47.638187" lon="13.666082"><ele>844.87</ele><time>2021-08-03T05:27:05Z</time></trkpt><trkpt lat="47.637947" lon="13.666087"><ele>838.2</ele><time>2021-08-03T05:27:11Z</time></trkpt><trkpt lat="47.637895" lon="13.666364"><ele>840.32</ele></trkpt><trkpt lat="47.637894" lon="13.666587"><ele>840.49</ele></trkpt><trkpt lat="47.637921" lon="13.666913"><ele>842.92</ele></trkpt><trkpt lat="47.638039" lon="13.667398"><ele>843.84</ele></trkpt><trkpt lat="47.638227" lon="13.667603"><ele>844.87</ele></trkpt><trkpt lat="47.638293" lon="13.667714"><ele>845.54</ele></trkpt><trkpt lat="47.638358" lon="13.668081"><ele>846.46</ele></trkpt><trkpt lat="47.638456" lon="13.668459"><ele>846.63</ele></trkpt><trkpt lat="47.638524" lon="13.669022"><ele>856.4</ele></trkpt><trkpt lat="47.638604" lon="13.669526"><ele>856.27</ele></trkpt><trkpt lat="47.638761" lon="13.669874"><ele>855.6</ele></trkpt><trkpt lat="47.638782" lon="13.669981"><ele>854.93</ele></trkpt><trkpt lat="47.638778" lon="13.670114"><ele>853.6</ele><time>2021-08-03T05:28:17Z</time></trkpt><trkpt lat="47.638698" lon="13.670452"><ele>856.8</ele></trkpt><trkpt lat="47.638664" lon="13.670734"><ele>857.87</ele></trkpt><trkpt lat="47.638644" lon="13.671051"><ele>858.24</ele></trkpt><trkpt lat="47.638651" lon="13.671139"><ele>858.35</ele></trkpt><trkpt lat="47.63867" lon="13.67122"><ele>858.46</ele></trkpt><trkpt lat="47.638825" lon="13.671579"><ele>858.96</ele></trkpt><trkpt lat="47.638882" lon="13.671851"><ele>859.09</ele></trkpt><trkpt lat="47.639029" lon="13.672314"><ele>859.1</ele></trkpt><trkpt lat="47.63901" lon="13.6724"><ele>859.2</ele></trkpt><trkpt lat="47.638959" lon="13.672455"><ele>859.06</ele></trkpt><trkpt lat="47.6389" lon="13.67245"><ele>859.15</ele></trkpt><trkpt lat="47.638705" lon="13.67237"><ele>860.85</ele></trkpt><trkpt lat="47.638417" lon="13.672349"><ele>862.7</ele></trkpt><trkpt lat="47.638107" lon="13.672373"><ele>863.43</ele></trkpt><trkpt lat="47.638026" lon="13.672411"><ele>864.41</ele></trkpt><trkpt lat="47.637957" lon="13.672481"><ele>864.92</ele></trkpt><trkpt lat="47.6379" lon="13.672612"><ele>866.02</ele></trkpt><trkpt lat="47.637778" lon="13.673112"><ele>870.8</ele></trkpt><trkpt lat="47.63767" lon="13.673416"><ele>875.05</ele></trkpt><trkpt lat="47.637643" lon="13.673554"><ele>875.55</ele></trkpt><trkpt lat="47.637658" lon="13.673693"><ele>876.77</ele></trkpt><trkpt lat="47.637719" lon="13.673886"><ele>877.38</ele></trkpt><trkpt lat="47.637735" lon="13.67403"><ele>878.51</ele></trkpt><trkpt lat="47.637695" lon="13.674345"><ele>879.56</ele></trkpt><trkpt lat="47.637676" lon="13.674673"><ele>883.67</ele></trkpt><trkpt lat="47.637703" lon="13.675243"><ele>890.53</ele></trkpt><trkpt lat="47.637698" lon="13.675567"><ele>893.57</ele></trkpt><trkpt lat="47.637589" lon="13.676799"><ele>906.92</ele></trkpt><trkpt lat="47.637613" lon="13.676958"><ele>907.73</ele></trkpt><trkpt lat="47.637678" lon="13.677132"><ele>908.43</ele></trkpt><trkpt lat="47.638033" lon="13.677653"><ele>911.34</ele></trkpt><trkpt lat="47.638064" lon="13.677737"><ele>911.5</ele></trkpt><trkpt lat="47.638076" lon="13.677823"><ele>911.9</ele></trkpt><trkpt lat="47.63805" lon="13.678056"><ele>912.23</ele></trkpt><trkpt lat="47.638067" lon="13.678292"><ele>912.86</ele></trkpt><trkpt lat="47.638184" lon="13.678686"><ele>914.28</ele></trkpt><trkpt lat="47.638218" lon="13.678982"><ele>915.2</ele></trkpt><trkpt lat="47.638195" lon="13.679513"><ele>915.43</ele></trkpt><trkpt lat="47.638062" lon="13.680245"><ele>916.44</ele></trkpt><trkpt lat="47.638027" lon="13.680518"><ele>932.94</ele></trkpt><trkpt lat="47.638027" lon="13.680685"><ele>933.84</ele></trkpt><trkpt lat="47.638051" lon="13.680842"><ele>934.84</ele></trkpt><trkpt lat="47.638222" lon="13.681312"><ele>936.59</ele></trkpt><trkpt lat="47.638248" lon="13.681779"><ele>938.33</ele></trkpt><trkpt lat="47.6383" lon="13.682041"><ele>939.25</ele></trkpt><trkpt lat="47.638787" lon="13.683173"><ele>945.99</ele></trkpt><trkpt lat="47.639091" lon="13.683766"><ele>954.56</ele></trkpt><trkpt lat="47.639136" lon="13.683912"><ele>957.06</ele></trkpt><trkpt lat="47.639166" lon="13.684085"><ele>959.73</ele></trkpt><trkpt lat="47.639282" lon="13.68514"><ele>965.72</ele></trkpt><trkpt lat="47.639394" lon="13.685791"><ele>968.8</ele></trkpt><trkpt lat="47.639399" lon="13.685963"><ele>969.44</ele></trkpt><trkpt lat="47.639331" lon="13.686576"><ele>971.03</ele></trkpt><trkpt lat="47.639319" lon="13.686841"><ele>971.42</ele></trkpt><trkpt lat="47.639411" lon="13.687169"><ele>972.94</ele></trkpt><trkpt lat="47.639462" lon="13.687295"><ele>974.07</ele></trkpt><trkpt lat="47.639549" lon="13.687442"><ele>975.19</ele></trkpt><trkpt lat="47.639837" lon="13.68759"><ele>977.76</ele></trkpt><trkpt lat="47.639909" lon="13.687651"><ele>979.25</ele></trkpt><trkpt lat="47.640277" lon="13.688463"><ele>988.73</ele></trkpt><trkpt lat="47.640356" lon="13.688605"><ele>990.25</ele></trkpt><trkpt lat="47.64043" lon="13.688686"><ele>990.79</ele><time>2021-08-03T05:35:25Z</time></trkpt></trkseg><trkseg><trkpt lat="47.64043" lon="13.688686"><ele>990.79</ele><time>2021-08-03T05:27:05Z</time></trkpt><trkpt lat="47.640667" lon="13.688848"><ele>994.57</ele></trkpt><trkpt lat="47.640752" lon="13.68893"><ele>996.23</ele></trkpt><trkpt lat="47.640796" lon="13.689014"><ele>998.56</ele></trkpt><trkpt lat="47.640849" lon="13.689301"><ele>1001.18</ele></trkpt><trkpt lat="47.640905" lon="13.689437"><ele>1001.54</ele></trkpt><trkpt lat="47.641038" lon="13.689629"><ele>1001.69</ele></trkpt><trkpt lat="47.641255" lon="13.689816"><ele>1001.06</ele></trkpt><trkpt lat="47.641317" lon="13.689905"><ele>1001.56</ele></trkpt><trkpt lat="47.641354" lon="13.690013"><ele>1001.72</ele></trkpt><trkpt lat="47.641404" lon="13.690491"><ele>1003.12</ele></trkpt><trkpt lat="47.641402" lon="13.69066"><ele>1003.42</ele></trkpt><trkpt lat="47.641367" lon="13.690757"><ele>1003.45</ele></trkpt><trkpt lat="47.641331" lon="13.690796"><ele>1003.83</ele></trkpt><trkpt lat="47.64122" lon="13.690867"><ele>1003.74</ele></trkpt><trkpt lat="47.641124" lon="13.690948"><ele>1003.88</ele></trkpt><trkpt lat="47.64109" lon="13.691"><ele>1004.2</ele></trkpt><trkpt lat="47.641065" lon="13.691066"><ele>1004.25</ele></trkpt><trkpt lat="47.641015" lon="13.691359"><ele>1004.28</ele></trkpt><trkpt lat="47.640977" lon="13.692008"><ele>1005.67</ele></trkpt><trkpt lat="47.64096" lon="13.692859"><ele>1006.16</ele></trkpt><trkpt lat="47.640981" lon="13.692975"><ele>1011.6</ele><time>2021-08-03T05:28:47Z</time></trkpt><trkpt lat="47.64115" lon="13.693402"><ele>1015.59</ele></trkpt><trkpt lat="47.641237" lon="13.693529"><ele>1016.13</ele></trkpt><trkpt lat="47.641342" lon="13.693638"><ele>1016.7</ele></trkpt><trkpt lat="47.641548" lon="13.693709"><ele>1017.33</ele></trkpt><trkpt lat="47.64177" lon="13.693747"><ele>1018.01</ele></trkpt><trkpt lat="47.641985" lon="13.693817"><ele>1017.69</ele></trkpt><trkpt lat="47.642209" lon="13.693807"><ele>1017.47</ele></trkpt><trkpt lat="47.642297" lon="13.693836"><ele>1021.8</ele></trkpt><trkpt lat="47.642366" lon="13.693942"><ele>1023.35</ele></trkpt><trkpt lat="47.642439" lon="13.694132"><ele>1023.56</ele></trkpt><trkpt lat="47.642532" lon="13.694292"><ele>1024.22</ele></trkpt><trkpt lat="47.642721" lon="13.6944"><ele>1024.15</ele></trkpt><trkpt lat="47.642859" lon="13.694444"><ele>1024.14</ele><time>2021-08-03T05:29:52Z</time></trkpt></trkseg><trkseg><trkpt lat="47.642859" lon="13.694444"><ele>1024.14</ele><time>2021-08-03T05:27:05Z</time></trkpt><trkpt lat="47.64299" lon="13.694526"><ele>1024.08</ele></trkpt><trkpt lat="47.643045" lon="13.694605"><ele>1024.01</ele></trkpt><trkpt lat="47.643042" lon="13.694707"><ele>1023.94</ele></trkpt><trkpt lat="47.642945" lon="13.694956"><ele>1023.9</ele></trkpt><trkpt lat="47.642888" lon="13.695175"><ele>1023.89</ele></trkpt><trkpt lat="47.642888" lon="13.695436"><ele>1023.98</ele></trkpt><trkpt lat="47.642927" lon="13.695854"><ele>1024.17</ele></trkpt><trkpt lat="47.64292" lon="13.69593"><ele>1024.17</ele></trkpt><trkpt lat="47.64289" lon="13.696013"><ele>1024.17</ele></trkpt><trkpt lat="47.642839" lon="13.696082"><ele>1024.19</ele></trkpt><trkpt lat="47.642673" lon="13.696241"><ele>1024.2</ele></trkpt><trkpt lat="47.64263" lon="13.696304"><ele>1024.2</ele></trkpt><trkpt lat="47.6426" lon="13.696517"><ele>1024.22</ele></trkpt><trkpt lat="47.642675" lon="13.696913"><ele>1024.25</ele></trkpt><trkpt lat="47.642768" lon="13.697167"><ele>1024.24</ele></trkpt><trkpt lat="47.642983" lon="13.697496"><ele>1024.15</ele></trkpt><trkpt lat="47.643038" lon="13.69762"><ele>1024.11</ele></trkpt><trkpt lat="47.643051" lon="13.697689"><ele>1024.11</ele></trkpt><trkpt lat="47.643041" lon="13.697833"><ele>1024.09</ele></trkpt><trkpt lat="47.64298" lon="13.698038"><ele>1024.06</ele></trkpt><trkpt lat="47.642953" lon="13.698186"><ele>1024.04</ele></trkpt><trkpt lat="47.642956" lon="13.6985"><ele>1023.96</ele></trkpt><trkpt lat="47.643082" lon="13.698917"><ele>1023.8</ele></trkpt><trkpt lat="47.643072" lon="13.699196"><ele>1024.63</ele></trkpt><trkpt lat="47.643082" lon="13.699328"><ele>1024.7</ele></trkpt><trkpt lat="47.643177" lon="13.699612"><ele>1025.74</ele></trkpt><trkpt lat="47.643235" lon="13.699921"><ele>1028.25</ele></trkpt><trkpt lat="47.643259" lon="13.700612"><ele>1030.04</ele></trkpt><trkpt lat="47.643294" lon="13.700811"><ele>1031.28</ele></trkpt><trkpt lat="47.643358" lon="13.701006"><ele>1032.35</ele></trkpt><trkpt lat="47.643461" lon="13.701426"><ele>1034.67</ele></trkpt><trkpt lat="47.643483" lon="13.701569"><ele>1034.22</ele></trkpt><trkpt lat="47.643476" lon="13.701725"><ele>1047.2</ele><time>2021-08-03T05:29:42Z</time></trkpt><trkpt lat="47.643305" lon="13.70203"><ele>1029.93</ele></trkpt><trkpt lat="47.643304" lon="13.702366"><ele>1016.4</ele></trkpt><trkpt lat="47.643241" lon="13.702639"><ele>1017.64</ele></trkpt><trkpt lat="47.643222" lon="13.703122"><ele>1018.2</ele></trkpt><trkpt lat="47.64316" lon="13.70331"><ele>1016.16</ele></trkpt><trkpt lat="47.643072" lon="13.703373"><ele>1016.84</ele></trkpt><trkpt lat="47.642587" lon="13.703548"><ele>1018.59</ele></trkpt><trkpt lat="47.642426" lon="13.703641"><ele>1017.65</ele></trkpt><trkpt lat="47.642353" lon="13.703741"><ele>1016.78</ele></trkpt><trkpt lat="47.642294" lon="13.703888"><ele>1015.98</ele></trkpt><trkpt lat="47.642232" lon="13.703962"><ele>1015.25</ele></trkpt><trkpt lat="47.642157" lon="13.703981"><ele>1014.57</ele></trkpt><trkpt lat="47.642127" lon="13.70402"><ele>1006.4</ele><time>2021-08-03T05:33:54Z</time></trkpt><trkpt lat="47.642159" lon="13.7041"><ele>1016.78</ele><time>2021-08-03T05:33:58Z</time></trkpt></trkseg><trkseg><trkpt lat="47.642159" lon="13.7041"><ele>1016.78</ele><time>2021-08-03T05:27:05Z</time></trkpt><trkpt lat="47.64227" lon="13.704565"><ele>1018.24</ele></trkpt><trkpt lat="47.642291" lon="13.704753"><ele>1018.59</ele></trkpt><trkpt lat="47.642275" lon="13.704987"><ele>1017.95</ele></trkpt><trkpt lat="47.642234" lon="13.70519"><ele>1018.25</ele></trkpt><trkpt lat="47.64201" lon="13.705707"><ele>1016.67</ele></trkpt><trkpt lat="47.641699" lon="13.706233"><ele>1015.93</ele></trkpt><trkpt lat="47.64153" lon="13.70656"><ele>1014.6</ele></trkpt><trkpt lat="47.641437" lon="13.706806"><ele>1014.97</ele></trkpt><trkpt lat="47.641355" lon="13.707083"><ele>1015.28</ele></trkpt><trkpt lat="47.641281" lon="13.707407"><ele>1015.47</ele></trkpt><trkpt lat="47.641247" lon="13.707746"><ele>1016.0</ele></trkpt><trkpt lat="47.641247" lon="13.708159"><ele>1015.99</ele></trkpt><trkpt lat="47.641276" lon="13.708579"><ele>1016.71</ele></trkpt><trkpt lat="47.641246" lon="13.708872"><ele>1015.27</ele></trkpt><trkpt lat="47.641036" lon="13.709679"><ele>1012.46</ele></trkpt><trkpt lat="47.640844" lon="13.710155"><ele>1010.73</ele></trkpt><trkpt lat="47.640747" lon="13.710477"><ele>1008.78</ele></trkpt><trkpt lat="47.640601" lon="13.711205"><ele>1007.7</ele></trkpt><trkpt lat="47.640594" lon="13.711486"><ele>1007.72</ele></trkpt><trkpt lat="47.640646" lon="13.71248"><ele>1014.97</ele></trkpt><trkpt lat="47.640685" lon="13.712805"><ele>1015.97</ele></trkpt><trkpt lat="47.640829" lon="13.713543"><ele>1020.68</ele></trkpt><trkpt lat="47.641101" lon="13.714332"><ele>1039.8</ele><time>2021-08-03T05:31:15Z</time></trkpt><trkpt lat="47.641282" lon="13.714785"><ele>1042.95</ele></trkpt><trkpt lat="47.641355" lon="13.715205"><ele>1044.39</ele></trkpt><trkpt lat="47.641422" lon="13.716109"><ele>1056.86</ele></trkpt><trkpt lat="47.641466" lon="13.716376"><ele>1062.03</ele></trkpt><trkpt lat="47.641611" lon="13.716742"><ele>1068.99</ele></trkpt><trkpt lat="47.641809" lon="13.717412"><ele>1077.49</ele></trkpt><trkpt lat="47.641868" lon="13.717751"><ele>1078.49</ele></trkpt><trkpt lat="47.641883" lon="13.71793"><ele>1077.09</ele></trkpt><trkpt lat="47.641822" lon="13.718354"><ele>1078.28</ele></trkpt><trkpt lat="47.641805" lon="13.718754"><ele>1084.0</ele><time>2021-08-03T05:33:01Z</time></trkpt><trkpt lat="47.64168" lon="13.718724"><ele>1056.16</ele></trkpt><trkpt lat="47.6416" lon="13.718651"><ele>1052.25</ele></trkpt><trkpt lat="47.641534" lon="13.718489"><ele>1051.66</ele></trkpt><trkpt lat="47.641494" lon="13.718225"><ele>1051.32</ele><time>2021-08-03T05:34:10Z</time></trkpt></trkseg><trkseg><trkpt lat="47.641494" lon="13.718225"><ele>1051.32</ele><time>2021-08-03T05:27:05Z</time></trkpt><trkpt lat="47.64137" lon="13.717619"><ele>1051.39</ele></trkpt><trkpt lat="47.641255" lon="13.717198"><ele>1051.56</ele></trkpt><trkpt lat="47.641192" lon="13.717022"><ele>1051.74</ele></trkpt><trkpt lat="47.641051" lon="13.716829"><ele>1049.49</ele></trkpt><trkpt lat="47.641028" lon="13.716642"><ele>1049.47</ele></trkpt><trkpt lat="47.640984" lon="13.71658"><ele>1049.57</ele></trkpt><trkpt lat="47.640881" lon="13.716526"><ele>1046.0</ele><time>2021-08-03T05:29:21Z</time></trkpt><trkpt lat="47.640837" lon="13.716371"><ele>1038.12</ele></trkpt><trkpt lat="47.6408" lon="13.716308"><ele>1020.8</ele><time>2021-08-03T05:29:42Z</time></trkpt><trkpt lat="47.640689" lon="13.716164"><ele>1015.33</ele></trkpt><trkpt lat="47.640373" lon="13.715894"><ele>1014.29</ele></trkpt><trkpt lat="47.6401" lon="13.715757"><ele>1013.69</ele></trkpt><trkpt lat="47.64006" lon="13.715753"><ele>1013.16</ele></trkpt><trkpt lat="47.639951" lon="13.715822"><ele>1011.93</ele></trkpt><trkpt lat="47.639718" lon="13.716082"><ele>1012.62</ele><time>2021-08-03T05:31:06Z</time></trkpt></trkseg><trkseg><trkpt lat="47.639718" lon="13.716082"><ele>1012.62</ele><time>2021-08-03T05:27:05Z</time></trkpt><trkpt lat="47.639432" lon="13.716503"><ele>1006.4</ele></trkpt><trkpt lat="47.639362" lon="13.71666"><ele>992.55</ele></trkpt><trkpt lat="47.639314" lon="13.716826"><ele>991.18</ele></trkpt><trkpt lat="47.639252" lon="13.717186"><ele>989.13</ele></trkpt><trkpt lat="47.639138" lon="13.717481"><ele>988.2</ele></trkpt><trkpt lat="47.639066" lon="13.717746"><ele>988.17</ele></trkpt><trkpt lat="47.639026" lon="13.718012"><ele>988.61</ele></trkpt><trkpt lat="47.638972" lon="13.718176"><ele>988.95</ele></trkpt><trkpt lat="47.638923" lon="13.718246"><ele>989.14</ele></trkpt><trkpt lat="47.638519" lon="13.71838"><ele>988.32</ele></trkpt><trkpt lat="47.638453" lon="13.71843"><ele>986.46</ele><time>2021-08-03T05:29:35Z</time></trkpt></trkseg><trkseg><trkpt lat="47.638453" lon="13.71843"><ele>986.46</ele><time>2021-08-03T05:27:05Z</time></trkpt><trkpt lat="47.638413" lon="13.71846"><ele>984.6</ele><time>2021-08-03T05:27:08Z</time></trkpt><trkpt lat="47.638427" lon="13.719162"><ele>983.32</ele></trkpt><trkpt lat="47.638399" lon="13.719577"><ele>983.28</ele></trkpt><trkpt lat="47.638334" lon="13.719937"><ele>982.2</ele></trkpt><trkpt lat="47.638212" lon="13.720443"><ele>944.54</ele></trkpt><trkpt lat="47.638191" lon="13.720558"><ele>944.15</ele></trkpt><trkpt lat="47.638179" lon="13.720807"><ele>946.59</ele></trkpt><trkpt lat="47.638297" lon="13.721654"><ele>947.69</ele></trkpt><trkpt lat="47.638372" lon="13.723055"><ele>963.2</ele></trkpt><trkpt lat="47.638384" lon="13.723985"><ele>953.41</ele></trkpt><trkpt lat="47.638339" lon="13.72449"><ele>951.99</ele></trkpt><trkpt lat="47.638231" lon="13.725232"><ele>929.43</ele></trkpt><trkpt lat="47.638195" lon="13.725321"><ele>929.43</ele></trkpt><trkpt lat="47.638141" lon="13.725368"><ele>929.42</ele><time>2021-08-03T05:29:59Z</time></trkpt></trkseg><trkseg><trkpt lat="47.638141" lon="13.725368"><ele>929.42</ele><time>2021-08-03T05:27:05Z</time></trkpt><trkpt lat="47.638134" lon="13.725369"><ele>929.4</ele><time>2021-08-03T05:27:05Z</time></trkpt><trkpt lat="47.638099" lon="13.725692"><ele>928.81</ele></trkpt><trkpt lat="47.638091" lon="13.726317"><ele>928.46</ele></trkpt><trkpt lat="47.638115" lon="13.727339"><ele>927.92</ele></trkpt><trkpt lat="47.638111" lon="13.728914"><ele>926.69</ele></trkpt><trkpt lat="47.638083" lon="13.729344"><ele>926.49</ele></trkpt><trkpt lat="47.637981" lon="13.729974"><ele>926.55</ele><time>2021-08-03T05:28:49Z</time></trkpt></trkseg><trkseg><trkpt lat="47.637981" lon="13.729974"><ele>926.55</ele><time>2021-08-03T05:27:05Z</time></trkpt><trkpt lat="47.637776" lon="13.731178"><ele>931.68</ele></trkpt><trkpt lat="47.637642" lon="13.73178"><ele>930.27</ele></trkpt><trkpt lat="47.637518" lon="13.732247"><ele>929.19</ele></trkpt><trkpt lat="47.637285" lon="13.733006"><ele>928.19</ele></trkpt><trkpt lat="47.637184" lon="13.73329"><ele>928.05</ele></trkpt><trkpt lat="47.637092" lon="13.733462"><ele>927.2</ele><time>2021-08-03T05:28:29Z</time></trkpt><trkpt lat="47.637078" lon="13.733461"><ele>925.39</ele><time>2021-08-03T05:28:30Z</time></trkpt></trkseg><trkseg><trkpt lat="47.637078" lon="13.733461"><ele>925.39</ele><time>2021-08-03T05:27:05Z</time></trkpt><trkpt lat="47.637092" lon="13.733462"><ele>927.2</ele><time>2021-08-03T05:27:06Z</time></trkpt><trkpt lat="47.636981" lon="13.733743"><ele>927.2</ele></trkpt><trkpt lat="47.636926" lon="13.734057"><ele>927.2</ele></trkpt><trkpt lat="47.636919" lon="13.734317"><ele>927.2</ele></trkpt><trkpt lat="47.636975" lon="13.734782"><ele>927.2</ele></trkpt><trkpt lat="47.637025" lon="13.735053"><ele>927.2</ele></trkpt><trkpt lat="47.637139" lon="13.735462"><ele>927.2</ele><time>2021-08-03T05:27:53Z</time></trkpt><trkpt lat="47.637262" lon="13.735583"><ele>934.69</ele></trkpt><trkpt lat="47.6375" lon="13.735684"><ele>936.19</ele></trkpt><trkpt lat="47.637679" lon="13.735848"><ele>935.76</ele></trkpt><trkpt lat="47.637758" lon="13.736056"><ele>935.59</ele></trkpt><trkpt lat="47.637782" lon="13.73627"><ele>935.63</ele></trkpt><trkpt lat="47.637769" lon="13.736633"><ele>936.46</ele><time>2021-08-03T05:28:33Z</time></trkpt></trkseg><trkseg><trkpt lat="47.637769" lon="13.736633"><ele>936.46</ele><time>2021-08-03T05:27:05Z</time></trkpt><trkpt lat="47.637744" lon="13.737354"><ele>937.29</ele></trkpt><trkpt lat="47.637784" lon="13.738109"><ele>938.83</ele></trkpt><trkpt lat="47.637841" lon="13.738516"><ele>939.47</ele></trkpt><trkpt lat="47.637877" lon="13.739085"><ele>939.29</ele></trkpt><trkpt lat="47.637966" lon="13.739359"><ele>940.8</ele><time>2021-08-03T05:28:08Z</time></trkpt><trkpt lat="47.638031" lon="13.739515"><ele>938.63</ele></trkpt><trkpt lat="47.63815" lon="13.7399"><ele>938.95</ele></trkpt><trkpt lat="47.63821" lon="13.740156"><ele>938.85</ele></trkpt><trkpt lat="47.638236" lon="13.740342"><ele>938.98</ele><time>2021-08-03T05:28:32Z</time></trkpt></trkseg><trkseg><trkpt lat="47.638236" lon="13.740342"><ele>938.98</ele><time>2021-08-03T05:27:05Z</time></trkpt><trkpt lat="47.63826" lon="13.740512"><ele>939.1</ele></trkpt><trkpt lat="47.638258" lon="13.740961"><ele>939.74</ele></trkpt><trkpt lat="47.638356" lon="13.741335"><ele>941.45</ele></trkpt><trkpt lat="47.638373" lon="13.741451"><ele>940.64</ele></trkpt><trkpt lat="47.638382" lon="13.741858"><ele>944.07</ele></trkpt><trkpt lat="47.638516" lon="13.742342"><ele>928.54</ele></trkpt><trkpt lat="47.638506" lon="13.74255"><ele>927.21</ele></trkpt><trkpt lat="47.638475" lon="13.742744"><ele>926.29</ele></trkpt><trkpt lat="47.638313" lon="13.743303"><ele>924.17</ele></trkpt><trkpt lat="47.638208" lon="13.743739"><ele>923.95</ele></trkpt><trkpt lat="47.638166" lon="13.744064"><ele>925.12</ele></trkpt><trkpt lat="47.638193" lon="13.744369"><ele>911.0</ele></trkpt><trkpt lat="47.638226" lon="13.744508"><ele>911.0</ele><time>2021-08-03T05:28:39Z</time></trkpt><trkpt lat="47.638254" lon="13.744754"><ele>911.0</ele></trkpt><trkpt lat="47.638244" lon="13.744818"><ele>911.0</ele></trkpt><trkpt lat="47.638164" lon="13.74501"><ele>906.45</ele><time>2021-08-03T05:28:55Z</time></trkpt></trkseg><trkseg><trkpt lat="47.638164" lon="13.74501"><ele>906.45</ele><time>2021-08-03T05:27:05Z</time></trkpt><trkpt lat="47.638015" lon="13.74533"><ele>900.18</ele></trkpt><trkpt lat="47.637963" lon="13.745521"><ele>898.92</ele></trkpt><trkpt lat="47.637805" lon="13.746228"><ele>895.65</ele></trkpt><trkpt lat="47.637658" lon="13.747048"><ele>888.43</ele></trkpt><trkpt lat="47.637557" lon="13.747389"><ele>885.52</ele></trkpt><trkpt lat="47.637448" lon="13.747948"><ele>880.99</ele></trkpt><trkpt lat="47.637366" lon="13.748212"><ele>879.98</ele></trkpt><trkpt lat="47.637288" lon="13.748396"><ele>861.4</ele></trkpt><trkpt lat="47.637147" lon="13.748561"><ele>861.4</ele><time>2021-08-03T05:29:23Z</time></trkpt></trkseg><trkseg><trkpt lat="47.637147" lon="13.748561"><ele>861.4</ele><time>2021-08-03T05:27:05Z</time></trkpt><trkpt lat="47.636961" lon="13.74884"><ele>849.25</ele></trkpt><trkpt lat="47.636896" lon="13.749004"><ele>845.82</ele></trkpt><trkpt lat="47.636849" lon="13.749224"><ele>843.93</ele></trkpt><trkpt lat="47.636769" lon="13.749749"><ele>840.26</ele></trkpt><trkpt lat="47.636651" lon="13.750047"><ele>839.21</ele></trkpt><trkpt lat="47.636498" lon="13.750355"><ele>839.07</ele></trkpt><trkpt lat="47.636226" lon="13.751327"><ele>814.09</ele></trkpt><trkpt lat="47.636154" lon="13.751528"><ele>813.5</ele></trkpt><trkpt lat="47.635905" lon="13.751681"><ele>812.63</ele></trkpt><trkpt lat="47.635822" lon="13.751704"><ele>812.66</ele></trkpt><trkpt lat="47.635682" lon="13.751677"><ele>812.79</ele></trkpt><trkpt lat="47.635568" lon="13.751578"><ele>812.75</ele></trkpt><trkpt lat="47.635505" lon="13.751616"><ele>812.66</ele></trkpt><trkpt lat="47.635502" lon="13.751645"><ele>812.62</ele><time>2021-08-03T05:28:23Z</time></trkpt></trkseg><trkseg><trkpt lat="47.635502" lon="13.751645"><ele>812.62</ele><time>2021-08-03T05:27:05Z</time></trkpt><trkpt lat="47.635498" lon="13.751683"><ele>812.59</ele></trkpt><trkpt lat="47.635543" lon="13.751788"><ele>812.72</ele></trkpt><trkpt lat="47.635681" lon="13.751938"><ele>812.85</ele></trkpt><trkpt lat="47.635844" lon="13.752061"><ele>812.95</ele></trkpt><trkpt lat="47.635869" lon="13.752099"><ele>812.99</ele></trkpt><trkpt lat="47.63588" lon="13.752158"><ele>813.08</ele></trkpt><trkpt lat="47.635868" lon="13.752199"><ele>810.39</ele></trkpt><trkpt lat="47.635821" lon="13.752212"><ele>810.23</ele></trkpt><trkpt lat="47.635162" lon="13.75216"><ele>809.72</ele></trkpt><trkpt lat="47.634998" lon="13.752075"><ele>797.0</ele></trkpt><trkpt lat="47.634853" lon="13.751882"><ele>802.69</ele></trkpt><trkpt lat="47.634738" lon="13.751512"><ele>803.31</ele></trkpt><trkpt lat="47.634588" lon="13.751121"><ele>803.54</ele></trkpt><trkpt lat="47.634571" lon="13.751003"><ele>803.7</ele></trkpt><trkpt lat="47.634574" lon="13.750907"><ele>803.87</ele></trkpt><trkpt lat="47.634597" lon="13.750814"><ele>804.06</ele></trkpt><trkpt lat="47.634808" lon="13.750452"><ele>803.97</ele></trkpt><trkpt lat="47.634822" lon="13.75037"><ele>803.91</ele></trkpt><trkpt lat="47.634815" lon="13.750335"><ele>803.84</ele></trkpt><trkpt lat="47.63477" lon="13.750254"><ele>803.77</ele></trkpt><trkpt lat="47.634496" lon="13.750093"><ele>803.92</ele></trkpt><trkpt lat="47.634337" lon="13.750054"><ele>803.87</ele></trkpt><trkpt lat="47.634261" lon="13.750062"><ele>803.83</ele></trkpt><trkpt lat="47.634218" lon="13.750112"><ele>795.42</ele></trkpt><trkpt lat="47.634198" lon="13.750236"><ele>794.81</ele></trkpt><trkpt lat="47.634221" lon="13.75037"><ele>793.83</ele></trkpt><trkpt lat="47.634349" lon="13.750491"><ele>792.36</ele></trkpt><trkpt lat="47.63436" lon="13.750535"><ele>791.75</ele><time>2021-08-03T05:28:46Z</time></trkpt></trkseg><trkseg><trkpt lat="47.63436" lon="13.750535"><ele>791.75</ele><time>2021-08-03T05:27:05Z</time></trkpt><trkpt lat="47.634369" lon="13.750572"><ele>791.14</ele></trkpt><trkpt lat="47.634342" lon="13.750657"><ele>790.26</ele></trkpt><trkpt lat="47.634217" lon="13.75083"><ele>789.8</ele></trkpt><trkpt lat="47.634113" lon="13.750907"><ele>789.14</ele></trkpt><trkpt lat="47.63383" lon="13.750921"><ele>790.09</ele></trkpt><trkpt lat="47.633568" lon="13.7511"><ele>790.97</ele></trkpt><trkpt lat="47.633387" lon="13.751107"><ele>783.4</ele><time>2021-08-03T05:27:34Z</time></trkpt><trkpt lat="47.633386" lon="13.751117"><ele>781.2</ele><time>2021-08-03T05:27:35Z</time></trkpt></trkseg><trkseg><trkpt lat="47.633386" lon="13.751117"><ele>781.2</ele><time>2021-08-03T05:27:05Z</time></trkpt><trkpt lat="47.63338" lon="13.751433"><ele>777.91</ele></trkpt><trkpt lat="47.633464" lon="13.752149"><ele>775.42</ele></trkpt><trkpt lat="47.633755" lon="13.752981"><ele>773.36</ele></trkpt><trkpt lat="47.633965" lon="13.753758"><ele>771.75</ele></trkpt><trkpt lat="47.63404" lon="13.754374"><ele>761.2</ele><time>2021-08-03T05:27:57Z</time></trkpt><trkpt lat="47.634035" lon="13.75455"><ele>753.8</ele></trkpt><trkpt lat="47.634066" lon="13.754811"><ele>749.99</ele></trkpt><trkpt lat="47.634158" lon="13.755123"><ele>749.19</ele><time>2021-08-03T05:28:10Z</time></trkpt></trkseg><trkseg><trkpt lat="47.634158" lon="13.755123"><ele>749.19</ele><time>2021-08-03T05:27:05Z</time></trkpt><trkpt lat="47.634346" lon="13.755663"><ele>747.48</ele></trkpt><trkpt lat="47.635115" lon="13.757527"><ele>737.93</ele></trkpt><trkpt lat="47.635321" lon="13.757982"><ele>738.15</ele></trkpt><trkpt lat="47.635768" lon="13.758651"><ele>729.2</ele><time>2021-08-03T05:28:10Z</time></trkpt><trkpt lat="47.635776" lon="13.758627"><ele>729.2</ele><time>2021-08-03T05:28:10Z</time></trkpt></trkseg><trkseg><trkpt lat="47.635776" lon="13.758627"><ele>729.2</ele><time>2021-08-03T05:27:05Z</time></trkpt><trkpt lat="47.635768" lon="13.758651"><ele>729.2</ele><time>2021-08-03T05:27:06Z</time></trkpt><trkpt lat="47.635667" lon="13.759118"><ele>728.27</ele></trkpt><trkpt lat="47.635493" lon="13.759503"><ele>726.4</ele></trkpt><trkpt lat="47.63537" lon="13.759883"><ele>725.7</ele></trkpt><trkpt lat="47.635031" lon="13.760483"><ele>725.66</ele></trkpt><trkpt lat="47.634737" lon="13.761066"><ele>725.32</ele></trkpt><trkpt lat="47.634653" lon="13.761266"><ele>724.8</ele></trkpt><trkpt lat="47.634616" lon="13.761495"><ele>724.8</ele><time>2021-08-03T05:27:56Z</time></trkpt><trkpt lat="47.63463" lon="13.761498"><ele>724.8</ele><time>2021-08-03T05:27:56Z</time></trkpt></trkseg><trkseg><trkpt lat="47.63463" lon="13.761498"><ele>724.8</ele><time>2021-08-03T05:27:05Z</time></trkpt><trkpt lat="47.634564" lon="13.761504"><ele>724.8</ele></trkpt><trkpt lat="47.634455" lon="13.761551"><ele>724.8</ele></trkpt><trkpt lat="47.634371" lon="13.761622"><ele>723.66</ele></trkpt><trkpt lat="47.633919" lon="13.762299"><ele>723.71</ele></trkpt><trkpt lat="47.633163" lon="13.763482"><ele>719.0</ele></trkpt><trkpt lat="47.632986" lon="13.76383"><ele>716.0</ele></trkpt><trkpt lat="47.632836" lon="13.764223"><ele>712.72</ele></trkpt><trkpt lat="47.632752" lon="13.76434"><ele>711.86</ele><time>2021-08-03T05:28:06Z</time></trkpt></trkseg><trkseg><trkpt lat="47.632752" lon="13.76434"><ele>711.86</ele><time>2021-08-03T05:27:05Z</time></trkpt><trkpt lat="47.632724" lon="13.764359"><ele>711.4</ele><time>2021-08-03T05:27:06Z</time></trkpt><trkpt lat="47.63273" lon="13.764523"><ele>711.4</ele></trkpt><trkpt lat="47.632634" lon="13.764887"><ele>711.4</ele><time>2021-08-03T05:27:14Z</time></trkpt><trkpt lat="47.632533" lon="13.765088"><ele>712.88</ele></trkpt><trkpt lat="47.632417" lon="13.765235"><ele>712.82</ele></trkpt><trkpt lat="47.63218" lon="13.765447"><ele>713.22</ele></trkpt><trkpt lat="47.631967" lon="13.765684"><ele>713.32</ele></trkpt><trkpt lat="47.631432" lon="13.766365"><ele>715.66</ele></trkpt><trkpt lat="47.631288" lon="13.766571"><ele>716.36</ele></trkpt><trkpt lat="47.630693" lon="13.767618"><ele>726.37</ele></trkpt><trkpt lat="47.630539" lon="13.767785"><ele>726.59</ele><time>2021-08-03T05:28:19Z</time></trkpt></trkseg><trkseg><trkpt lat="47.630539" lon="13.767785"><ele>726.59</ele><time>2021-08-03T05:27:05Z</time></trkpt><trkpt lat="47.630207" lon="13.768011"><ele>726.52</ele></trkpt><trkpt lat="47.630013" lon="13.7682"><ele>726.47</ele></trkpt><trkpt lat="47.629909" lon="13.768366"><ele>726.71</ele></trkpt><trkpt lat="47.629632" lon="13.768903"><ele>729.6</ele></trkpt><trkpt lat="47.629436" lon="13.769221"><ele>730.46</ele></trkpt><trkpt lat="47.629254" lon="13.769578"><ele>730.79</ele></trkpt><trkpt lat="47.629186" lon="13.769759"><ele>730.66</ele><time>2021-08-03T05:27:48Z</time></trkpt></trkseg><trkseg><trkpt lat="47.629186" lon="13.769759"><ele>730.66</ele><time>2021-08-03T05:27:05Z</time></trkpt><trkpt lat="47.628918" lon="13.770495"><ele>729.78</ele></trkpt><trkpt lat="47.628794" lon="13.770788"><ele>729.67</ele></trkpt><trkpt lat="47.628609" lon="13.771151"><ele>729.94</ele></trkpt><trkpt lat="47.628085" lon="13.772009"><ele>730.0</ele></trkpt><trkpt lat="47.627958" lon="13.772177"><ele>729.2</ele></trkpt><trkpt lat="47.627663" lon="13.772318"><ele>730.23</ele></trkpt><trkpt lat="47.62734" lon="13.772532"><ele>730.1</ele></trkpt><trkpt lat="47.626481" lon="13.772952"><ele>731.91</ele></trkpt><trkpt lat="47.626101" lon="13.773217"><ele>733.91</ele></trkpt><trkpt lat="47.62575" lon="13.773414"><ele>736.94</ele></trkpt><trkpt lat="47.62494" lon="13.773704"><ele>740.79</ele></trkpt><trkpt lat="47.624568" lon="13.773771"><ele>743.2</ele></trkpt><trkpt lat="47.624337" lon="13.773842"><ele>743.2</ele></trkpt><trkpt lat="47.624097" lon="13.773947"><ele>743.8</ele><time>2021-08-03T05:29:21Z</time></trkpt><trkpt lat="47.624008" lon="13.773987"><ele>746.79</ele><time>2021-08-03T05:29:24Z</time></trkpt></trkseg><trkseg><trkpt lat="47.624008" lon="13.773987"><ele>746.79</ele><time>2021-08-03T05:27:05Z</time></trkpt><trkpt lat="47.623893" lon="13.774038"><ele>749.78</ele></trkpt><trkpt lat="47.623528" lon="13.774333"><ele>762.48</ele></trkpt><trkpt lat="47.623414" lon="13.774454"><ele>762.41</ele></trkpt><trkpt lat="47.622938" lon="13.77511"><ele>762.28</ele></trkpt><trkpt lat="47.622774" lon="13.775305"><ele>763.1</ele></trkpt><trkpt lat="47.622575" lon="13.775483"><ele>763.64</ele></trkpt><trkpt lat="47.622437" lon="13.775562"><ele>762.77</ele></trkpt><trkpt lat="47.622342" lon="13.775651"><ele>762.23</ele></trkpt><trkpt lat="47.621794" lon="13.776255"><ele>762.09</ele></trkpt><trkpt lat="47.621675" lon="13.776434"><ele>760.17</ele><time>2021-08-03T05:28:11Z</time></trkpt></trkseg><trkseg><trkpt lat="47.621675" lon="13.776434"><ele>760.17</ele><time>2021-08-03T05:27:05Z</time></trkpt><trkpt lat="47.621441" lon="13.776784"><ele>758.25</ele></trkpt><trkpt lat="47.621255" lon="13.77716"><ele>760.4</ele></trkpt><trkpt lat="47.621106" lon="13.777394"><ele>760.4</ele></trkpt><trkpt lat="47.620832" lon="13.777747"><ele>748.2</ele></trkpt><trkpt lat="47.620407" lon="13.778194"><ele>750.55</ele><time>2021-08-03T05:27:45Z</time></trkpt></trkseg><trkseg><trkpt lat="47.620407" lon="13.778194"><ele>750.55</ele><time>2021-08-03T05:27:05Z</time></trkpt><trkpt lat="47.620249" lon="13.77836"><ele>750.6</ele></trkpt><trkpt lat="47.619791" lon="13.77857"><ele>740.0</ele></trkpt><trkpt lat="47.619492" lon="13.778785"><ele>740.0</ele><time>2021-08-03T05:27:30Z</time></trkpt></trkseg><trkseg><trkpt lat="47.619492" lon="13.778785"><ele>740.0</ele><time>2021-08-03T05:27:05Z</time></trkpt><trkpt lat="47.619429" lon="13.778832"><ele>740.0</ele></trkpt><trkpt lat="47.619085" lon="13.778975"><ele>734.4</ele></trkpt><trkpt lat="47.618715" lon="13.779271"><ele>739.65</ele><time>2021-08-03T05:27:25Z</time></trkpt></trkseg><trkseg><trkpt lat="47.618715" lon="13.779271"><ele>739.65</ele><time>2021-08-03T05:27:06Z</time></trkpt><trkpt lat="47.618377" lon="13.779483"><ele>742.8</ele></trkpt><trkpt lat="47.618085" lon="13.779632"><ele>740.2</ele><time>2021-08-03T05:27:21Z</time></trkpt></trkseg><trkseg><trkpt lat="47.618085" lon="13.779632"><ele>740.2</ele><time>2021-08-03T05:27:06Z</time></trkpt><trkpt lat="47.618015" lon="13.779667"><ele>740.2</ele></trkpt><trkpt lat="47.617702" lon="13.779738"><ele>740.2</ele></trkpt><trkpt lat="47.617547" lon="13.779813"><ele>740.2</ele><time>2021-08-03T05:27:18Z</time></trkpt><trkpt lat="47.617475" lon="13.779726"><ele>737.0</ele></trkpt><trkpt lat="47.617231" lon="13.779584"><ele>735.6</ele></trkpt><trkpt lat="47.617" lon="13.779493"><ele>735.36</ele></trkpt><trkpt lat="47.616916" lon="13.779484"><ele>735.22</ele></trkpt><trkpt lat="47.616779" lon="13.779526"><ele>735.02</ele><time>2021-08-03T05:27:36Z</time></trkpt></trkseg><trkseg><trkpt lat="47.616779" lon="13.779526"><ele>735.02</ele><time>2021-08-03T05:27:06Z</time></trkpt><trkpt lat="47.616574" lon="13.779629"><ele>734.97</ele></trkpt><trkpt lat="47.616435" lon="13.779652"><ele>735.18</ele></trkpt><trkpt lat="47.615826" lon="13.779576"><ele>732.8</ele></trkpt><trkpt lat="47.615466" lon="13.779576"><ele>732.05</ele><time>2021-08-03T05:27:35Z</time></trkpt></trkseg><trkseg><trkpt lat="47.615466" lon="13.779576"><ele>732.05</ele><time>2021-08-03T05:27:06Z</time></trkpt><trkpt lat="47.615271" lon="13.779603"><ele>731.98</ele></trkpt><trkpt lat="47.615101" lon="13.779689"><ele>731.81</ele></trkpt><trkpt lat="47.614729" lon="13.779982"><ele>727.2</ele></trkpt><trkpt lat="47.614477" lon="13.780148"><ele>731.48</ele></trkpt><trkpt lat="47.614303" lon="13.780222"><ele>730.04</ele></trkpt><trkpt lat="47.614039" lon="13.780289"><ele>724.2</ele></trkpt><trkpt lat="47.613952" lon="13.780353"><ele>724.2</ele></trkpt><trkpt lat="47.613611" lon="13.780752"><ele>724.2</ele></trkpt><trkpt lat="47.613453" lon="13.780981"><ele>722.4</ele></trkpt><trkpt lat="47.613228" lon="13.781209"><ele>722.48</ele></trkpt><trkpt lat="47.61294" lon="13.781413"><ele>714.03</ele></trkpt><trkpt lat="47.612937" lon="13.781588"><ele>714.07</ele></trkpt><trkpt lat="47.613004" lon="13.781953"><ele>714.61</ele></trkpt><trkpt lat="47.612991" lon="13.782016"><ele>714.8</ele></trkpt><trkpt lat="47.612951" lon="13.782077"><ele>714.98</ele></trkpt><trkpt lat="47.612883" lon="13.782093"><ele>715.22</ele></trkpt><trkpt lat="47.612796" lon="13.782058"><ele>715.37</ele></trkpt><trkpt lat="47.61258" lon="13.781869"><ele>715.57</ele></trkpt><trkpt lat="47.612519" lon="13.781847"><ele>715.7</ele></trkpt><trkpt lat="47.612481" lon="13.781893"><ele>691.8</ele><time>2021-08-03T05:28:37Z</time></trkpt><trkpt lat="47.61249" lon="13.782022"><ele>704.47</ele></trkpt><trkpt lat="47.612609" lon="13.78233"><ele>706.28</ele></trkpt><trkpt lat="47.612623" lon="13.782434"><ele>707.09</ele></trkpt><trkpt lat="47.612583" lon="13.782954"><ele>708.31</ele></trkpt><trkpt lat="47.612573" lon="13.783317"><ele>708.94</ele></trkpt><trkpt lat="47.612542" lon="13.783428"><ele>709.27</ele></trkpt><trkpt lat="47.61247" lon="13.783478"><ele>708.57</ele></trkpt><trkpt lat="47.612248" lon="13.783573"><ele>682.8</ele></trkpt><trkpt lat="47.611909" lon="13.783813"><ele>682.8</ele></trkpt><trkpt lat="47.611619" lon="13.783977"><ele>670.92</ele></trkpt><trkpt lat="47.611542" lon="13.784038"><ele>663.8</ele></trkpt><trkpt lat="47.61138" lon="13.784258"><ele>663.6</ele></trkpt><trkpt lat="47.611235" lon="13.784421"><ele>663.6</ele><time>2021-08-03T05:29:41Z</time></trkpt><trkpt lat="47.610603" lon="13.7834"><ele>657.6</ele><time>2021-08-03T05:30:20Z</time></trkpt><trkpt lat="47.610533" lon="13.783397"><ele>657.6</ele></trkpt><trkpt lat="47.610231" lon="13.783287"><ele>659.0</ele></trkpt><trkpt lat="47.610085" lon="13.783278"><ele>657.28</ele></trkpt><trkpt lat="47.60964" lon="13.783478"><ele>654.4</ele><time>2021-08-03T05:30:42Z</time></trkpt><trkpt lat="47.609431" lon="13.783277"><ele>656.4</ele><time>2021-08-03T05:30:47Z</time></trkpt><trkpt lat="47.608923" lon="13.783317"><ele>655.6</ele></trkpt><trkpt lat="47.608658" lon="13.783359"><ele>651.6</ele></trkpt><trkpt lat="47.607913" lon="13.783563"><ele>656.4</ele><time>2021-08-03T05:31:22Z</time></trkpt><trkpt lat="47.607652" lon="13.783686"><ele>658.3</ele></trkpt><trkpt lat="47.607332" lon="13.78379"><ele>660.2</ele><time>2021-08-03T05:31:35Z</time></trkpt><trkpt lat="47.607035" lon="13.784491"><ele>655.81</ele></trkpt><trkpt lat="47.606944" lon="13.784634"><ele>655.2</ele></trkpt><trkpt lat="47.606894" lon="13.784691"><ele>653.2</ele></trkpt><trkpt lat="47.606646" lon="13.784793"><ele>653.09</ele><time>2021-08-03T05:31:58Z</time></trkpt></trkseg><trkseg><trkpt lat="47.606646" lon="13.784793"><ele>653.09</ele><time>2021-08-03T05:27:06Z</time></trkpt><trkpt lat="47.606204" lon="13.784976"><ele>653.0</ele></trkpt><trkpt lat="47.605972" lon="13.784986"><ele>652.62</ele></trkpt><trkpt lat="47.605417" lon="13.784691"><ele>651.2</ele></trkpt><trkpt lat="47.605303" lon="13.784671"><ele>651.2</ele></trkpt><trkpt lat="47.60522" lon="13.784688"><ele>651.2</ele></trkpt><trkpt lat="47.60468" lon="13.784929"><ele>649.2</ele></trkpt><trkpt lat="47.604439" lon="13.784955"><ele>649.2</ele></trkpt><trkpt lat="47.604256" lon="13.784938"><ele>648.86</ele></trkpt><trkpt lat="47.604029" lon="13.784875"><ele>648.72</ele></trkpt><trkpt lat="47.603819" lon="13.784744"><ele>648.4</ele></trkpt><trkpt lat="47.603314" lon="13.78428"><ele>646.49</ele></trkpt><trkpt lat="47.60328" lon="13.784287"><ele>646.39</ele></trkpt><trkpt lat="47.603173" lon="13.784382"><ele>646.3</ele></trkpt><trkpt lat="47.603017" lon="13.784597"><ele>646.23</ele></trkpt><trkpt lat="47.602945" lon="13.784647"><ele>645.8</ele></trkpt><trkpt lat="47.6029" lon="13.784646"><ele>645.8</ele></trkpt><trkpt lat="47.602851" lon="13.784585"><ele>645.8</ele></trkpt><trkpt lat="47.602846" lon="13.784535"><ele>645.8</ele></trkpt><trkpt lat="47.602845" lon="13.784347"><ele>645.8</ele></trkpt><trkpt lat="47.602885" lon="13.784094"><ele>646.64</ele></trkpt><trkpt lat="47.602864" lon="13.783876"><ele>646.84</ele></trkpt><trkpt lat="47.602831" lon="13.783738"><ele>646.92</ele></trkpt><trkpt lat="47.602788" lon="13.783671"><ele>647.6</ele><time>2021-08-03T05:28:51Z</time></trkpt><trkpt lat="47.602343" lon="13.7837"><ele>644.2</ele></trkpt><trkpt lat="47.602164" lon="13.783732"><ele>644.2</ele></trkpt><trkpt lat="47.602033" lon="13.783815"><ele>644.2</ele><time>2021-08-03T05:29:08Z</time></trkpt><trkpt lat="47.601984" lon="13.783779"><ele>644.2</ele><time>2021-08-03T05:29:09Z</time></trkpt><trkpt lat="47.601958" lon="13.783682"><ele>644.2</ele></trkpt><trkpt lat="47.601664" lon="13.783459"><ele>643.0</ele></trkpt><trkpt lat="47.601339" lon="13.783121"><ele>643.0</ele></trkpt><trkpt lat="47.601178" lon="13.782978"><ele>643.0</ele></trkpt><trkpt lat="47.601086" lon="13.782959"><ele>643.0</ele></trkpt><trkpt lat="47.601002" lon="13.782976"><ele>643.0</ele><time>2021-08-03T05:29:43Z</time></trkpt><trkpt lat="47.60091" lon="13.782881"><ele>642.27</ele><time>2021-08-03T05:29:45Z</time></trkpt></trkseg><trkseg><trkpt lat="47.60091" lon="13.782881"><ele>642.27</ele><time>2021-08-03T05:27:06Z</time></trkpt><trkpt lat="47.599914" lon="13.781761"><ele>638.6</ele><time>2021-08-03T05:27:33Z</time></trkpt><trkpt lat="47.599898" lon="13.781785"><ele>638.6</ele></trkpt><trkpt lat="47.599621" lon="13.781921"><ele>638.6</ele><time>2021-08-03T05:27:40Z</time></trkpt></trkseg><trkseg><trkpt lat="47.599621" lon="13.781921"><ele>638.6</ele><time>2021-08-03T05:27:06Z</time></trkpt><trkpt lat="47.599419" lon="13.782165"><ele>638.6</ele></trkpt><trkpt lat="47.599015" lon="13.782835"><ele>642.4</ele></trkpt><trkpt lat="47.598397" lon="13.783927"><ele>644.6</ele></trkpt><trkpt lat="47.598239" lon="13.784227"><ele>645.37</ele></trkpt><trkpt lat="47.597957" lon="13.784842"><ele>645.47</ele><time>2021-08-03T05:28:03Z</time></trkpt></trkseg><trkseg><trkpt lat="47.597957" lon="13.784842"><ele>645.47</ele><time>2021-08-03T05:27:06Z</time></trkpt><trkpt lat="47.597715" lon="13.785391"><ele>644.79</ele><time>2021-08-03T05:27:16Z</time></trkpt></trkseg><trkseg><trkpt lat="47.597715" lon="13.785391"><ele>644.79</ele><time>2021-08-03T05:27:06Z</time></trkpt><trkpt lat="47.597598" lon="13.785661"><ele>644.33</ele><time>2021-08-03T05:27:11Z</time></trkpt></trkseg><trkseg><trkpt lat="47.597598" lon="13.785661"><ele>644.33</ele><time>2021-08-03T05:27:06Z</time></trkpt><trkpt lat="47.597209" lon="13.786582"><ele>646.6</ele></trkpt><trkpt lat="47.597009" lon="13.787132"><ele>646.6</ele><time>2021-08-03T05:27:31Z</time></trkpt></trkseg><trkseg><trkpt lat="47.597009" lon="13.787132"><ele>646.6</ele><time>2021-08-03T05:27:06Z</time></trkpt><trkpt lat="47.596558" lon="13.788428"><ele>651.4</ele></trkpt><trkpt lat="47.595943" lon="13.790071"><ele>653.6</ele></trkpt><trkpt lat="47.59587" lon="13.790216"><ele>653.82</ele><time>2021-08-03T05:27:59Z</time></trkpt></trkseg><trkseg><trkpt lat="47.59587" lon="13.790216"><ele>653.82</ele><time>2021-08-03T05:27:06Z</time></trkpt><trkpt lat="47.595659" lon="13.790546"><ele>654.0</ele></trkpt><trkpt lat="47.595207" lon="13.791143"><ele>656.0</ele></trkpt><trkpt lat="47.594966" lon="13.791705"><ele>657.2</ele></trkpt><trkpt lat="47.594098" lon="13.792528"><ele>658.6</ele><time>2021-08-03T05:27:59Z</time></trkpt><trkpt lat="47.594023" lon="13.792427"><ele>657.8</ele><time>2021-08-03T05:28:01Z</time></trkpt><trkpt lat="47.593852" lon="13.792205"><ele>657.8</ele></trkpt><trkpt lat="47.593633" lon="13.79197"><ele>657.8</ele></trkpt><trkpt lat="47.593536" lon="13.791899"><ele>657.8</ele><time>2021-08-03T05:28:25Z</time></trkpt><trkpt lat="47.593428" lon="13.792145"><ele>663.28</ele></trkpt><trkpt lat="47.593247" lon="13.792756"><ele>667.47</ele></trkpt><trkpt lat="47.593068" lon="13.793008"><ele>667.58</ele><time>2021-08-03T05:28:55Z</time></trkpt></trkseg><trkseg><trkpt lat="47.593068" lon="13.793008"><ele>667.58</ele><time>2021-08-03T05:27:06Z</time></trkpt><trkpt lat="47.592984" lon="13.793126"><ele>667.69</ele></trkpt><trkpt lat="47.592772" lon="13.793694"><ele>668.53</ele></trkpt><trkpt lat="47.592724" lon="13.793759"><ele>668.92</ele></trkpt><trkpt lat="47.592595" lon="13.793871"><ele>669.67</ele></trkpt><trkpt lat="47.592506" lon="13.794066"><ele>670.19</ele></trkpt><trkpt lat="47.59245" lon="13.794128"><ele>670.54</ele></trkpt><trkpt lat="47.592388" lon="13.794172"><ele>670.29</ele></trkpt><trkpt lat="47.592292" lon="13.794198"><ele>670.42</ele></trkpt><trkpt lat="47.592155" lon="13.794201"><ele>670.78</ele></trkpt><trkpt lat="47.591806" lon="13.794294"><ele>672.44</ele></trkpt><trkpt lat="47.591628" lon="13.794291"><ele>672.86</ele></trkpt><trkpt lat="47.591425" lon="13.794437"><ele>673.11</ele></trkpt><trkpt lat="47.591265" lon="13.794516"><ele>673.86</ele><time>2021-08-03T05:28:20Z</time></trkpt></trkseg><trkseg><trkpt lat="47.591265" lon="13.794516"><ele>673.86</ele><time>2021-08-03T05:27:06Z</time></trkpt><trkpt lat="47.590918" lon="13.794686"><ele>674.62</ele></trkpt><trkpt lat="47.590749" lon="13.794692"><ele>674.85</ele></trkpt><trkpt lat="47.590695" lon="13.794727"><ele>685.6</ele></trkpt><trkpt lat="47.590547" lon="13.795167"><ele>679.45</ele></trkpt><trkpt lat="47.590461" lon="13.795596"><ele>680.55</ele></trkpt><trkpt lat="47.590328" lon="13.795949"><ele>681.28</ele></trkpt><trkpt lat="47.590197" lon="13.796137"><ele>682.05</ele></trkpt><trkpt lat="47.589907" lon="13.796356"><ele>682.67</ele></trkpt><trkpt lat="47.589858" lon="13.796411"><ele>682.61</ele></trkpt><trkpt lat="47.589753" lon="13.79658"><ele>682.99</ele></trkpt><trkpt lat="47.589627" lon="13.796731"><ele>683.56</ele></trkpt><trkpt lat="47.58957" lon="13.796834"><ele>683.89</ele></trkpt><trkpt lat="47.589515" lon="13.797041"><ele>684.54</ele></trkpt><trkpt lat="47.589306" lon="13.798204"><ele>687.21</ele></trkpt><trkpt lat="47.589279" lon="13.79829"><ele>687.46</ele></trkpt><trkpt lat="47.58909" lon="13.798601"><ele>687.87</ele><time>2021-08-03T05:29:15Z</time></trkpt></trkseg><trkseg><trkpt lat="47.58909" lon="13.798601"><ele>687.87</ele><time>2021-08-03T05:27:06Z</time></trkpt><trkpt lat="47.588919" lon="13.798793"><ele>687.94</ele></trkpt><trkpt lat="47.588811" lon="13.798876"><ele>687.94</ele></trkpt><trkpt lat="47.588233" lon="13.798887"><ele>688.81</ele></trkpt><trkpt lat="47.588054" lon="13.798947"><ele>688.74</ele></trkpt><trkpt lat="47.58784" lon="13.799269"><ele>688.56</ele></trkpt><trkpt lat="47.587727" lon="13.799317"><ele>688.74</ele></trkpt><trkpt lat="47.587495" lon="13.799344"><ele>689.45</ele></trkpt><trkpt lat="47.587342" lon="13.799308"><ele>689.53</ele></trkpt><trkpt lat="47.587261" lon="13.799334"><ele>689.54</ele></trkpt><trkpt lat="47.587063" lon="13.799523"><ele>689.6</ele></trkpt><trkpt lat="47.586912" lon="13.799718"><ele>689.6</ele></trkpt><trkpt lat="47.586782" lon="13.80001"><ele>689.63</ele><time>2021-08-03T05:28:35Z</time></trkpt></trkseg><trkseg><trkpt lat="47.586782" lon="13.80001"><ele>689.63</ele><time>2021-08-03T05:27:06Z</time></trkpt><trkpt lat="47.586492" lon="13.800515"><ele>689.92</ele></trkpt><trkpt lat="47.586196" lon="13.800924"><ele>687.4</ele><time>2021-08-03T05:27:34Z</time></trkpt><trkpt lat="47.586221" lon="13.801006"><ele>687.4</ele><time>2021-08-03T05:27:36Z</time></trkpt></trkseg><trkseg><trkpt lat="47.586221" lon="13.801006"><ele>687.4</ele><time>2021-08-03T05:27:06Z</time></trkpt><trkpt lat="47.58634" lon="13.801389"><ele>687.4</ele><time>2021-08-03T05:27:22Z</time></trkpt><trkpt lat="47.586298" lon="13.801454"><ele>689.0</ele></trkpt><trkpt lat="47.586253" lon="13.801671"><ele>693.8</ele><time>2021-08-03T05:27:29Z</time></trkpt><trkpt lat="47.58619" lon="13.801724"><ele>692.89</ele></trkpt><trkpt lat="47.585849" lon="13.801843"><ele>692.76</ele><time>2021-08-03T05:27:41Z</time></trkpt></trkseg><trkseg><trkpt lat="47.585849" lon="13.801843"><ele>692.76</ele><time>2021-08-03T05:27:06Z</time></trkpt><trkpt lat="47.585293" lon="13.802152"><ele>692.42</ele></trkpt><trkpt lat="47.584886" lon="13.802351"><ele>692.66</ele></trkpt><trkpt lat="47.584768" lon="13.802431"><ele>692.78</ele></trkpt><trkpt lat="47.584643" lon="13.802549"><ele>692.87</ele></trkpt><trkpt lat="47.584354" lon="13.802909"><ele>693.71</ele></trkpt><trkpt lat="47.58431" lon="13.802941"><ele>693.78</ele></trkpt><trkpt lat="47.584217" lon="13.802948"><ele>693.98</ele></trkpt><trkpt lat="47.584102" lon="13.80292"><ele>694.08</ele></trkpt><trkpt lat="47.583955" lon="13.802842"><ele>694.39</ele></trkpt><trkpt lat="47.58383" lon="13.802827"><ele>694.48</ele></trkpt><trkpt lat="47.583365" lon="13.803019"><ele>694.94</ele></trkpt><trkpt lat="47.583201" lon="13.80305"><ele>695.18</ele></trkpt><trkpt lat="47.583149" lon="13.803097"><ele>695.33</ele></trkpt><trkpt lat="47.583081" lon="13.803222"><ele>695.49</ele></trkpt><trkpt lat="47.583011" lon="13.803307"><ele>695.74</ele></trkpt><trkpt lat="47.582873" lon="13.80344"><ele>696.28</ele></trkpt><trkpt lat="47.582689" lon="13.803584"><ele>696.88</ele></trkpt><trkpt lat="47.582357" lon="13.803719"><ele>698.09</ele><time>2021-08-03T05:28:56Z</time></trkpt></trkseg><trkseg><trkpt lat="47.582357" lon="13.803719"><ele>698.09</ele><time>2021-08-03T05:27:06Z</time></trkpt><trkpt lat="47.582316" lon="13.803736"><ele>698.6</ele><time>2021-08-03T05:27:07Z</time></trkpt><trkpt lat="47.581364" lon="13.803995"><ele>701.63</ele></trkpt><trkpt lat="47.581096" lon="13.80412"><ele>701.87</ele></trkpt><trkpt lat="47.580883" lon="13.804287"><ele>703.04</ele></trkpt><trkpt lat="47.58042" lon="13.804769"><ele>704.87</ele></trkpt><trkpt lat="47.57981" lon="13.805611"><ele>705.69</ele></trkpt><trkpt lat="47.579637" lon="13.805895"><ele>719.74</ele></trkpt><trkpt lat="47.579119" lon="13.806335"><ele>720.65</ele></trkpt><trkpt lat="47.57891" lon="13.806483"><ele>722.26</ele></trkpt><trkpt lat="47.578633" lon="13.806732"><ele>723.29</ele><time>2021-08-03T05:29:33Z</time></trkpt></trkseg><trkseg><trkpt lat="47.578633" lon="13.806732"><ele>723.29</ele><time>2021-08-03T05:27:06Z</time></trkpt><trkpt lat="47.577635" lon="13.808073"><ele>733.09</ele></trkpt><trkpt lat="47.577317" lon="13.80843"><ele>736.79</ele></trkpt><trkpt lat="47.576235" lon="13.809286"><ele>740.17</ele><time>2021-08-03T05:28:46Z</time></trkpt></trkseg><trkseg><trkpt lat="47.576235" lon="13.809286"><ele>740.17</ele><time>2021-08-03T05:27:06Z</time></trkpt><trkpt lat="47.576174" lon="13.809347"><ele>739.97</ele></trkpt><trkpt lat="47.576064" lon="13.809522"><ele>743.2</ele></trkpt><trkpt lat="47.575889" lon="13.809987"><ele>748.9</ele></trkpt><trkpt lat="47.575707" lon="13.810596"><ele>751.54</ele></trkpt><trkpt lat="47.575647" lon="13.810922"><ele>752.26</ele></trkpt><trkpt lat="47.575563" lon="13.811696"><ele>754.74</ele></trkpt><trkpt lat="47.575555" lon="13.81213"><ele>757.91</ele></trkpt><trkpt lat="47.57559" lon="13.812527"><ele>760.89</ele></trkpt><trkpt lat="47.575631" lon="13.812725"><ele>762.75</ele></trkpt><trkpt lat="47.575843" lon="13.813462"><ele>767.35</ele></trkpt><trkpt lat="47.575973" lon="13.814103"><ele>768.51</ele></trkpt><trkpt lat="47.575992" lon="13.814343"><ele>768.77</ele></trkpt><trkpt lat="47.575983" lon="13.81492"><ele>769.75</ele></trkpt><trkpt lat="47.575901" lon="13.815976"><ele>770.03</ele></trkpt><trkpt lat="47.575905" lon="13.816321"><ele>770.12</ele></trkpt><trkpt lat="47.57592" lon="13.816513"><ele>770.16</ele></trkpt><trkpt lat="47.576059" lon="13.817399"><ele>770.68</ele></trkpt><trkpt lat="47.576109" lon="13.817847"><ele>771.34</ele></trkpt><trkpt lat="47.576121" lon="13.818264"><ele>772.04</ele></trkpt><trkpt lat="47.576063" lon="13.819051"><ele>774.53</ele></trkpt><trkpt lat="47.575934" lon="13.820408"><ele>770.63</ele></trkpt><trkpt lat="47.575826" lon="13.82124"><ele>767.48</ele></trkpt><trkpt lat="47.575653" lon="13.822259"><ele>767.17</ele></trkpt><trkpt lat="47.57522" lon="13.823958"><ele>766.15</ele></trkpt><trkpt lat="47.574932" lon="13.824939"><ele>763.96</ele></trkpt><trkpt lat="47.574777" lon="13.825401"><ele>764.66</ele></trkpt><trkpt lat="47.574224" lon="13.827724"><ele>767.76</ele></trkpt><trkpt lat="47.573873" lon="13.829609"><ele>771.09</ele></trkpt><trkpt lat="47.573766" lon="13.830271"><ele>771.41</ele></trkpt><trkpt lat="47.573737" lon="13.830863"><ele>771.21</ele></trkpt><trkpt lat="47.573735" lon="13.831242"><ele>771.15</ele></trkpt><trkpt lat="47.5738" lon="13.831852"><ele>767.8</ele></trkpt><trkpt lat="47.573945" lon="13.832339"><ele>767.8</ele></trkpt><trkpt lat="47.574258" lon="13.832993"><ele>772.62</ele></trkpt><trkpt lat="47.574535" lon="13.833687"><ele>771.21</ele></trkpt><trkpt lat="47.574624" lon="13.833991"><ele>770.97</ele></trkpt><trkpt lat="47.574706" lon="13.834439"><ele>770.96</ele></trkpt><trkpt lat="47.574745" lon="13.834955"><ele>770.68</ele></trkpt><trkpt lat="47.574738" lon="13.835157"><ele>770.62</ele></trkpt><trkpt lat="47.574709" lon="13.835265"><ele>770.66</ele></trkpt><trkpt lat="47.574668" lon="13.835338"><ele>770.69</ele></trkpt><trkpt lat="47.574415" lon="13.835624"><ele>770.7</ele></trkpt><trkpt lat="47.574349" lon="13.835726"><ele>770.2</ele></trkpt><trkpt lat="47.574317" lon="13.835827"><ele>769.76</ele></trkpt><trkpt lat="47.574298" lon="13.836018"><ele>769.61</ele><time>2021-08-03T05:37:44Z</time></trkpt></trkseg><trkseg><trkpt lat="47.574298" lon="13.836018"><ele>769.61</ele><time>2021-08-03T05:27:06Z</time></trkpt><trkpt lat="47.574164" lon="13.83646"><ele>768.4</ele></trkpt><trkpt lat="47.574038" lon="13.836756"><ele>768.73</ele></trkpt><trkpt lat="47.573933" lon="13.836882"><ele>769.04</ele></trkpt><trkpt lat="47.573908" lon="13.836937"><ele>769.1</ele></trkpt><trkpt lat="47.573847" lon="13.837315"><ele>769.24</ele></trkpt><trkpt lat="47.573769" lon="13.83754"><ele>769.31</ele></trkpt><trkpt lat="47.57368" lon="13.837708"><ele>769.35</ele></trkpt><trkpt lat="47.57352" lon="13.837919"><ele>769.39</ele></trkpt><trkpt lat="47.573024" lon="13.838307"><ele>772.0</ele></trkpt><trkpt lat="47.572516" lon="13.838991"><ele>769.8</ele><time>2021-08-03T05:28:39Z</time></trkpt><trkpt lat="47.571728" lon="13.840055"><ele>770.27</ele></trkpt><trkpt lat="47.571343" lon="13.840402"><ele>770.0</ele><time>2021-08-03T05:29:30Z</time></trkpt><trkpt lat="47.570994" lon="13.840056"><ele>772.88</ele></trkpt><trkpt lat="47.570903" lon="13.840004"><ele>773.46</ele></trkpt><trkpt lat="47.570489" lon="13.83989"><ele>774.15</ele></trkpt><trkpt lat="47.570102" lon="13.839712"><ele>777.2</ele></trkpt><trkpt lat="47.57003" lon="13.839637"><ele>777.2</ele></trkpt><trkpt lat="47.569817" lon="13.839295"><ele>777.0</ele></trkpt><trkpt lat="47.569468" lon="13.839029"><ele>781.2</ele><time>2021-08-03T05:30:18Z</time></trkpt><trkpt lat="47.569365" lon="13.838811"><ele>780.48</ele></trkpt><trkpt lat="47.569321" lon="13.838609"><ele>780.34</ele></trkpt><trkpt lat="47.569301" lon="13.838199"><ele>780.16</ele></trkpt><trkpt lat="47.569308" lon="13.837843"><ele>779.4</ele></trkpt><trkpt lat="47.569671" lon="13.836079"><ele>780.25</ele></trkpt><trkpt lat="47.569714" lon="13.835741"><ele>783.49</ele><time>2021-08-03T05:31:09Z</time></trkpt></trkseg><trkseg><trkpt lat="47.569714" lon="13.835741"><ele>783.49</ele><time>2021-08-03T05:27:06Z</time></trkpt><trkpt lat="47.569919" lon="13.834131"><ele>786.73</ele></trkpt><trkpt lat="47.569867" lon="13.833768"><ele>789.93</ele></trkpt><trkpt lat="47.569542" lon="13.832852"><ele>790.82</ele></trkpt><trkpt lat="47.56952" lon="13.832482"><ele>795.2</ele></trkpt><trkpt lat="47.569875" lon="13.829617"><ele>801.9</ele></trkpt><trkpt lat="47.569888" lon="13.828789"><ele>802.32</ele></trkpt><trkpt lat="47.569826" lon="13.828494"><ele>802.46</ele></trkpt><trkpt lat="47.569649" lon="13.827813"><ele>803.8</ele></trkpt><trkpt lat="47.569397" lon="13.826487"><ele>812.83</ele></trkpt><trkpt lat="47.569199" lon="13.82573"><ele>815.73</ele></trkpt><trkpt lat="47.568999" lon="13.82532"><ele>816.27</ele></trkpt><trkpt lat="47.568731" lon="13.824989"><ele>817.29</ele></trkpt><trkpt lat="47.568615" lon="13.824937"><ele>820.8</ele></trkpt><trkpt lat="47.568425" lon="13.824936"><ele>819.5</ele></trkpt><trkpt lat="47.568014" lon="13.82489"><ele>820.7</ele></trkpt><trkpt lat="47.567809" lon="13.824754"><ele>821.2</ele></trkpt><trkpt lat="47.567052" lon="13.824125"><ele>825.58</ele></trkpt><trkpt lat="47.566169" lon="13.823191"><ele>818.74</ele></trkpt><trkpt lat="47.566025" lon="13.823107"><ele>818.33</ele><time>2021-08-03T05:31:21Z</time></trkpt></trkseg><trkseg><trkpt lat="47.566025" lon="13.823107"><ele>818.33</ele><time>2021-08-03T05:27:06Z</time></trkpt><trkpt lat="47.565932" lon="13.823052"><ele>817.91</ele></trkpt><trkpt lat="47.565558" lon="13.822904"><ele>812.79</ele></trkpt><trkpt lat="47.565434" lon="13.82283"><ele>812.9</ele></trkpt><trkpt lat="47.565351" lon="13.82265"><ele>813.02</ele></trkpt><trkpt lat="47.565069" lon="13.821904"><ele>812.58</ele></trkpt><trkpt lat="47.564942" lon="13.821687"><ele>810.84</ele></trkpt><trkpt lat="47.564808" lon="13.821537"><ele>811.71</ele></trkpt><trkpt lat="47.564727" lon="13.821522"><ele>811.73</ele></trkpt><trkpt lat="47.564667" lon="13.821552"><ele>810.0</ele><time>2021-08-03T05:27:47Z</time></trkpt><trkpt lat="47.564328" lon="13.821516"><ele>804.48</ele></trkpt><trkpt lat="47.564206" lon="13.821526"><ele>805.27</ele></trkpt><trkpt lat="47.563923" lon="13.821601"><ele>803.83</ele></trkpt><trkpt lat="47.563827" lon="13.821581"><ele>802.6</ele></trkpt><trkpt lat="47.563619" lon="13.821425"><ele>795.2</ele></trkpt><trkpt lat="47.563524" lon="13.821198"><ele>795.2</ele></trkpt><trkpt lat="47.563497" lon="13.820994"><ele>796.27</ele></trkpt><trkpt lat="47.563487" lon="13.820745"><ele>798.4</ele></trkpt><trkpt lat="47.563498" lon="13.820202"><ele>805.42</ele></trkpt><trkpt lat="47.563568" lon="13.819839"><ele>812.48</ele></trkpt><trkpt lat="47.563764" lon="13.819394"><ele>814.02</ele></trkpt><trkpt lat="47.563802" lon="13.819194"><ele>814.9</ele></trkpt><trkpt lat="47.563799" lon="13.818949"><ele>815.85</ele></trkpt><trkpt lat="47.563723" lon="13.81848"><ele>815.66</ele></trkpt><trkpt lat="47.563599" lon="13.818151"><ele>818.45</ele></trkpt><trkpt lat="47.56347" lon="13.817882"><ele>835.4</ele><time>2021-08-03T05:29:35Z</time></trkpt><trkpt lat="47.563182" lon="13.81731"><ele>812.52</ele></trkpt><trkpt lat="47.562473" lon="13.816499"><ele>803.28</ele></trkpt><trkpt lat="47.562263" lon="13.816236"><ele>803.67</ele></trkpt><trkpt lat="47.56206" lon="13.816063"><ele>803.11</ele></trkpt><trkpt lat="47.561816" lon="13.815971"><ele>801.82</ele></trkpt><trkpt lat="47.561181" lon="13.81556"><ele>802.48</ele></trkpt><trkpt lat="47.561072" lon="13.815517"><ele>802.25</ele></trkpt><trkpt lat="47.560915" lon="13.81552"><ele>801.83</ele></trkpt><trkpt lat="47.560669" lon="13.815595"><ele>801.34</ele></trkpt><trkpt lat="47.560512" lon="13.815686"><ele>798.2</ele><time>2021-08-03T05:31:17Z</time></trkpt><trkpt lat="47.560243" lon="13.815929"><ele>794.09</ele></trkpt><trkpt lat="47.559955" lon="13.816223"><ele>795.28</ele></trkpt><trkpt lat="47.559713" lon="13.816394"><ele>795.31</ele></trkpt><trkpt lat="47.559316" lon="13.816599"><ele>795.0</ele></trkpt><trkpt lat="47.559244" lon="13.816728"><ele>793.67</ele><time>2021-08-03T05:31:59Z</time></trkpt></trkseg><trkseg><trkpt lat="47.559244" lon="13.816728"><ele>793.67</ele><time>2021-08-03T05:27:06Z</time></trkpt><trkpt lat="47.559174" lon="13.816881"><ele>793.4</ele></trkpt><trkpt lat="47.559073" lon="13.817045"><ele>799.6</ele></trkpt><trkpt lat="47.558892" lon="13.817486"><ele>799.65</ele></trkpt><trkpt lat="47.558793" lon="13.817819"><ele>799.55</ele></trkpt><trkpt lat="47.558422" lon="13.819598"><ele>797.11</ele></trkpt><trkpt lat="47.558242" lon="13.820273"><ele>794.25</ele></trkpt><trkpt lat="47.558102" lon="13.820644"><ele>791.92</ele></trkpt><trkpt lat="47.557754" lon="13.821265"><ele>789.79</ele></trkpt><trkpt lat="47.557721" lon="13.821419"><ele>789.25</ele></trkpt><trkpt lat="47.557707" lon="13.821579"><ele>789.22</ele></trkpt><trkpt lat="47.557725" lon="13.821718"><ele>789.05</ele><time>2021-08-03T05:28:54Z</time></trkpt></trkseg><trkseg><trkpt lat="47.557725" lon="13.821718"><ele>789.05</ele><time>2021-08-03T05:27:06Z</time></trkpt><trkpt lat="47.557754" lon="13.82194"><ele>788.87</ele></trkpt><trkpt lat="47.557828" lon="13.822201"><ele>788.63</ele></trkpt><trkpt lat="47.55804" lon="13.822753"><ele>788.3</ele></trkpt><trkpt lat="47.558201" lon="13.823092"><ele>788.55</ele></trkpt><trkpt lat="47.558419" lon="13.823403"><ele>788.78</ele></trkpt><trkpt lat="47.558749" lon="13.823686"><ele>790.05</ele></trkpt><trkpt lat="47.558827" lon="13.823791"><ele>790.28</ele></trkpt><trkpt lat="47.55894" lon="13.824021"><ele>790.67</ele></trkpt><trkpt lat="47.559059" lon="13.824318"><ele>791.19</ele></trkpt><trkpt lat="47.559163" lon="13.824666"><ele>790.98</ele></trkpt><trkpt lat="47.559247" lon="13.824824"><ele>790.5</ele></trkpt><trkpt lat="47.559448" lon="13.825132"><ele>791.28</ele></trkpt><trkpt lat="47.559543" lon="13.82525"><ele>794.2</ele><time>2021-08-03T05:28:34Z</time></trkpt><trkpt lat="47.559861" lon="13.825615"><ele>794.2</ele></trkpt><trkpt lat="47.560156" lon="13.825883"><ele>792.07</ele></trkpt><trkpt lat="47.560582" lon="13.826312"><ele>791.0</ele></trkpt><trkpt lat="47.560748" lon="13.826506"><ele>786.13</ele></trkpt><trkpt lat="47.5609" lon="13.826723"><ele>784.97</ele></trkpt><trkpt lat="47.561" lon="13.826922"><ele>784.85</ele></trkpt><trkpt lat="47.561086" lon="13.827142"><ele>784.72</ele></trkpt><trkpt lat="47.561122" lon="13.827487"><ele>784.04</ele></trkpt><trkpt lat="47.561078" lon="13.828131"><ele>782.97</ele></trkpt><trkpt lat="47.561075" lon="13.828343"><ele>781.84</ele></trkpt><trkpt lat="47.561113" lon="13.828555"><ele>781.68</ele></trkpt><trkpt lat="47.561367" lon="13.829292"><ele>780.42</ele></trkpt><trkpt lat="47.561561" lon="13.829669"><ele>779.9</ele></trkpt><trkpt lat="47.561684" lon="13.829849"><ele>779.83</ele></trkpt><trkpt lat="47.561789" lon="13.829956"><ele>776.0</ele><time>2021-08-03T05:30:34Z</time></trkpt><trkpt lat="47.56163" lon="13.830077"><ele>779.74</ele><time>2021-08-03T05:30:40Z</time></trkpt></trkseg><trkseg><trkpt lat="47.56163" lon="13.830077"><ele>779.74</ele><time>2021-08-03T05:27:06Z</time></trkpt><trkpt lat="47.560863" lon="13.830562"><ele>784.28</ele></trkpt><trkpt lat="47.560779" lon="13.830585"><ele>784.62</ele></trkpt><trkpt lat="47.560716" lon="13.830575"><ele>784.92</ele></trkpt><trkpt lat="47.56056" lon="13.830434"><ele>785.18</ele></trkpt><trkpt lat="47.560107" lon="13.83011"><ele>786.36</ele></trkpt><trkpt lat="47.56001" lon="13.830005"><ele>786.4</ele></trkpt><trkpt lat="47.559788" lon="13.829677"><ele>792.4</ele><time>2021-08-03T05:28:17Z</time></trkpt><trkpt lat="47.559723" lon="13.829748"><ele>792.4</ele><time>2021-08-03T05:28:21Z</time></trkpt><trkpt lat="47.559708" lon="13.829812"><ele>795.71</ele></trkpt><trkpt lat="47.559763" lon="13.830225"><ele>796.08</ele></trkpt><trkpt lat="47.559763" lon="13.830423"><ele>796.16</ele></trkpt><trkpt lat="47.559735" lon="13.830565"><ele>796.25</ele></trkpt><trkpt lat="47.559506" lon="13.831038"><ele>796.45</ele></trkpt><trkpt lat="47.559398" lon="13.831206"><ele>796.16</ele></trkpt><trkpt lat="47.559372" lon="13.831274"><ele>798.0</ele><time>2021-08-03T05:29:20Z</time></trkpt><trkpt lat="47.559338" lon="13.831407"><ele>814.31</ele></trkpt><trkpt lat="47.559313" lon="13.83172"><ele>815.79</ele></trkpt><trkpt lat="47.559249" lon="13.831982"><ele>818.91</ele></trkpt><trkpt lat="47.559134" lon="13.832232"><ele>820.68</ele></trkpt><trkpt lat="47.558971" lon="13.832523"><ele>819.59</ele></trkpt><trkpt lat="47.558779" lon="13.832734"><ele>818.07</ele></trkpt><trkpt lat="47.558396" lon="13.833043"><ele>845.16</ele></trkpt><trkpt lat="47.558276" lon="13.833113"><ele>846.63</ele></trkpt><trkpt lat="47.558154" lon="13.833138"><ele>846.46</ele></trkpt><trkpt lat="47.557896" lon="13.833123"><ele>846.09</ele></trkpt><trkpt lat="47.557776" lon="13.833091"><ele>845.88</ele></trkpt><trkpt lat="47.55751" lon="13.832966"><ele>845.41</ele></trkpt><trkpt lat="47.557167" lon="13.832745"><ele>860.2</ele></trkpt><trkpt lat="47.557016" lon="13.832701"><ele>860.2</ele></trkpt><trkpt lat="47.5571" lon="13.83303"><ele>856.71</ele></trkpt><trkpt lat="47.557289" lon="13.833393"><ele>855.53</ele></trkpt><trkpt lat="47.557344" lon="13.833544"><ele>855.32</ele></trkpt><trkpt lat="47.557378" lon="13.833732"><ele>855.12</ele></trkpt><trkpt lat="47.557468" lon="13.834785"><ele>852.54</ele></trkpt><trkpt lat="47.557482" lon="13.836086"><ele>840.88</ele></trkpt><trkpt lat="47.557789" lon="13.838564"><ele>828.64</ele></trkpt><trkpt lat="47.557882" lon="13.838902"><ele>828.74</ele></trkpt><trkpt lat="47.5581" lon="13.839573"><ele>829.61</ele></trkpt><trkpt lat="47.558156" lon="13.839799"><ele>829.76</ele></trkpt><trkpt lat="47.55833" lon="13.840965"><ele>830.0</ele><time>2021-08-03T05:36:15Z</time></trkpt><trkpt lat="47.558388" lon="13.841366"><ele>822.36</ele></trkpt><trkpt lat="47.558407" lon="13.841621"><ele>822.5</ele></trkpt><trkpt lat="47.558424" lon="13.842347"><ele>820.59</ele></trkpt><trkpt lat="47.558543" lon="13.843179"><ele>818.36</ele></trkpt><trkpt lat="47.558646" lon="13.844273"><ele>814.38</ele></trkpt><trkpt lat="47.558787" lon="13.845201"><ele>812.11</ele></trkpt><trkpt lat="47.558807" lon="13.845475"><ele>812.03</ele></trkpt><trkpt lat="47.558805" lon="13.84572"><ele>812.03</ele></trkpt><trkpt lat="47.558736" lon="13.846509"><ele>811.46</ele></trkpt><trkpt lat="47.558727" lon="13.846952"><ele>811.34</ele></trkpt><trkpt lat="47.558807" lon="13.848164"><ele>806.34</ele><time>2021-08-03T05:38:36Z</time></trkpt></trkseg><trkseg><trkpt lat="47.558807" lon="13.848164"><ele>806.34</ele><time>2021-08-03T05:27:06Z</time></trkpt><trkpt lat="47.558827" lon="13.848592"><ele>804.29</ele></trkpt><trkpt lat="47.558788" lon="13.849037"><ele>804.66</ele></trkpt><trkpt lat="47.558729" lon="13.849408"><ele>804.43</ele></trkpt><trkpt lat="47.558595" lon="13.849969"><ele>804.04</ele></trkpt><trkpt lat="47.558539" lon="13.850105"><ele>795.8</ele><time>2021-08-03T05:27:46Z</time></trkpt><trkpt lat="47.558394" lon="13.850073"><ele>800.54</ele></trkpt><trkpt lat="47.558304" lon="13.850116"><ele>800.82</ele></trkpt><trkpt lat="47.558228" lon="13.850194"><ele>801.1</ele></trkpt><trkpt lat="47.558187" lon="13.850284"><ele>801.1</ele></trkpt><trkpt lat="47.558074" lon="13.85073"><ele>801.59</ele></trkpt><trkpt lat="47.558015" lon="13.85089"><ele>801.46</ele></trkpt><trkpt lat="47.557913" lon="13.851015"><ele>801.41</ele></trkpt><trkpt lat="47.557593" lon="13.851199"><ele>801.99</ele></trkpt><trkpt lat="47.557424" lon="13.851216"><ele>802.66</ele></trkpt><trkpt lat="47.557147" lon="13.851179"><ele>804.87</ele></trkpt><trkpt lat="47.556937" lon="13.851123"><ele>805.35</ele></trkpt><trkpt lat="47.556816" lon="13.851134"><ele>805.66</ele></trkpt><trkpt lat="47.55674" lon="13.851177"><ele>805.98</ele></trkpt><trkpt lat="47.556558" lon="13.851364"><ele>808.82</ele></trkpt><trkpt lat="47.556273" lon="13.851566"><ele>810.9</ele></trkpt><trkpt lat="47.556123" lon="13.851583"><ele>812.57</ele></trkpt><trkpt lat="47.555909" lon="13.851548"><ele>818.2</ele></trkpt><trkpt lat="47.555786" lon="13.851439"><ele>819.4</ele></trkpt><trkpt lat="47.555657" lon="13.851244"><ele>820.0</ele></trkpt><trkpt lat="47.55556" lon="13.851029"><ele>825.18</ele></trkpt><trkpt lat="47.555312" lon="13.850243"><ele>826.15</ele></trkpt><trkpt lat="47.555146" lon="13.850017"><ele>826.27</ele></trkpt><trkpt lat="47.554998" lon="13.849946"><ele>826.84</ele></trkpt><trkpt lat="47.554471" lon="13.84986"><ele>828.45</ele></trkpt><trkpt lat="47.554286" lon="13.849774"><ele>829.55</ele></trkpt><trkpt lat="47.55417" lon="13.849653"><ele>830.4</ele></trkpt><trkpt lat="47.554072" lon="13.849473"><ele>830.53</ele></trkpt><trkpt lat="47.553941" lon="13.848879"><ele>833.58</ele></trkpt><trkpt lat="47.553765" lon="13.848511"><ele>836.09</ele><time>2021-08-03T05:31:17Z</time></trkpt></trkseg><trkseg><trkpt lat="47.553765" lon="13.848511"><ele>836.09</ele><time>2021-08-03T05:27:06Z</time></trkpt><trkpt lat="47.553682" lon="13.848356"><ele>836.89</ele></trkpt><trkpt lat="47.553603" lon="13.848137"><ele>838.54</ele></trkpt><trkpt lat="47.553463" lon="13.847258"><ele>843.84</ele></trkpt><trkpt lat="47.553374" lon="13.84693"><ele>845.18</ele></trkpt><trkpt lat="47.553284" lon="13.846719"><ele>845.23</ele></trkpt><trkpt lat="47.553159" lon="13.846512"><ele>841.8</ele><time>2021-08-03T05:27:57Z</time></trkpt><trkpt lat="47.552891" lon="13.846432"><ele>841.8</ele></trkpt><trkpt lat="47.552723" lon="13.846439"><ele>841.8</ele><time>2021-08-03T05:28:11Z</time></trkpt><trkpt lat="47.55255" lon="13.846504"><ele>837.91</ele></trkpt><trkpt lat="47.552341" lon="13.84655"><ele>837.48</ele></trkpt><trkpt lat="47.552171" lon="13.846543"><ele>837.09</ele></trkpt><trkpt lat="47.551918" lon="13.846455"><ele>836.42</ele></trkpt><trkpt lat="47.551512" lon="13.846039"><ele>837.8</ele></trkpt><trkpt lat="47.551138" lon="13.845571"><ele>840.09</ele></trkpt><trkpt lat="47.55063" lon="13.845426"><ele>840.37</ele></trkpt><trkpt lat="47.55049" lon="13.845357"><ele>841.2</ele></trkpt><trkpt lat="47.549915" lon="13.844806"><ele>844.01</ele></trkpt><trkpt lat="47.549734" lon="13.84468"><ele>845.31</ele></trkpt><trkpt lat="47.549241" lon="13.844164"><ele>847.73</ele></trkpt><trkpt lat="47.548911" lon="13.844076"><ele>848.53</ele></trkpt><trkpt lat="47.548776" lon="13.844114"><ele>848.82</ele></trkpt><trkpt lat="47.548482" lon="13.844263"><ele>850.63</ele></trkpt><trkpt lat="47.547958" lon="13.844623"><ele>855.76</ele></trkpt><trkpt lat="47.547666" lon="13.844772"><ele>860.12</ele></trkpt><trkpt lat="47.54745" lon="13.844783"><ele>866.35</ele></trkpt><trkpt lat="47.547129" lon="13.84473"><ele>870.24</ele></trkpt><trkpt lat="47.546827" lon="13.844646"><ele>875.88</ele></trkpt><trkpt lat="47.546515" lon="13.8446"><ele>882.89</ele></trkpt><trkpt lat="47.545978" lon="13.844401"><ele>891.47</ele></trkpt><trkpt lat="47.545598" lon="13.844415"><ele>898.06</ele></trkpt><trkpt lat="47.545426" lon="13.844382"><ele>900.01</ele></trkpt><trkpt lat="47.545268" lon="13.844389"><ele>899.38</ele></trkpt><trkpt lat="47.545191" lon="13.844451"><ele>898.8</ele></trkpt><trkpt lat="47.544984" lon="13.844948"><ele>918.65</ele></trkpt><trkpt lat="47.54485" lon="13.84517"><ele>922.64</ele></trkpt><trkpt lat="47.544633" lon="13.845346"><ele>928.37</ele></trkpt><trkpt lat="47.544493" lon="13.845538"><ele>930.76</ele></trkpt><trkpt lat="47.544114" lon="13.846332"><ele>949.37</ele></trkpt><trkpt lat="47.544013" lon="13.846321"><ele>949.38</ele></trkpt><trkpt lat="47.543959" lon="13.846229"><ele>947.91</ele></trkpt><trkpt lat="47.5439" lon="13.846053"><ele>945.61</ele></trkpt><trkpt lat="47.543815" lon="13.845652"><ele>943.52</ele></trkpt><trkpt lat="47.543729" lon="13.845437"><ele>942.37</ele></trkpt><trkpt lat="47.543647" lon="13.845147"><ele>941.25</ele></trkpt><trkpt lat="47.543581" lon="13.844834"><ele>940.23</ele><time>2021-08-03T05:34:23Z</time></trkpt></trkseg><trkseg><trkpt lat="47.543581" lon="13.844834"><ele>940.23</ele><time>2021-08-03T05:27:06Z</time></trkpt><trkpt lat="47.543564" lon="13.844753"><ele>939.22</ele></trkpt><trkpt lat="47.543492" lon="13.844684"><ele>938.12</ele></trkpt><trkpt lat="47.543399" lon="13.844768"><ele>937.43</ele></trkpt><trkpt lat="47.543368" lon="13.844967"><ele>937.67</ele></trkpt><trkpt lat="47.543335" lon="13.845579"><ele>940.57</ele></trkpt><trkpt lat="47.543381" lon="13.846604"><ele>948.28</ele></trkpt><trkpt lat="47.543371" lon="13.84673"><ele>958.66</ele></trkpt><trkpt lat="47.543311" lon="13.846822"><ele>961.62</ele></trkpt><trkpt lat="47.543237" lon="13.847025"><ele>965.84</ele></trkpt><trkpt lat="47.543244" lon="13.847273"><ele>966.47</ele></trkpt><trkpt lat="47.543231" lon="13.847422"><ele>968.74</ele></trkpt><trkpt lat="47.543182" lon="13.847572"><ele>971.36</ele></trkpt><trkpt lat="47.543193" lon="13.847724"><ele>971.97</ele></trkpt><trkpt lat="47.543234" lon="13.847835"><ele>972.55</ele></trkpt><trkpt lat="47.54358" lon="13.848038"><ele>973.97</ele></trkpt><trkpt lat="47.543887" lon="13.848302"><ele>975.29</ele></trkpt><trkpt lat="47.543972" lon="13.848463"><ele>977.76</ele></trkpt><trkpt lat="47.543972" lon="13.848608"><ele>986.8</ele><time>2021-08-03T05:29:01Z</time></trkpt><trkpt lat="47.544077" lon="13.848898"><ele>986.8</ele></trkpt><trkpt lat="47.544211" lon="13.849202"><ele>990.99</ele></trkpt><trkpt lat="47.544286" lon="13.849322"><ele>991.1</ele></trkpt><trkpt lat="47.544459" lon="13.84949"><ele>991.24</ele></trkpt><trkpt lat="47.544654" lon="13.849805"><ele>991.5</ele></trkpt><trkpt lat="47.54477" lon="13.850085"><ele>992.53</ele></trkpt><trkpt lat="47.544827" lon="13.850553"><ele>993.33</ele></trkpt><trkpt lat="47.54482" lon="13.851002"><ele>994.85</ele></trkpt><trkpt lat="47.544799" lon="13.851278"><ele>995.49</ele></trkpt><trkpt lat="47.544731" lon="13.851621"><ele>996.36</ele></trkpt><trkpt lat="47.544729" lon="13.851812"><ele>997.55</ele></trkpt><trkpt lat="47.544785" lon="13.852015"><ele>998.04</ele></trkpt><trkpt lat="47.544785" lon="13.85211"><ele>998.45</ele></trkpt><trkpt lat="47.544754" lon="13.852228"><ele>998.73</ele></trkpt><trkpt lat="47.544685" lon="13.852384"><ele>999.14</ele></trkpt><trkpt lat="47.544638" lon="13.852668"><ele>999.8</ele></trkpt><trkpt lat="47.544525" lon="13.853036"><ele>1000.7</ele></trkpt><trkpt lat="47.54431" lon="13.85344"><ele>1001.37</ele></trkpt><trkpt lat="47.544287" lon="13.853641"><ele>1001.54</ele></trkpt><trkpt lat="47.544302" lon="13.853802"><ele>1001.89</ele></trkpt><trkpt lat="47.544362" lon="13.854072"><ele>1002.37</ele></trkpt><trkpt lat="47.544517" lon="13.854586"><ele>1003.95</ele></trkpt><trkpt lat="47.544623" lon="13.855"><ele>1004.24</ele></trkpt><trkpt lat="47.544849" lon="13.855472"><ele>1008.03</ele></trkpt><trkpt lat="47.544922" lon="13.855807"><ele>1009.87</ele></trkpt><trkpt lat="47.544956" lon="13.856207"><ele>1013.45</ele></trkpt><trkpt lat="47.545014" lon="13.856427"><ele>1013.21</ele></trkpt><trkpt lat="47.545365" lon="13.857072"><ele>1015.39</ele></trkpt><trkpt lat="47.545448" lon="13.857395"><ele>1015.46</ele></trkpt><trkpt lat="47.545445" lon="13.857492"><ele>1016.32</ele><time>2021-08-03T05:32:47Z</time></trkpt></trkseg><trkseg><trkpt lat="47.545445" lon="13.857492"><ele>1016.32</ele><time>2021-08-03T05:27:06Z</time></trkpt><trkpt lat="47.545438" lon="13.857698"><ele>1017.18</ele></trkpt><trkpt lat="47.545395" lon="13.85797"><ele>1018.28</ele></trkpt><trkpt lat="47.545342" lon="13.858163"><ele>1026.0</ele></trkpt><trkpt lat="47.545237" lon="13.858266"><ele>1039.31</ele></trkpt><trkpt lat="47.544624" lon="13.858645"><ele>1041.75</ele></trkpt><trkpt lat="47.544499" lon="13.858767"><ele>1042.17</ele></trkpt><trkpt lat="47.544416" lon="13.858896"><ele>1043.3</ele></trkpt><trkpt lat="47.544352" lon="13.859068"><ele>1043.59</ele></trkpt><trkpt lat="47.544149" lon="13.859971"><ele>1050.48</ele></trkpt><trkpt lat="47.544032" lon="13.86032"><ele>1051.36</ele></trkpt><trkpt lat="47.543769" lon="13.860973"><ele>1055.09</ele></trkpt><trkpt lat="47.543172" lon="13.862131"><ele>1066.0</ele><time>2021-08-03T05:29:24Z</time></trkpt><trkpt lat="47.543232" lon="13.862343"><ele>1061.28</ele></trkpt><trkpt lat="47.543256" lon="13.862601"><ele>1060.81</ele></trkpt><trkpt lat="47.543253" lon="13.862889"><ele>1059.63</ele></trkpt><trkpt lat="47.543193" lon="13.863285"><ele>1058.88</ele><time>2021-08-03T05:29:51Z</time></trkpt></trkseg><trkseg><trkpt lat="47.543193" lon="13.863285"><ele>1058.88</ele><time>2021-08-03T05:27:06Z</time></trkpt><trkpt lat="47.543161" lon="13.863662"><ele>1057.62</ele></trkpt><trkpt lat="47.543045" lon="13.864055"><ele>1056.61</ele></trkpt><trkpt lat="47.542417" lon="13.865349"><ele>1050.45</ele></trkpt><trkpt lat="47.541892" lon="13.865853"><ele>1041.14</ele></trkpt><trkpt lat="47.541663" lon="13.8662"><ele>1036.43</ele></trkpt><trkpt lat="47.541412" lon="13.866827"><ele>1031.52</ele></trkpt><trkpt lat="47.541369" lon="13.866997"><ele>1030.35</ele></trkpt><trkpt lat="47.541343" lon="13.867216"><ele>1029.13</ele></trkpt><trkpt lat="47.541371" lon="13.867602"><ele>1027.55</ele></trkpt><trkpt lat="47.541445" lon="13.867765"><ele>1026.73</ele></trkpt><trkpt lat="47.541921" lon="13.868544"><ele>1019.98</ele></trkpt><trkpt lat="47.542169" lon="13.869018"><ele>1013.03</ele></trkpt><trkpt lat="47.542411" lon="13.869617"><ele>1004.24</ele></trkpt><trkpt lat="47.542592" lon="13.869976"><ele>994.56</ele></trkpt><trkpt lat="47.543058" lon="13.87099"><ele>977.87</ele></trkpt><trkpt lat="47.543292" lon="13.871362"><ele>975.72</ele></trkpt><trkpt lat="47.543374" lon="13.871452"><ele>974.66</ele></trkpt><trkpt lat="47.543433" lon="13.871614"><ele>974.88</ele></trkpt><trkpt lat="47.543514" lon="13.871932"><ele>976.41</ele></trkpt><trkpt lat="47.54351" lon="13.872231"><ele>978.99</ele></trkpt><trkpt lat="47.543415" lon="13.87255"><ele>980.14</ele></trkpt><trkpt lat="47.543337" lon="13.873041"><ele>982.34</ele></trkpt><trkpt lat="47.543221" lon="13.873324"><ele>983.46</ele></trkpt><trkpt lat="47.543138" lon="13.873483"><ele>983.88</ele></trkpt><trkpt lat="47.543081" lon="13.873853"><ele>986.14</ele></trkpt><trkpt lat="47.5428" lon="13.87476"><ele>991.08</ele></trkpt><trkpt lat="47.542692" lon="13.875043"><ele>992.84</ele></trkpt><trkpt lat="47.542443" lon="13.875605"><ele>997.15</ele></trkpt><trkpt lat="47.542327" lon="13.875795"><ele>1000.07</ele></trkpt><trkpt lat="47.542117" lon="13.876042"><ele>1001.78</ele></trkpt><trkpt lat="47.541953" lon="13.876358"><ele>1003.83</ele></trkpt><trkpt lat="47.541344" lon="13.87806"><ele>1014.6</ele></trkpt><trkpt lat="47.541425" lon="13.878586"><ele>1011.33</ele></trkpt><trkpt lat="47.541438" lon="13.879019"><ele>1010.92</ele></trkpt><trkpt lat="47.54133" lon="13.879804"><ele>1010.58</ele></trkpt><trkpt lat="47.541309" lon="13.880073"><ele>1010.24</ele></trkpt><trkpt lat="47.541326" lon="13.88051"><ele>1010.3</ele></trkpt><trkpt lat="47.541392" lon="13.880955"><ele>1010.3</ele><time>2021-08-03T05:34:55Z</time></trkpt></trkseg><trkseg><trkpt lat="47.541392" lon="13.880955"><ele>1010.3</ele><time>2021-08-03T05:27:06Z</time></trkpt><trkpt lat="47.541562" lon="13.88194"><ele>1009.5</ele></trkpt><trkpt lat="47.541582" lon="13.88217"><ele>1009.39</ele></trkpt><trkpt lat="47.541547" lon="13.882472"><ele>1009.15</ele></trkpt><trkpt lat="47.541573" lon="13.882827"><ele>1006.05</ele></trkpt><trkpt lat="47.541713" lon="13.883019"><ele>1004.06</ele></trkpt><trkpt lat="47.541952" lon="13.883121"><ele>1003.4</ele></trkpt><trkpt lat="47.542352" lon="13.883412"><ele>1002.22</ele></trkpt><trkpt lat="47.542652" lon="13.883774"><ele>998.42</ele></trkpt><trkpt lat="47.542699" lon="13.883863"><ele>998.23</ele></trkpt><trkpt lat="47.542798" lon="13.884173"><ele>997.46</ele></trkpt><trkpt lat="47.542938" lon="13.884743"><ele>997.04</ele></trkpt><trkpt lat="47.543095" lon="13.885128"><ele>996.06</ele></trkpt><trkpt lat="47.543253" lon="13.885454"><ele>992.0</ele></trkpt><trkpt lat="47.543555" lon="13.885895"><ele>983.6</ele></trkpt><trkpt lat="47.543619" lon="13.886088"><ele>983.87</ele></trkpt><trkpt lat="47.543667" lon="13.886317"><ele>983.91</ele></trkpt><trkpt lat="47.543569" lon="13.887025"><ele>984.71</ele></trkpt><trkpt lat="47.543547" lon="13.887583"><ele>984.99</ele></trkpt><trkpt lat="47.543573" lon="13.887968"><ele>985.39</ele></trkpt><trkpt lat="47.543721" lon="13.888397"><ele>986.03</ele></trkpt><trkpt lat="47.543821" lon="13.888868"><ele>986.09</ele></trkpt><trkpt lat="47.543814" lon="13.889323"><ele>986.31</ele></trkpt><trkpt lat="47.543744" lon="13.890317"><ele>986.34</ele></trkpt><trkpt lat="47.543709" lon="13.890742"><ele>986.23</ele></trkpt><trkpt lat="47.543636" lon="13.891175"><ele>986.17</ele></trkpt><trkpt lat="47.543644" lon="13.891737"><ele>985.72</ele></trkpt><trkpt lat="47.543605" lon="13.892065"><ele>984.83</ele></trkpt><trkpt lat="47.543535" lon="13.892341"><ele>984.52</ele></trkpt><trkpt lat="47.543173" lon="13.89319"><ele>976.92</ele></trkpt><trkpt lat="47.54308" lon="13.893701"><ele>973.21</ele></trkpt><trkpt lat="47.542883" lon="13.894153"><ele>969.86</ele></trkpt><trkpt lat="47.542851" lon="13.894283"><ele>966.33</ele></trkpt><trkpt lat="47.542849" lon="13.894604"><ele>963.4</ele></trkpt><trkpt lat="47.542835" lon="13.894735"><ele>962.99</ele></trkpt><trkpt lat="47.542701" lon="13.895064"><ele>959.41</ele></trkpt><trkpt lat="47.542674" lon="13.895228"><ele>958.7</ele><time>2021-08-03T05:33:12Z</time></trkpt></trkseg><trkseg><trkpt lat="47.542674" lon="13.895228"><ele>958.7</ele><time>2021-08-03T05:27:06Z</time></trkpt><trkpt lat="47.542662" lon="13.895706"><ele>955.54</ele></trkpt><trkpt lat="47.542677" lon="13.896198"><ele>954.16</ele></trkpt><trkpt lat="47.542709" lon="13.896329"><ele>953.6</ele></trkpt><trkpt lat="47.542809" lon="13.896597"><ele>953.04</ele></trkpt><trkpt lat="47.542902" lon="13.896945"><ele>950.15</ele></trkpt><trkpt lat="47.543002" lon="13.897165"><ele>950.36</ele></trkpt><trkpt lat="47.543137" lon="13.89727"><ele>939.2</ele><time>2021-08-03T05:27:59Z</time></trkpt><trkpt lat="47.543197" lon="13.897358"><ele>931.84</ele></trkpt><trkpt lat="47.543233" lon="13.897573"><ele>931.1</ele></trkpt><trkpt lat="47.543241" lon="13.89771"><ele>930.52</ele></trkpt><trkpt lat="47.543127" lon="13.89867"><ele>929.16</ele></trkpt><trkpt lat="47.543122" lon="13.898842"><ele>929.24</ele></trkpt><trkpt lat="47.54298" lon="13.89958"><ele>927.35</ele></trkpt><trkpt lat="47.542869" lon="13.900036"><ele>926.46</ele></trkpt><trkpt lat="47.542796" lon="13.900475"><ele>925.92</ele></trkpt><trkpt lat="47.542507" lon="13.901867"><ele>925.21</ele></trkpt><trkpt lat="47.542448" lon="13.902124"><ele>924.0</ele></trkpt><trkpt lat="47.542259" lon="13.902705"><ele>914.73</ele></trkpt><trkpt lat="47.542161" lon="13.903149"><ele>913.16</ele></trkpt><trkpt lat="47.542094" lon="13.903351"><ele>912.34</ele></trkpt><trkpt lat="47.542006" lon="13.903485"><ele>911.78</ele></trkpt><trkpt lat="47.541777" lon="13.903765"><ele>910.33</ele></trkpt><trkpt lat="47.541511" lon="13.90433"><ele>907.45</ele></trkpt><trkpt lat="47.5414" lon="13.904506"><ele>907.11</ele></trkpt><trkpt lat="47.541286" lon="13.904636"><ele>906.83</ele></trkpt><trkpt lat="47.541198" lon="13.904656"><ele>906.51</ele></trkpt><trkpt lat="47.541041" lon="13.904617"><ele>905.84</ele></trkpt><trkpt lat="47.540359" lon="13.904369"><ele>902.5</ele></trkpt><trkpt lat="47.540173" lon="13.904346"><ele>901.52</ele></trkpt><trkpt lat="47.53999" lon="13.904407"><ele>900.66</ele></trkpt><trkpt lat="47.539812" lon="13.904522"><ele>899.07</ele></trkpt><trkpt lat="47.539662" lon="13.90469"><ele>897.94</ele></trkpt><trkpt lat="47.539617" lon="13.904786"><ele>897.76</ele><time>2021-08-03T05:32:04Z</time></trkpt></trkseg><trkseg><trkpt lat="47.539617" lon="13.904786"><ele>897.76</ele><time>2021-08-03T05:27:06Z</time></trkpt><trkpt lat="47.539283" lon="13.905826"><ele>895.76</ele></trkpt><trkpt lat="47.539203" lon="13.906097"><ele>895.28</ele></trkpt><trkpt lat="47.539164" lon="13.906296"><ele>895.02</ele></trkpt><trkpt lat="47.539146" lon="13.906472"><ele>894.99</ele></trkpt><trkpt lat="47.539185" lon="13.907134"><ele>892.98</ele></trkpt><trkpt lat="47.539218" lon="13.908549"><ele>883.77</ele></trkpt><trkpt lat="47.539195" lon="13.909012"><ele>877.13</ele></trkpt><trkpt lat="47.539123" lon="13.909501"><ele>872.7</ele></trkpt><trkpt lat="47.539061" lon="13.910178"><ele>869.03</ele></trkpt><trkpt lat="47.539104" lon="13.911004"><ele>864.19</ele></trkpt><trkpt lat="47.5392" lon="13.91162"><ele>860.35</ele></trkpt><trkpt lat="47.539254" lon="13.912278"><ele>853.41</ele></trkpt><trkpt lat="47.539288" lon="13.912488"><ele>850.77</ele></trkpt><trkpt lat="47.539389" lon="13.912878"><ele>848.26</ele></trkpt><trkpt lat="47.539476" lon="13.913093"><ele>845.81</ele></trkpt><trkpt lat="47.539768" lon="13.913616"><ele>839.97</ele></trkpt><trkpt lat="47.539921" lon="13.91399"><ele>837.34</ele></trkpt><trkpt lat="47.539943" lon="13.914135"><ele>833.54</ele></trkpt><trkpt lat="47.539924" lon="13.914239"><ele>833.15</ele></trkpt><trkpt lat="47.5399" lon="13.914733"><ele>826.73</ele></trkpt><trkpt lat="47.539915" lon="13.915188"><ele>825.03</ele></trkpt><trkpt lat="47.539957" lon="13.915571"><ele>824.16</ele></trkpt><trkpt lat="47.539988" lon="13.916083"><ele>819.78</ele></trkpt><trkpt lat="47.539973" lon="13.916438"><ele>811.44</ele><time>2021-08-03T05:31:42Z</time></trkpt></trkseg><trkseg><trkpt lat="47.539973" lon="13.916438"><ele>811.44</ele><time>2021-08-03T05:27:06Z</time></trkpt><trkpt lat="47.539971" lon="13.916484"><ele>805.2</ele><time>2021-08-03T05:27:09Z</time></trkpt><trkpt lat="47.539858" lon="13.916489"><ele>802.03</ele></trkpt><trkpt lat="47.539684" lon="13.916599"><ele>802.31</ele></trkpt><trkpt lat="47.539348" lon="13.916872"><ele>806.76</ele></trkpt><trkpt lat="47.53893" lon="13.916965"><ele>807.99</ele></trkpt><trkpt lat="47.538388" lon="13.917198"><ele>809.17</ele></trkpt><trkpt lat="47.538276" lon="13.917277"><ele>809.27</ele></trkpt><trkpt lat="47.537996" lon="13.917588"><ele>807.53</ele></trkpt><trkpt lat="47.537806" lon="13.917769"><ele>808.05</ele></trkpt><trkpt lat="47.537391" lon="13.918059"><ele>812.2</ele><time>2021-08-03T05:28:43Z</time></trkpt><trkpt lat="47.536988" lon="13.918379"><ele>801.97</ele><time>2021-08-03T05:28:59Z</time></trkpt></trkseg><trkseg><trkpt lat="47.536988" lon="13.918379"><ele>801.97</ele><time>2021-08-03T05:27:06Z</time></trkpt><trkpt lat="47.536791" lon="13.918553"><ele>801.48</ele></trkpt><trkpt lat="47.536639" lon="13.918726"><ele>801.77</ele></trkpt><trkpt lat="47.536457" lon="13.918864"><ele>802.09</ele></trkpt><trkpt lat="47.536273" lon="13.918921"><ele>799.2</ele></trkpt><trkpt lat="47.536089" lon="13.918903"><ele>801.47</ele></trkpt><trkpt lat="47.535899" lon="13.918849"><ele>801.79</ele></trkpt><trkpt lat="47.535753" lon="13.918723"><ele>802.08</ele></trkpt><trkpt lat="47.535307" lon="13.918095"><ele>802.45</ele></trkpt><trkpt lat="47.535161" lon="13.917925"><ele>802.52</ele></trkpt><trkpt lat="47.535069" lon="13.91792"><ele>802.83</ele></trkpt><trkpt lat="47.534806" lon="13.918063"><ele>803.28</ele><time>2021-08-03T05:28:31Z</time></trkpt></trkseg><trkseg><trkpt lat="47.534806" lon="13.918063"><ele>803.28</ele><time>2021-08-03T05:27:06Z</time></trkpt><trkpt lat="47.534589" lon="13.918199"><ele>803.67</ele></trkpt><trkpt lat="47.533984" lon="13.9185"><ele>805.3</ele></trkpt><trkpt lat="47.533816" lon="13.918635"><ele>805.07</ele></trkpt><trkpt lat="47.533667" lon="13.918883"><ele>804.83</ele></trkpt><trkpt lat="47.533547" lon="13.919152"><ele>804.82</ele></trkpt><trkpt lat="47.533166" lon="13.919846"><ele>804.57</ele></trkpt><trkpt lat="47.53303" lon="13.920013"><ele>803.86</ele></trkpt><trkpt lat="47.532933" lon="13.920234"><ele>800.4</ele></trkpt><trkpt lat="47.532932" lon="13.920322"><ele>796.6</ele></trkpt><trkpt lat="47.532977" lon="13.92043"><ele>796.2</ele><time>2021-08-03T05:28:34Z</time></trkpt></trkseg><trkseg><trkpt lat="47.532977" lon="13.92043"><ele>796.2</ele><time>2021-08-03T05:27:06Z</time></trkpt><trkpt lat="47.533083" lon="13.920686"><ele>795.8</ele></trkpt><trkpt lat="47.533309" lon="13.921042"><ele>794.84</ele></trkpt><trkpt lat="47.533704" lon="13.921497"><ele>795.46</ele></trkpt><trkpt lat="47.533852" lon="13.921807"><ele>787.78</ele></trkpt><trkpt lat="47.534198" lon="13.922617"><ele>784.23</ele></trkpt><trkpt lat="47.534372" lon="13.923117"><ele>783.59</ele></trkpt><trkpt lat="47.534412" lon="13.923342"><ele>782.46</ele></trkpt><trkpt lat="47.534431" lon="13.923553"><ele>782.49</ele></trkpt><trkpt lat="47.534424" lon="13.924211"><ele>781.62</ele></trkpt><trkpt lat="47.534403" lon="13.924334"><ele>778.51</ele><time>2021-08-03T05:28:52Z</time></trkpt></trkseg><trkseg><trkpt lat="47.534403" lon="13.924334"><ele>778.51</ele><time>2021-08-03T05:27:07Z</time></trkpt><trkpt lat="47.534396" lon="13.924376"><ele>775.4</ele><time>2021-08-03T05:27:08Z</time></trkpt><trkpt lat="47.534166" lon="13.924411"><ele>776.43</ele></trkpt><trkpt lat="47.533889" lon="13.924373"><ele>776.34</ele></trkpt><trkpt lat="47.533769" lon="13.924378"><ele>776.31</ele></trkpt><trkpt lat="47.533681" lon="13.924409"><ele>776.6</ele><time>2021-08-03T05:27:32Z</time></trkpt><trkpt lat="47.533651" lon="13.924602"><ele>774.28</ele><time>2021-08-03T05:27:36Z</time></trkpt></trkseg><trkseg><trkpt lat="47.533651" lon="13.924602"><ele>774.28</ele><time>2021-08-03T05:27:07Z</time></trkpt><trkpt lat="47.533643" lon="13.924691"><ele>774.21</ele></trkpt><trkpt lat="47.533657" lon="13.925317"><ele>773.65</ele></trkpt><trkpt lat="47.533619" lon="13.925617"><ele>773.6</ele></trkpt><trkpt lat="47.533583" lon="13.925717"><ele>773.6</ele></trkpt><trkpt lat="47.533445" lon="13.925857"><ele>773.77</ele></trkpt><trkpt lat="47.533071" lon="13.926081"><ele>773.73</ele></trkpt><trkpt lat="47.532951" lon="13.92619"><ele>773.57</ele></trkpt><trkpt lat="47.53276" lon="13.926432"><ele>773.42</ele></trkpt><trkpt lat="47.532601" lon="13.926591"><ele>773.41</ele></trkpt><trkpt lat="47.532527" lon="13.926631"><ele>773.41</ele></trkpt><trkpt lat="47.532048" lon="13.92674"><ele>773.14</ele></trkpt><trkpt lat="47.531698" lon="13.927057"><ele>772.4</ele><time>2021-08-03T05:28:43Z</time></trkpt><trkpt lat="47.531704" lon="13.927066"><ele>772.4</ele><time>2021-08-03T05:28:43Z</time></trkpt></trkseg><trkseg><trkpt lat="47.531704" lon="13.927066"><ele>772.4</ele><time>2021-08-03T05:27:07Z</time></trkpt><trkpt lat="47.531121" lon="13.92617"><ele>780.6</ele></trkpt><trkpt lat="47.530821" lon="13.925592"><ele>800.13</ele></trkpt><trkpt lat="47.530536" lon="13.925281"><ele>802.48</ele></trkpt><trkpt lat="47.530312" lon="13.924896"><ele>805.87</ele></trkpt><trkpt lat="47.530212" lon="13.924765"><ele>805.28</ele></trkpt><trkpt lat="47.530044" lon="13.924606"><ele>807.03</ele></trkpt><trkpt lat="47.529553" lon="13.924365"><ele>809.32</ele></trkpt><trkpt lat="47.529321" lon="13.924214"><ele>810.35</ele></trkpt><trkpt lat="47.529119" lon="13.924121"><ele>824.6</ele><time>2021-08-03T05:28:23Z</time></trkpt><trkpt lat="47.529095" lon="13.924107"><ele>823.43</ele><time>2021-08-03T05:28:24Z</time></trkpt></trkseg><trkseg><trkpt lat="47.529095" lon="13.924107"><ele>823.43</ele><time>2021-08-03T05:27:07Z</time></trkpt><trkpt lat="47.528793" lon="13.92393"><ele>822.26</ele></trkpt><trkpt lat="47.528363" lon="13.923727"><ele>822.51</ele></trkpt><trkpt lat="47.528154" lon="13.923654"><ele>822.18</ele></trkpt><trkpt lat="47.527973" lon="13.923622"><ele>821.49</ele></trkpt><trkpt lat="47.527791" lon="13.923641"><ele>820.49</ele></trkpt><trkpt lat="47.527694" lon="13.923691"><ele>820.32</ele><time>2021-08-03T05:27:55Z</time></trkpt></trkseg><trkseg><trkpt lat="47.527694" lon="13.923691"><ele>820.32</ele><time>2021-08-03T05:27:07Z</time></trkpt><trkpt lat="47.527352" lon="13.923867"><ele>820.15</ele></trkpt><trkpt lat="47.526324" lon="13.9245"><ele>829.49</ele></trkpt><trkpt lat="47.525811" lon="13.924878"><ele>835.23</ele></trkpt><trkpt lat="47.52564" lon="13.925075"><ele>836.31</ele></trkpt><trkpt lat="47.525522" lon="13.925178"><ele>838.74</ele><time>2021-08-03T05:28:27Z</time></trkpt></trkseg><trkseg><trkpt lat="47.525522" lon="13.925178"><ele>838.74</ele><time>2021-08-03T05:27:07Z</time></trkpt><trkpt lat="47.525282" lon="13.925389"><ele>841.17</ele></trkpt><trkpt lat="47.524829" lon="13.925842"><ele>846.39</ele></trkpt><trkpt lat="47.52459" lon="13.926049"><ele>845.53</ele></trkpt><trkpt lat="47.524268" lon="13.926249"><ele>849.22</ele></trkpt><trkpt lat="47.523841" lon="13.926181"><ele>857.93</ele></trkpt><trkpt lat="47.523597" lon="13.926175"><ele>857.51</ele></trkpt><trkpt lat="47.52315" lon="13.926081"><ele>867.1</ele></trkpt><trkpt lat="47.522974" lon="13.926077"><ele>872.32</ele></trkpt><trkpt lat="47.52268" lon="13.92602"><ele>876.98</ele><time>2021-08-03T05:28:49Z</time></trkpt></trkseg><trkseg><trkpt lat="47.52268" lon="13.92602"><ele>876.98</ele><time>2021-08-03T05:27:07Z</time></trkpt><trkpt lat="47.522513" lon="13.925987"><ele>881.64</ele></trkpt><trkpt lat="47.521679" lon="13.925968"><ele>894.97</ele></trkpt><trkpt lat="47.52153" lon="13.926006"><ele>897.61</ele></trkpt><trkpt lat="47.520957" lon="13.926226"><ele>902.03</ele></trkpt><trkpt lat="47.520349" lon="13.926582"><ele>912.66</ele></trkpt><trkpt lat="47.520159" lon="13.926777"><ele>911.01</ele></trkpt><trkpt lat="47.519965" lon="13.927037"><ele>912.82</ele></trkpt><trkpt lat="47.519503" lon="13.927749"><ele>911.95</ele></trkpt><trkpt lat="47.519391" lon="13.927972"><ele>909.58</ele></trkpt><trkpt lat="47.519207" lon="13.92828"><ele>910.2</ele></trkpt><trkpt lat="47.519123" lon="13.928382"><ele>910.27</ele></trkpt><trkpt lat="47.518837" lon="13.928586"><ele>914.23</ele></trkpt><trkpt lat="47.518297" lon="13.929032"><ele>920.05</ele></trkpt><trkpt lat="47.51794" lon="13.929384"><ele>923.74</ele></trkpt><trkpt lat="47.517836" lon="13.929431"><ele>922.89</ele></trkpt><trkpt lat="47.517735" lon="13.929437"><ele>922.09</ele></trkpt><trkpt lat="47.517642" lon="13.929378"><ele>923.15</ele></trkpt><trkpt lat="47.51759" lon="13.92928"><ele>922.39</ele></trkpt><trkpt lat="47.517485" lon="13.928611"><ele>929.18</ele></trkpt><trkpt lat="47.517363" lon="13.928001"><ele>935.83</ele></trkpt><trkpt lat="47.517284" lon="13.927169"><ele>957.75</ele></trkpt><trkpt lat="47.517224" lon="13.926942"><ele>962.45</ele><time>2021-08-03T05:31:20Z</time></trkpt></trkseg><trkseg><trkpt lat="47.517224" lon="13.926942"><ele>962.45</ele><time>2021-08-03T05:27:07Z</time></trkpt><trkpt lat="47.517122" lon="13.926551"><ele>967.15</ele></trkpt><trkpt lat="47.516864" lon="13.925847"><ele>971.44</ele></trkpt><trkpt lat="47.516677" lon="13.924846"><ele>978.41</ele></trkpt><trkpt lat="47.516553" lon="13.924295"><ele>970.63</ele></trkpt><trkpt lat="47.516536" lon="13.924092"><ele>968.22</ele></trkpt><trkpt lat="47.516577" lon="13.923788"><ele>963.44</ele></trkpt><trkpt lat="47.516564" lon="13.923303"><ele>958.87</ele></trkpt><trkpt lat="47.516596" lon="13.92271"><ele>951.85</ele></trkpt><trkpt lat="47.516592" lon="13.922433"><ele>952.31</ele></trkpt><trkpt lat="47.516543" lon="13.921981"><ele>952.81</ele></trkpt><trkpt lat="47.516538" lon="13.921796"><ele>953.79</ele></trkpt><trkpt lat="47.51657" lon="13.921585"><ele>954.77</ele></trkpt><trkpt lat="47.516604" lon="13.920964"><ele>957.68</ele></trkpt><trkpt lat="47.516694" lon="13.920593"><ele>963.72</ele></trkpt><trkpt lat="47.516835" lon="13.919744"><ele>975.55</ele></trkpt><trkpt lat="47.516772" lon="13.919122"><ele>981.13</ele></trkpt><trkpt lat="47.516637" lon="13.918617"><ele>984.37</ele></trkpt><trkpt lat="47.516629" lon="13.91848"><ele>981.24</ele></trkpt><trkpt lat="47.516715" lon="13.918164"><ele>979.84</ele></trkpt><trkpt lat="47.51674" lon="13.917985"><ele>980.39</ele></trkpt><trkpt lat="47.516726" lon="13.917797"><ele>981.48</ele></trkpt><trkpt lat="47.516646" lon="13.917239"><ele>980.07</ele></trkpt><trkpt lat="47.516587" lon="13.916917"><ele>977.5</ele></trkpt><trkpt lat="47.516503" lon="13.916606"><ele>978.18</ele></trkpt><trkpt lat="47.516442" lon="13.916466"><ele>979.71</ele></trkpt><trkpt lat="47.516206" lon="13.916189"><ele>979.97</ele></trkpt><trkpt lat="47.516139" lon="13.916046"><ele>978.79</ele></trkpt><trkpt lat="47.51605" lon="13.915705"><ele>977.42</ele></trkpt><trkpt lat="47.515989" lon="13.915581"><ele>978.41</ele></trkpt><trkpt lat="47.515878" lon="13.915455"><ele>980.04</ele></trkpt><trkpt lat="47.51578" lon="13.915376"><ele>977.53</ele></trkpt><trkpt lat="47.515705" lon="13.915361"><ele>976.88</ele></trkpt><trkpt lat="47.515458" lon="13.915401"><ele>975.77</ele></trkpt><trkpt lat="47.515332" lon="13.915346"><ele>975.02</ele></trkpt><trkpt lat="47.515148" lon="13.915216"><ele>973.91</ele></trkpt><trkpt lat="47.514957" lon="13.91504"><ele>971.25</ele></trkpt><trkpt lat="47.514801" lon="13.914854"><ele>967.42</ele></trkpt><trkpt lat="47.514721" lon="13.914667"><ele>963.97</ele></trkpt><trkpt lat="47.514642" lon="13.914395"><ele>962.05</ele><time>2021-08-03T05:32:36Z</time></trkpt></trkseg><trkseg><trkpt lat="47.514642" lon="13.914395"><ele>962.05</ele><time>2021-08-03T05:27:07Z</time></trkpt><trkpt lat="47.514603" lon="13.914326"><ele>958.8</ele></trkpt><trkpt lat="47.514555" lon="13.91429"><ele>958.8</ele></trkpt><trkpt lat="47.514482" lon="13.914294"><ele>957.88</ele></trkpt><trkpt lat="47.514298" lon="13.91447"><ele>957.9</ele></trkpt><trkpt lat="47.514198" lon="13.914531"><ele>957.99</ele></trkpt><trkpt lat="47.51304" lon="13.914418"><ele>956.34</ele></trkpt><trkpt lat="47.512698" lon="13.914424"><ele>958.6</ele></trkpt><trkpt lat="47.512442" lon="13.914386"><ele>970.08</ele></trkpt><trkpt lat="47.511966" lon="13.914183"><ele>971.34</ele></trkpt><trkpt lat="47.511677" lon="13.914097"><ele>972.9</ele></trkpt><trkpt lat="47.511385" lon="13.914043"><ele>974.43</ele></trkpt><trkpt lat="47.510983" lon="13.914083"><ele>985.2</ele></trkpt><trkpt lat="47.510841" lon="13.914057"><ele>984.58</ele></trkpt><trkpt lat="47.51067" lon="13.913949"><ele>984.45</ele></trkpt><trkpt lat="47.510468" lon="13.913723"><ele>984.39</ele></trkpt><trkpt lat="47.510249" lon="13.913598"><ele>984.0</ele></trkpt><trkpt lat="47.509978" lon="13.913584"><ele>986.17</ele></trkpt><trkpt lat="47.509372" lon="13.913603"><ele>986.64</ele></trkpt><trkpt lat="47.509167" lon="13.913584"><ele>987.14</ele></trkpt><trkpt lat="47.508971" lon="13.913546"><ele>988.11</ele></trkpt><trkpt lat="47.508579" lon="13.913415"><ele>990.77</ele></trkpt><trkpt lat="47.508347" lon="13.913364"><ele>990.46</ele></trkpt><trkpt lat="47.507993" lon="13.913326"><ele>994.11</ele></trkpt><trkpt lat="47.507765" lon="13.913272"><ele>997.4</ele></trkpt><trkpt lat="47.507611" lon="13.913169"><ele>1007.2</ele></trkpt><trkpt lat="47.507061" lon="13.91288"><ele>1007.53</ele></trkpt><trkpt lat="47.506866" lon="13.912829"><ele>1007.76</ele></trkpt><trkpt lat="47.506073" lon="13.912535"><ele>1009.64</ele><time>2021-08-03T05:32:04Z</time></trkpt></trkseg><trkseg><trkpt lat="47.506073" lon="13.912535"><ele>1009.64</ele><time>2021-08-03T05:27:07Z</time></trkpt><trkpt lat="47.505858" lon="13.91241"><ele>1012.94</ele></trkpt><trkpt lat="47.505707" lon="13.912268"><ele>1014.87</ele></trkpt><trkpt lat="47.505524" lon="13.91214"><ele>1016.01</ele></trkpt><trkpt lat="47.504946" lon="13.911964"><ele>1018.81</ele></trkpt><trkpt lat="47.50452" lon="13.911605"><ele>1024.48</ele></trkpt><trkpt lat="47.503868" lon="13.911146"><ele>1032.29</ele></trkpt><trkpt lat="47.503357" lon="13.910698"><ele>1041.1</ele></trkpt><trkpt lat="47.503191" lon="13.910512"><ele>1044.07</ele></trkpt><trkpt lat="47.502967" lon="13.910191"><ele>1046.65</ele></trkpt><trkpt lat="47.502556" lon="13.909775"><ele>1054.03</ele></trkpt><trkpt lat="47.502341" lon="13.909643"><ele>1056.3</ele></trkpt><trkpt lat="47.502193" lon="13.909606"><ele>1057.19</ele></trkpt><trkpt lat="47.501916" lon="13.90961"><ele>1058.71</ele></trkpt><trkpt lat="47.501661" lon="13.909478"><ele>1061.14</ele></trkpt><trkpt lat="47.500805" lon="13.908775"><ele>1068.77</ele></trkpt><trkpt lat="47.500594" lon="13.908641"><ele>1071.7</ele></trkpt><trkpt lat="47.50021" lon="13.908472"><ele>1077.27</ele></trkpt><trkpt lat="47.499572" lon="13.908296"><ele>1083.71</ele></trkpt><trkpt lat="47.498951" lon="13.907857"><ele>1090.48</ele></trkpt><trkpt lat="47.498628" lon="13.907748"><ele>1093.8</ele></trkpt><trkpt lat="47.498079" lon="13.907774"><ele>1093.91</ele></trkpt><trkpt lat="47.497938" lon="13.907726"><ele>1092.4</ele></trkpt><trkpt lat="47.497484" lon="13.907428"><ele>1106.66</ele></trkpt><trkpt lat="47.497031" lon="13.907277"><ele>1109.33</ele></trkpt><trkpt lat="47.496837" lon="13.907185"><ele>1110.2</ele></trkpt><trkpt lat="47.496531" lon="13.906952"><ele>1113.82</ele></trkpt><trkpt lat="47.496111" lon="13.90644"><ele>1118.61</ele></trkpt><trkpt lat="47.49597" lon="13.906296"><ele>1120.1</ele></trkpt><trkpt lat="47.495626" lon="13.906134"><ele>1121.37</ele></trkpt><trkpt lat="47.495474" lon="13.906036"><ele>1122.35</ele></trkpt><trkpt lat="47.495365" lon="13.905915"><ele>1124.48</ele><time>2021-08-03T05:33:44Z</time></trkpt></trkseg><trkseg><trkpt lat="47.495365" lon="13.905915"><ele>1124.48</ele><time>2021-08-03T05:27:07Z</time></trkpt><trkpt lat="47.495237" lon="13.905774"><ele>1126.61</ele></trkpt><trkpt lat="47.495026" lon="13.905633"><ele>1127.76</ele></trkpt><trkpt lat="47.494752" lon="13.905501"><ele>1128.82</ele></trkpt><trkpt lat="47.494266" lon="13.905124"><ele>1132.75</ele></trkpt><trkpt lat="47.493856" lon="13.905005"><ele>1135.18</ele></trkpt><trkpt lat="47.49354" lon="13.904785"><ele>1137.67</ele></trkpt><trkpt lat="47.49338" lon="13.904604"><ele>1139.61</ele></trkpt><trkpt lat="47.493121" lon="13.904231"><ele>1143.87</ele></trkpt><trkpt lat="47.493052" lon="13.904053"><ele>1145.38</ele></trkpt><trkpt lat="47.493011" lon="13.903697"><ele>1149.6</ele></trkpt><trkpt lat="47.492837" lon="13.902866"><ele>1158.96</ele></trkpt><trkpt lat="47.492808" lon="13.902594"><ele>1162.05</ele></trkpt><trkpt lat="47.492803" lon="13.901957"><ele>1170.18</ele></trkpt><trkpt lat="47.492846" lon="13.901447"><ele>1175.19</ele></trkpt><trkpt lat="47.492909" lon="13.90112"><ele>1178.22</ele></trkpt><trkpt lat="47.492985" lon="13.900424"><ele>1180.17</ele></trkpt><trkpt lat="47.493146" lon="13.899515"><ele>1180.56</ele></trkpt><trkpt lat="47.493234" lon="13.898836"><ele>1180.11</ele></trkpt><trkpt lat="47.493256" lon="13.898555"><ele>1180.06</ele></trkpt><trkpt lat="47.493234" lon="13.898209"><ele>1180.8</ele></trkpt><trkpt lat="47.493199" lon="13.897987"><ele>1181.62</ele></trkpt><trkpt lat="47.493154" lon="13.897795"><ele>1187.0</ele></trkpt><trkpt lat="47.493075" lon="13.897708"><ele>1186.12</ele></trkpt><trkpt lat="47.492976" lon="13.897671"><ele>1186.18</ele></trkpt><trkpt lat="47.492869" lon="13.897679"><ele>1186.24</ele></trkpt><trkpt lat="47.492772" lon="13.897717"><ele>1186.3</ele></trkpt><trkpt lat="47.492701" lon="13.897836"><ele>1185.93</ele></trkpt><trkpt lat="47.492633" lon="13.898306"><ele>1186.32</ele></trkpt><trkpt lat="47.492585" lon="13.898458"><ele>1186.08</ele></trkpt><trkpt lat="47.492132" lon="13.899512"><ele>1183.56</ele></trkpt><trkpt lat="47.492081" lon="13.89958"><ele>1182.49</ele></trkpt><trkpt lat="47.492002" lon="13.899623"><ele>1181.87</ele></trkpt><trkpt lat="47.491937" lon="13.899588"><ele>1182.24</ele></trkpt><trkpt lat="47.491864" lon="13.899418"><ele>1181.53</ele></trkpt><trkpt lat="47.491891" lon="13.898712"><ele>1183.71</ele></trkpt><trkpt lat="47.491887" lon="13.898322"><ele>1185.95</ele></trkpt><trkpt lat="47.491849" lon="13.898133"><ele>1186.89</ele></trkpt><trkpt lat="47.491683" lon="13.897654"><ele>1196.9</ele></trkpt><trkpt lat="47.491455" lon="13.896823"><ele>1210.69</ele></trkpt><trkpt lat="47.491401" lon="13.896673"><ele>1214.78</ele></trkpt><trkpt lat="47.491232" lon="13.896357"><ele>1221.1</ele></trkpt><trkpt lat="47.491215" lon="13.896275"><ele>1221.91</ele></trkpt><trkpt lat="47.491225" lon="13.895493"><ele>1228.84</ele></trkpt><trkpt lat="47.491213" lon="13.895307"><ele>1230.73</ele></trkpt><trkpt lat="47.491114" lon="13.894853"><ele>1236.23</ele></trkpt><trkpt lat="47.491122" lon="13.894779"><ele>1236.3</ele><time>2021-08-03T05:34:06Z</time></trkpt></trkseg><trkseg><trkpt lat="47.491122" lon="13.894779"><ele>1236.3</ele><time>2021-08-03T05:27:07Z</time></trkpt><trkpt lat="47.491153" lon="13.894693"><ele>1238.7</ele></trkpt><trkpt lat="47.491348" lon="13.894504"><ele>1242.89</ele></trkpt><trkpt lat="47.491438" lon="13.89436"><ele>1246.03</ele></trkpt><trkpt lat="47.491611" lon="13.893898"><ele>1250.92</ele></trkpt><trkpt lat="47.491687" lon="13.893758"><ele>1253.4</ele></trkpt><trkpt lat="47.491795" lon="13.893378"><ele>1257.06</ele></trkpt><trkpt lat="47.491854" lon="13.8933"><ele>1260.37</ele></trkpt><trkpt lat="47.492008" lon="13.893227"><ele>1265.62</ele></trkpt><trkpt lat="47.492136" lon="13.893211"><ele>1267.39</ele></trkpt><trkpt lat="47.492235" lon="13.893225"><ele>1269.95</ele></trkpt><trkpt lat="47.492352" lon="13.893276"><ele>1270.41</ele></trkpt><trkpt lat="47.492471" lon="13.893288"><ele>1272.79</ele></trkpt><trkpt lat="47.492953" lon="13.893172"><ele>1285.46</ele></trkpt><trkpt lat="47.493043" lon="13.893207"><ele>1286.07</ele></trkpt><trkpt lat="47.493163" lon="13.893295"><ele>1287.34</ele></trkpt><trkpt lat="47.4933" lon="13.893425"><ele>1286.32</ele></trkpt><trkpt lat="47.493698" lon="13.893871"><ele>1284.6</ele></trkpt><trkpt lat="47.493773" lon="13.893932"><ele>1283.97</ele></trkpt><trkpt lat="47.494" lon="13.894028"><ele>1283.17</ele></trkpt><trkpt lat="47.494066" lon="13.893998"><ele>1283.16</ele></trkpt><trkpt lat="47.494113" lon="13.893933"><ele>1283.11</ele></trkpt><trkpt lat="47.49414" lon="13.89382"><ele>1283.06</ele></trkpt><trkpt lat="47.49413" lon="13.893679"><ele>1283.71</ele></trkpt><trkpt lat="47.494082" lon="13.893484"><ele>1284.31</ele></trkpt><trkpt lat="47.49389" lon="13.893034"><ele>1286.18</ele></trkpt><trkpt lat="47.49381" lon="13.892757"><ele>1287.16</ele></trkpt><trkpt lat="47.493729" lon="13.892557"><ele>1288.21</ele></trkpt><trkpt lat="47.493642" lon="13.892411"><ele>1288.39</ele></trkpt><trkpt lat="47.493536" lon="13.892308"><ele>1289.84</ele></trkpt><trkpt lat="47.493218" lon="13.892064"><ele>1301.89</ele></trkpt><trkpt lat="47.493086" lon="13.891891"><ele>1304.53</ele></trkpt><trkpt lat="47.492971" lon="13.891789"><ele>1306.57</ele></trkpt><trkpt lat="47.492777" lon="13.891688"><ele>1309.88</ele></trkpt><trkpt lat="47.492549" lon="13.89161"><ele>1315.11</ele></trkpt><trkpt lat="47.492017" lon="13.89154"><ele>1326.9</ele></trkpt><trkpt lat="47.491591" lon="13.891691"><ele>1331.35</ele></trkpt><trkpt lat="47.491487" lon="13.891691"><ele>1331.09</ele></trkpt><trkpt lat="47.491392" lon="13.891664"><ele>1333.24</ele></trkpt><trkpt lat="47.491204" lon="13.891505"><ele>1334.56</ele></trkpt><trkpt lat="47.491153" lon="13.891485"><ele>1335.84</ele></trkpt><trkpt lat="47.491056" lon="13.891515"><ele>1336.69</ele></trkpt><trkpt lat="47.491003" lon="13.891578"><ele>1337.11</ele></trkpt><trkpt lat="47.490886" lon="13.891872"><ele>1335.11</ele></trkpt><trkpt lat="47.490809" lon="13.892005"><ele>1335.21</ele></trkpt><trkpt lat="47.490436" lon="13.892396"><ele>1336.5</ele></trkpt><trkpt lat="47.490049" lon="13.892627"><ele>1335.92</ele></trkpt><trkpt lat="47.489947" lon="13.892649"><ele>1334.85</ele></trkpt><trkpt lat="47.489846" lon="13.89263"><ele>1333.63</ele></trkpt><trkpt lat="47.489376" lon="13.892419"><ele>1338.72</ele></trkpt><trkpt lat="47.489158" lon="13.892217"><ele>1341.93</ele></trkpt><trkpt lat="47.488896" lon="13.892073"><ele>1365.57</ele></trkpt><trkpt lat="47.488872" lon="13.892012"><ele>1365.6</ele></trkpt><trkpt lat="47.488905" lon="13.891894"><ele>1365.62</ele></trkpt><trkpt lat="47.488951" lon="13.891867"><ele>1365.64</ele></trkpt><trkpt lat="47.489143" lon="13.891897"><ele>1365.75</ele></trkpt><trkpt lat="47.489223" lon="13.891852"><ele>1365.33</ele><time>2021-08-03T05:33:09Z</time></trkpt></trkseg><trkseg><trkpt lat="47.489223" lon="13.891852"><ele>1365.33</ele><time>2021-08-03T05:27:07Z</time></trkpt><trkpt lat="47.489387" lon="13.891589"><ele>1365.36</ele></trkpt><trkpt lat="47.489448" lon="13.891548"><ele>1365.66</ele></trkpt><trkpt lat="47.489534" lon="13.891537"><ele>1365.95</ele></trkpt><trkpt lat="47.489588" lon="13.891558"><ele>1366.22</ele></trkpt><trkpt lat="47.489747" lon="13.891768"><ele>1365.78</ele></trkpt><trkpt lat="47.489807" lon="13.891818"><ele>1365.44</ele></trkpt><trkpt lat="47.489877" lon="13.891826"><ele>1365.12</ele></trkpt><trkpt lat="47.48995" lon="13.891797"><ele>1364.8</ele></trkpt><trkpt lat="47.490106" lon="13.891617"><ele>1364.66</ele></trkpt><trkpt lat="47.490185" lon="13.891477"><ele>1364.33</ele></trkpt><trkpt lat="47.490227" lon="13.891308"><ele>1365.38</ele></trkpt><trkpt lat="47.490351" lon="13.890215"><ele>1370.99</ele></trkpt><trkpt lat="47.49039" lon="13.889679"><ele>1379.27</ele></trkpt><trkpt lat="47.490374" lon="13.889395"><ele>1383.47</ele></trkpt><trkpt lat="47.490351" lon="13.889317"><ele>1385.1</ele></trkpt><trkpt lat="47.490316" lon="13.889255"><ele>1385.1</ele></trkpt><trkpt lat="47.49004" lon="13.888938"><ele>1391.38</ele></trkpt><trkpt lat="47.489861" lon="13.888673"><ele>1393.46</ele></trkpt><trkpt lat="47.489357" lon="13.887781"><ele>1404.42</ele></trkpt><trkpt lat="47.489305" lon="13.887567"><ele>1404.76</ele></trkpt><trkpt lat="47.489249" lon="13.88714"><ele>1408.57</ele></trkpt><trkpt lat="47.489188" lon="13.886902"><ele>1410.82</ele></trkpt><trkpt lat="47.489119" lon="13.886523"><ele>1412.85</ele></trkpt><trkpt lat="47.489097" lon="13.886315"><ele>1413.73</ele></trkpt><trkpt lat="47.489093" lon="13.886082"><ele>1414.55</ele></trkpt><trkpt lat="47.489115" lon="13.885828"><ele>1416.63</ele></trkpt><trkpt lat="47.489115" lon="13.885108"><ele>1429.4</ele></trkpt><trkpt lat="47.48915" lon="13.884995"><ele>1431.18</ele></trkpt><trkpt lat="47.489329" lon="13.884614"><ele>1431.86</ele></trkpt><trkpt lat="47.489602" lon="13.883915"><ele>1431.75</ele><time>2021-08-03T05:30:59Z</time></trkpt></trkseg><trkseg><trkpt lat="47.489602" lon="13.883915"><ele>1431.75</ele><time>2021-08-03T05:27:07Z</time></trkpt><trkpt lat="47.489653" lon="13.883746"><ele>1431.69</ele></trkpt><trkpt lat="47.489793" lon="13.883059"><ele>1431.22</ele></trkpt><trkpt lat="47.489868" lon="13.882886"><ele>1430.91</ele></trkpt><trkpt lat="47.490056" lon="13.882624"><ele>1430.62</ele></trkpt><trkpt lat="47.490126" lon="13.882485"><ele>1430.27</ele></trkpt><trkpt lat="47.490343" lon="13.881855"><ele>1429.69</ele></trkpt><trkpt lat="47.490391" lon="13.881788"><ele>1429.51</ele></trkpt><trkpt lat="47.490449" lon="13.881745"><ele>1429.49</ele></trkpt><trkpt lat="47.490648" lon="13.881672"><ele>1429.4</ele></trkpt><trkpt lat="47.490703" lon="13.881623"><ele>1429.32</ele></trkpt><trkpt lat="47.490877" lon="13.881326"><ele>1429.11</ele></trkpt><trkpt lat="47.490965" lon="13.881242"><ele>1429.03</ele></trkpt><trkpt lat="47.491502" lon="13.880915"><ele>1428.97</ele></trkpt><trkpt lat="47.491688" lon="13.880766"><ele>1428.94</ele></trkpt><trkpt lat="47.491972" lon="13.880409"><ele>1429.11</ele></trkpt><trkpt lat="47.492092" lon="13.880217"><ele>1429.26</ele></trkpt><trkpt lat="47.492182" lon="13.880006"><ele>1429.24</ele></trkpt><trkpt lat="47.492291" lon="13.879833"><ele>1428.78</ele></trkpt><trkpt lat="47.492421" lon="13.879724"><ele>1428.28</ele></trkpt><trkpt lat="47.492582" lon="13.879655"><ele>1427.9</ele></trkpt><trkpt lat="47.493119" lon="13.879563"><ele>1427.18</ele></trkpt><trkpt lat="47.493437" lon="13.879476"><ele>1427.29</ele></trkpt><trkpt lat="47.493713" lon="13.879451"><ele>1427.77</ele></trkpt><trkpt lat="47.493938" lon="13.879515"><ele>1428.1</ele><time>2021-08-03T05:30:18Z</time></trkpt></trkseg><trkseg><trkpt lat="47.493938" lon="13.879515"><ele>1428.1</ele><time>2021-08-03T05:27:07Z</time></trkpt><trkpt lat="47.494131" lon="13.879571"><ele>1428.42</ele></trkpt><trkpt lat="47.494528" lon="13.879812"><ele>1429.96</ele></trkpt><trkpt lat="47.49466" lon="13.87985"><ele>1430.44</ele></trkpt><trkpt lat="47.494738" lon="13.87982"><ele>1430.89</ele></trkpt><trkpt lat="47.494853" lon="13.879741"><ele>1435.8</ele></trkpt><trkpt lat="47.495405" lon="13.879014"><ele>1446.0</ele></trkpt><trkpt lat="47.495717" lon="13.878457"><ele>1445.48</ele></trkpt><trkpt lat="47.495833" lon="13.878184"><ele>1445.24</ele></trkpt><trkpt lat="47.495906" lon="13.877929"><ele>1445.54</ele></trkpt><trkpt lat="47.495968" lon="13.877773"><ele>1445.32</ele></trkpt><trkpt lat="47.496187" lon="13.877518"><ele>1445.63</ele></trkpt><trkpt lat="47.496223" lon="13.877416"><ele>1446.39</ele></trkpt><trkpt lat="47.496231" lon="13.877318"><ele>1446.54</ele></trkpt><trkpt lat="47.496213" lon="13.877216"><ele>1446.63</ele></trkpt><trkpt lat="47.496163" lon="13.877113"><ele>1446.67</ele></trkpt><trkpt lat="47.495984" lon="13.876902"><ele>1446.02</ele></trkpt><trkpt lat="47.495872" lon="13.876731"><ele>1445.97</ele><time>2021-08-03T05:29:11Z</time></trkpt></trkseg><trkseg><trkpt lat="47.495872" lon="13.876731"><ele>1445.97</ele><time>2021-08-03T05:27:07Z</time></trkpt><trkpt lat="47.495543" lon="13.876376"><ele>1444.49</ele></trkpt><trkpt lat="47.495456" lon="13.876243"><ele>1444.36</ele></trkpt><trkpt lat="47.495376" lon="13.876"><ele>1443.19</ele></trkpt><trkpt lat="47.495384" lon="13.875839"><ele>1440.94</ele></trkpt><trkpt lat="47.495419" lon="13.875688"><ele>1440.24</ele></trkpt><trkpt lat="47.49549" lon="13.875483"><ele>1439.39</ele></trkpt><trkpt lat="47.495629" lon="13.875174"><ele>1438.54</ele></trkpt><trkpt lat="47.495627" lon="13.875024"><ele>1438.43</ele></trkpt><trkpt lat="47.495605" lon="13.87494"><ele>1437.68</ele></trkpt><trkpt lat="47.49556" lon="13.87486"><ele>1437.59</ele></trkpt><trkpt lat="47.495358" lon="13.874634"><ele>1436.81</ele></trkpt><trkpt lat="47.495303" lon="13.874525"><ele>1436.82</ele></trkpt><trkpt lat="47.495266" lon="13.874393"><ele>1436.82</ele></trkpt><trkpt lat="47.495182" lon="13.873872"><ele>1436.89</ele></trkpt><trkpt lat="47.495145" lon="13.873386"><ele>1436.8</ele></trkpt><trkpt lat="47.49512" lon="13.873234"><ele>1436.65</ele></trkpt><trkpt lat="47.495019" lon="13.872858"><ele>1436.53</ele></trkpt><trkpt lat="47.494977" lon="13.872147"><ele>1439.4</ele></trkpt><trkpt lat="47.494891" lon="13.871487"><ele>1439.96</ele></trkpt><trkpt lat="47.494818" lon="13.871217"><ele>1440.11</ele></trkpt><trkpt lat="47.494776" lon="13.87093"><ele>1440.33</ele></trkpt><trkpt lat="47.494767" lon="13.870673"><ele>1440.82</ele></trkpt><trkpt lat="47.494807" lon="13.870508"><ele>1441.59</ele></trkpt><trkpt lat="47.494853" lon="13.870403"><ele>1441.52</ele></trkpt><trkpt lat="47.495026" lon="13.8701"><ele>1442.8</ele></trkpt><trkpt lat="47.495057" lon="13.86994"><ele>1443.15</ele></trkpt><trkpt lat="47.495067" lon="13.869735"><ele>1444.77</ele></trkpt><trkpt lat="47.49505" lon="13.869529"><ele>1445.64</ele></trkpt><trkpt lat="47.494957" lon="13.869137"><ele>1448.04</ele></trkpt><trkpt lat="47.494752" lon="13.868515"><ele>1450.56</ele></trkpt><trkpt lat="47.494709" lon="13.868264"><ele>1453.85</ele></trkpt><trkpt lat="47.494701" lon="13.867963"><ele>1455.8</ele></trkpt><trkpt lat="47.494776" lon="13.867171"><ele>1458.6</ele></trkpt><trkpt lat="47.494751" lon="13.86582"><ele>1462.09</ele><time>2021-08-03T05:31:35Z</time></trkpt></trkseg><trkseg><trkpt lat="47.494751" lon="13.86582"><ele>1462.09</ele><time>2021-08-03T05:27:07Z</time></trkpt><trkpt lat="47.494821" lon="13.864846"><ele>1463.43</ele></trkpt><trkpt lat="47.494831" lon="13.864129"><ele>1467.2</ele></trkpt><trkpt lat="47.494774" lon="13.863169"><ele>1472.55</ele></trkpt><trkpt lat="47.494728" lon="13.862766"><ele>1473.59</ele></trkpt><trkpt lat="47.494676" lon="13.862507"><ele>1473.36</ele></trkpt><trkpt lat="47.494582" lon="13.86215"><ele>1474.85</ele></trkpt><trkpt lat="47.494376" lon="13.86159"><ele>1477.54</ele></trkpt><trkpt lat="47.494286" lon="13.861287"><ele>1479.05</ele></trkpt><trkpt lat="47.494208" lon="13.860943"><ele>1479.08</ele></trkpt><trkpt lat="47.494208" lon="13.860184"><ele>1484.14</ele></trkpt><trkpt lat="47.494184" lon="13.859745"><ele>1486.3</ele></trkpt><trkpt lat="47.494153" lon="13.859313"><ele>1487.24</ele></trkpt><trkpt lat="47.494063" lon="13.858566"><ele>1489.77</ele></trkpt><trkpt lat="47.494085" lon="13.858034"><ele>1490.56</ele></trkpt><trkpt lat="47.494063" lon="13.857777"><ele>1490.6</ele></trkpt><trkpt lat="47.493946" lon="13.857125"><ele>1491.52</ele></trkpt><trkpt lat="47.493754" lon="13.85627"><ele>1492.17</ele></trkpt><trkpt lat="47.493638" lon="13.85587"><ele>1492.38</ele></trkpt><trkpt lat="47.493475" lon="13.855413"><ele>1491.66</ele></trkpt><trkpt lat="47.49323" lon="13.855056"><ele>1491.4</ele></trkpt><trkpt lat="47.493152" lon="13.854907"><ele>1491.47</ele></trkpt><trkpt lat="47.493129" lon="13.854764"><ele>1491.63</ele></trkpt><trkpt lat="47.493195" lon="13.854126"><ele>1490.24</ele></trkpt><trkpt lat="47.493188" lon="13.853931"><ele>1486.14</ele></trkpt><trkpt lat="47.49315" lon="13.853807"><ele>1485.77</ele></trkpt><trkpt lat="47.492919" lon="13.853545"><ele>1485.1</ele></trkpt><trkpt lat="47.492783" lon="13.853216"><ele>1484.43</ele></trkpt><trkpt lat="47.492668" lon="13.852641"><ele>1482.67</ele></trkpt><trkpt lat="47.492605" lon="13.85242"><ele>1481.63</ele></trkpt><trkpt lat="47.492594" lon="13.852296"><ele>1480.87</ele></trkpt><trkpt lat="47.492619" lon="13.852223"><ele>1480.51</ele></trkpt><trkpt lat="47.492681" lon="13.852172"><ele>1480.17</ele></trkpt><trkpt lat="47.492938" lon="13.852225"><ele>1479.71</ele></trkpt><trkpt lat="47.493003" lon="13.852194"><ele>1479.43</ele></trkpt><trkpt lat="47.493085" lon="13.852052"><ele>1478.42</ele></trkpt><trkpt lat="47.493118" lon="13.851917"><ele>1474.4</ele></trkpt><trkpt lat="47.493172" lon="13.851819"><ele>1472.72</ele></trkpt><trkpt lat="47.493238" lon="13.851759"><ele>1472.71</ele></trkpt><trkpt lat="47.493333" lon="13.851708"><ele>1472.85</ele></trkpt><trkpt lat="47.493618" lon="13.851726"><ele>1472.35</ele><time>2021-08-03T05:33:13Z</time></trkpt></trkseg><trkseg><trkpt lat="47.493618" lon="13.851726"><ele>1472.35</ele><time>2021-08-03T05:27:07Z</time></trkpt><trkpt lat="47.493963" lon="13.851772"><ele>1472.31</ele></trkpt><trkpt lat="47.494076" lon="13.851816"><ele>1472.13</ele></trkpt><trkpt lat="47.494415" lon="13.852037"><ele>1471.62</ele></trkpt><trkpt lat="47.494537" lon="13.852085"><ele>1470.93</ele></trkpt><trkpt lat="47.494927" lon="13.852125"><ele>1469.91</ele></trkpt><trkpt lat="47.495047" lon="13.852116"><ele>1479.4</ele></trkpt><trkpt lat="47.49521" lon="13.852062"><ele>1479.4</ele></trkpt><trkpt lat="47.495464" lon="13.851833"><ele>1487.84</ele></trkpt><trkpt lat="47.495541" lon="13.851703"><ele>1487.67</ele></trkpt><trkpt lat="47.495623" lon="13.851512"><ele>1487.7</ele></trkpt><trkpt lat="47.495867" lon="13.851172"><ele>1488.02</ele></trkpt><trkpt lat="47.495896" lon="13.851049"><ele>1488.74</ele></trkpt><trkpt lat="47.495876" lon="13.850353"><ele>1490.85</ele></trkpt><trkpt lat="47.495855" lon="13.85013"><ele>1492.04</ele></trkpt><trkpt lat="47.495881" lon="13.849988"><ele>1492.79</ele></trkpt><trkpt lat="47.49596" lon="13.84985"><ele>1493.33</ele></trkpt><trkpt lat="47.496019" lon="13.849655"><ele>1493.84</ele></trkpt><trkpt lat="47.496009" lon="13.848981"><ele>1495.13</ele></trkpt><trkpt lat="47.49603" lon="13.848697"><ele>1494.81</ele></trkpt><trkpt lat="47.496036" lon="13.848352"><ele>1494.6</ele></trkpt><trkpt lat="47.49606" lon="13.848269"><ele>1494.86</ele></trkpt><trkpt lat="47.496279" lon="13.847814"><ele>1495.21</ele></trkpt><trkpt lat="47.496371" lon="13.847474"><ele>1495.91</ele></trkpt><trkpt lat="47.496476" lon="13.847186"><ele>1496.03</ele></trkpt><trkpt lat="47.496491" lon="13.84709"><ele>1496.31</ele></trkpt><trkpt lat="47.496488" lon="13.846948"><ele>1496.59</ele></trkpt><trkpt lat="47.496424" lon="13.846659"><ele>1496.69</ele></trkpt><trkpt lat="47.496293" lon="13.846306"><ele>1497.04</ele></trkpt><trkpt lat="47.496247" lon="13.846005"><ele>1496.26</ele></trkpt><trkpt lat="47.496152" lon="13.8456"><ele>1494.09</ele></trkpt><trkpt lat="47.496041" lon="13.845303"><ele>1493.33</ele></trkpt><trkpt lat="47.495776" lon="13.844818"><ele>1491.0</ele></trkpt><trkpt lat="47.495498" lon="13.844526"><ele>1487.58</ele></trkpt><trkpt lat="47.495452" lon="13.84446"><ele>1487.08</ele></trkpt><trkpt lat="47.495427" lon="13.84439"><ele>1486.44</ele></trkpt><trkpt lat="47.495425" lon="13.844239"><ele>1485.78</ele></trkpt><trkpt lat="47.495499" lon="13.844008"><ele>1485.3</ele></trkpt><trkpt lat="47.495497" lon="13.843834"><ele>1484.85</ele></trkpt><trkpt lat="47.495455" lon="13.843682"><ele>1484.41</ele></trkpt><trkpt lat="47.495338" lon="13.843501"><ele>1484.01</ele></trkpt><trkpt lat="47.49521" lon="13.843422"><ele>1483.56</ele></trkpt><trkpt lat="47.494942" lon="13.843313"><ele>1482.71</ele></trkpt><trkpt lat="47.494861" lon="13.843258"><ele>1482.36</ele></trkpt><trkpt lat="47.494801" lon="13.843201"><ele>1482.01</ele></trkpt><trkpt lat="47.494737" lon="13.843053"><ele>1481.09</ele><time>2021-08-03T05:32:10Z</time></trkpt></trkseg><trkseg><trkpt lat="47.494737" lon="13.843053"><ele>1481.09</ele><time>2021-08-03T05:27:07Z</time></trkpt><trkpt lat="47.494734" lon="13.84295"><ele>1480.77</ele></trkpt><trkpt lat="47.494833" lon="13.842717"><ele>1479.86</ele></trkpt><trkpt lat="47.494859" lon="13.842636"><ele>1479.47</ele></trkpt><trkpt lat="47.49486" lon="13.842573"><ele>1479.07</ele></trkpt><trkpt lat="47.494812" lon="13.842488"><ele>1471.1</ele></trkpt><trkpt lat="47.494514" lon="13.842452"><ele>1471.51</ele></trkpt><trkpt lat="47.494416" lon="13.842407"><ele>1471.64</ele></trkpt><trkpt lat="47.494361" lon="13.84236"><ele>1471.75</ele></trkpt><trkpt lat="47.494226" lon="13.842141"><ele>1471.96</ele></trkpt><trkpt lat="47.494113" lon="13.841823"><ele>1471.49</ele></trkpt><trkpt lat="47.494085" lon="13.841668"><ele>1470.96</ele></trkpt><trkpt lat="47.494082" lon="13.840991"><ele>1469.8</ele></trkpt><trkpt lat="47.494121" lon="13.840793"><ele>1465.6</ele></trkpt><trkpt lat="47.494118" lon="13.840686"><ele>1466.27</ele></trkpt><trkpt lat="47.494084" lon="13.840594"><ele>1466.27</ele></trkpt><trkpt lat="47.493988" lon="13.840467"><ele>1466.23</ele></trkpt><trkpt lat="47.493724" lon="13.840283"><ele>1466.17</ele></trkpt><trkpt lat="47.493687" lon="13.840219"><ele>1466.06</ele></trkpt><trkpt lat="47.493665" lon="13.840101"><ele>1466.03</ele></trkpt><trkpt lat="47.493653" lon="13.839838"><ele>1466.38</ele></trkpt><trkpt lat="47.493593" lon="13.839595"><ele>1466.69</ele></trkpt><trkpt lat="47.493423" lon="13.839306"><ele>1466.97</ele></trkpt><trkpt lat="47.492512" lon="13.838291"><ele>1459.54</ele></trkpt><trkpt lat="47.492449" lon="13.838263"><ele>1459.31</ele></trkpt><trkpt lat="47.492358" lon="13.838265"><ele>1459.08</ele></trkpt><trkpt lat="47.492158" lon="13.838315"><ele>1458.99</ele></trkpt><trkpt lat="47.492094" lon="13.838359"><ele>1458.91</ele></trkpt><trkpt lat="47.491745" lon="13.838704"><ele>1457.19</ele></trkpt><trkpt lat="47.491674" lon="13.838732"><ele>1456.8</ele></trkpt><trkpt lat="47.491606" lon="13.838714"><ele>1456.24</ele></trkpt><trkpt lat="47.49114" lon="13.838413"><ele>1452.64</ele></trkpt><trkpt lat="47.490852" lon="13.838348"><ele>1450.77</ele></trkpt><trkpt lat="47.490738" lon="13.838303"><ele>1449.78</ele></trkpt><trkpt lat="47.490628" lon="13.838236"><ele>1449.62</ele></trkpt><trkpt lat="47.490561" lon="13.83815"><ele>1448.83</ele></trkpt><trkpt lat="47.490501" lon="13.838005"><ele>1448.19</ele></trkpt><trkpt lat="47.490436" lon="13.837622"><ele>1446.14</ele></trkpt><trkpt lat="47.490356" lon="13.837396"><ele>1445.62</ele></trkpt><trkpt lat="47.490317" lon="13.837211"><ele>1445.12</ele></trkpt><trkpt lat="47.490294" lon="13.836831"><ele>1444.14</ele></trkpt><trkpt lat="47.490265" lon="13.836616"><ele>1443.43</ele></trkpt><trkpt lat="47.490193" lon="13.836266"><ele>1442.6</ele></trkpt><trkpt lat="47.49019" lon="13.836169"><ele>1442.26</ele></trkpt><trkpt lat="47.490254" lon="13.835974"><ele>1441.8</ele></trkpt><trkpt lat="47.490426" lon="13.835824"><ele>1441.22</ele></trkpt><trkpt lat="47.49064" lon="13.835687"><ele>1440.78</ele></trkpt><trkpt lat="47.490714" lon="13.835581"><ele>1440.37</ele></trkpt><trkpt lat="47.490777" lon="13.835439"><ele>1440.03</ele></trkpt><trkpt lat="47.490841" lon="13.835159"><ele>1440.25</ele></trkpt><trkpt lat="47.490842" lon="13.834993"><ele>1440.98</ele></trkpt><trkpt lat="47.490821" lon="13.834842"><ele>1440.77</ele></trkpt><trkpt lat="47.490699" lon="13.834355"><ele>1440.63</ele><time>2021-08-03T05:32:29Z</time></trkpt></trkseg><trkseg><trkpt lat="47.490699" lon="13.834355"><ele>1440.63</ele><time>2021-08-03T05:27:07Z</time></trkpt><trkpt lat="47.490664" lon="13.833911"><ele>1440.7</ele></trkpt><trkpt lat="47.490627" lon="13.833825"><ele>1441.0</ele></trkpt><trkpt lat="47.490507" lon="13.833695"><ele>1441.27</ele></trkpt><trkpt lat="47.490452" lon="13.83359"><ele>1441.49</ele></trkpt><trkpt lat="47.490265" lon="13.832985"><ele>1441.06</ele></trkpt><trkpt lat="47.490104" lon="13.832742"><ele>1441.83</ele></trkpt><trkpt lat="47.490067" lon="13.832639"><ele>1442.06</ele></trkpt><trkpt lat="47.489993" lon="13.832168"><ele>1443.13</ele></trkpt><trkpt lat="47.48993" lon="13.831968"><ele>1442.5</ele></trkpt><trkpt lat="47.489539" lon="13.831086"><ele>1441.24</ele></trkpt><trkpt lat="47.489013" lon="13.829715"><ele>1412.4</ele></trkpt><trkpt lat="47.488988" lon="13.829467"><ele>1411.89</ele></trkpt><trkpt lat="47.489083" lon="13.828992"><ele>1410.78</ele></trkpt><trkpt lat="47.48933" lon="13.828324"><ele>1414.04</ele></trkpt><trkpt lat="47.489347" lon="13.828196"><ele>1422.6</ele></trkpt><trkpt lat="47.489333" lon="13.827993"><ele>1420.96</ele></trkpt><trkpt lat="47.489221" lon="13.827631"><ele>1421.3</ele></trkpt><trkpt lat="47.489197" lon="13.827423"><ele>1420.76</ele></trkpt><trkpt lat="47.489198" lon="13.827262"><ele>1420.27</ele></trkpt><trkpt lat="47.489225" lon="13.827036"><ele>1416.4</ele></trkpt><trkpt lat="47.489221" lon="13.826872"><ele>1402.43</ele></trkpt><trkpt lat="47.489156" lon="13.826656"><ele>1402.39</ele></trkpt><trkpt lat="47.48898" lon="13.826358"><ele>1400.15</ele></trkpt><trkpt lat="47.488931" lon="13.82619"><ele>1399.24</ele></trkpt><trkpt lat="47.488817" lon="13.825605"><ele>1398.37</ele></trkpt><trkpt lat="47.488612" lon="13.825114"><ele>1396.73</ele></trkpt><trkpt lat="47.488526" lon="13.824974"><ele>1395.4</ele></trkpt><trkpt lat="47.48838" lon="13.824879"><ele>1396.05</ele></trkpt><trkpt lat="47.488125" lon="13.824892"><ele>1394.21</ele></trkpt><trkpt lat="47.488068" lon="13.824871"><ele>1393.3</ele></trkpt><trkpt lat="47.488016" lon="13.824806"><ele>1392.88</ele></trkpt><trkpt lat="47.487976" lon="13.824717"><ele>1391.98</ele></trkpt><trkpt lat="47.487951" lon="13.824612"><ele>1391.69</ele><time>2021-08-03T05:31:36Z</time></trkpt></trkseg><trkseg><trkpt lat="47.487951" lon="13.824612"><ele>1391.69</ele><time>2021-08-03T05:27:07Z</time></trkpt><trkpt lat="47.487884" lon="13.824148"><ele>1390.31</ele></trkpt><trkpt lat="47.487837" lon="13.823963"><ele>1389.88</ele></trkpt><trkpt lat="47.487611" lon="13.823366"><ele>1387.76</ele></trkpt><trkpt lat="47.48755" lon="13.823266"><ele>1387.08</ele></trkpt><trkpt lat="47.487496" lon="13.823221"><ele>1386.62</ele></trkpt><trkpt lat="47.487154" lon="13.823137"><ele>1384.59</ele></trkpt><trkpt lat="47.486966" lon="13.823104"><ele>1384.16</ele></trkpt><trkpt lat="47.486721" lon="13.823098"><ele>1383.25</ele></trkpt><trkpt lat="47.486591" lon="13.822988"><ele>1379.91</ele></trkpt><trkpt lat="47.48639" lon="13.822665"><ele>1376.73</ele></trkpt><trkpt lat="47.486252" lon="13.822372"><ele>1373.44</ele></trkpt><trkpt lat="47.486214" lon="13.822233"><ele>1373.2</ele></trkpt><trkpt lat="47.486153" lon="13.821884"><ele>1372.2</ele></trkpt><trkpt lat="47.486121" lon="13.821791"><ele>1371.37</ele></trkpt><trkpt lat="47.485978" lon="13.821519"><ele>1370.81</ele></trkpt><trkpt lat="47.485935" lon="13.821401"><ele>1369.39</ele></trkpt><trkpt lat="47.485903" lon="13.821244"><ele>1370.66</ele></trkpt><trkpt lat="47.485897" lon="13.82113"><ele>1370.87</ele></trkpt><trkpt lat="47.485932" lon="13.820927"><ele>1371.25</ele></trkpt><trkpt lat="47.485991" lon="13.820759"><ele>1372.67</ele></trkpt><trkpt lat="47.485969" lon="13.820661"><ele>1381.6</ele></trkpt><trkpt lat="47.485926" lon="13.820645"><ele>1356.33</ele></trkpt><trkpt lat="47.485891" lon="13.820657"><ele>1358.44</ele></trkpt><trkpt lat="47.485852" lon="13.820709"><ele>1360.36</ele></trkpt><trkpt lat="47.485784" lon="13.82098"><ele>1358.04</ele></trkpt><trkpt lat="47.485754" lon="13.82124"><ele>1354.88</ele><time>2021-08-03T05:29:39Z</time></trkpt></trkseg><trkseg><trkpt lat="47.485754" lon="13.82124"><ele>1354.88</ele><time>2021-08-03T05:27:07Z</time></trkpt><trkpt lat="47.485669" lon="13.821825"><ele>1346.32</ele></trkpt><trkpt lat="47.485731" lon="13.822221"><ele>1333.04</ele></trkpt><trkpt lat="47.485737" lon="13.822529"><ele>1334.49</ele></trkpt><trkpt lat="47.485669" lon="13.822749"><ele>1327.39</ele></trkpt><trkpt lat="47.485646" lon="13.823174"><ele>1326.22</ele></trkpt><trkpt lat="47.485531" lon="13.823355"><ele>1325.46</ele></trkpt><trkpt lat="47.485316" lon="13.823499"><ele>1324.66</ele></trkpt><trkpt lat="47.485227" lon="13.823706"><ele>1324.61</ele></trkpt><trkpt lat="47.485173" lon="13.823708"><ele>1324.03</ele></trkpt><trkpt lat="47.485133" lon="13.823674"><ele>1324.03</ele></trkpt><trkpt lat="47.484958" lon="13.823121"><ele>1319.96</ele></trkpt><trkpt lat="47.484931" lon="13.822993"><ele>1319.5</ele></trkpt><trkpt lat="47.48495" lon="13.822539"><ele>1319.99</ele></trkpt><trkpt lat="47.484941" lon="13.822422"><ele>1319.71</ele></trkpt><trkpt lat="47.484907" lon="13.822305"><ele>1319.44</ele></trkpt><trkpt lat="47.484718" lon="13.822019"><ele>1319.17</ele></trkpt><trkpt lat="47.484591" lon="13.821656"><ele>1309.05</ele></trkpt><trkpt lat="47.484532" lon="13.821605"><ele>1309.41</ele></trkpt><trkpt lat="47.484457" lon="13.821639"><ele>1309.75</ele></trkpt><trkpt lat="47.484381" lon="13.821703"><ele>1309.83</ele></trkpt><trkpt lat="47.484297" lon="13.821898"><ele>1309.9</ele></trkpt><trkpt lat="47.484249" lon="13.822095"><ele>1310.75</ele></trkpt><trkpt lat="47.484177" lon="13.822542"><ele>1306.0</ele></trkpt><trkpt lat="47.484085" lon="13.823556"><ele>1287.82</ele></trkpt><trkpt lat="47.48409" lon="13.82392"><ele>1287.49</ele></trkpt><trkpt lat="47.484164" lon="13.824335"><ele>1285.82</ele></trkpt><trkpt lat="47.484229" lon="13.82448"><ele>1285.79</ele></trkpt><trkpt lat="47.484305" lon="13.824585"><ele>1284.77</ele></trkpt><trkpt lat="47.484511" lon="13.824743"><ele>1285.32</ele></trkpt><trkpt lat="47.484567" lon="13.824841"><ele>1285.46</ele></trkpt><trkpt lat="47.484603" lon="13.82506"><ele>1284.85</ele></trkpt><trkpt lat="47.484654" lon="13.82568"><ele>1283.89</ele></trkpt><trkpt lat="47.484687" lon="13.825844"><ele>1283.35</ele></trkpt><trkpt lat="47.484774" lon="13.826079"><ele>1282.79</ele></trkpt><trkpt lat="47.484767" lon="13.8262"><ele>1282.39</ele></trkpt><trkpt lat="47.484738" lon="13.826268"><ele>1282.32</ele></trkpt><trkpt lat="47.48456" lon="13.826503"><ele>1281.48</ele></trkpt><trkpt lat="47.484471" lon="13.826554"><ele>1281.43</ele></trkpt><trkpt lat="47.484239" lon="13.826606"><ele>1280.88</ele></trkpt><trkpt lat="47.484161" lon="13.826725"><ele>1278.71</ele></trkpt><trkpt lat="47.484137" lon="13.826865"><ele>1277.22</ele></trkpt><trkpt lat="47.484137" lon="13.827032"><ele>1276.08</ele></trkpt><trkpt lat="47.484184" lon="13.827405"><ele>1275.37</ele></trkpt><trkpt lat="47.484235" lon="13.827655"><ele>1275.47</ele></trkpt><trkpt lat="47.484283" lon="13.827787"><ele>1275.62</ele></trkpt><trkpt lat="47.484561" lon="13.828172"><ele>1276.13</ele></trkpt><trkpt lat="47.484654" lon="13.828353"><ele>1275.88</ele></trkpt><trkpt lat="47.484686" lon="13.828553"><ele>1275.14</ele></trkpt><trkpt lat="47.48471" lon="13.829219"><ele>1276.69</ele><time>2021-08-03T05:32:34Z</time></trkpt></trkseg><trkseg><trkpt lat="47.48471" lon="13.829219"><ele>1276.69</ele><time>2021-08-03T05:27:07Z</time></trkpt><trkpt lat="47.484755" lon="13.829653"><ele>1274.6</ele></trkpt><trkpt lat="47.484841" lon="13.830153"><ele>1271.97</ele></trkpt><trkpt lat="47.484857" lon="13.830362"><ele>1270.14</ele></trkpt><trkpt lat="47.484859" lon="13.830813"><ele>1267.65</ele></trkpt><trkpt lat="47.484844" lon="13.831026"><ele>1266.95</ele></trkpt><trkpt lat="47.48481" lon="13.831171"><ele>1264.83</ele></trkpt><trkpt lat="47.484766" lon="13.831258"><ele>1265.07</ele></trkpt><trkpt lat="47.484704" lon="13.83131"><ele>1263.2</ele></trkpt><trkpt lat="47.484397" lon="13.831376"><ele>1257.21</ele></trkpt><trkpt lat="47.483978" lon="13.831572"><ele>1242.74</ele></trkpt><trkpt lat="47.483609" lon="13.831553"><ele>1237.92</ele></trkpt><trkpt lat="47.483425" lon="13.831602"><ele>1232.76</ele></trkpt><trkpt lat="47.483334" lon="13.831572"><ele>1231.72</ele></trkpt><trkpt lat="47.483263" lon="13.831496"><ele>1232.48</ele></trkpt><trkpt lat="47.483184" lon="13.831382"><ele>1232.29</ele></trkpt><trkpt lat="47.483021" lon="13.831027"><ele>1230.63</ele></trkpt><trkpt lat="47.482964" lon="13.830987"><ele>1230.48</ele></trkpt><trkpt lat="47.482893" lon="13.831002"><ele>1228.69</ele></trkpt><trkpt lat="47.482863" lon="13.831085"><ele>1227.86</ele></trkpt><trkpt lat="47.482879" lon="13.831276"><ele>1227.02</ele></trkpt><trkpt lat="47.482815" lon="13.832118"><ele>1222.7</ele></trkpt><trkpt lat="47.482828" lon="13.832295"><ele>1221.87</ele></trkpt><trkpt lat="47.482985" lon="13.832631"><ele>1219.54</ele></trkpt><trkpt lat="47.483013" lon="13.832826"><ele>1218.16</ele></trkpt><trkpt lat="47.483043" lon="13.833661"><ele>1204.52</ele></trkpt><trkpt lat="47.483128" lon="13.834331"><ele>1201.25</ele></trkpt><trkpt lat="47.483117" lon="13.834514"><ele>1200.31</ele></trkpt><trkpt lat="47.483052" lon="13.834722"><ele>1199.45</ele></trkpt><trkpt lat="47.482918" lon="13.834912"><ele>1198.81</ele></trkpt><trkpt lat="47.482805" lon="13.835015"><ele>1198.19</ele></trkpt><trkpt lat="47.482674" lon="13.835183"><ele>1197.66</ele></trkpt><trkpt lat="47.482617" lon="13.835336"><ele>1197.56</ele></trkpt><trkpt lat="47.482582" lon="13.835492"><ele>1197.28</ele></trkpt><trkpt lat="47.482573" lon="13.835681"><ele>1196.77</ele></trkpt><trkpt lat="47.482715" lon="13.836498"><ele>1195.43</ele></trkpt><trkpt lat="47.482683" lon="13.836792"><ele>1194.89</ele></trkpt><trkpt lat="47.482635" lon="13.836905"><ele>1195.8</ele></trkpt><trkpt lat="47.482533" lon="13.837022"><ele>1186.54</ele></trkpt><trkpt lat="47.482454" lon="13.837079"><ele>1186.1</ele><time>2021-08-03T05:31:38Z</time></trkpt></trkseg><trkseg><trkpt lat="47.482454" lon="13.837079"><ele>1186.1</ele><time>2021-08-03T05:27:07Z</time></trkpt><trkpt lat="47.482226" lon="13.837239"><ele>1185.67</ele></trkpt><trkpt lat="47.482097" lon="13.837371"><ele>1185.34</ele></trkpt><trkpt lat="47.482032" lon="13.837471"><ele>1184.79</ele></trkpt><trkpt lat="47.481887" lon="13.837797"><ele>1184.76</ele></trkpt><trkpt lat="47.481809" lon="13.837927"><ele>1184.68</ele></trkpt><trkpt lat="47.481658" lon="13.838066"><ele>1183.45</ele></trkpt><trkpt lat="47.481216" lon="13.838349"><ele>1180.83</ele></trkpt><trkpt lat="47.480938" lon="13.838597"><ele>1180.31</ele></trkpt><trkpt lat="47.480648" lon="13.838745"><ele>1178.27</ele></trkpt><trkpt lat="47.480595" lon="13.838853"><ele>1177.47</ele></trkpt><trkpt lat="47.480576" lon="13.838934"><ele>1177.05</ele></trkpt><trkpt lat="47.480547" lon="13.839246"><ele>1176.66</ele></trkpt><trkpt lat="47.480512" lon="13.839409"><ele>1176.44</ele></trkpt><trkpt lat="47.48023" lon="13.83983"><ele>1175.38</ele></trkpt><trkpt lat="47.480058" lon="13.840022"><ele>1174.95</ele></trkpt><trkpt lat="47.47991" lon="13.840313"><ele>1173.68</ele></trkpt><trkpt lat="47.479785" lon="13.840665"><ele>1173.57</ele></trkpt><trkpt lat="47.479536" lon="13.841063"><ele>1170.85</ele></trkpt><trkpt lat="47.479483" lon="13.841122"><ele>1166.6</ele><time>2021-08-03T05:29:28Z</time></trkpt><trkpt lat="47.4793" lon="13.841153"><ele>1166.6</ele></trkpt><trkpt lat="47.479047" lon="13.841154"><ele>1162.1</ele></trkpt><trkpt lat="47.478887" lon="13.841128"><ele>1161.98</ele></trkpt><trkpt lat="47.478745" lon="13.841051"><ele>1161.97</ele></trkpt><trkpt lat="47.478643" lon="13.841051"><ele>1161.94</ele></trkpt><trkpt lat="47.478388" lon="13.841169"><ele>1161.77</ele></trkpt><trkpt lat="47.478257" lon="13.841189"><ele>1161.69</ele></trkpt><trkpt lat="47.477846" lon="13.841185"><ele>1161.19</ele></trkpt><trkpt lat="47.477624" lon="13.841244"><ele>1161.15</ele></trkpt><trkpt lat="47.477536" lon="13.841244"><ele>1161.02</ele><time>2021-08-03T05:30:34Z</time></trkpt></trkseg><trkseg><trkpt lat="47.477536" lon="13.841244"><ele>1161.02</ele><time>2021-08-03T05:27:07Z</time></trkpt><trkpt lat="47.477154" lon="13.841305"><ele>1160.05</ele></trkpt><trkpt lat="47.477062" lon="13.841276"><ele>1159.87</ele></trkpt><trkpt lat="47.476969" lon="13.84119"><ele>1159.57</ele></trkpt><trkpt lat="47.476699" lon="13.840755"><ele>1159.46</ele></trkpt><trkpt lat="47.476584" lon="13.840634"><ele>1159.15</ele></trkpt><trkpt lat="47.476455" lon="13.840546"><ele>1158.63</ele></trkpt><trkpt lat="47.476278" lon="13.840475"><ele>1157.07</ele></trkpt><trkpt lat="47.476017" lon="13.840333"><ele>1157.33</ele></trkpt><trkpt lat="47.47589" lon="13.840338"><ele>1157.5</ele></trkpt><trkpt lat="47.475726" lon="13.840446"><ele>1156.88</ele></trkpt><trkpt lat="47.475306" lon="13.840974"><ele>1152.59</ele></trkpt><trkpt lat="47.475209" lon="13.84116"><ele>1150.53</ele></trkpt><trkpt lat="47.475149" lon="13.841326"><ele>1136.2</ele></trkpt><trkpt lat="47.47511" lon="13.841857"><ele>1138.15</ele></trkpt><trkpt lat="47.474991" lon="13.842456"><ele>1138.11</ele></trkpt><trkpt lat="47.474823" lon="13.842962"><ele>1137.44</ele></trkpt><trkpt lat="47.474731" lon="13.843305"><ele>1136.96</ele></trkpt><trkpt lat="47.47447" lon="13.843975"><ele>1135.5</ele></trkpt><trkpt lat="47.474411" lon="13.844252"><ele>1134.89</ele></trkpt><trkpt lat="47.474439" lon="13.844632"><ele>1133.35</ele></trkpt><trkpt lat="47.474497" lon="13.844878"><ele>1132.7</ele></trkpt><trkpt lat="47.474639" lon="13.845327"><ele>1132.51</ele></trkpt><trkpt lat="47.474735" lon="13.845869"><ele>1132.45</ele></trkpt><trkpt lat="47.474751" lon="13.84601"><ele>1131.51</ele></trkpt><trkpt lat="47.474745" lon="13.846105"><ele>1131.99</ele></trkpt><trkpt lat="47.474727" lon="13.846192"><ele>1131.2</ele></trkpt><trkpt lat="47.474687" lon="13.846283"><ele>1131.27</ele></trkpt><trkpt lat="47.474427" lon="13.846471"><ele>1128.44</ele></trkpt><trkpt lat="47.474197" lon="13.846538"><ele>1125.99</ele></trkpt><trkpt lat="47.474119" lon="13.846586"><ele>1123.29</ele></trkpt><trkpt lat="47.473855" lon="13.846866"><ele>1115.09</ele></trkpt><trkpt lat="47.47374" lon="13.847025"><ele>1110.09</ele></trkpt><trkpt lat="47.473555" lon="13.847178"><ele>1102.5</ele></trkpt><trkpt lat="47.473465" lon="13.84729"><ele>1099.36</ele></trkpt><trkpt lat="47.473422" lon="13.847396"><ele>1098.69</ele></trkpt><trkpt lat="47.473317" lon="13.847832"><ele>1095.08</ele></trkpt><trkpt lat="47.473258" lon="13.847943"><ele>1092.8</ele></trkpt><trkpt lat="47.473064" lon="13.848082"><ele>1088.8</ele></trkpt><trkpt lat="47.472884" lon="13.848099"><ele>1087.65</ele></trkpt><trkpt lat="47.472553" lon="13.847894"><ele>1087.23</ele></trkpt><trkpt lat="47.472365" lon="13.847812"><ele>1085.93</ele></trkpt><trkpt lat="47.472276" lon="13.847805"><ele>1085.61</ele></trkpt><trkpt lat="47.472003" lon="13.847869"><ele>1081.5</ele></trkpt><trkpt lat="47.471861" lon="13.847857"><ele>1081.36</ele></trkpt><trkpt lat="47.471735" lon="13.847807"><ele>1081.16</ele></trkpt><trkpt lat="47.471652" lon="13.847811"><ele>1082.63</ele></trkpt><trkpt lat="47.471499" lon="13.847914"><ele>1093.39</ele><time>2021-08-03T05:32:52Z</time></trkpt></trkseg><trkseg><trkpt lat="47.471499" lon="13.847914"><ele>1093.39</ele><time>2021-08-03T05:27:07Z</time></trkpt><trkpt lat="47.471479" lon="13.847927"><ele>1102.8</ele><time>2021-08-03T05:27:10Z</time></trkpt><trkpt lat="47.471227" lon="13.84796"><ele>1102.8</ele></trkpt><trkpt lat="47.471139" lon="13.848006"><ele>1102.8</ele></trkpt><trkpt lat="47.471048" lon="13.848085"><ele>1102.8</ele></trkpt><trkpt lat="47.47097" lon="13.848169"><ele>1102.8</ele></trkpt><trkpt lat="47.470714" lon="13.848539"><ele>1102.8</ele></trkpt><trkpt lat="47.470468" lon="13.848783"><ele>1102.8</ele></trkpt><trkpt lat="47.470289" lon="13.848914"><ele>1102.8</ele></trkpt><trkpt lat="47.470267" lon="13.849023"><ele>1102.8</ele><time>2021-08-03T05:27:43Z</time></trkpt><trkpt lat="47.47027" lon="13.849085"><ele>1102.8</ele><time>2021-08-03T05:27:46Z</time></trkpt><trkpt lat="47.470255" lon="13.849245"><ele>1099.43</ele></trkpt><trkpt lat="47.470191" lon="13.849326"><ele>1099.04</ele></trkpt><trkpt lat="47.469724" lon="13.849641"><ele>1099.6</ele></trkpt><trkpt lat="47.469683" lon="13.849645"><ele>1099.73</ele></trkpt><trkpt lat="47.469639" lon="13.849585"><ele>1099.96</ele></trkpt><trkpt lat="47.469668" lon="13.849475"><ele>1100.17</ele></trkpt><trkpt lat="47.469775" lon="13.849281"><ele>1102.0</ele><time>2021-08-03T05:28:10Z</time></trkpt><trkpt lat="47.469787" lon="13.849207"><ele>1102.0</ele><time>2021-08-03T05:28:13Z</time></trkpt><trkpt lat="47.469742" lon="13.848958"><ele>1110.54</ele></trkpt><trkpt lat="47.469706" lon="13.848895"><ele>1110.76</ele></trkpt><trkpt lat="47.46967" lon="13.848882"><ele>1110.85</ele></trkpt><trkpt lat="47.469646" lon="13.848911"><ele>1110.94</ele></trkpt><trkpt lat="47.469669" lon="13.849107"><ele>1112.0</ele><time>2021-08-03T05:28:24Z</time></trkpt><trkpt lat="47.469651" lon="13.849177"><ele>1102.0</ele><time>2021-08-03T05:28:31Z</time></trkpt><trkpt lat="47.469604" lon="13.849247"><ele>1104.4</ele></trkpt><trkpt lat="47.469565" lon="13.849249"><ele>1104.1</ele></trkpt><trkpt lat="47.469466" lon="13.849122"><ele>1104.86</ele></trkpt><trkpt lat="47.469431" lon="13.849007"><ele>1112.0</ele><time>2021-08-03T05:28:39Z</time></trkpt><trkpt lat="47.469411" lon="13.848942"><ele>1112.0</ele><time>2021-08-03T05:28:42Z</time></trkpt><trkpt lat="47.469312" lon="13.848667"><ele>1112.71</ele></trkpt><trkpt lat="47.469218" lon="13.848565"><ele>1112.64</ele></trkpt><trkpt lat="47.469132" lon="13.84854"><ele>1112.66</ele></trkpt><trkpt lat="47.468902" lon="13.848562"><ele>1112.8</ele></trkpt><trkpt lat="47.468788" lon="13.84869"><ele>1112.89</ele></trkpt><trkpt lat="47.468792" lon="13.848785"><ele>1112.97</ele></trkpt><trkpt lat="47.468912" lon="13.848852"><ele>1113.04</ele></trkpt><trkpt lat="47.468941" lon="13.848889"><ele>1113.6</ele><time>2021-08-03T05:29:05Z</time></trkpt><trkpt lat="47.468966" lon="13.848958"><ele>1113.6</ele><time>2021-08-03T05:29:08Z</time></trkpt><trkpt lat="47.468959" lon="13.849052"><ele>1081.6</ele></trkpt><trkpt lat="47.468726" lon="13.849425"><ele>1073.0</ele></trkpt><trkpt lat="47.46862" lon="13.849645"><ele>1072.75</ele></trkpt><trkpt lat="47.468465" lon="13.84988"><ele>1072.53</ele></trkpt><trkpt lat="47.467964" lon="13.850207"><ele>1064.22</ele></trkpt><trkpt lat="47.467597" lon="13.850403"><ele>1017.0</ele><time>2021-08-03T05:29:59Z</time></trkpt><trkpt lat="47.467459" lon="13.850506"><ele>995.8</ele></trkpt><trkpt lat="47.467379" lon="13.850602"><ele>991.13</ele></trkpt><trkpt lat="47.467261" lon="13.850811"><ele>978.2</ele></trkpt><trkpt lat="47.467221" lon="13.850919"><ele>969.8</ele><time>2021-08-03T05:30:23Z</time></trkpt><trkpt lat="47.467185" lon="13.851138"><ele>969.89</ele><time>2021-08-03T05:30:28Z</time></trkpt></trkseg><trkseg><trkpt lat="47.467185" lon="13.851138"><ele>969.89</ele><time>2021-08-03T05:27:07Z</time></trkpt><trkpt lat="47.467119" lon="13.851595"><ele>969.95</ele></trkpt><trkpt lat="47.466818" lon="13.852359"><ele>970.4</ele><time>2021-08-03T05:27:38Z</time></trkpt><trkpt lat="47.466753" lon="13.852365"><ele>970.4</ele></trkpt><trkpt lat="47.466681" lon="13.85241"><ele>970.4</ele><time>2021-08-03T05:27:42Z</time></trkpt><trkpt lat="47.466422" lon="13.852907"><ele>945.34</ele></trkpt><trkpt lat="47.466289" lon="13.853318"><ele>942.95</ele></trkpt><trkpt lat="47.465961" lon="13.853935"><ele>930.89</ele></trkpt><trkpt lat="47.465793" lon="13.854156"><ele>929.59</ele></trkpt><trkpt lat="47.46571" lon="13.854352"><ele>929.02</ele></trkpt><trkpt lat="47.465672" lon="13.854719"><ele>928.53</ele></trkpt><trkpt lat="47.465687" lon="13.855147"><ele>929.0</ele><time>2021-08-03T05:28:46Z</time></trkpt><trkpt lat="47.465469" lon="13.855595"><ele>927.2</ele></trkpt><trkpt lat="47.465144" lon="13.856121"><ele>926.21</ele></trkpt><trkpt lat="47.464888" lon="13.856401"><ele>924.6</ele></trkpt><trkpt lat="47.464453" lon="13.856954"><ele>922.03</ele></trkpt><trkpt lat="47.464354" lon="13.85724"><ele>921.4</ele></trkpt><trkpt lat="47.464223" lon="13.857974"><ele>919.41</ele></trkpt><trkpt lat="47.464027" lon="13.858718"><ele>917.13</ele><time>2021-08-03T05:30:27Z</time></trkpt></trkseg><trkseg><trkpt lat="47.464027" lon="13.858718"><ele>917.13</ele><time>2021-08-03T05:27:07Z</time></trkpt><trkpt lat="47.463826" lon="13.859468"><ele>916.1</ele></trkpt><trkpt lat="47.463729" lon="13.859711"><ele>915.8</ele></trkpt><trkpt lat="47.46357" lon="13.859958"><ele>914.0</ele></trkpt><trkpt lat="47.463236" lon="13.860206"><ele>907.25</ele></trkpt><trkpt lat="47.462995" lon="13.860573"><ele>906.54</ele></trkpt><trkpt lat="47.462822" lon="13.860964"><ele>906.67</ele></trkpt><trkpt lat="47.462591" lon="13.861385"><ele>905.88</ele></trkpt><trkpt lat="47.462473" lon="13.861656"><ele>905.24</ele></trkpt><trkpt lat="47.462403" lon="13.861868"><ele>904.46</ele></trkpt><trkpt lat="47.462279" lon="13.862812"><ele>900.8</ele><time>2021-08-03T05:28:34Z</time></trkpt><trkpt lat="47.462211" lon="13.862787"><ele>900.8</ele></trkpt><trkpt lat="47.46216" lon="13.862701"><ele>900.8</ele><time>2021-08-03T05:28:37Z</time></trkpt><trkpt lat="47.461534" lon="13.862662"><ele>891.63</ele></trkpt><trkpt lat="47.461236" lon="13.86283"><ele>890.89</ele></trkpt><trkpt lat="47.460916" lon="13.863155"><ele>888.47</ele><time>2021-08-03T05:29:22Z</time></trkpt></trkseg><trkseg><trkpt lat="47.460916" lon="13.863155"><ele>888.47</ele><time>2021-08-03T05:27:07Z</time></trkpt><trkpt lat="47.460641" lon="13.863436"><ele>886.05</ele></trkpt><trkpt lat="47.459558" lon="13.8639"><ele>882.75</ele></trkpt><trkpt lat="47.459253" lon="13.863872"><ele>882.66</ele></trkpt><trkpt lat="47.459024" lon="13.863773"><ele>882.68</ele></trkpt><trkpt lat="47.458778" lon="13.863744"><ele>882.7</ele></trkpt><trkpt lat="47.458584" lon="13.863885"><ele>882.4</ele></trkpt><trkpt lat="47.458436" lon="13.863952"><ele>882.46</ele></trkpt><trkpt lat="47.458189" lon="13.863878"><ele>882.32</ele></trkpt><trkpt lat="47.458111" lon="13.863913"><ele>881.6</ele></trkpt><trkpt lat="47.457956" lon="13.863931"><ele>881.6</ele></trkpt><trkpt lat="47.457801" lon="13.864063"><ele>881.6</ele></trkpt><trkpt lat="47.457615" lon="13.864125"><ele>881.6</ele></trkpt><trkpt lat="47.45751" lon="13.864071"><ele>878.87</ele><time>2021-08-03T05:28:55Z</time></trkpt></trkseg><trkseg><trkpt lat="47.45751" lon="13.864071"><ele>878.87</ele><time>2021-08-03T05:27:07Z</time></trkpt><trkpt lat="47.456493" lon="13.863903"><ele>877.48</ele></trkpt><trkpt lat="47.45625" lon="13.863839"><ele>877.15</ele></trkpt><trkpt lat="47.456132" lon="13.863881"><ele>875.4</ele><time>2021-08-03T05:27:38Z</time></trkpt><trkpt lat="47.455886" lon="13.864498"><ele>866.92</ele></trkpt><trkpt lat="47.455795" lon="13.86462"><ele>866.1</ele></trkpt><trkpt lat="47.453897" lon="13.865322"><ele>847.74</ele></trkpt><trkpt lat="47.45379" lon="13.8654"><ele>847.68</ele></trkpt><trkpt lat="47.453731" lon="13.865559"><ele>847.6</ele></trkpt><trkpt lat="47.453543" lon="13.866849"><ele>845.76</ele></trkpt><trkpt lat="47.453484" lon="13.867138"><ele>842.0</ele></trkpt><trkpt lat="47.453243" lon="13.86883"><ele>833.2</ele></trkpt><trkpt lat="47.452119" lon="13.869522"><ele>831.11</ele></trkpt><trkpt lat="47.451882" lon="13.869694"><ele>829.97</ele></trkpt><trkpt lat="47.451769" lon="13.869817"><ele>829.4</ele></trkpt><trkpt lat="47.451278" lon="13.870723"><ele>828.91</ele></trkpt><trkpt lat="47.45121" lon="13.870991"><ele>828.82</ele></trkpt><trkpt lat="47.451134" lon="13.871153"><ele>828.64</ele></trkpt><trkpt lat="47.451017" lon="13.87125"><ele>828.56</ele></trkpt><trkpt lat="47.450943" lon="13.871285"><ele>827.8</ele><time>2021-08-03T05:30:37Z</time></trkpt><trkpt lat="47.450901" lon="13.871632"><ele>827.8</ele><time>2021-08-03T05:30:43Z</time></trkpt><trkpt lat="47.450567" lon="13.871851"><ele>825.1</ele></trkpt><trkpt lat="47.450235" lon="13.872205"><ele>824.2</ele><time>2021-08-03T05:31:00Z</time></trkpt><trkpt lat="47.45028" lon="13.872078"><ele>824.2</ele><time>2021-08-03T05:31:03Z</time></trkpt></trkseg><trkseg><trkpt lat="47.45028" lon="13.872078"><ele>824.2</ele><time>2021-08-03T05:27:07Z</time></trkpt><trkpt lat="47.450235" lon="13.872205"><ele>824.2</ele><time>2021-08-03T05:27:10Z</time></trkpt><trkpt lat="47.450046" lon="13.872551"><ele>823.8</ele></trkpt><trkpt lat="47.449175" lon="13.87398"><ele>818.47</ele></trkpt><trkpt lat="47.448775" lon="13.874366"><ele>815.8</ele></trkpt><trkpt lat="47.448508" lon="13.87478"><ele>815.8</ele></trkpt><trkpt lat="47.448184" lon="13.875162"><ele>811.8</ele></trkpt><trkpt lat="47.447865" lon="13.875616"><ele>811.35</ele></trkpt><trkpt lat="47.447701" lon="13.875989"><ele>811.2</ele></trkpt><trkpt lat="47.447163" lon="13.877713"><ele>807.0</ele></trkpt><trkpt lat="47.446839" lon="13.878681"><ele>806.6</ele></trkpt><trkpt lat="47.446796" lon="13.878931"><ele>804.96</ele></trkpt><trkpt lat="47.446773" lon="13.879459"><ele>805.16</ele></trkpt><trkpt lat="47.4468" lon="13.88013"><ele>801.2</ele></trkpt><trkpt lat="47.446807" lon="13.880788"><ele>800.6</ele></trkpt><trkpt lat="47.446778" lon="13.880961"><ele>800.4</ele></trkpt><trkpt lat="47.446713" lon="13.881174"><ele>797.29</ele></trkpt><trkpt lat="47.446515" lon="13.881678"><ele>794.97</ele><time>2021-08-03T05:30:02Z</time></trkpt></trkseg><trkseg><trkpt lat="47.446515" lon="13.881678"><ele>794.97</ele><time>2021-08-03T05:27:07Z</time></trkpt><trkpt lat="47.446302" lon="13.882067"><ele>793.2</ele></trkpt><trkpt lat="47.446161" lon="13.882389"><ele>793.2</ele></trkpt><trkpt lat="47.446137" lon="13.882547"><ele>791.93</ele></trkpt><trkpt lat="47.446138" lon="13.883027"><ele>791.87</ele></trkpt><trkpt lat="47.446112" lon="13.883488"><ele>791.76</ele></trkpt><trkpt lat="47.445943" lon="13.884211"><ele>790.24</ele></trkpt><trkpt lat="47.445843" lon="13.884978"><ele>789.8</ele></trkpt><trkpt lat="47.445765" lon="13.885323"><ele>787.14</ele></trkpt><trkpt lat="47.445529" lon="13.886011"><ele>785.6</ele><time>2021-08-03T05:28:18Z</time></trkpt><trkpt lat="47.445532" lon="13.886014"><ele>785.6</ele><time>2021-08-03T05:28:18Z</time></trkpt></trkseg><trkseg><trkpt lat="47.445532" lon="13.886014"><ele>785.6</ele><time>2021-08-03T05:27:07Z</time></trkpt><trkpt lat="47.445607" lon="13.886057"><ele>785.6</ele></trkpt><trkpt lat="47.445646" lon="13.886057"><ele>787.18</ele></trkpt><trkpt lat="47.445675" lon="13.886027"><ele>787.33</ele></trkpt><trkpt lat="47.445792" lon="13.885735"><ele>787.65</ele></trkpt><trkpt lat="47.445869" lon="13.885624"><ele>787.78</ele></trkpt><trkpt lat="47.44594" lon="13.885563"><ele>787.73</ele></trkpt><trkpt lat="47.44604" lon="13.885523"><ele>787.67</ele></trkpt><trkpt lat="47.446303" lon="13.885525"><ele>787.6</ele></trkpt><trkpt lat="47.44635" lon="13.885543"><ele>787.53</ele></trkpt><trkpt lat="47.446387" lon="13.88559"><ele>788.4</ele></trkpt><trkpt lat="47.446389" lon="13.885658"><ele>787.38</ele></trkpt><trkpt lat="47.446235" lon="13.886008"><ele>786.8</ele></trkpt><trkpt lat="47.446165" lon="13.88666"><ele>786.64</ele></trkpt><trkpt lat="47.446068" lon="13.887025"><ele>786.58</ele></trkpt><trkpt lat="47.445854" lon="13.887692"><ele>786.37</ele></trkpt><trkpt lat="47.445835" lon="13.887815"><ele>784.35</ele></trkpt><trkpt lat="47.445843" lon="13.889638"><ele>784.16</ele></trkpt><trkpt lat="47.445884" lon="13.89008"><ele>781.88</ele></trkpt><trkpt lat="47.445959" lon="13.890529"><ele>781.7</ele></trkpt><trkpt lat="47.446084" lon="13.891439"><ele>780.79</ele></trkpt><trkpt lat="47.446095" lon="13.891886"><ele>780.15</ele></trkpt><trkpt lat="47.446088" lon="13.89322"><ele>778.64</ele></trkpt><trkpt lat="47.446261" lon="13.893912"><ele>776.2</ele></trkpt><trkpt lat="47.446299" lon="13.894403"><ele>775.88</ele></trkpt><trkpt lat="47.446276" lon="13.894796"><ele>775.91</ele></trkpt><trkpt lat="47.44625" lon="13.894901"><ele>775.8</ele><time>2021-08-03T05:29:55Z</time></trkpt><trkpt lat="47.446058" lon="13.894821"><ele>775.8</ele></trkpt><trkpt lat="47.44595" lon="13.894731"><ele>775.8</ele></trkpt><trkpt lat="47.445871" lon="13.894621"><ele>775.8</ele><time>2021-08-03T05:30:04Z</time></trkpt><trkpt lat="47.445787" lon="13.894818"><ele>775.5</ele></trkpt><trkpt lat="47.445627" lon="13.895738"><ele>775.0</ele></trkpt><trkpt lat="47.44557" lon="13.896144"><ele>774.9</ele></trkpt><trkpt lat="47.445547" lon="13.896457"><ele>774.6</ele></trkpt><trkpt lat="47.445563" lon="13.897091"><ele>773.88</ele></trkpt><trkpt lat="47.445517" lon="13.897546"><ele>773.83</ele></trkpt><trkpt lat="47.445371" lon="13.898197"><ele>772.9</ele></trkpt><trkpt lat="47.44533" lon="13.898468"><ele>772.78</ele></trkpt><trkpt lat="47.445236" lon="13.899745"><ele>770.68</ele></trkpt><trkpt lat="47.445137" lon="13.90028"><ele>770.61</ele></trkpt><trkpt lat="47.445168" lon="13.900474"><ele>770.4</ele><time>2021-08-03T05:31:35Z</time></trkpt><trkpt lat="47.444769" lon="13.900513"><ele>770.1</ele></trkpt><trkpt lat="47.444363" lon="13.900582"><ele>770.0</ele></trkpt><trkpt lat="47.442949" lon="13.900904"><ele>768.4</ele></trkpt><trkpt lat="47.442737" lon="13.900937"><ele>768.4</ele></trkpt><trkpt lat="47.442503" lon="13.900947"><ele>768.4</ele></trkpt><trkpt lat="47.441866" lon="13.900913"><ele>768.3</ele></trkpt><trkpt lat="47.441605" lon="13.900933"><ele>768.38</ele></trkpt><trkpt lat="47.44117" lon="13.901067"><ele>768.6</ele><time>2021-08-03T05:33:05Z</time></trkpt><trkpt lat="47.441283" lon="13.901309"><ele>768.3</ele></trkpt><trkpt lat="47.441341" lon="13.901488"><ele>768.22</ele></trkpt><trkpt lat="47.441333" lon="13.901673"><ele>767.4</ele><time>2021-08-03T05:33:15Z</time></trkpt><trkpt lat="47.441274" lon="13.901701"><ele>767.4</ele></trkpt><trkpt lat="47.44124" lon="13.901762"><ele>767.4</ele></trkpt><trkpt lat="47.44123" lon="13.901828"><ele>767.4</ele></trkpt><trkpt lat="47.441255" lon="13.901924"><ele>767.4</ele></trkpt><trkpt lat="47.44125" lon="13.902006"><ele>767.4</ele></trkpt><trkpt lat="47.441222" lon="13.902111"><ele>767.4</ele><time>2021-08-03T05:33:23Z</time></trkpt><trkpt lat="47.441139" lon="13.902152"><ele>767.4</ele></trkpt><trkpt lat="47.440999" lon="13.902124"><ele>767.79</ele></trkpt><trkpt lat="47.440878" lon="13.902148"><ele>767.76</ele></trkpt><trkpt lat="47.440623" lon="13.90233"><ele>768.09</ele></trkpt><trkpt lat="47.440484" lon="13.9025"><ele>768.08</ele></trkpt><trkpt lat="47.440306" lon="13.902833"><ele>767.91</ele></trkpt><trkpt lat="47.44017" lon="13.903177"><ele>767.0</ele></trkpt><trkpt lat="47.440094" lon="13.903412"><ele>766.8</ele></trkpt><trkpt lat="47.439722" lon="13.9042"><ele>758.35</ele></trkpt><trkpt lat="47.439555" lon="13.904511"><ele>758.42</ele></trkpt><trkpt lat="47.439479" lon="13.904619"><ele>758.45</ele></trkpt><trkpt lat="47.439407" lon="13.904683"><ele>758.48</ele></trkpt><trkpt lat="47.4392" lon="13.904771"><ele>758.53</ele></trkpt><trkpt lat="47.438894" lon="13.904847"><ele>753.6</ele></trkpt><trkpt lat="47.438787" lon="13.904921"><ele>748.33</ele></trkpt><trkpt lat="47.438634" lon="13.905151"><ele>748.26</ele></trkpt><trkpt lat="47.438567" lon="13.905212"><ele>748.23</ele></trkpt><trkpt lat="47.438452" lon="13.905238"><ele>748.2</ele></trkpt><trkpt lat="47.438356" lon="13.905203"><ele>748.17</ele></trkpt><trkpt lat="47.438282" lon="13.905146"><ele>747.34</ele></trkpt><trkpt lat="47.438192" lon="13.905021"><ele>746.73</ele></trkpt><trkpt lat="47.43799" lon="13.904634"><ele>747.01</ele></trkpt><trkpt lat="47.437792" lon="13.904172"><ele>746.69</ele></trkpt><trkpt lat="47.437564" lon="13.90322"><ele>748.3</ele></trkpt><trkpt lat="47.437512" lon="13.903083"><ele>756.2</ele></trkpt><trkpt lat="47.437377" lon="13.902876"><ele>741.94</ele></trkpt><trkpt lat="47.436991" lon="13.902421"><ele>741.29</ele></trkpt><trkpt lat="47.436775" lon="13.901948"><ele>741.99</ele></trkpt><trkpt lat="47.436465" lon="13.901367"><ele>739.79</ele></trkpt><trkpt lat="47.436299" lon="13.901019"><ele>740.07</ele></trkpt><trkpt lat="47.436195" lon="13.900775"><ele>740.66</ele></trkpt><trkpt lat="47.435986" lon="13.900137"><ele>741.45</ele></trkpt><trkpt lat="47.435864" lon="13.899857"><ele>743.86</ele></trkpt><trkpt lat="47.435641" lon="13.899461"><ele>742.76</ele></trkpt><trkpt lat="47.435547" lon="13.899256"><ele>742.54</ele></trkpt><trkpt lat="47.435424" lon="13.898867"><ele>743.23</ele></trkpt><trkpt lat="47.435375" lon="13.898834"><ele>743.53</ele></trkpt><trkpt lat="47.435328" lon="13.898866"><ele>746.8</ele></trkpt><trkpt lat="47.4353" lon="13.898934"><ele>735.26</ele></trkpt><trkpt lat="47.435336" lon="13.899088"><ele>737.1</ele></trkpt><trkpt lat="47.435482" lon="13.899409"><ele>734.91</ele></trkpt><trkpt lat="47.435637" lon="13.899958"><ele>731.79</ele></trkpt><trkpt lat="47.435712" lon="13.900437"><ele>728.93</ele></trkpt><trkpt lat="47.435823" lon="13.901462"><ele>715.27</ele></trkpt><trkpt lat="47.436056" lon="13.902447"><ele>710.31</ele></trkpt><trkpt lat="47.436278" lon="13.903163"><ele>708.12</ele></trkpt><trkpt lat="47.436417" lon="13.903699"><ele>704.68</ele></trkpt><trkpt lat="47.43645" lon="13.904657"><ele>699.65</ele></trkpt><trkpt lat="47.436473" lon="13.904919"><ele>698.75</ele></trkpt><trkpt lat="47.436532" lon="13.90531"><ele>697.14</ele></trkpt><trkpt lat="47.436636" lon="13.905687"><ele>695.31</ele></trkpt><trkpt lat="47.436631" lon="13.905754"><ele>695.12</ele></trkpt><trkpt lat="47.436607" lon="13.905787"><ele>694.94</ele></trkpt><trkpt lat="47.436561" lon="13.905796"><ele>692.6</ele><time>2021-08-03T05:38:43Z</time></trkpt><trkpt lat="47.436503" lon="13.905761"><ele>692.01</ele></trkpt><trkpt lat="47.436363" lon="13.905132"><ele>692.11</ele></trkpt><trkpt lat="47.436195" lon="13.904546"><ele>693.03</ele></trkpt><trkpt lat="47.436075" lon="13.904316"><ele>693.43</ele></trkpt><trkpt lat="47.435902" lon="13.90416"><ele>694.7</ele></trkpt><trkpt lat="47.435712" lon="13.904101"><ele>683.2</ele></trkpt><trkpt lat="47.434995" lon="13.904152"><ele>673.0</ele></trkpt><trkpt lat="47.434243" lon="13.90411"><ele>672.16</ele></trkpt><trkpt lat="47.433889" lon="13.904125"><ele>671.8</ele></trkpt><trkpt lat="47.432132" lon="13.90426"><ele>670.18</ele></trkpt><trkpt lat="47.431695" lon="13.904415"><ele>670.33</ele></trkpt><trkpt lat="47.430925" lon="13.904845"><ele>670.74</ele></trkpt><trkpt lat="47.4304" lon="13.904999"><ele>670.83</ele></trkpt><trkpt lat="47.430281" lon="13.905002"><ele>671.0</ele><time>2021-08-03T05:41:22Z</time></trkpt><trkpt lat="47.430276" lon="13.904852"><ele>671.17</ele></trkpt><trkpt lat="47.430322" lon="13.904632"><ele>671.47</ele></trkpt><trkpt lat="47.430583" lon="13.903839"><ele>671.73</ele></trkpt><trkpt lat="47.430718" lon="13.903359"><ele>671.93</ele></trkpt><trkpt lat="47.431063" lon="13.901982"><ele>673.17</ele></trkpt><trkpt lat="47.431222" lon="13.901378"><ele>673.75</ele></trkpt><trkpt lat="47.431317" lon="13.901079"><ele>673.96</ele></trkpt><trkpt lat="47.431434" lon="13.900371"><ele>674.21</ele></trkpt><trkpt lat="47.431454" lon="13.89999"><ele>674.24</ele></trkpt><trkpt lat="47.431492" lon="13.899696"><ele>674.23</ele></trkpt><trkpt lat="47.431507" lon="13.899257"><ele>674.2</ele></trkpt><trkpt lat="47.431476" lon="13.898472"><ele>674.12</ele></trkpt><trkpt lat="47.431401" lon="13.897727"><ele>674.13</ele></trkpt><trkpt lat="47.431092" lon="13.896283"><ele>675.08</ele></trkpt><trkpt lat="47.43103" lon="13.895932"><ele>675.55</ele><time>2021-08-03T05:52:04Z</time></trkpt></trkseg><trkseg><trkpt lat="47.43103" lon="13.895932"><ele>675.55</ele><time>2021-08-03T05:27:08Z</time></trkpt><trkpt lat="47.431001" lon="13.895768"><ele>676.02</ele></trkpt><trkpt lat="47.430905" lon="13.89487"><ele>680.41</ele></trkpt><trkpt lat="47.43089" lon="13.894305"><ele>684.68</ele></trkpt><trkpt lat="47.430929" lon="13.893649"><ele>687.96</ele></trkpt><trkpt lat="47.430975" lon="13.893192"><ele>692.56</ele></trkpt><trkpt lat="47.431001" lon="13.892318"><ele>696.65</ele></trkpt><trkpt lat="47.430967" lon="13.891577"><ele>695.57</ele></trkpt><trkpt lat="47.430861" lon="13.890841"><ele>694.04</ele></trkpt><trkpt lat="47.430772" lon="13.890334"><ele>691.43</ele></trkpt><trkpt lat="47.430706" lon="13.890169"><ele>692.1</ele></trkpt><trkpt lat="47.430632" lon="13.889896"><ele>691.51</ele></trkpt><trkpt lat="47.430199" lon="13.888857"><ele>688.16</ele></trkpt><trkpt lat="47.428914" lon="13.886202"><ele>682.1</ele><time>2021-08-03T05:39:08Z</time></trkpt></trkseg><trkseg><trkpt lat="47.428914" lon="13.886202"><ele>682.1</ele><time>2021-08-03T05:27:08Z</time></trkpt><trkpt lat="47.428381" lon="13.885099"><ele>676.05</ele></trkpt><trkpt lat="47.428191" lon="13.88476"><ele>676.0</ele></trkpt><trkpt lat="47.427741" lon="13.884094"><ele>675.81</ele></trkpt><trkpt lat="47.42756" lon="13.883899"><ele>675.87</ele></trkpt><trkpt lat="47.427314" lon="13.883575"><ele>675.95</ele></trkpt><trkpt lat="47.427097" lon="13.883355"><ele>675.9</ele></trkpt><trkpt lat="47.426682" lon="13.882824"><ele>675.8</ele></trkpt><trkpt lat="47.426449" lon="13.882466"><ele>675.71</ele></trkpt><trkpt lat="47.426096" lon="13.881806"><ele>675.66</ele></trkpt><trkpt lat="47.425866" lon="13.881207"><ele>676.04</ele></trkpt><trkpt lat="47.425721" lon="13.880552"><ele>677.36</ele></trkpt><trkpt lat="47.425684" lon="13.880156"><ele>678.11</ele></trkpt><trkpt lat="47.425696" lon="13.879637"><ele>679.21</ele></trkpt><trkpt lat="47.425747" lon="13.879161"><ele>680.57</ele></trkpt><trkpt lat="47.425807" lon="13.878784"><ele>681.43</ele></trkpt><trkpt lat="47.425907" lon="13.878417"><ele>682.3</ele></trkpt><trkpt lat="47.425996" lon="13.877955"><ele>683.03</ele></trkpt><trkpt lat="47.426111" lon="13.877176"><ele>683.51</ele></trkpt><trkpt lat="47.426132" lon="13.876755"><ele>683.16</ele></trkpt><trkpt lat="47.426119" lon="13.876397"><ele>683.02</ele></trkpt><trkpt lat="47.426055" lon="13.87591"><ele>682.49</ele></trkpt><trkpt lat="47.425953" lon="13.875372"><ele>681.46</ele></trkpt><trkpt lat="47.425798" lon="13.874848"><ele>680.81</ele></trkpt><trkpt lat="47.425467" lon="13.874103"><ele>680.35</ele></trkpt><trkpt lat="47.425297" lon="13.873874"><ele>680.47</ele></trkpt><trkpt lat="47.425071" lon="13.87361"><ele>680.51</ele></trkpt><trkpt lat="47.424871" lon="13.873434"><ele>680.67</ele></trkpt><trkpt lat="47.42471" lon="13.873249"><ele>680.69</ele></trkpt><trkpt lat="47.424618" lon="13.873109"><ele>681.2</ele><time>2021-08-03T05:45:00Z</time></trkpt><trkpt lat="47.424829" lon="13.872619"><ele>682.27</ele></trkpt><trkpt lat="47.425385" lon="13.871684"><ele>684.4</ele><time>2021-08-03T05:45:28Z</time></trkpt><trkpt lat="47.425369" lon="13.871481"><ele>690.4</ele></trkpt><trkpt lat="47.42538" lon="13.871284"><ele>690.4</ele></trkpt><trkpt lat="47.425359" lon="13.870944"><ele>690.4</ele><time>2021-08-03T05:45:39Z</time></trkpt><trkpt lat="47.425643" lon="13.870822"><ele>697.8</ele><time>2021-08-03T05:45:46Z</time></trkpt><trkpt lat="47.425521" lon="13.870574"><ele>699.34</ele></trkpt><trkpt lat="47.425387" lon="13.869835"><ele>699.64</ele></trkpt><trkpt lat="47.425215" lon="13.869111"><ele>705.07</ele></trkpt><trkpt lat="47.424797" lon="13.868007"><ele>706.21</ele></trkpt><trkpt lat="47.424675" lon="13.867583"><ele>706.04</ele></trkpt><trkpt lat="47.424516" lon="13.866829"><ele>709.27</ele></trkpt><trkpt lat="47.42432" lon="13.866043"><ele>710.16</ele></trkpt><trkpt lat="47.424122" lon="13.8651"><ele>710.52</ele></trkpt><trkpt lat="47.423825" lon="13.864199"><ele>712.27</ele></trkpt><trkpt lat="47.423525" lon="13.863126"><ele>714.87</ele></trkpt><trkpt lat="47.423297" lon="13.862099"><ele>714.4</ele></trkpt><trkpt lat="47.423127" lon="13.861219"><ele>713.8</ele></trkpt><trkpt lat="47.423295" lon="13.861126"><ele>713.8</ele><time>2021-08-03T05:48:26Z</time></trkpt><trkpt lat="47.423209" lon="13.860374"><ele>715.93</ele></trkpt><trkpt lat="47.423144" lon="13.859517"><ele>715.98</ele></trkpt><trkpt lat="47.423066" lon="13.85792"><ele>715.13</ele></trkpt><trkpt lat="47.423086" lon="13.856184"><ele>713.31</ele></trkpt><trkpt lat="47.423195" lon="13.854286"><ele>710.64</ele></trkpt><trkpt lat="47.423302" lon="13.85311"><ele>708.76</ele></trkpt><trkpt lat="47.423473" lon="13.852108"><ele>707.39</ele></trkpt><trkpt lat="47.423585" lon="13.851573"><ele>705.86</ele></trkpt><trkpt lat="47.423732" lon="13.850952"><ele>705.41</ele></trkpt><trkpt lat="47.423908" lon="13.850342"><ele>705.14</ele></trkpt><trkpt lat="47.424117" lon="13.849769"><ele>704.7</ele></trkpt><trkpt lat="47.424661" lon="13.848649"><ele>704.97</ele></trkpt><trkpt lat="47.424964" lon="13.847875"><ele>706.42</ele></trkpt><trkpt lat="47.425082" lon="13.84743"><ele>709.78</ele></trkpt><trkpt lat="47.425153" lon="13.847062"><ele>709.89</ele></trkpt><trkpt lat="47.425197" lon="13.846711"><ele>710.51</ele></trkpt><trkpt lat="47.425254" lon="13.845743"><ele>711.49</ele></trkpt><trkpt lat="47.425188" lon="13.84554"><ele>712.8</ele><time>2021-08-03T05:52:32Z</time></trkpt><trkpt lat="47.425219" lon="13.845482"><ele>713.94</ele></trkpt><trkpt lat="47.425212" lon="13.845366"><ele>714.29</ele></trkpt><trkpt lat="47.425118" lon="13.845138"><ele>714.51</ele></trkpt><trkpt lat="47.425083" lon="13.844981"><ele>714.75</ele></trkpt><trkpt lat="47.425062" lon="13.844716"><ele>716.8</ele><time>2021-08-03T05:52:45Z</time></trkpt><trkpt lat="47.42538" lon="13.844769"><ele>727.41</ele></trkpt><trkpt lat="47.42608" lon="13.84501"><ele>729.53</ele></trkpt><trkpt lat="47.426247" lon="13.844969"><ele>740.4</ele><time>2021-08-03T05:53:13Z</time></trkpt><trkpt lat="47.426216" lon="13.844695"><ele>743.13</ele></trkpt><trkpt lat="47.426205" lon="13.844417"><ele>744.16</ele></trkpt><trkpt lat="47.426229" lon="13.843871"><ele>744.7</ele></trkpt><trkpt lat="47.42626" lon="13.843538"><ele>745.27</ele></trkpt><trkpt lat="47.426312" lon="13.843215"><ele>745.31</ele></trkpt><trkpt lat="47.42635" lon="13.84264"><ele>747.32</ele></trkpt><trkpt lat="47.426346" lon="13.840487"><ele>754.6</ele></trkpt><trkpt lat="47.426329" lon="13.840288"><ele>754.63</ele><time>2021-08-03T05:54:24Z</time></trkpt></trkseg><trkseg><trkpt lat="47.426329" lon="13.840288"><ele>754.63</ele><time>2021-08-03T05:27:08Z</time></trkpt><trkpt lat="47.426261" lon="13.839724"><ele>754.8</ele><time>2021-08-03T05:27:16Z</time></trkpt><trkpt lat="47.42639" lon="13.83956"><ele>754.8</ele></trkpt><trkpt lat="47.426456" lon="13.839513"><ele>754.8</ele></trkpt><trkpt lat="47.426501" lon="13.839413"><ele>754.8</ele></trkpt><trkpt lat="47.426565" lon="13.83917"><ele>755.07</ele></trkpt><trkpt lat="47.42674" lon="13.83873"><ele>769.2</ele></trkpt><trkpt lat="47.426891" lon="13.838041"><ele>772.6</ele></trkpt><trkpt lat="47.426891" lon="13.837767"><ele>772.6</ele></trkpt><trkpt lat="47.42684" lon="13.83764"><ele>771.51</ele></trkpt><trkpt lat="47.426717" lon="13.837208"><ele>771.42</ele></trkpt><trkpt lat="47.426663" lon="13.836126"><ele>763.2</ele><time>2021-08-03T05:28:17Z</time></trkpt><trkpt lat="47.426705" lon="13.836064"><ele>769.18</ele></trkpt><trkpt lat="47.426698" lon="13.836004"><ele>771.6</ele></trkpt><trkpt lat="47.426683" lon="13.835982"><ele>766.0</ele></trkpt><trkpt lat="47.426623" lon="13.835981"><ele>765.74</ele></trkpt><trkpt lat="47.426608" lon="13.836003"><ele>763.2</ele></trkpt><trkpt lat="47.426544" lon="13.835845"><ele>765.1</ele></trkpt><trkpt lat="47.42643" lon="13.83541"><ele>765.58</ele></trkpt><trkpt lat="47.426338" lon="13.835019"><ele>767.0</ele></trkpt><trkpt lat="47.426144" lon="13.8339"><ele>769.96</ele></trkpt><trkpt lat="47.426096" lon="13.833716"><ele>769.95</ele></trkpt><trkpt lat="47.425882" lon="13.833193"><ele>769.8</ele></trkpt><trkpt lat="47.425567" lon="13.83205"><ele>759.93</ele></trkpt><trkpt lat="47.425425" lon="13.831597"><ele>759.87</ele></trkpt><trkpt lat="47.424357" lon="13.828592"><ele>744.72</ele></trkpt><trkpt lat="47.424255" lon="13.828166"><ele>741.99</ele></trkpt><trkpt lat="47.4242" lon="13.82784"><ele>740.19</ele></trkpt><trkpt lat="47.42409" lon="13.82688"><ele>738.24</ele></trkpt><trkpt lat="47.42395" lon="13.82642"><ele>736.47</ele></trkpt><trkpt lat="47.423624" lon="13.825758"><ele>730.8</ele><time>2021-08-03T05:31:14Z</time></trkpt><trkpt lat="47.423444" lon="13.82548"><ele>730.8</ele><time>2021-08-03T05:31:20Z</time></trkpt><trkpt lat="47.423495" lon="13.825223"><ele>728.2</ele></trkpt><trkpt lat="47.423512" lon="13.824545"><ele>726.2</ele></trkpt><trkpt lat="47.423504" lon="13.823818"><ele>725.96</ele></trkpt><trkpt lat="47.42339" lon="13.822826"><ele>721.19</ele></trkpt><trkpt lat="47.423227" lon="13.821745"><ele>711.8</ele></trkpt><trkpt lat="47.42312" lon="13.82149"><ele>707.67</ele></trkpt><trkpt lat="47.42303" lon="13.821357"><ele>705.6</ele><time>2021-08-03T05:32:24Z</time></trkpt><trkpt lat="47.423134" lon="13.820933"><ele>705.6</ele></trkpt><trkpt lat="47.423309" lon="13.820815"><ele>704.61</ele></trkpt><trkpt lat="47.423517" lon="13.820733"><ele>704.73</ele></trkpt><trkpt lat="47.42367" lon="13.820742"><ele>704.84</ele></trkpt><trkpt lat="47.423797" lon="13.820697"><ele>705.02</ele></trkpt><trkpt lat="47.423836" lon="13.820662"><ele>705.1</ele></trkpt><trkpt lat="47.423864" lon="13.820599"><ele>705.18</ele></trkpt><trkpt lat="47.423938" lon="13.820288"><ele>705.31</ele></trkpt><trkpt lat="47.423983" lon="13.819962"><ele>703.25</ele></trkpt><trkpt lat="47.424005" lon="13.819473"><ele>703.0</ele></trkpt><trkpt lat="47.423998" lon="13.819016"><ele>699.8</ele></trkpt><trkpt lat="47.424034" lon="13.818693"><ele>699.6</ele></trkpt><trkpt lat="47.424031" lon="13.818441"><ele>698.28</ele></trkpt><trkpt lat="47.424074" lon="13.818198"><ele>698.1</ele></trkpt><trkpt lat="47.424159" lon="13.817869"><ele>696.73</ele></trkpt><trkpt lat="47.424162" lon="13.817552"><ele>696.84</ele></trkpt><trkpt lat="47.424078" lon="13.817176"><ele>696.6</ele></trkpt><trkpt lat="47.424065" lon="13.816672"><ele>695.4</ele></trkpt><trkpt lat="47.423985" lon="13.815961"><ele>694.2</ele></trkpt><trkpt lat="47.424152" lon="13.814807"><ele>697.6</ele></trkpt><trkpt lat="47.424202" lon="13.814244"><ele>702.0</ele><time>2021-08-03T05:34:26Z</time></trkpt><trkpt lat="47.423925" lon="13.81391"><ele>700.38</ele><time>2021-08-03T05:34:34Z</time></trkpt></trkseg><trkseg><trkpt lat="47.423925" lon="13.81391"><ele>700.38</ele><time>2021-08-03T05:27:08Z</time></trkpt><trkpt lat="47.423796" lon="13.813755"><ele>698.75</ele></trkpt><trkpt lat="47.423523" lon="13.813231"><ele>698.36</ele></trkpt><trkpt lat="47.423257" lon="13.812569"><ele>696.84</ele></trkpt><trkpt lat="47.422982" lon="13.811809"><ele>696.56</ele></trkpt><trkpt lat="47.422936" lon="13.811339"><ele>696.25</ele></trkpt><trkpt lat="47.422945" lon="13.811042"><ele>696.78</ele></trkpt><trkpt lat="47.423162" lon="13.81027"><ele>697.83</ele></trkpt><trkpt lat="47.423271" lon="13.809209"><ele>700.36</ele></trkpt><trkpt lat="47.423293" lon="13.808415"><ele>701.82</ele></trkpt><trkpt lat="47.42336" lon="13.808132"><ele>703.19</ele></trkpt><trkpt lat="47.423831" lon="13.807028"><ele>705.01</ele></trkpt><trkpt lat="47.423915" lon="13.806683"><ele>705.02</ele></trkpt><trkpt lat="47.423934" lon="13.806321"><ele>705.8</ele></trkpt><trkpt lat="47.423837" lon="13.805878"><ele>705.83</ele></trkpt><trkpt lat="47.423545" lon="13.805107"><ele>706.45</ele></trkpt><trkpt lat="47.423153" lon="13.8042"><ele>705.35</ele></trkpt><trkpt lat="47.422848" lon="13.803376"><ele>704.33</ele></trkpt><trkpt lat="47.422787" lon="13.803092"><ele>704.4</ele><time>2021-08-03T05:30:08Z</time></trkpt><trkpt lat="47.422777" lon="13.802083"><ele>704.7</ele></trkpt><trkpt lat="47.422834" lon="13.801029"><ele>705.8</ele></trkpt><trkpt lat="47.422886" lon="13.800366"><ele>712.36</ele></trkpt><trkpt lat="47.422806" lon="13.799781"><ele>713.1</ele></trkpt><trkpt lat="47.422712" lon="13.799384"><ele>713.35</ele></trkpt><trkpt lat="47.422617" lon="13.799148"><ele>713.82</ele></trkpt><trkpt lat="47.422507" lon="13.798964"><ele>715.62</ele></trkpt><trkpt lat="47.42191" lon="13.798429"><ele>715.97</ele></trkpt><trkpt lat="47.421582" lon="13.798192"><ele>709.4</ele><time>2021-08-03T05:32:21Z</time></trkpt><trkpt lat="47.421283" lon="13.797867"><ele>709.58</ele></trkpt><trkpt lat="47.421094" lon="13.797519"><ele>709.53</ele></trkpt><trkpt lat="47.420991" lon="13.797194"><ele>709.75</ele></trkpt><trkpt lat="47.420932" lon="13.796741"><ele>709.83</ele></trkpt><trkpt lat="47.420768" lon="13.796358"><ele>709.6</ele></trkpt><trkpt lat="47.420663" lon="13.796052"><ele>709.36</ele></trkpt><trkpt lat="47.420637" lon="13.795443"><ele>709.4</ele></trkpt><trkpt lat="47.420439" lon="13.794916"><ele>709.28</ele></trkpt><trkpt lat="47.420446" lon="13.794287"><ele>709.37</ele></trkpt><trkpt lat="47.420357" lon="13.794128"><ele>708.2</ele><time>2021-08-03T05:34:06Z</time></trkpt><trkpt lat="47.420395" lon="13.794122"><ele>709.78</ele><time>2021-08-03T05:34:10Z</time></trkpt></trkseg><trkseg><trkpt lat="47.420395" lon="13.794122"><ele>709.78</ele><time>2021-08-03T05:27:08Z</time></trkpt><trkpt lat="47.420357" lon="13.794128"><ele>708.2</ele><time>2021-08-03T05:27:12Z</time></trkpt><trkpt lat="47.420192" lon="13.793564"><ele>708.2</ele><time>2021-08-03T05:27:26Z</time></trkpt><trkpt lat="47.420498" lon="13.793421"><ele>710.07</ele></trkpt><trkpt lat="47.421211" lon="13.793138"><ele>712.79</ele></trkpt><trkpt lat="47.421622" lon="13.792844"><ele>713.65</ele></trkpt><trkpt lat="47.422269" lon="13.792562"><ele>713.87</ele></trkpt><trkpt lat="47.422422" lon="13.792453"><ele>713.46</ele></trkpt><trkpt lat="47.422479" lon="13.792389"><ele>713.0</ele><time>2021-08-03T05:28:20Z</time></trkpt><trkpt lat="47.42244" lon="13.792077"><ele>712.3</ele></trkpt><trkpt lat="47.422446" lon="13.791839"><ele>712.07</ele></trkpt><trkpt lat="47.422412" lon="13.79159"><ele>711.94</ele></trkpt><trkpt lat="47.42229" lon="13.791109"><ele>711.99</ele></trkpt><trkpt lat="47.422266" lon="13.790792"><ele>712.04</ele></trkpt><trkpt lat="47.422286" lon="13.789862"><ele>711.57</ele></trkpt><trkpt lat="47.422285" lon="13.788147"><ele>711.57</ele></trkpt><trkpt lat="47.422259" lon="13.787328"><ele>712.22</ele><time>2021-08-03T05:29:37Z</time></trkpt></trkseg><trkseg><trkpt lat="47.422259" lon="13.787328"><ele>712.22</ele><time>2021-08-03T05:27:08Z</time></trkpt><trkpt lat="47.422208" lon="13.785779"><ele>712.87</ele></trkpt><trkpt lat="47.422264" lon="13.78532"><ele>712.96</ele></trkpt><trkpt lat="47.422377" lon="13.784984"><ele>713.4</ele></trkpt><trkpt lat="47.422509" lon="13.784706"><ele>714.6</ele></trkpt><trkpt lat="47.422684" lon="13.784426"><ele>715.2</ele></trkpt><trkpt lat="47.422886" lon="13.784179"><ele>715.33</ele></trkpt><trkpt lat="47.423291" lon="13.783592"><ele>716.93</ele></trkpt><trkpt lat="47.42351" lon="13.783203"><ele>717.16</ele></trkpt><trkpt lat="47.423665" lon="13.782836"><ele>717.3</ele><time>2021-08-03T05:28:27Z</time></trkpt></trkseg><trkseg><trkpt lat="47.423665" lon="13.782836"><ele>717.3</ele><time>2021-08-03T05:27:08Z</time></trkpt><trkpt lat="47.423779" lon="13.782506"><ele>717.6</ele></trkpt><trkpt lat="47.423979" lon="13.78212"><ele>719.2</ele></trkpt><trkpt lat="47.42421" lon="13.781764"><ele>720.0</ele></trkpt><trkpt lat="47.424329" lon="13.781521"><ele>720.08</ele></trkpt><trkpt lat="47.424358" lon="13.781289"><ele>720.4</ele><time>2021-08-03T05:27:36Z</time></trkpt><trkpt lat="47.424419" lon="13.781485"><ele>719.56</ele></trkpt><trkpt lat="47.424528" lon="13.781738"><ele>719.39</ele></trkpt><trkpt lat="47.424965" lon="13.783205"><ele>718.33</ele></trkpt><trkpt lat="47.425087" lon="13.783827"><ele>719.4</ele></trkpt><trkpt lat="47.425397" lon="13.785679"><ele>721.2</ele></trkpt><trkpt lat="47.425487" lon="13.786151"><ele>721.35</ele></trkpt><trkpt lat="47.425551" lon="13.786403"><ele>722.0</ele></trkpt><trkpt lat="47.426015" lon="13.787033"><ele>726.0</ele></trkpt><trkpt lat="47.426532" lon="13.787525"><ele>728.8</ele></trkpt><trkpt lat="47.426843" lon="13.787774"><ele>730.27</ele></trkpt><trkpt lat="47.427444" lon="13.788171"><ele>733.27</ele></trkpt><trkpt lat="47.428032" lon="13.788662"><ele>739.8</ele><time>2021-08-03T05:30:03Z</time></trkpt><trkpt lat="47.429023" lon="13.787755"><ele>754.0</ele><time>2021-08-03T05:30:29Z</time></trkpt><trkpt lat="47.429399" lon="13.787406"><ele>779.1</ele></trkpt><trkpt lat="47.429621" lon="13.787244"><ele>779.6</ele><time>2021-08-03T05:30:47Z</time></trkpt><trkpt lat="47.429736" lon="13.787352"><ele>783.75</ele></trkpt><trkpt lat="47.429944" lon="13.787795"><ele>783.37</ele></trkpt><trkpt lat="47.4301" lon="13.788074"><ele>783.73</ele></trkpt><trkpt lat="47.430267" lon="13.788326"><ele>784.07</ele></trkpt><trkpt lat="47.430343" lon="13.788364"><ele>783.54</ele></trkpt><trkpt lat="47.43043" lon="13.788373"><ele>783.05</ele></trkpt><trkpt lat="47.430587" lon="13.788305"><ele>783.44</ele><time>2021-08-03T05:31:31Z</time></trkpt></trkseg><trkseg><trkpt lat="47.430587" lon="13.788305"><ele>783.44</ele><time>2021-08-03T05:27:08Z</time></trkpt><trkpt lat="47.430676" lon="13.788225"><ele>784.86</ele></trkpt><trkpt lat="47.430729" lon="13.788103"><ele>785.1</ele></trkpt><trkpt lat="47.430791" lon="13.787721"><ele>786.59</ele></trkpt><trkpt lat="47.430843" lon="13.787503"><ele>786.23</ele></trkpt><trkpt lat="47.431076" lon="13.785466"><ele>840.0</ele></trkpt><trkpt lat="47.431085" lon="13.785236"><ele>844.43</ele></trkpt><trkpt lat="47.431003" lon="13.783664"><ele>847.2</ele></trkpt><trkpt lat="47.431039" lon="13.783303"><ele>848.45</ele></trkpt><trkpt lat="47.431124" lon="13.783147"><ele>848.8</ele></trkpt><trkpt lat="47.431203" lon="13.78319"><ele>851.38</ele></trkpt><trkpt lat="47.431253" lon="13.783352"><ele>851.46</ele></trkpt><trkpt lat="47.431256" lon="13.783651"><ele>851.53</ele></trkpt><trkpt lat="47.431351" lon="13.783962"><ele>851.59</ele></trkpt><trkpt lat="47.431551" lon="13.78424"><ele>851.53</ele></trkpt><trkpt lat="47.431638" lon="13.784415"><ele>851.48</ele></trkpt><trkpt lat="47.431765" lon="13.784517"><ele>851.78</ele></trkpt><trkpt lat="47.431844" lon="13.78449"><ele>852.06</ele></trkpt><trkpt lat="47.431905" lon="13.784437"><ele>854.8</ele></trkpt><trkpt lat="47.431955" lon="13.78422"><ele>859.89</ele></trkpt><trkpt lat="47.432108" lon="13.783855"><ele>860.08</ele></trkpt><trkpt lat="47.432095" lon="13.783113"><ele>860.85</ele></trkpt><trkpt lat="47.432104" lon="13.782786"><ele>861.37</ele></trkpt><trkpt lat="47.432077" lon="13.782467"><ele>872.2</ele><time>2021-08-03T05:30:47Z</time></trkpt><trkpt lat="47.432003" lon="13.781977"><ele>882.32</ele></trkpt><trkpt lat="47.431956" lon="13.781786"><ele>882.25</ele></trkpt><trkpt lat="47.431937" lon="13.781578"><ele>882.53</ele></trkpt><trkpt lat="47.432102" lon="13.781326"><ele>883.55</ele></trkpt><trkpt lat="47.432626" lon="13.78085"><ele>888.44</ele></trkpt><trkpt lat="47.432777" lon="13.78069"><ele>889.97</ele></trkpt><trkpt lat="47.432942" lon="13.780251"><ele>894.73</ele></trkpt><trkpt lat="47.433145" lon="13.779858"><ele>898.99</ele></trkpt><trkpt lat="47.433374" lon="13.779228"><ele>914.0</ele><time>2021-08-03T05:32:23Z</time></trkpt><trkpt lat="47.433346" lon="13.778787"><ele>919.6</ele></trkpt><trkpt lat="47.433314" lon="13.778577"><ele>918.0</ele><time>2021-08-03T05:32:38Z</time></trkpt><trkpt lat="47.433308" lon="13.778327"><ele>936.75</ele></trkpt><trkpt lat="47.433343" lon="13.778193"><ele>936.3</ele></trkpt><trkpt lat="47.433512" lon="13.777859"><ele>939.56</ele></trkpt><trkpt lat="47.433851" lon="13.77685"><ele>944.68</ele></trkpt><trkpt lat="47.434008" lon="13.776434"><ele>952.29</ele></trkpt><trkpt lat="47.434036" lon="13.776185"><ele>952.34</ele></trkpt><trkpt lat="47.434013" lon="13.775954"><ele>954.26</ele></trkpt><trkpt lat="47.433868" lon="13.775052"><ele>955.87</ele></trkpt><trkpt lat="47.433831" lon="13.774484"><ele>967.0</ele></trkpt><trkpt lat="47.433751" lon="13.773931"><ele>973.8</ele></trkpt><trkpt lat="47.433722" lon="13.773644"><ele>973.8</ele></trkpt><trkpt lat="47.433709" lon="13.773051"><ele>980.91</ele></trkpt><trkpt lat="47.433637" lon="13.772805"><ele>982.18</ele></trkpt><trkpt lat="47.433238" lon="13.772183"><ele>984.41</ele></trkpt><trkpt lat="47.432862" lon="13.77123"><ele>988.74</ele></trkpt><trkpt lat="47.432618" lon="13.770938"><ele>991.56</ele></trkpt><trkpt lat="47.432349" lon="13.770685"><ele>991.94</ele></trkpt><trkpt lat="47.432262" lon="13.770466"><ele>993.91</ele></trkpt><trkpt lat="47.432195" lon="13.770175"><ele>994.33</ele></trkpt><trkpt lat="47.431949" lon="13.769316"><ele>995.55</ele></trkpt><trkpt lat="47.431785" lon="13.768822"><ele>996.28</ele></trkpt><trkpt lat="47.431654" lon="13.767356"><ele>991.4</ele></trkpt><trkpt lat="47.431647" lon="13.767113"><ele>995.33</ele></trkpt><trkpt lat="47.431704" lon="13.766741"><ele>1003.2</ele></trkpt><trkpt lat="47.43167" lon="13.766265"><ele>1004.27</ele></trkpt><trkpt lat="47.431498" lon="13.765568"><ele>1003.57</ele></trkpt><trkpt lat="47.431368" lon="13.76467"><ele>1005.33</ele></trkpt><trkpt lat="47.431184" lon="13.76385"><ele>1006.23</ele></trkpt><trkpt lat="47.43118" lon="13.763406"><ele>1009.36</ele></trkpt><trkpt lat="47.431193" lon="13.763107"><ele>1009.78</ele></trkpt><trkpt lat="47.431177" lon="13.76281"><ele>1010.16</ele></trkpt><trkpt lat="47.431083" lon="13.762308"><ele>1013.11</ele></trkpt><trkpt lat="47.431065" lon="13.761507"><ele>1030.88</ele></trkpt><trkpt lat="47.431072" lon="13.761184"><ele>1031.5</ele></trkpt><trkpt lat="47.431016" lon="13.76101"><ele>1034.0</ele></trkpt><trkpt lat="47.430929" lon="13.760615"><ele>1033.86</ele></trkpt><trkpt lat="47.430881" lon="13.760309"><ele>1033.79</ele></trkpt><trkpt lat="47.430791" lon="13.759138"><ele>1030.72</ele></trkpt><trkpt lat="47.430639" lon="13.758361"><ele>1025.24</ele></trkpt><trkpt lat="47.43057" lon="13.757839"><ele>1022.4</ele><time>2021-08-03T05:40:48Z</time></trkpt><trkpt lat="47.430497" lon="13.757398"><ele>1018.74</ele></trkpt><trkpt lat="47.430386" lon="13.756954"><ele>1019.11</ele></trkpt><trkpt lat="47.430215" lon="13.756364"><ele>1016.59</ele><time>2021-08-03T05:41:24Z</time></trkpt></trkseg><trkseg><trkpt lat="47.430215" lon="13.756364"><ele>1016.59</ele><time>2021-08-03T05:27:08Z</time></trkpt><trkpt lat="47.43" lon="13.755624"><ele>1014.06</ele></trkpt><trkpt lat="47.429662" lon="13.754289"><ele>998.52</ele></trkpt><trkpt lat="47.429579" lon="13.753688"><ele>994.72</ele></trkpt><trkpt lat="47.429553" lon="13.753372"><ele>994.27</ele></trkpt><trkpt lat="47.429258" lon="13.75258"><ele>983.4</ele><time>2021-08-03T05:28:40Z</time></trkpt><trkpt lat="47.429305" lon="13.752529"><ele>983.4</ele></trkpt><trkpt lat="47.429507" lon="13.752449"><ele>969.55</ele></trkpt><trkpt lat="47.429549" lon="13.752389"><ele>969.93</ele></trkpt><trkpt lat="47.42956" lon="13.752325"><ele>970.27</ele></trkpt><trkpt lat="47.42955" lon="13.752198"><ele>970.59</ele></trkpt><trkpt lat="47.429498" lon="13.752032"><ele>970.88</ele></trkpt><trkpt lat="47.429421" lon="13.751857"><ele>971.15</ele></trkpt><trkpt lat="47.429334" lon="13.751737"><ele>971.4</ele></trkpt><trkpt lat="47.429098" lon="13.751582"><ele>968.63</ele></trkpt><trkpt lat="47.429012" lon="13.751463"><ele>966.93</ele></trkpt><trkpt lat="47.429013" lon="13.751367"><ele>946.6</ele></trkpt><trkpt lat="47.429053" lon="13.751107"><ele>950.11</ele></trkpt><trkpt lat="47.429161" lon="13.750874"><ele>951.07</ele></trkpt><trkpt lat="47.429322" lon="13.750693"><ele>951.02</ele></trkpt><trkpt lat="47.429467" lon="13.750634"><ele>950.98</ele></trkpt><trkpt lat="47.429789" lon="13.75067"><ele>950.94</ele></trkpt><trkpt lat="47.429942" lon="13.750652"><ele>950.91</ele></trkpt><trkpt lat="47.430208" lon="13.750375"><ele>952.75</ele></trkpt><trkpt lat="47.430313" lon="13.750089"><ele>963.2</ele></trkpt><trkpt lat="47.430434" lon="13.749899"><ele>967.69</ele></trkpt><trkpt lat="47.430414" lon="13.749723"><ele>968.38</ele></trkpt><trkpt lat="47.430262" lon="13.749632"><ele>968.98</ele></trkpt><trkpt lat="47.430141" lon="13.749659"><ele>969.51</ele></trkpt><trkpt lat="47.429895" lon="13.749822"><ele>968.57</ele></trkpt><trkpt lat="47.429375" lon="13.749456"><ele>967.27</ele></trkpt><trkpt lat="47.429197" lon="13.749069"><ele>973.57</ele></trkpt><trkpt lat="47.42882" lon="13.748135"><ele>976.75</ele></trkpt><trkpt lat="47.428392" lon="13.747693"><ele>981.15</ele></trkpt><trkpt lat="47.428328" lon="13.747573"><ele>980.77</ele></trkpt><trkpt lat="47.428295" lon="13.747472"><ele>980.17</ele></trkpt><trkpt lat="47.428231" lon="13.74708"><ele>980.28</ele></trkpt><trkpt lat="47.42821" lon="13.746696"><ele>980.0</ele></trkpt><trkpt lat="47.428243" lon="13.74627"><ele>979.91</ele></trkpt><trkpt lat="47.428306" lon="13.746039"><ele>979.87</ele></trkpt><trkpt lat="47.428419" lon="13.745808"><ele>980.63</ele></trkpt><trkpt lat="47.428579" lon="13.745533"><ele>986.0</ele></trkpt><trkpt lat="47.428687" lon="13.744748"><ele>990.46</ele></trkpt><trkpt lat="47.429202" lon="13.743037"><ele>1002.54</ele></trkpt><trkpt lat="47.429564" lon="13.742097"><ele>1006.85</ele></trkpt><trkpt lat="47.42962" lon="13.741827"><ele>1006.2</ele></trkpt><trkpt lat="47.429629" lon="13.74146"><ele>1009.02</ele></trkpt><trkpt lat="47.4297" lon="13.741072"><ele>1009.9</ele></trkpt><trkpt lat="47.42995" lon="13.740294"><ele>1011.96</ele></trkpt><trkpt lat="47.430408" lon="13.738564"><ele>1025.38</ele></trkpt><trkpt lat="47.430558" lon="13.73819"><ele>1027.21</ele></trkpt><trkpt lat="47.430778" lon="13.737753"><ele>1028.0</ele></trkpt><trkpt lat="47.431193" lon="13.736491"><ele>1033.37</ele></trkpt><trkpt lat="47.431226" lon="13.736336"><ele>1033.43</ele></trkpt><trkpt lat="47.431237" lon="13.736174"><ele>1033.26</ele></trkpt><trkpt lat="47.431191" lon="13.735797"><ele>1032.97</ele></trkpt><trkpt lat="47.431102" lon="13.735533"><ele>1032.79</ele></trkpt><trkpt lat="47.430992" lon="13.73533"><ele>1032.75</ele></trkpt><trkpt lat="47.430815" lon="13.735064"><ele>1033.37</ele></trkpt><trkpt lat="47.430772" lon="13.734971"><ele>1034.04</ele></trkpt><trkpt lat="47.430724" lon="13.734831"><ele>1034.38</ele></trkpt><trkpt lat="47.430697" lon="13.734595"><ele>1035.35</ele></trkpt><trkpt lat="47.430715" lon="13.734414"><ele>1036.52</ele></trkpt><trkpt lat="47.430771" lon="13.734232"><ele>1037.16</ele></trkpt><trkpt lat="47.43109" lon="13.733595"><ele>1039.3</ele></trkpt><trkpt lat="47.431205" lon="13.733285"><ele>1040.43</ele></trkpt><trkpt lat="47.431293" lon="13.732756"><ele>1034.6</ele></trkpt><trkpt lat="47.431258" lon="13.732583"><ele>1031.32</ele></trkpt><trkpt lat="47.431223" lon="13.73223"><ele>1031.2</ele></trkpt><trkpt lat="47.431174" lon="13.731947"><ele>1030.7</ele></trkpt><trkpt lat="47.431116" lon="13.731721"><ele>1030.59</ele></trkpt><trkpt lat="47.43103" lon="13.731503"><ele>1030.39</ele></trkpt><trkpt lat="47.430967" lon="13.731176"><ele>1030.21</ele></trkpt><trkpt lat="47.430995" lon="13.730775"><ele>1029.23</ele></trkpt><trkpt lat="47.431076" lon="13.730117"><ele>1027.44</ele></trkpt><trkpt lat="47.431099" lon="13.728988"><ele>1024.07</ele></trkpt><trkpt lat="47.43114" lon="13.728696"><ele>1023.24</ele></trkpt><trkpt lat="47.431358" lon="13.727954"><ele>1020.96</ele></trkpt><trkpt lat="47.431435" lon="13.727151"><ele>1020.41</ele></trkpt><trkpt lat="47.431545" lon="13.72673"><ele>1018.85</ele></trkpt><trkpt lat="47.431594" lon="13.726391"><ele>1017.05</ele></trkpt><trkpt lat="47.431623" lon="13.724332"><ele>997.1</ele></trkpt><trkpt lat="47.431586" lon="13.723674"><ele>1001.6</ele></trkpt><trkpt lat="47.431413" lon="13.722329"><ele>983.2</ele></trkpt><trkpt lat="47.431244" lon="13.721398"><ele>977.73</ele></trkpt><trkpt lat="47.431309" lon="13.720998"><ele>975.0</ele><time>2021-08-03T05:40:51Z</time></trkpt><trkpt lat="47.431648" lon="13.720697"><ele>959.83</ele></trkpt><trkpt lat="47.431689" lon="13.720414"><ele>960.62</ele></trkpt><trkpt lat="47.431592" lon="13.719919"><ele>958.87</ele></trkpt><trkpt lat="47.431589" lon="13.719676"><ele>958.3</ele></trkpt><trkpt lat="47.431653" lon="13.719475"><ele>957.27</ele></trkpt><trkpt lat="47.431881" lon="13.719138"><ele>956.2</ele></trkpt><trkpt lat="47.432023" lon="13.718877"><ele>955.63</ele></trkpt><trkpt lat="47.432066" lon="13.718602"><ele>954.49</ele></trkpt><trkpt lat="47.432068" lon="13.718476"><ele>952.22</ele></trkpt><trkpt lat="47.43205" lon="13.718342"><ele>951.8</ele></trkpt><trkpt lat="47.432004" lon="13.718257"><ele>949.32</ele></trkpt><trkpt lat="47.431946" lon="13.718191"><ele>949.68</ele></trkpt><trkpt lat="47.431859" lon="13.718134"><ele>949.87</ele></trkpt><trkpt lat="47.431686" lon="13.718075"><ele>949.41</ele></trkpt><trkpt lat="47.431142" lon="13.718014"><ele>948.14</ele></trkpt><trkpt lat="47.430905" lon="13.718033"><ele>946.85</ele></trkpt><trkpt lat="47.430776" lon="13.71809"><ele>946.5</ele></trkpt><trkpt lat="47.430674" lon="13.718156"><ele>945.84</ele></trkpt><trkpt lat="47.430535" lon="13.718284"><ele>943.57</ele></trkpt><trkpt lat="47.430457" lon="13.718314"><ele>942.31</ele></trkpt><trkpt lat="47.430379" lon="13.71832"><ele>942.19</ele></trkpt><trkpt lat="47.430017" lon="13.718248"><ele>940.82</ele></trkpt><trkpt lat="47.429641" lon="13.718226"><ele>928.09</ele><time>2021-08-03T05:42:36Z</time></trkpt></trkseg><trkseg><trkpt lat="47.429641" lon="13.718226"><ele>928.09</ele><time>2021-08-03T05:27:08Z</time></trkpt><trkpt lat="47.429421" lon="13.718232"><ele>926.19</ele></trkpt><trkpt lat="47.429095" lon="13.718325"><ele>915.6</ele><time>2021-08-03T05:27:21Z</time></trkpt><trkpt lat="47.429077" lon="13.718082"><ele>915.6</ele></trkpt><trkpt lat="47.42899" lon="13.717439"><ele>921.24</ele></trkpt><trkpt lat="47.428876" lon="13.717031"><ele>923.0</ele><time>2021-08-03T05:27:42Z</time></trkpt><trkpt lat="47.428796" lon="13.717195"><ele>923.0</ele><time>2021-08-03T05:27:45Z</time></trkpt><trkpt lat="47.428787" lon="13.717398"><ele>923.94</ele></trkpt><trkpt lat="47.42874" lon="13.717603"><ele>923.46</ele></trkpt><trkpt lat="47.428697" lon="13.717695"><ele>923.02</ele></trkpt><trkpt lat="47.428646" lon="13.717768"><ele>922.61</ele></trkpt><trkpt lat="47.428505" lon="13.717892"><ele>922.39</ele></trkpt><trkpt lat="47.428412" lon="13.718037"><ele>922.6</ele></trkpt><trkpt lat="47.428189" lon="13.718511"><ele>925.08</ele></trkpt><trkpt lat="47.428131" lon="13.718603"><ele>925.5</ele></trkpt><trkpt lat="47.428066" lon="13.718676"><ele>925.89</ele></trkpt><trkpt lat="47.427911" lon="13.718772"><ele>926.79</ele></trkpt><trkpt lat="47.427748" lon="13.718937"><ele>928.4</ele></trkpt><trkpt lat="47.427458" lon="13.71937"><ele>933.42</ele></trkpt><trkpt lat="47.427415" lon="13.719491"><ele>934.82</ele></trkpt><trkpt lat="47.427366" lon="13.71982"><ele>936.43</ele></trkpt><trkpt lat="47.427322" lon="13.719978"><ele>937.09</ele></trkpt><trkpt lat="47.427269" lon="13.720098"><ele>937.45</ele></trkpt><trkpt lat="47.427204" lon="13.720173"><ele>937.83</ele></trkpt><trkpt lat="47.427035" lon="13.720243"><ele>939.18</ele></trkpt><trkpt lat="47.426864" lon="13.720494"><ele>939.18</ele></trkpt><trkpt lat="47.426739" lon="13.720523"><ele>939.7</ele></trkpt><trkpt lat="47.426636" lon="13.720477"><ele>940.92</ele></trkpt><trkpt lat="47.426295" lon="13.720173"><ele>944.92</ele></trkpt><trkpt lat="47.426196" lon="13.720161"><ele>946.47</ele></trkpt><trkpt lat="47.426078" lon="13.720231"><ele>948.3</ele></trkpt><trkpt lat="47.426002" lon="13.720345"><ele>949.22</ele></trkpt><trkpt lat="47.425916" lon="13.720574"><ele>950.44</ele></trkpt><trkpt lat="47.425873" lon="13.72064"><ele>952.07</ele></trkpt><trkpt lat="47.425661" lon="13.720693"><ele>958.69</ele></trkpt><trkpt lat="47.42545" lon="13.720872"><ele>965.31</ele></trkpt><trkpt lat="47.425359" lon="13.720882"><ele>965.94</ele></trkpt><trkpt lat="47.425244" lon="13.720862"><ele>965.61</ele></trkpt><trkpt lat="47.425125" lon="13.720813"><ele>966.28</ele></trkpt><trkpt lat="47.425021" lon="13.720732"><ele>966.98</ele></trkpt><trkpt lat="47.424935" lon="13.720587"><ele>968.68</ele></trkpt><trkpt lat="47.424766" lon="13.72047"><ele>970.93</ele></trkpt><trkpt lat="47.424672" lon="13.720452"><ele>972.11</ele></trkpt><trkpt lat="47.424562" lon="13.720471"><ele>974.87</ele></trkpt><trkpt lat="47.42449" lon="13.720516"><ele>976.26</ele></trkpt><trkpt lat="47.424363" lon="13.720638"><ele>977.23</ele></trkpt><trkpt lat="47.424284" lon="13.720643"><ele>977.75</ele></trkpt><trkpt lat="47.424211" lon="13.720562"><ele>978.65</ele></trkpt><trkpt lat="47.424154" lon="13.72042"><ele>988.6</ele></trkpt><trkpt lat="47.424134" lon="13.720271"><ele>988.6</ele></trkpt><trkpt lat="47.424067" lon="13.720029"><ele>988.6</ele></trkpt><trkpt lat="47.424017" lon="13.719925"><ele>997.54</ele></trkpt><trkpt lat="47.423944" lon="13.719831"><ele>997.65</ele></trkpt><trkpt lat="47.423682" lon="13.719595"><ele>998.26</ele></trkpt><trkpt lat="47.423391" lon="13.719425"><ele>998.29</ele></trkpt><trkpt lat="47.423173" lon="13.719363"><ele>998.8</ele></trkpt><trkpt lat="47.422952" lon="13.719341"><ele>999.27</ele></trkpt><trkpt lat="47.422756" lon="13.719371"><ele>1000.82</ele></trkpt><trkpt lat="47.42256" lon="13.719449"><ele>1002.73</ele></trkpt><trkpt lat="47.421735" lon="13.719894"><ele>1005.29</ele></trkpt><trkpt lat="47.421591" lon="13.719897"><ele>1008.47</ele></trkpt><trkpt lat="47.421303" lon="13.719782"><ele>1020.2</ele></trkpt><trkpt lat="47.42027" lon="13.719954"><ele>1018.67</ele></trkpt><trkpt lat="47.420128" lon="13.720016"><ele>1017.73</ele></trkpt><trkpt lat="47.420043" lon="13.720104"><ele>1016.95</ele></trkpt><trkpt lat="47.419932" lon="13.720294"><ele>1016.81</ele><time>2021-08-03T05:33:55Z</time></trkpt></trkseg><trkseg><trkpt lat="47.419932" lon="13.720294"><ele>1016.81</ele><time>2021-08-03T05:27:08Z</time></trkpt><trkpt lat="47.419776" lon="13.720514"><ele>1017.01</ele></trkpt><trkpt lat="47.419637" lon="13.720648"><ele>1016.73</ele></trkpt><trkpt lat="47.419499" lon="13.720706"><ele>1016.73</ele></trkpt><trkpt lat="47.419339" lon="13.720709"><ele>1016.74</ele></trkpt><trkpt lat="47.419013" lon="13.720477"><ele>1017.41</ele></trkpt><trkpt lat="47.418777" lon="13.720207"><ele>1017.94</ele></trkpt><trkpt lat="47.418528" lon="13.719855"><ele>1020.97</ele></trkpt><trkpt lat="47.418274" lon="13.719161"><ele>1023.98</ele></trkpt><trkpt lat="47.418018" lon="13.718923"><ele>1024.55</ele></trkpt><trkpt lat="47.417765" lon="13.718427"><ele>1025.41</ele></trkpt><trkpt lat="47.417558" lon="13.717937"><ele>1025.12</ele></trkpt><trkpt lat="47.417409" lon="13.717382"><ele>1022.52</ele></trkpt><trkpt lat="47.417231" lon="13.71656"><ele>1015.6</ele></trkpt><trkpt lat="47.416935" lon="13.714812"><ele>1000.4</ele></trkpt><trkpt lat="47.416583" lon="13.713382"><ele>995.65</ele></trkpt><trkpt lat="47.41653" lon="13.713256"><ele>984.2</ele><time>2021-08-03T05:30:52Z</time></trkpt><trkpt lat="47.416218" lon="13.712827"><ele>982.67</ele></trkpt><trkpt lat="47.416109" lon="13.712596"><ele>981.94</ele></trkpt><trkpt lat="47.415995" lon="13.712205"><ele>982.42</ele></trkpt><trkpt lat="47.415909" lon="13.711996"><ele>982.86</ele></trkpt><trkpt lat="47.415806" lon="13.711891"><ele>981.6</ele></trkpt><trkpt lat="47.415319" lon="13.711506"><ele>979.97</ele></trkpt><trkpt lat="47.415099" lon="13.711495"><ele>973.8</ele><time>2021-08-03T05:31:58Z</time></trkpt><trkpt lat="47.414876" lon="13.711019"><ele>965.99</ele></trkpt><trkpt lat="47.414708" lon="13.710951"><ele>965.26</ele></trkpt><trkpt lat="47.414625" lon="13.710732"><ele>965.08</ele></trkpt><trkpt lat="47.414448" lon="13.710422"><ele>964.2</ele><time>2021-08-03T05:32:21Z</time></trkpt><trkpt lat="47.414439" lon="13.709839"><ele>966.84</ele></trkpt><trkpt lat="47.41452" lon="13.709514"><ele>967.21</ele></trkpt><trkpt lat="47.414645" lon="13.709187"><ele>967.15</ele></trkpt><trkpt lat="47.414636" lon="13.70821"><ele>968.85</ele></trkpt><trkpt lat="47.414603" lon="13.707842"><ele>969.48</ele></trkpt><trkpt lat="47.414464" lon="13.707113"><ele>972.6</ele></trkpt><trkpt lat="47.41418" lon="13.70616"><ele>974.2</ele><time>2021-08-03T05:33:36Z</time></trkpt><trkpt lat="47.413758" lon="13.706059"><ele>969.84</ele></trkpt><trkpt lat="47.413606" lon="13.705747"><ele>969.6</ele></trkpt><trkpt lat="47.413475" lon="13.705375"><ele>969.4</ele></trkpt><trkpt lat="47.413399" lon="13.704992"><ele>968.0</ele><time>2021-08-03T05:34:07Z</time></trkpt><trkpt lat="47.413612" lon="13.704822"><ele>968.0</ele></trkpt><trkpt lat="47.413803" lon="13.704546"><ele>967.56</ele></trkpt><trkpt lat="47.41392" lon="13.703606"><ele>967.46</ele><time>2021-08-03T05:34:36Z</time></trkpt></trkseg><trkseg><trkpt lat="47.41392" lon="13.703606"><ele>967.46</ele><time>2021-08-03T05:27:08Z</time></trkpt><trkpt lat="47.413969" lon="13.703301"><ele>967.4</ele></trkpt><trkpt lat="47.41396" lon="13.703138"><ele>967.0</ele></trkpt><trkpt lat="47.413823" lon="13.702761"><ele>967.91</ele></trkpt><trkpt lat="47.413545" lon="13.702181"><ele>967.8</ele></trkpt><trkpt lat="47.413395" lon="13.701744"><ele>967.75</ele></trkpt><trkpt lat="47.413345" lon="13.700984"><ele>970.2</ele></trkpt><trkpt lat="47.413309" lon="13.700874"><ele>974.5</ele></trkpt><trkpt lat="47.412747" lon="13.699773"><ele>975.89</ele></trkpt><trkpt lat="47.4126" lon="13.699417"><ele>976.11</ele></trkpt><trkpt lat="47.412483" lon="13.698958"><ele>985.0</ele><time>2021-08-03T05:28:29Z</time></trkpt><trkpt lat="47.41201" lon="13.699059"><ele>980.6</ele></trkpt><trkpt lat="47.411913" lon="13.699112"><ele>980.29</ele><time>2021-08-03T05:28:42Z</time></trkpt></trkseg><trkseg><trkpt lat="47.411913" lon="13.699112"><ele>980.29</ele><time>2021-08-03T05:27:08Z</time></trkpt><trkpt lat="47.411874" lon="13.699133"><ele>979.97</ele></trkpt><trkpt lat="47.411645" lon="13.699457"><ele>979.57</ele></trkpt><trkpt lat="47.411341" lon="13.699997"><ele>977.4</ele><time>2021-08-03T05:27:26Z</time></trkpt><trkpt lat="47.411165" lon="13.700191"><ele>971.17</ele></trkpt><trkpt lat="47.410921" lon="13.700596"><ele>971.24</ele></trkpt><trkpt lat="47.410874" lon="13.700829"><ele>971.29</ele></trkpt><trkpt lat="47.410863" lon="13.700953"><ele>966.0</ele><time>2021-08-03T05:28:10Z</time></trkpt><trkpt lat="47.410827" lon="13.70085"><ele>972.42</ele></trkpt><trkpt lat="47.410641" lon="13.700467"><ele>972.64</ele></trkpt><trkpt lat="47.410584" lon="13.700386"><ele>973.92</ele></trkpt><trkpt lat="47.410549" lon="13.700349"><ele>973.91</ele></trkpt><trkpt lat="47.410473" lon="13.700361"><ele>973.9</ele></trkpt><trkpt lat="47.410413" lon="13.7002"><ele>973.89</ele></trkpt><trkpt lat="47.410206" lon="13.700033"><ele>973.88</ele></trkpt><trkpt lat="47.40973" lon="13.700003"><ele>974.2</ele></trkpt><trkpt lat="47.409308" lon="13.699939"><ele>988.2</ele><time>2021-08-03T05:29:13Z</time></trkpt><trkpt lat="47.408982" lon="13.699362"><ele>1000.22</ele></trkpt><trkpt lat="47.408763" lon="13.698826"><ele>1004.6</ele></trkpt><trkpt lat="47.408737" lon="13.698643"><ele>1005.83</ele></trkpt><trkpt lat="47.4088" lon="13.698081"><ele>1009.66</ele></trkpt><trkpt lat="47.408891" lon="13.697817"><ele>1009.7</ele></trkpt><trkpt lat="47.409033" lon="13.697489"><ele>1010.15</ele></trkpt><trkpt lat="47.409083" lon="13.697262"><ele>1010.98</ele></trkpt><trkpt lat="47.408899" lon="13.696105"><ele>1013.63</ele></trkpt><trkpt lat="47.408892" lon="13.695699"><ele>1015.21</ele></trkpt><trkpt lat="47.408922" lon="13.695381"><ele>1017.13</ele></trkpt><trkpt lat="47.409065" lon="13.694834"><ele>1019.42</ele><time>2021-08-03T05:32:23Z</time></trkpt></trkseg><trkseg><trkpt lat="47.409065" lon="13.694834"><ele>1019.42</ele><time>2021-08-03T05:27:08Z</time></trkpt><trkpt lat="47.409193" lon="13.694428"><ele>1020.31</ele></trkpt><trkpt lat="47.409303" lon="13.693741"><ele>1020.9</ele></trkpt><trkpt lat="47.409308" lon="13.693594"><ele>1024.4</ele><time>2021-08-03T05:27:52Z</time></trkpt><trkpt lat="47.409298" lon="13.693198"><ele>1025.6</ele></trkpt><trkpt lat="47.409246" lon="13.692467"><ele>1026.67</ele></trkpt><trkpt lat="47.409167" lon="13.691856"><ele>1028.01</ele></trkpt><trkpt lat="47.409084" lon="13.691359"><ele>1029.95</ele></trkpt><trkpt lat="47.408988" lon="13.690892"><ele>1031.52</ele></trkpt><trkpt lat="47.408737" lon="13.689804"><ele>1033.83</ele></trkpt><trkpt lat="47.408055" lon="13.687949"><ele>1036.51</ele></trkpt><trkpt lat="47.407625" lon="13.686934"><ele>1036.83</ele></trkpt><trkpt lat="47.407631" lon="13.686581"><ele>1037.06</ele></trkpt><trkpt lat="47.407519" lon="13.686158"><ele>1036.68</ele></trkpt><trkpt lat="47.40746" lon="13.686024"><ele>1036.47</ele></trkpt><trkpt lat="47.407355" lon="13.685859"><ele>1035.0</ele></trkpt><trkpt lat="47.407177" lon="13.685679"><ele>1037.0</ele></trkpt><trkpt lat="47.406998" lon="13.6854"><ele>1038.07</ele></trkpt><trkpt lat="47.406795" lon="13.684934"><ele>1038.28</ele></trkpt><trkpt lat="47.406333" lon="13.683496"><ele>1044.43</ele></trkpt><trkpt lat="47.406295" lon="13.6833"><ele>1044.92</ele></trkpt><trkpt lat="47.406298" lon="13.683129"><ele>1045.35</ele></trkpt><trkpt lat="47.406389" lon="13.682858"><ele>1048.8</ele></trkpt><trkpt lat="47.406548" lon="13.682576"><ele>1048.8</ele><time>2021-08-03T05:32:03Z</time></trkpt><trkpt lat="47.406566" lon="13.682346"><ele>1052.27</ele></trkpt><trkpt lat="47.406403" lon="13.681701"><ele>1054.0</ele><time>2021-08-03T05:32:17Z</time></trkpt><trkpt lat="47.406034" lon="13.680545"><ele>1063.83</ele></trkpt><trkpt lat="47.405964" lon="13.68019"><ele>1064.47</ele></trkpt><trkpt lat="47.405734" lon="13.679533"><ele>1064.0</ele><time>2021-08-03T05:32:53Z</time></trkpt><trkpt lat="47.406069" lon="13.679263"><ele>1078.24</ele></trkpt><trkpt lat="47.406346" lon="13.679084"><ele>1078.78</ele></trkpt><trkpt lat="47.40657" lon="13.678977"><ele>1081.6</ele><time>2021-08-03T05:33:14Z</time></trkpt><trkpt lat="47.406179" lon="13.677539"><ele>1086.92</ele></trkpt><trkpt lat="47.406104" lon="13.676812"><ele>1095.88</ele></trkpt><trkpt lat="47.406117" lon="13.67653"><ele>1095.78</ele></trkpt><trkpt lat="47.406181" lon="13.676098"><ele>1096.31</ele></trkpt><trkpt lat="47.406178" lon="13.675772"><ele>1097.13</ele></trkpt><trkpt lat="47.406086" lon="13.675011"><ele>1099.25</ele></trkpt><trkpt lat="47.406044" lon="13.674327"><ele>1100.61</ele></trkpt><trkpt lat="47.406005" lon="13.674013"><ele>1101.76</ele></trkpt><trkpt lat="47.405895" lon="13.673594"><ele>1102.9</ele></trkpt><trkpt lat="47.405839" lon="13.673464"><ele>1104.4</ele><time>2021-08-03T05:34:41Z</time></trkpt><trkpt lat="47.406002" lon="13.673304"><ele>1109.97</ele></trkpt><trkpt lat="47.406122" lon="13.673216"><ele>1110.91</ele></trkpt><trkpt lat="47.40631" lon="13.673204"><ele>1113.1</ele></trkpt><trkpt lat="47.406766" lon="13.673374"><ele>1116.16</ele></trkpt><trkpt lat="47.406884" lon="13.673354"><ele>1117.02</ele></trkpt><trkpt lat="47.407273" lon="13.673178"><ele>1119.88</ele></trkpt><trkpt lat="47.407469" lon="13.673167"><ele>1121.47</ele></trkpt><trkpt lat="47.407559" lon="13.673221"><ele>1123.26</ele></trkpt><trkpt lat="47.407765" lon="13.673463"><ele>1124.65</ele></trkpt><trkpt lat="47.407818" lon="13.673498"><ele>1125.05</ele></trkpt><trkpt lat="47.407924" lon="13.673528"><ele>1125.11</ele></trkpt><trkpt lat="47.408121" lon="13.673534"><ele>1126.78</ele></trkpt><trkpt lat="47.408212" lon="13.673509"><ele>1127.48</ele></trkpt><trkpt lat="47.408891" lon="13.672936"><ele>1128.65</ele></trkpt><trkpt lat="47.408942" lon="13.672804"><ele>1142.96</ele></trkpt><trkpt lat="47.409004" lon="13.672402"><ele>1148.4</ele><time>2021-08-03T05:36:05Z</time></trkpt><trkpt lat="47.409054" lon="13.671919"><ele>1150.2</ele></trkpt><trkpt lat="47.409071" lon="13.671397"><ele>1153.8</ele><time>2021-08-03T05:36:21Z</time></trkpt><trkpt lat="47.409122" lon="13.670898"><ele>1164.53</ele></trkpt><trkpt lat="47.409355" lon="13.669996"><ele>1186.0</ele></trkpt><trkpt lat="47.409362" lon="13.669831"><ele>1189.28</ele></trkpt><trkpt lat="47.409251" lon="13.668611"><ele>1195.2</ele></trkpt><trkpt lat="47.409278" lon="13.666533"><ele>1204.63</ele></trkpt><trkpt lat="47.409429" lon="13.665318"><ele>1216.13</ele></trkpt><trkpt lat="47.409635" lon="13.664347"><ele>1216.09</ele></trkpt><trkpt lat="47.40972" lon="13.663339"><ele>1220.83</ele></trkpt><trkpt lat="47.409718" lon="13.663196"><ele>1220.94</ele></trkpt><trkpt lat="47.409654" lon="13.662768"><ele>1220.93</ele></trkpt><trkpt lat="47.409638" lon="13.662572"><ele>1220.92</ele></trkpt><trkpt lat="47.409674" lon="13.661927"><ele>1223.75</ele></trkpt><trkpt lat="47.409655" lon="13.66139"><ele>1224.12</ele></trkpt><trkpt lat="47.409687" lon="13.661138"><ele>1224.7</ele></trkpt><trkpt lat="47.409758" lon="13.660932"><ele>1225.03</ele></trkpt><trkpt lat="47.409872" lon="13.660693"><ele>1225.28</ele><time>2021-08-03T05:39:19Z</time></trkpt></trkseg><trkseg><trkpt lat="47.409872" lon="13.660693"><ele>1225.28</ele><time>2021-08-03T05:27:08Z</time></trkpt><trkpt lat="47.410102" lon="13.660214"><ele>1225.54</ele></trkpt><trkpt lat="47.410143" lon="13.66018"><ele>1225.37</ele></trkpt><trkpt lat="47.410283" lon="13.660162"><ele>1227.4</ele></trkpt><trkpt lat="47.410444" lon="13.66023"><ele>1231.44</ele></trkpt><trkpt lat="47.410544" lon="13.660319"><ele>1232.7</ele></trkpt><trkpt lat="47.410585" lon="13.660423"><ele>1233.92</ele></trkpt><trkpt lat="47.4106" lon="13.660505"><ele>1234.28</ele></trkpt><trkpt lat="47.410582" lon="13.660956"><ele>1234.66</ele></trkpt><trkpt lat="47.410601" lon="13.661081"><ele>1235.75</ele></trkpt><trkpt lat="47.41063" lon="13.66116"><ele>1235.93</ele></trkpt><trkpt lat="47.411051" lon="13.661894"><ele>1237.92</ele></trkpt><trkpt lat="47.411107" lon="13.662041"><ele>1238.06</ele></trkpt><trkpt lat="47.411223" lon="13.662747"><ele>1244.76</ele></trkpt><trkpt lat="47.411555" lon="13.664091"><ele>1258.2</ele></trkpt><trkpt lat="47.411634" lon="13.664512"><ele>1260.75</ele></trkpt><trkpt lat="47.411675" lon="13.664635"><ele>1262.99</ele></trkpt><trkpt lat="47.411948" lon="13.665227"><ele>1262.86</ele></trkpt><trkpt lat="47.412171" lon="13.665843"><ele>1270.8</ele></trkpt><trkpt lat="47.412354" lon="13.666773"><ele>1270.76</ele></trkpt><trkpt lat="47.412469" lon="13.667136"><ele>1270.95</ele></trkpt><trkpt lat="47.412613" lon="13.667499"><ele>1270.72</ele></trkpt><trkpt lat="47.412636" lon="13.667522"><ele>1270.51</ele></trkpt><trkpt lat="47.412917" lon="13.667523"><ele>1268.8</ele><time>2021-08-03T05:29:41Z</time></trkpt></trkseg><trkseg><trkpt lat="47.412917" lon="13.667523"><ele>1268.8</ele><time>2021-08-03T05:27:08Z</time></trkpt><trkpt lat="47.413056" lon="13.667518"><ele>1268.8</ele><time>2021-08-03T05:27:13Z</time></trkpt><trkpt lat="47.413133" lon="13.667483"><ele>1271.18</ele></trkpt><trkpt lat="47.413159" lon="13.667411"><ele>1271.56</ele></trkpt><trkpt lat="47.413192" lon="13.667195"><ele>1271.73</ele></trkpt><trkpt lat="47.413202" lon="13.666948"><ele>1272.02</ele></trkpt><trkpt lat="47.413136" lon="13.666341"><ele>1273.4</ele></trkpt><trkpt lat="47.413271" lon="13.665855"><ele>1273.4</ele><time>2021-08-03T05:27:54Z</time></trkpt><trkpt lat="47.413278" lon="13.665186"><ele>1267.0</ele></trkpt><trkpt lat="47.413295" lon="13.664941"><ele>1267.16</ele></trkpt><trkpt lat="47.413278" lon="13.664719"><ele>1266.8</ele></trkpt><trkpt lat="47.413191" lon="13.664178"><ele>1265.79</ele></trkpt><trkpt lat="47.413157" lon="13.66406"><ele>1265.54</ele></trkpt><trkpt lat="47.41313" lon="13.663814"><ele>1264.39</ele></trkpt><trkpt lat="47.413124" lon="13.663617"><ele>1264.25</ele></trkpt><trkpt lat="47.41316" lon="13.663156"><ele>1260.26</ele><time>2021-08-03T05:31:00Z</time></trkpt></trkseg><trkseg><trkpt lat="47.41316" lon="13.663156"><ele>1260.26</ele><time>2021-08-03T05:27:08Z</time></trkpt><trkpt lat="47.413236" lon="13.662555"><ele>1258.79</ele></trkpt><trkpt lat="47.413497" lon="13.662033"><ele>1252.58</ele></trkpt><trkpt lat="47.413587" lon="13.661743"><ele>1248.34</ele></trkpt><trkpt lat="47.413629" lon="13.661497"><ele>1247.51</ele></trkpt><trkpt lat="47.413748" lon="13.66052"><ele>1236.6</ele></trkpt><trkpt lat="47.4137" lon="13.658968"><ele>1241.35</ele><time>2021-08-03T05:30:41Z</time></trkpt></trkseg><trkseg><trkpt lat="47.4137" lon="13.658968"><ele>1241.35</ele><time>2021-08-03T05:27:08Z</time></trkpt><trkpt lat="47.413684" lon="13.658478"><ele>1242.19</ele></trkpt><trkpt lat="47.413611" lon="13.657668"><ele>1244.3</ele></trkpt><trkpt lat="47.413589" lon="13.657049"><ele>1246.42</ele></trkpt><trkpt lat="47.4136" lon="13.656678"><ele>1246.99</ele></trkpt><trkpt lat="47.413661" lon="13.656352"><ele>1248.86</ele></trkpt><trkpt lat="47.413805" lon="13.655032"><ele>1249.9</ele></trkpt><trkpt lat="47.413825" lon="13.654568"><ele>1247.48</ele></trkpt><trkpt lat="47.41381" lon="13.654166"><ele>1247.47</ele></trkpt><trkpt lat="47.413837" lon="13.653719"><ele>1247.67</ele></trkpt><trkpt lat="47.413773" lon="13.651836"><ele>1251.64</ele></trkpt><trkpt lat="47.413675" lon="13.650934"><ele>1251.57</ele></trkpt><trkpt lat="47.413652" lon="13.650609"><ele>1251.61</ele></trkpt><trkpt lat="47.413656" lon="13.650108"><ele>1251.59</ele></trkpt><trkpt lat="47.413724" lon="13.649586"><ele>1251.12</ele></trkpt><trkpt lat="47.413732" lon="13.648936"><ele>1250.95</ele></trkpt><trkpt lat="47.413721" lon="13.648612"><ele>1250.62</ele></trkpt><trkpt lat="47.413745" lon="13.647904"><ele>1247.0</ele><time>2021-08-03T05:30:04Z</time></trkpt><trkpt lat="47.413775" lon="13.647766"><ele>1238.7</ele></trkpt><trkpt lat="47.413868" lon="13.647514"><ele>1239.55</ele></trkpt><trkpt lat="47.414276" lon="13.646617"><ele>1239.35</ele><time>2021-08-03T05:31:49Z</time></trkpt></trkseg><trkseg><trkpt lat="47.414276" lon="13.646617"><ele>1239.35</ele><time>2021-08-03T05:27:08Z</time></trkpt><trkpt lat="47.414346" lon="13.646391"><ele>1237.63</ele></trkpt><trkpt lat="47.414393" lon="13.646329"><ele>1236.75</ele></trkpt><trkpt lat="47.414507" lon="13.646292"><ele>1235.59</ele></trkpt><trkpt lat="47.415103" lon="13.646221"><ele>1225.16</ele></trkpt><trkpt lat="47.415188" lon="13.646191"><ele>1219.4</ele><time>2021-08-03T05:28:56Z</time></trkpt><trkpt lat="47.415373" lon="13.646188"><ele>1218.44</ele></trkpt><trkpt lat="47.415687" lon="13.646126"><ele>1218.62</ele></trkpt><trkpt lat="47.416289" lon="13.645913"><ele>1215.0</ele></trkpt><trkpt lat="47.416916" lon="13.645299"><ele>1212.17</ele></trkpt><trkpt lat="47.417441" lon="13.644707"><ele>1207.16</ele></trkpt><trkpt lat="47.417785" lon="13.644246"><ele>1207.4</ele></trkpt><trkpt lat="47.418096" lon="13.643881"><ele>1205.93</ele></trkpt><trkpt lat="47.419113" lon="13.643081"><ele>1201.42</ele></trkpt><trkpt lat="47.419547" lon="13.642805"><ele>1200.14</ele></trkpt><trkpt lat="47.419814" lon="13.642673"><ele>1199.2</ele></trkpt><trkpt lat="47.419981" lon="13.642463"><ele>1197.65</ele></trkpt><trkpt lat="47.420143" lon="13.642192"><ele>1196.77</ele></trkpt><trkpt lat="47.420317" lon="13.641512"><ele>1194.97</ele></trkpt><trkpt lat="47.420547" lon="13.641101"><ele>1190.4</ele><time>2021-08-03T05:31:25Z</time></trkpt><trkpt lat="47.420433" lon="13.640849"><ele>1188.17</ele></trkpt><trkpt lat="47.42029" lon="13.64062"><ele>1188.35</ele></trkpt><trkpt lat="47.420178" lon="13.64038"><ele>1188.51</ele></trkpt><trkpt lat="47.420041" lon="13.639871"><ele>1188.31</ele></trkpt><trkpt lat="47.419918" lon="13.639231"><ele>1181.27</ele></trkpt><trkpt lat="47.419808" lon="13.638762"><ele>1177.8</ele></trkpt><trkpt lat="47.419662" lon="13.637986"><ele>1174.94</ele></trkpt><trkpt lat="47.419652" lon="13.637778"><ele>1174.89</ele></trkpt><trkpt lat="47.41966" lon="13.637553"><ele>1174.84</ele></trkpt><trkpt lat="47.419723" lon="13.637035"><ele>1171.6</ele><time>2021-08-03T05:32:31Z</time></trkpt><trkpt lat="47.420295" lon="13.636695"><ele>1171.48</ele></trkpt><trkpt lat="47.420742" lon="13.636353"><ele>1171.47</ele><time>2021-08-03T05:32:56Z</time></trkpt></trkseg><trkseg><trkpt lat="47.420742" lon="13.636353"><ele>1171.47</ele><time>2021-08-03T05:27:08Z</time></trkpt><trkpt lat="47.420869" lon="13.636256"><ele>1171.46</ele></trkpt><trkpt lat="47.421046" lon="13.636157"><ele>1171.43</ele></trkpt><trkpt lat="47.422138" lon="13.635865"><ele>1178.74</ele></trkpt><trkpt lat="47.422879" lon="13.635587"><ele>1184.4</ele></trkpt><trkpt lat="47.423565" lon="13.63524"><ele>1193.4</ele></trkpt><trkpt lat="47.424114" lon="13.634988"><ele>1193.4</ele></trkpt><trkpt lat="47.42464" lon="13.63468"><ele>1205.55</ele></trkpt><trkpt lat="47.425145" lon="13.634559"><ele>1206.7</ele></trkpt><trkpt lat="47.425266" lon="13.63455"><ele>1211.2</ele></trkpt><trkpt lat="47.425476" lon="13.634574"><ele>1214.6</ele></trkpt><trkpt lat="47.425626" lon="13.63456"><ele>1213.95</ele></trkpt><trkpt lat="47.426102" lon="13.634354"><ele>1215.63</ele></trkpt><trkpt lat="47.426589" lon="13.634232"><ele>1217.88</ele></trkpt><trkpt lat="47.427062" lon="13.633998"><ele>1223.26</ele></trkpt><trkpt lat="47.427623" lon="13.633793"><ele>1241.89</ele></trkpt><trkpt lat="47.428143" lon="13.63375"><ele>1245.0</ele></trkpt><trkpt lat="47.429664" lon="13.633544"><ele>1280.13</ele></trkpt><trkpt lat="47.430016" lon="13.633539"><ele>1280.13</ele></trkpt><trkpt lat="47.430563" lon="13.633394"><ele>1287.47</ele><time>2021-08-03T05:30:55Z</time></trkpt></trkseg><trkseg><trkpt lat="47.430563" lon="13.633394"><ele>1287.47</ele><time>2021-08-03T05:27:08Z</time></trkpt><trkpt lat="47.431697" lon="13.633114"><ele>1310.8</ele><time>2021-08-03T05:27:35Z</time></trkpt><trkpt lat="47.432051" lon="13.632961"><ele>1319.18</ele></trkpt><trkpt lat="47.432635" lon="13.63287"><ele>1320.52</ele></trkpt><trkpt lat="47.432705" lon="13.632839"><ele>1322.67</ele></trkpt><trkpt lat="47.43275" lon="13.632764"><ele>1332.39</ele></trkpt><trkpt lat="47.432888" lon="13.632286"><ele>1332.03</ele></trkpt><trkpt lat="47.43296" lon="13.63213"><ele>1331.87</ele></trkpt><trkpt lat="47.433063" lon="13.632112"><ele>1331.65</ele></trkpt><trkpt lat="47.43325" lon="13.632212"><ele>1331.46</ele></trkpt><trkpt lat="47.433323" lon="13.632219"><ele>1331.35</ele></trkpt><trkpt lat="47.433371" lon="13.632173"><ele>1332.55</ele></trkpt><trkpt lat="47.433505" lon="13.631744"><ele>1344.8</ele><time>2021-08-03T05:28:29Z</time></trkpt><trkpt lat="47.433548" lon="13.631226"><ele>1344.2</ele><time>2021-08-03T05:28:37Z</time></trkpt><trkpt lat="47.433566" lon="13.631144"><ele>1344.2</ele><time>2021-08-03T05:28:39Z</time></trkpt><trkpt lat="47.43362" lon="13.631101"><ele>1344.2</ele></trkpt><trkpt lat="47.433606" lon="13.631014"><ele>1344.2</ele></trkpt><trkpt lat="47.43357" lon="13.631"><ele>1344.2</ele><time>2021-08-03T05:28:55Z</time></trkpt><trkpt lat="47.43352" lon="13.630851"><ele>1344.68</ele></trkpt><trkpt lat="47.433513" lon="13.630778"><ele>1344.76</ele></trkpt><trkpt lat="47.433556" lon="13.630523"><ele>1344.95</ele></trkpt><trkpt lat="47.433752" lon="13.630138"><ele>1345.4</ele></trkpt><trkpt lat="47.433985" lon="13.629622"><ele>1345.7</ele></trkpt><trkpt lat="47.434186" lon="13.628707"><ele>1358.22</ele></trkpt><trkpt lat="47.434241" lon="13.628384"><ele>1359.37</ele><time>2021-08-03T05:30:01Z</time></trkpt></trkseg><trkseg><trkpt lat="47.434241" lon="13.628384"><ele>1359.37</ele><time>2021-08-03T05:27:08Z</time></trkpt><trkpt lat="47.434312" lon="13.627965"><ele>1360.52</ele></trkpt><trkpt lat="47.434499" lon="13.627266"><ele>1391.92</ele></trkpt><trkpt lat="47.434494" lon="13.627155"><ele>1391.47</ele></trkpt><trkpt lat="47.434308" lon="13.626489"><ele>1396.6</ele></trkpt><trkpt lat="47.434227" lon="13.625915"><ele>1400.22</ele></trkpt><trkpt lat="47.43418" lon="13.625701"><ele>1403.25</ele></trkpt><trkpt lat="47.433962" lon="13.625173"><ele>1413.81</ele></trkpt><trkpt lat="47.433871" lon="13.624892"><ele>1413.86</ele></trkpt><trkpt lat="47.433696" lon="13.624209"><ele>1414.14</ele></trkpt><trkpt lat="47.433485" lon="13.623552"><ele>1414.68</ele></trkpt><trkpt lat="47.432961" lon="13.622162"><ele>1417.9</ele></trkpt><trkpt lat="47.432925" lon="13.621982"><ele>1427.39</ele></trkpt><trkpt lat="47.432607" lon="13.621275"><ele>1427.51</ele></trkpt><trkpt lat="47.432293" lon="13.620506"><ele>1425.01</ele></trkpt><trkpt lat="47.432261" lon="13.620395"><ele>1424.15</ele></trkpt><trkpt lat="47.432193" lon="13.619934"><ele>1423.13</ele></trkpt><trkpt lat="47.432162" lon="13.619821"><ele>1423.62</ele></trkpt><trkpt lat="47.432" lon="13.619465"><ele>1421.86</ele></trkpt><trkpt lat="47.431866" lon="13.619117"><ele>1423.38</ele></trkpt><trkpt lat="47.431852" lon="13.619043"><ele>1433.8</ele><time>2021-08-03T05:31:13Z</time></trkpt><trkpt lat="47.431889" lon="13.618763"><ele>1432.07</ele></trkpt><trkpt lat="47.431936" lon="13.618588"><ele>1432.4</ele></trkpt><trkpt lat="47.432049" lon="13.618364"><ele>1432.67</ele></trkpt><trkpt lat="47.432208" lon="13.618072"><ele>1441.7</ele></trkpt><trkpt lat="47.432475" lon="13.617748"><ele>1441.91</ele></trkpt><trkpt lat="47.432655" lon="13.617482"><ele>1444.73</ele></trkpt><trkpt lat="47.432746" lon="13.617312"><ele>1446.36</ele></trkpt><trkpt lat="47.432816" lon="13.61714"><ele>1448.53</ele></trkpt><trkpt lat="47.432952" lon="13.616532"><ele>1451.8</ele></trkpt><trkpt lat="47.433036" lon="13.616323"><ele>1454.47</ele></trkpt><trkpt lat="47.433213" lon="13.616024"><ele>1455.44</ele></trkpt><trkpt lat="47.433792" lon="13.615411"><ele>1459.83</ele></trkpt><trkpt lat="47.433837" lon="13.615346"><ele>1460.29</ele><time>2021-08-03T05:33:07Z</time></trkpt></trkseg><trkseg><trkpt lat="47.433837" lon="13.615346"><ele>1460.29</ele><time>2021-08-03T05:27:08Z</time></trkpt><trkpt lat="47.43418" lon="13.614668"><ele>1466.0</ele></trkpt><trkpt lat="47.434293" lon="13.614476"><ele>1469.35</ele></trkpt><trkpt lat="47.434387" lon="13.614366"><ele>1470.2</ele></trkpt><trkpt lat="47.434491" lon="13.614275"><ele>1470.3</ele></trkpt><trkpt lat="47.434718" lon="13.614185"><ele>1470.94</ele></trkpt><trkpt lat="47.434864" lon="13.614162"><ele>1469.28</ele></trkpt><trkpt lat="47.435007" lon="13.614168"><ele>1470.82</ele></trkpt><trkpt lat="47.435359" lon="13.614258"><ele>1476.15</ele></trkpt><trkpt lat="47.435729" lon="13.614432"><ele>1477.6</ele></trkpt><trkpt lat="47.435853" lon="13.614552"><ele>1480.58</ele></trkpt><trkpt lat="47.436307" lon="13.615127"><ele>1493.39</ele></trkpt><trkpt lat="47.436403" lon="13.615291"><ele>1495.43</ele></trkpt><trkpt lat="47.436666" lon="13.61583"><ele>1498.61</ele></trkpt><trkpt lat="47.436752" lon="13.615923"><ele>1501.48</ele></trkpt><trkpt lat="47.436852" lon="13.615961"><ele>1505.45</ele></trkpt><trkpt lat="47.436915" lon="13.615958"><ele>1506.39</ele></trkpt><trkpt lat="47.437304" lon="13.615617"><ele>1506.54</ele></trkpt><trkpt lat="47.437549" lon="13.615462"><ele>1507.94</ele></trkpt><trkpt lat="47.437612" lon="13.615384"><ele>1508.32</ele></trkpt><trkpt lat="47.437669" lon="13.615269"><ele>1509.24</ele></trkpt><trkpt lat="47.437797" lon="13.614923"><ele>1509.84</ele></trkpt><trkpt lat="47.437864" lon="13.614836"><ele>1509.66</ele></trkpt><trkpt lat="47.43809" lon="13.614715"><ele>1504.71</ele></trkpt><trkpt lat="47.438308" lon="13.614703"><ele>1504.67</ele><time>2021-08-03T05:30:16Z</time></trkpt></trkseg><trkseg><trkpt lat="47.438308" lon="13.614703"><ele>1504.67</ele><time>2021-08-03T05:27:08Z</time></trkpt><trkpt lat="47.438569" lon="13.614688"><ele>1504.64</ele></trkpt><trkpt lat="47.438689" lon="13.614711"><ele>1504.84</ele></trkpt><trkpt lat="47.438783" lon="13.614754"><ele>1504.63</ele></trkpt><trkpt lat="47.438967" lon="13.61489"><ele>1503.32</ele></trkpt><trkpt lat="47.43913" lon="13.614966"><ele>1501.33</ele></trkpt><trkpt lat="47.439259" lon="13.615061"><ele>1505.72</ele></trkpt><trkpt lat="47.439313" lon="13.615066"><ele>1507.18</ele></trkpt><trkpt lat="47.43943" lon="13.615013"><ele>1510.73</ele></trkpt><trkpt lat="47.439518" lon="13.614999"><ele>1511.84</ele></trkpt><trkpt lat="47.439673" lon="13.615037"><ele>1514.11</ele></trkpt><trkpt lat="47.43997" lon="13.615175"><ele>1517.29</ele></trkpt><trkpt lat="47.440469" lon="13.615475"><ele>1524.36</ele></trkpt><trkpt lat="47.440761" lon="13.615751"><ele>1521.59</ele></trkpt><trkpt lat="47.440883" lon="13.615939"><ele>1526.62</ele></trkpt><trkpt lat="47.441165" lon="13.616518"><ele>1526.64</ele></trkpt><trkpt lat="47.441291" lon="13.616817"><ele>1529.45</ele></trkpt><trkpt lat="47.441525" lon="13.617265"><ele>1536.29</ele></trkpt><trkpt lat="47.441635" lon="13.617444"><ele>1540.51</ele></trkpt><trkpt lat="47.44173" lon="13.61751"><ele>1557.49</ele></trkpt><trkpt lat="47.441797" lon="13.617512"><ele>1559.0</ele></trkpt><trkpt lat="47.441929" lon="13.617476"><ele>1557.44</ele></trkpt><trkpt lat="47.442036" lon="13.617397"><ele>1556.78</ele></trkpt><trkpt lat="47.442144" lon="13.617273"><ele>1556.18</ele></trkpt><trkpt lat="47.442431" lon="13.616856"><ele>1550.8</ele></trkpt><trkpt lat="47.442623" lon="13.616656"><ele>1533.91</ele></trkpt><trkpt lat="47.442675" lon="13.616627"><ele>1532.07</ele></trkpt><trkpt lat="47.442766" lon="13.616616"><ele>1530.46</ele></trkpt><trkpt lat="47.443049" lon="13.616747"><ele>1550.27</ele></trkpt><trkpt lat="47.443251" lon="13.616961"><ele>1550.64</ele></trkpt><trkpt lat="47.44367" lon="13.617576"><ele>1552.12</ele></trkpt><trkpt lat="47.443773" lon="13.617685"><ele>1552.4</ele></trkpt><trkpt lat="47.443895" lon="13.617868"><ele>1552.65</ele></trkpt><trkpt lat="47.444022" lon="13.618157"><ele>1553.77</ele></trkpt><trkpt lat="47.444106" lon="13.618411"><ele>1556.28</ele></trkpt><trkpt lat="47.44444" lon="13.619178"><ele>1565.4</ele><time>2021-08-03T05:31:43Z</time></trkpt><trkpt lat="47.444665" lon="13.619671"><ele>1573.59</ele></trkpt><trkpt lat="47.445408" lon="13.621169"><ele>1585.68</ele></trkpt><trkpt lat="47.445457" lon="13.62124"><ele>1586.05</ele></trkpt><trkpt lat="47.445498" lon="13.621259"><ele>1589.0</ele></trkpt><trkpt lat="47.445558" lon="13.621234"><ele>1589.0</ele></trkpt><trkpt lat="47.445664" lon="13.620921"><ele>1589.0</ele></trkpt><trkpt lat="47.445749" lon="13.620854"><ele>1589.0</ele></trkpt><trkpt lat="47.445817" lon="13.620846"><ele>1589.0</ele></trkpt><trkpt lat="47.445882" lon="13.620875"><ele>1609.31</ele></trkpt><trkpt lat="47.446107" lon="13.621083"><ele>1610.09</ele></trkpt><trkpt lat="47.446155" lon="13.621097"><ele>1609.79</ele></trkpt><trkpt lat="47.446204" lon="13.621074"><ele>1609.51</ele></trkpt><trkpt lat="47.446283" lon="13.620971"><ele>1609.64</ele></trkpt><trkpt lat="47.446392" lon="13.62074"><ele>1609.55</ele></trkpt><trkpt lat="47.446663" lon="13.620326"><ele>1610.31</ele></trkpt><trkpt lat="47.446771" lon="13.620205"><ele>1611.97</ele></trkpt><trkpt lat="47.446981" lon="13.620049"><ele>1615.12</ele></trkpt><trkpt lat="47.447041" lon="13.619971"><ele>1616.77</ele></trkpt><trkpt lat="47.447085" lon="13.619785"><ele>1618.34</ele></trkpt><trkpt lat="47.447152" lon="13.618926"><ele>1624.86</ele></trkpt><trkpt lat="47.447154" lon="13.618761"><ele>1624.98</ele></trkpt><trkpt lat="47.447083" lon="13.618363"><ele>1627.41</ele></trkpt><trkpt lat="47.447077" lon="13.618257"><ele>1627.1</ele></trkpt><trkpt lat="47.44711" lon="13.618119"><ele>1626.69</ele></trkpt><trkpt lat="47.447241" lon="13.617801"><ele>1625.64</ele></trkpt><trkpt lat="47.44728" lon="13.617657"><ele>1625.6</ele></trkpt><trkpt lat="47.447286" lon="13.617511"><ele>1625.25</ele></trkpt><trkpt lat="47.447266" lon="13.617238"><ele>1624.56</ele></trkpt><trkpt lat="47.447256" lon="13.616701"><ele>1623.73</ele></trkpt><trkpt lat="47.44727" lon="13.616396"><ele>1614.6</ele></trkpt><trkpt lat="47.447291" lon="13.616294"><ele>1622.05</ele></trkpt><trkpt lat="47.447337" lon="13.616197"><ele>1620.98</ele></trkpt><trkpt lat="47.447516" lon="13.615994"><ele>1623.9</ele></trkpt><trkpt lat="47.447764" lon="13.615378"><ele>1625.2</ele></trkpt><trkpt lat="47.448002" lon="13.615037"><ele>1633.0</ele><time>2021-08-03T05:36:41Z</time></trkpt><trkpt lat="47.448039" lon="13.615011"><ele>1633.0</ele></trkpt><trkpt lat="47.448457" lon="13.614217"><ele>1638.07</ele></trkpt><trkpt lat="47.449235" lon="13.613337"><ele>1634.6</ele></trkpt><trkpt lat="47.449336" lon="13.613319"><ele>1632.79</ele></trkpt><trkpt lat="47.449586" lon="13.613323"><ele>1632.19</ele></trkpt><trkpt lat="47.449765" lon="13.613399"><ele>1632.7</ele></trkpt><trkpt lat="47.449833" lon="13.613404"><ele>1634.6</ele><time>2021-08-03T05:39:36Z</time></trkpt><trkpt lat="47.449851" lon="13.612809"><ele>1623.34</ele><time>2021-08-03T05:39:45Z</time></trkpt></trkseg><trkseg><trkpt lat="47.449851" lon="13.612809"><ele>1623.34</ele><time>2021-08-03T05:27:08Z</time></trkpt><trkpt lat="47.449823" lon="13.610812"><ele>1607.4</ele></trkpt><trkpt lat="47.449779" lon="13.610526"><ele>1604.03</ele></trkpt><trkpt lat="47.449721" lon="13.610389"><ele>1603.85</ele></trkpt><trkpt lat="47.449644" lon="13.610281"><ele>1602.9</ele></trkpt><trkpt lat="47.449546" lon="13.610201"><ele>1602.8</ele></trkpt><trkpt lat="47.449437" lon="13.610148"><ele>1601.88</ele></trkpt><trkpt lat="47.448669" lon="13.610054"><ele>1598.8</ele></trkpt><trkpt lat="47.448531" lon="13.609983"><ele>1595.21</ele></trkpt><trkpt lat="47.448391" lon="13.60989"><ele>1592.08</ele></trkpt><trkpt lat="47.448224" lon="13.609743"><ele>1589.41</ele></trkpt><trkpt lat="47.448042" lon="13.609515"><ele>1589.06</ele></trkpt><trkpt lat="47.447728" lon="13.609033"><ele>1585.9</ele></trkpt><trkpt lat="47.447662" lon="13.608965"><ele>1585.16</ele></trkpt><trkpt lat="47.447511" lon="13.608884"><ele>1581.86</ele></trkpt><trkpt lat="47.447427" lon="13.60888"><ele>1581.7</ele></trkpt><trkpt lat="47.447207" lon="13.608938"><ele>1580.67</ele></trkpt><trkpt lat="47.447143" lon="13.608875"><ele>1579.2</ele></trkpt><trkpt lat="47.447131" lon="13.608834"><ele>1573.71</ele></trkpt><trkpt lat="47.447144" lon="13.608747"><ele>1574.52</ele></trkpt><trkpt lat="47.447212" lon="13.608666"><ele>1575.21</ele></trkpt><trkpt lat="47.447447" lon="13.608543"><ele>1570.07</ele></trkpt><trkpt lat="47.447574" lon="13.608512"><ele>1570.19</ele></trkpt><trkpt lat="47.447733" lon="13.608519"><ele>1570.29</ele></trkpt><trkpt lat="47.448009" lon="13.608593"><ele>1570.4</ele></trkpt><trkpt lat="47.448309" lon="13.608728"><ele>1571.53</ele></trkpt><trkpt lat="47.448591" lon="13.608926"><ele>1570.19</ele></trkpt><trkpt lat="47.448675" lon="13.608926"><ele>1570.33</ele></trkpt><trkpt lat="47.448704" lon="13.608886"><ele>1570.19</ele></trkpt><trkpt lat="47.448714" lon="13.608835"><ele>1570.05</ele></trkpt><trkpt lat="47.448705" lon="13.608764"><ele>1569.04</ele></trkpt><trkpt lat="47.448449" lon="13.60847"><ele>1569.82</ele></trkpt><trkpt lat="47.448342" lon="13.608303"><ele>1568.94</ele></trkpt><trkpt lat="47.44806" lon="13.607666"><ele>1567.83</ele></trkpt><trkpt lat="47.447942" lon="13.607464"><ele>1566.93</ele></trkpt><trkpt lat="47.447702" lon="13.607175"><ele>1548.67</ele></trkpt><trkpt lat="47.44755" lon="13.607044"><ele>1542.6</ele><time>2021-08-03T05:30:11Z</time></trkpt><trkpt lat="47.447597" lon="13.607019"><ele>1540.12</ele></trkpt><trkpt lat="47.448103" lon="13.607109"><ele>1539.03</ele></trkpt><trkpt lat="47.448572" lon="13.607344"><ele>1530.2</ele><time>2021-08-03T05:30:46Z</time></trkpt><trkpt lat="47.44879" lon="13.607363"><ele>1530.2</ele></trkpt><trkpt lat="47.449005" lon="13.60734"><ele>1530.2</ele><time>2021-08-03T05:31:01Z</time></trkpt><trkpt lat="47.449185" lon="13.607335"><ele>1526.23</ele></trkpt><trkpt lat="47.44947" lon="13.607276"><ele>1523.09</ele></trkpt><trkpt lat="47.449664" lon="13.607094"><ele>1522.9</ele></trkpt><trkpt lat="47.449837" lon="13.606784"><ele>1522.31</ele></trkpt><trkpt lat="47.449968" lon="13.606602"><ele>1521.96</ele></trkpt><trkpt lat="47.450208" lon="13.606094"><ele>1521.81</ele></trkpt><trkpt lat="47.450285" lon="13.606006"><ele>1521.89</ele></trkpt><trkpt lat="47.45033" lon="13.605987"><ele>1522.04</ele></trkpt><trkpt lat="47.45045" lon="13.606003"><ele>1522.54</ele></trkpt><trkpt lat="47.450553" lon="13.606155"><ele>1523.28</ele></trkpt><trkpt lat="47.450649" lon="13.606468"><ele>1523.72</ele></trkpt><trkpt lat="47.450716" lon="13.607096"><ele>1524.63</ele></trkpt><trkpt lat="47.45072" lon="13.607392"><ele>1524.67</ele></trkpt><trkpt lat="47.4507" lon="13.60774"><ele>1524.41</ele></trkpt><trkpt lat="47.450718" lon="13.607887"><ele>1524.14</ele></trkpt><trkpt lat="47.451114" lon="13.6088"><ele>1525.75</ele></trkpt><trkpt lat="47.451156" lon="13.608932"><ele>1531.6</ele><time>2021-08-03T05:33:15Z</time></trkpt><trkpt lat="47.451263" lon="13.609045"><ele>1531.6</ele><time>2021-08-03T05:33:28Z</time></trkpt><trkpt lat="47.451309" lon="13.609031"><ele>1531.6</ele></trkpt><trkpt lat="47.451374" lon="13.60907"><ele>1531.6</ele></trkpt><trkpt lat="47.451522" lon="13.609051"><ele>1531.6</ele><time>2021-08-03T05:33:55Z</time></trkpt><trkpt lat="47.451611" lon="13.608777"><ele>1526.35</ele></trkpt><trkpt lat="47.451603" lon="13.6077"><ele>1526.33</ele></trkpt><trkpt lat="47.451621" lon="13.607589"><ele>1526.69</ele></trkpt><trkpt lat="47.45168" lon="13.607403"><ele>1527.06</ele></trkpt><trkpt lat="47.451974" lon="13.606743"><ele>1531.72</ele></trkpt><trkpt lat="47.452066" lon="13.606717"><ele>1531.99</ele></trkpt><trkpt lat="47.452117" lon="13.606754"><ele>1532.2</ele></trkpt><trkpt lat="47.452206" lon="13.606882"><ele>1532.31</ele></trkpt><trkpt lat="47.452309" lon="13.606903"><ele>1532.67</ele></trkpt><trkpt lat="47.452383" lon="13.606839"><ele>1532.93</ele></trkpt><trkpt lat="47.452487" lon="13.606651"><ele>1533.23</ele></trkpt><trkpt lat="47.452551" lon="13.606518"><ele>1534.08</ele></trkpt><trkpt lat="47.452745" lon="13.605989"><ele>1532.96</ele></trkpt><trkpt lat="47.453055" lon="13.605264"><ele>1532.19</ele></trkpt><trkpt lat="47.453218" lon="13.60478"><ele>1529.49</ele></trkpt><trkpt lat="47.453372" lon="13.604394"><ele>1529.26</ele></trkpt><trkpt lat="47.453504" lon="13.603899"><ele>1525.32</ele></trkpt><trkpt lat="47.453726" lon="13.603321"><ele>1521.25</ele></trkpt><trkpt lat="47.453914" lon="13.602753"><ele>1518.98</ele></trkpt><trkpt lat="47.453954" lon="13.602395"><ele>1516.41</ele></trkpt><trkpt lat="47.453968" lon="13.602005"><ele>1514.7</ele></trkpt><trkpt lat="47.453963" lon="13.601699"><ele>1511.87</ele></trkpt><trkpt lat="47.453881" lon="13.601194"><ele>1508.57</ele></trkpt><trkpt lat="47.453793" lon="13.600942"><ele>1508.24</ele></trkpt><trkpt lat="47.453732" lon="13.600562"><ele>1503.45</ele></trkpt><trkpt lat="47.453711" lon="13.600112"><ele>1502.19</ele></trkpt><trkpt lat="47.453724" lon="13.599947"><ele>1500.77</ele></trkpt><trkpt lat="47.453781" lon="13.599679"><ele>1500.43</ele></trkpt><trkpt lat="47.454099" lon="13.598893"><ele>1497.91</ele></trkpt><trkpt lat="47.454126" lon="13.59875"><ele>1487.8</ele><time>2021-08-03T05:38:30Z</time></trkpt><trkpt lat="47.454246" lon="13.598446"><ele>1470.17</ele></trkpt><trkpt lat="47.454358" lon="13.598321"><ele>1470.14</ele></trkpt><trkpt lat="47.45453" lon="13.598378"><ele>1471.16</ele></trkpt><trkpt lat="47.454715" lon="13.598812"><ele>1469.98</ele></trkpt><trkpt lat="47.454815" lon="13.599225"><ele>1469.93</ele></trkpt><trkpt lat="47.455065" lon="13.599882"><ele>1469.18</ele></trkpt><trkpt lat="47.455089" lon="13.600251"><ele>1469.35</ele></trkpt><trkpt lat="47.455442" lon="13.601227"><ele>1467.22</ele></trkpt><trkpt lat="47.455811" lon="13.60164"><ele>1463.34</ele></trkpt><trkpt lat="47.456028" lon="13.60173"><ele>1461.11</ele></trkpt><trkpt lat="47.456213" lon="13.601646"><ele>1460.55</ele></trkpt><trkpt lat="47.456627" lon="13.601831"><ele>1461.2</ele></trkpt><trkpt lat="47.456837" lon="13.601823"><ele>1459.57</ele></trkpt><trkpt lat="47.457001" lon="13.60154"><ele>1452.0</ele><time>2021-08-03T05:41:01Z</time></trkpt><trkpt lat="47.456787" lon="13.600842"><ele>1442.7</ele></trkpt><trkpt lat="47.45675" lon="13.600542"><ele>1441.54</ele></trkpt><trkpt lat="47.456794" lon="13.600282"><ele>1441.03</ele></trkpt><trkpt lat="47.456926" lon="13.599999"><ele>1440.7</ele></trkpt><trkpt lat="47.45696" lon="13.599719"><ele>1440.88</ele><time>2021-08-03T05:43:15Z</time></trkpt></trkseg><trkseg><trkpt lat="47.45696" lon="13.599719"><ele>1440.88</ele><time>2021-08-03T05:27:08Z</time></trkpt><trkpt lat="47.457062" lon="13.599355"><ele>1440.15</ele></trkpt><trkpt lat="47.457165" lon="13.599208"><ele>1440.5</ele></trkpt><trkpt lat="47.457631" lon="13.598923"><ele>1439.4</ele><time>2021-08-03T05:28:40Z</time></trkpt><trkpt lat="47.457707" lon="13.598876"><ele>1439.4</ele></trkpt><trkpt lat="47.457873" lon="13.598893"><ele>1439.4</ele></trkpt><trkpt lat="47.458003" lon="13.597861"><ele>1439.0</ele></trkpt><trkpt lat="47.457885" lon="13.597328"><ele>1439.07</ele></trkpt><trkpt lat="47.45785" lon="13.597061"><ele>1439.01</ele></trkpt><trkpt lat="47.457523" lon="13.596167"><ele>1438.6</ele><time>2021-08-03T05:30:24Z</time></trkpt><trkpt lat="47.45752" lon="13.5961"><ele>1420.83</ele></trkpt><trkpt lat="47.457363" lon="13.595555"><ele>1415.5</ele></trkpt><trkpt lat="47.457269" lon="13.594684"><ele>1413.21</ele></trkpt><trkpt lat="47.457239" lon="13.594534"><ele>1411.35</ele></trkpt><trkpt lat="47.457192" lon="13.594394"><ele>1411.38</ele></trkpt><trkpt lat="47.45702" lon="13.594094"><ele>1406.5</ele></trkpt><trkpt lat="47.456894" lon="13.593804"><ele>1406.37</ele></trkpt><trkpt lat="47.456871" lon="13.593676"><ele>1404.79</ele></trkpt><trkpt lat="47.456848" lon="13.593334"><ele>1403.13</ele></trkpt><trkpt lat="47.456769" lon="13.592977"><ele>1402.78</ele></trkpt><trkpt lat="47.456756" lon="13.592821"><ele>1400.74</ele></trkpt><trkpt lat="47.456774" lon="13.592739"><ele>1400.54</ele></trkpt><trkpt lat="47.456824" lon="13.592665"><ele>1400.32</ele></trkpt><trkpt lat="47.457128" lon="13.592376"><ele>1399.33</ele></trkpt><trkpt lat="47.457184" lon="13.592248"><ele>1399.61</ele></trkpt><trkpt lat="47.45732" lon="13.591841"><ele>1400.59</ele></trkpt><trkpt lat="47.45738" lon="13.591622"><ele>1400.66</ele></trkpt><trkpt lat="47.457418" lon="13.591206"><ele>1401.8</ele></trkpt><trkpt lat="47.457524" lon="13.590585"><ele>1404.55</ele></trkpt><trkpt lat="47.457634" lon="13.590093"><ele>1405.0</ele></trkpt><trkpt lat="47.457695" lon="13.589892"><ele>1410.4</ele></trkpt><trkpt lat="47.45776" lon="13.589746"><ele>1410.4</ele><time>2021-08-03T05:33:17Z</time></trkpt><trkpt lat="47.457641" lon="13.589502"><ele>1388.08</ele></trkpt><trkpt lat="47.457569" lon="13.589295"><ele>1385.48</ele></trkpt><trkpt lat="47.45755" lon="13.589189"><ele>1384.44</ele></trkpt><trkpt lat="47.457543" lon="13.588841"><ele>1379.97</ele></trkpt><trkpt lat="47.457419" lon="13.588448"><ele>1376.36</ele></trkpt><trkpt lat="47.457428" lon="13.588187"><ele>1377.2</ele></trkpt><trkpt lat="47.457418" lon="13.58814"><ele>1377.39</ele></trkpt><trkpt lat="47.457342" lon="13.588054"><ele>1377.72</ele></trkpt><trkpt lat="47.457198" lon="13.587975"><ele>1378.03</ele></trkpt><trkpt lat="47.457123" lon="13.587871"><ele>1377.43</ele></trkpt><trkpt lat="47.457011" lon="13.587541"><ele>1378.1</ele></trkpt><trkpt lat="47.456967" lon="13.58732"><ele>1378.18</ele></trkpt><trkpt lat="47.456946" lon="13.587112"><ele>1378.64</ele></trkpt><trkpt lat="47.456961" lon="13.586663"><ele>1379.1</ele></trkpt><trkpt lat="47.456984" lon="13.58658"><ele>1379.17</ele></trkpt><trkpt lat="47.457178" lon="13.586176"><ele>1380.63</ele></trkpt><trkpt lat="47.45721" lon="13.586066"><ele>1381.21</ele></trkpt><trkpt lat="47.457198" lon="13.585999"><ele>1381.54</ele></trkpt><trkpt lat="47.457168" lon="13.585947"><ele>1382.79</ele></trkpt><trkpt lat="47.456958" lon="13.585803"><ele>1383.6</ele></trkpt><trkpt lat="47.456918" lon="13.585752"><ele>1383.39</ele></trkpt><trkpt lat="47.456858" lon="13.585518"><ele>1384.43</ele></trkpt><trkpt lat="47.456842" lon="13.585306"><ele>1386.23</ele></trkpt><trkpt lat="47.4569" lon="13.584424"><ele>1390.73</ele></trkpt><trkpt lat="47.456939" lon="13.583355"><ele>1400.01</ele></trkpt><trkpt lat="47.457011" lon="13.582912"><ele>1405.83</ele></trkpt><trkpt lat="47.457056" lon="13.582504"><ele>1410.73</ele></trkpt><trkpt lat="47.457336" lon="13.581072"><ele>1416.54</ele></trkpt><trkpt lat="47.457329" lon="13.580996"><ele>1416.78</ele></trkpt><trkpt lat="47.457281" lon="13.580906"><ele>1417.38</ele></trkpt><trkpt lat="47.457109" lon="13.580831"><ele>1417.66</ele></trkpt><trkpt lat="47.457013" lon="13.580753"><ele>1418.57</ele></trkpt><trkpt lat="47.456958" lon="13.580663"><ele>1418.56</ele></trkpt><trkpt lat="47.456927" lon="13.580565"><ele>1418.55</ele></trkpt><trkpt lat="47.45692" lon="13.580404"><ele>1420.67</ele></trkpt><trkpt lat="47.456974" lon="13.580226"><ele>1421.62</ele></trkpt><trkpt lat="47.457148" lon="13.579852"><ele>1422.06</ele></trkpt><trkpt lat="47.457528" lon="13.57893"><ele>1425.89</ele></trkpt><trkpt lat="47.457585" lon="13.57872"><ele>1426.9</ele></trkpt><trkpt lat="47.457587" lon="13.578647"><ele>1439.8</ele></trkpt><trkpt lat="47.457425" lon="13.578222"><ele>1426.3</ele></trkpt><trkpt lat="47.457379" lon="13.578169"><ele>1426.75</ele></trkpt><trkpt lat="47.4573" lon="13.578169"><ele>1427.89</ele></trkpt><trkpt lat="47.457149" lon="13.578253"><ele>1423.6</ele><time>2021-08-03T05:38:30Z</time></trkpt><trkpt lat="47.457045" lon="13.578915"><ele>1415.35</ele></trkpt><trkpt lat="47.456982" lon="13.579096"><ele>1414.16</ele></trkpt><trkpt lat="47.456804" lon="13.579408"><ele>1408.85</ele></trkpt><trkpt lat="47.456365" lon="13.579952"><ele>1401.29</ele></trkpt><trkpt lat="47.456243" lon="13.580185"><ele>1400.1</ele></trkpt><trkpt lat="47.456183" lon="13.580444"><ele>1400.06</ele></trkpt><trkpt lat="47.456165" lon="13.58071"><ele>1397.69</ele></trkpt><trkpt lat="47.456096" lon="13.580937"><ele>1397.33</ele></trkpt><trkpt lat="47.456024" lon="13.581076"><ele>1397.39</ele></trkpt><trkpt lat="47.455989" lon="13.581115"><ele>1397.73</ele></trkpt><trkpt lat="47.455942" lon="13.581128"><ele>1398.1</ele></trkpt><trkpt lat="47.455901" lon="13.581099"><ele>1398.08</ele></trkpt><trkpt lat="47.45569" lon="13.580616"><ele>1399.28</ele></trkpt><trkpt lat="47.455622" lon="13.580501"><ele>1399.28</ele></trkpt><trkpt lat="47.455548" lon="13.58044"><ele>1399.4</ele></trkpt><trkpt lat="47.4555" lon="13.580446"><ele>1386.95</ele></trkpt><trkpt lat="47.455384" lon="13.580553"><ele>1383.42</ele></trkpt><trkpt lat="47.455337" lon="13.580655"><ele>1381.1</ele></trkpt><trkpt lat="47.455237" lon="13.580964"><ele>1378.2</ele></trkpt><trkpt lat="47.455041" lon="13.58138"><ele>1375.2</ele></trkpt><trkpt lat="47.454868" lon="13.581996"><ele>1369.95</ele></trkpt><trkpt lat="47.454814" lon="13.582109"><ele>1370.09</ele></trkpt><trkpt lat="47.454637" lon="13.582274"><ele>1366.04</ele></trkpt><trkpt lat="47.454431" lon="13.582365"><ele>1364.89</ele></trkpt><trkpt lat="47.454309" lon="13.582376"><ele>1364.55</ele></trkpt><trkpt lat="47.454015" lon="13.582536"><ele>1362.65</ele></trkpt><trkpt lat="47.453873" lon="13.582529"><ele>1364.1</ele></trkpt><trkpt lat="47.453681" lon="13.582393"><ele>1364.72</ele></trkpt><trkpt lat="47.453596" lon="13.582359"><ele>1363.33</ele></trkpt><trkpt lat="47.453207" lon="13.582415"><ele>1361.11</ele></trkpt><trkpt lat="47.453043" lon="13.582415"><ele>1358.26</ele></trkpt><trkpt lat="47.452734" lon="13.582368"><ele>1353.66</ele></trkpt><trkpt lat="47.4525" lon="13.582429"><ele>1343.29</ele></trkpt><trkpt lat="47.452275" lon="13.582441"><ele>1335.35</ele></trkpt><trkpt lat="47.451544" lon="13.58259"><ele>1316.58</ele></trkpt><trkpt lat="47.451325" lon="13.582687"><ele>1311.83</ele></trkpt><trkpt lat="47.451218" lon="13.582697"><ele>1309.59</ele></trkpt><trkpt lat="47.450975" lon="13.582654"><ele>1308.11</ele></trkpt><trkpt lat="47.450852" lon="13.582603"><ele>1306.1</ele></trkpt><trkpt lat="47.450563" lon="13.582421"><ele>1306.89</ele></trkpt><trkpt lat="47.450261" lon="13.582093"><ele>1291.6</ele></trkpt><trkpt lat="47.450222" lon="13.582089"><ele>1291.6</ele></trkpt><trkpt lat="47.450189" lon="13.582114"><ele>1291.6</ele></trkpt><trkpt lat="47.450187" lon="13.582191"><ele>1291.6</ele></trkpt><trkpt lat="47.450266" lon="13.582322"><ele>1291.6</ele></trkpt><trkpt lat="47.450389" lon="13.582924"><ele>1279.69</ele></trkpt><trkpt lat="47.450377" lon="13.583004"><ele>1279.85</ele></trkpt><trkpt lat="47.450353" lon="13.583031"><ele>1280.04</ele></trkpt><trkpt lat="47.450326" lon="13.583028"><ele>1280.24</ele></trkpt><trkpt lat="47.450293" lon="13.582954"><ele>1280.47</ele></trkpt><trkpt lat="47.450265" lon="13.582791"><ele>1280.72</ele></trkpt><trkpt lat="47.450191" lon="13.582673"><ele>1281.0</ele></trkpt><trkpt lat="47.449799" lon="13.582311"><ele>1265.23</ele></trkpt><trkpt lat="47.44973" lon="13.582305"><ele>1264.95</ele></trkpt><trkpt lat="47.449707" lon="13.582346"><ele>1264.78</ele></trkpt><trkpt lat="47.449718" lon="13.582395"><ele>1264.6</ele></trkpt><trkpt lat="47.449821" lon="13.582495"><ele>1264.4</ele></trkpt><trkpt lat="47.449869" lon="13.58261"><ele>1264.18</ele></trkpt><trkpt lat="47.449868" lon="13.58297"><ele>1254.6</ele></trkpt><trkpt lat="47.449834" lon="13.583054"><ele>1254.6</ele></trkpt><trkpt lat="47.449765" lon="13.583072"><ele>1254.6</ele></trkpt><trkpt lat="47.449704" lon="13.583008"><ele>1254.6</ele></trkpt><trkpt lat="47.449589" lon="13.582819"><ele>1254.6</ele></trkpt><trkpt lat="47.449481" lon="13.582693"><ele>1254.6</ele></trkpt><trkpt lat="47.449433" lon="13.582665"><ele>1254.6</ele></trkpt><trkpt lat="47.449393" lon="13.582668"><ele>1254.6</ele></trkpt><trkpt lat="47.449356" lon="13.582707"><ele>1254.6</ele></trkpt><trkpt lat="47.449319" lon="13.582895"><ele>1254.6</ele></trkpt><trkpt lat="47.449279" lon="13.582981"><ele>1247.33</ele></trkpt><trkpt lat="47.449195" lon="13.582987"><ele>1244.71</ele></trkpt><trkpt lat="47.449077" lon="13.582805"><ele>1232.8</ele></trkpt><trkpt lat="47.449034" lon="13.582806"><ele>1232.8</ele></trkpt><trkpt lat="47.44901" lon="13.582843"><ele>1232.8</ele></trkpt><trkpt lat="47.449001" lon="13.583003"><ele>1237.37</ele></trkpt><trkpt lat="47.44909" lon="13.583259"><ele>1238.05</ele></trkpt><trkpt lat="47.449182" lon="13.583401"><ele>1238.42</ele></trkpt><trkpt lat="47.449283" lon="13.583515"><ele>1237.88</ele></trkpt><trkpt lat="47.449284" lon="13.583589"><ele>1236.68</ele></trkpt><trkpt lat="47.449249" lon="13.583605"><ele>1236.01</ele></trkpt><trkpt lat="47.449202" lon="13.583586"><ele>1235.3</ele></trkpt><trkpt lat="47.449039" lon="13.583439"><ele>1235.2</ele></trkpt><trkpt lat="47.448865" lon="13.583332"><ele>1235.92</ele></trkpt><trkpt lat="47.448786" lon="13.583221"><ele>1232.8</ele></trkpt><trkpt lat="47.448393" lon="13.582945"><ele>1221.03</ele></trkpt><trkpt lat="47.448319" lon="13.58283"><ele>1217.43</ele></trkpt><trkpt lat="47.448244" lon="13.582618"><ele>1218.17</ele></trkpt><trkpt lat="47.448211" lon="13.582567"><ele>1219.02</ele></trkpt><trkpt lat="47.448161" lon="13.582538"><ele>1212.2</ele></trkpt><trkpt lat="47.447865" lon="13.582569"><ele>1212.2</ele></trkpt><trkpt lat="47.447697" lon="13.582631"><ele>1212.2</ele></trkpt><trkpt lat="47.447641" lon="13.582683"><ele>1212.2</ele></trkpt><trkpt lat="47.447602" lon="13.582784"><ele>1212.2</ele></trkpt><trkpt lat="47.447605" lon="13.582866"><ele>1212.2</ele></trkpt><trkpt lat="47.447657" lon="13.583022"><ele>1212.2</ele></trkpt><trkpt lat="47.447709" lon="13.583076"><ele>1212.2</ele></trkpt><trkpt lat="47.447883" lon="13.583093"><ele>1212.2</ele></trkpt><trkpt lat="47.447918" lon="13.58312"><ele>1212.2</ele></trkpt><trkpt lat="47.448021" lon="13.583394"><ele>1203.03</ele></trkpt><trkpt lat="47.448046" lon="13.583568"><ele>1202.86</ele></trkpt><trkpt lat="47.448036" lon="13.583677"><ele>1202.78</ele></trkpt><trkpt lat="47.447978" lon="13.583802"><ele>1202.58</ele></trkpt><trkpt lat="47.447934" lon="13.583849"><ele>1202.47</ele></trkpt><trkpt lat="47.44784" lon="13.583886"><ele>1202.23</ele></trkpt><trkpt lat="47.447722" lon="13.583876"><ele>1201.96</ele></trkpt><trkpt lat="47.447588" lon="13.583808"><ele>1201.81</ele></trkpt><trkpt lat="47.447416" lon="13.583766"><ele>1179.2</ele></trkpt><trkpt lat="47.447309" lon="13.583675"><ele>1191.2</ele></trkpt><trkpt lat="47.446716" lon="13.582849"><ele>1192.37</ele></trkpt><trkpt lat="47.446687" lon="13.582776"><ele>1192.54</ele></trkpt><trkpt lat="47.446687" lon="13.582686"><ele>1192.72</ele></trkpt><trkpt lat="47.446722" lon="13.582485"><ele>1193.12</ele></trkpt><trkpt lat="47.44672" lon="13.58242"><ele>1192.33</ele></trkpt><trkpt lat="47.446673" lon="13.582325"><ele>1190.57</ele></trkpt><trkpt lat="47.446417" lon="13.582129"><ele>1181.2</ele></trkpt><trkpt lat="47.446063" lon="13.581977"><ele>1176.56</ele></trkpt><trkpt lat="47.445982" lon="13.581865"><ele>1174.19</ele></trkpt><trkpt lat="47.445863" lon="13.581617"><ele>1170.55</ele></trkpt><trkpt lat="47.445778" lon="13.581372"><ele>1167.35</ele></trkpt><trkpt lat="47.445661" lon="13.581266"><ele>1166.6</ele></trkpt><trkpt lat="47.445516" lon="13.581225"><ele>1166.0</ele></trkpt><trkpt lat="47.445282" lon="13.581208"><ele>1165.43</ele></trkpt><trkpt lat="47.445047" lon="13.581247"><ele>1164.0</ele></trkpt><trkpt lat="47.444835" lon="13.581241"><ele>1162.95</ele></trkpt><trkpt lat="47.44468" lon="13.581137"><ele>1162.96</ele></trkpt><trkpt lat="47.444618" lon="13.581054"><ele>1163.7</ele></trkpt><trkpt lat="47.444419" lon="13.580688"><ele>1164.7</ele></trkpt><trkpt lat="47.444362" lon="13.580656"><ele>1164.34</ele></trkpt><trkpt lat="47.444204" lon="13.580656"><ele>1166.2</ele><time>2021-08-03T05:46:31Z</time></trkpt><trkpt lat="47.444113" lon="13.580468"><ele>1148.49</ele></trkpt><trkpt lat="47.443948" lon="13.580265"><ele>1146.9</ele></trkpt><trkpt lat="47.443294" lon="13.579794"><ele>1147.98</ele></trkpt><trkpt lat="47.443144" lon="13.579612"><ele>1147.16</ele></trkpt><trkpt lat="47.442729" lon="13.578786"><ele>1148.08</ele></trkpt><trkpt lat="47.442378" lon="13.578231"><ele>1147.54</ele></trkpt><trkpt lat="47.442317" lon="13.578066"><ele>1147.88</ele></trkpt><trkpt lat="47.442238" lon="13.577778"><ele>1148.74</ele></trkpt><trkpt lat="47.442144" lon="13.577616"><ele>1148.41</ele></trkpt><trkpt lat="47.442043" lon="13.577539"><ele>1146.6</ele></trkpt><trkpt lat="47.441475" lon="13.577313"><ele>1146.3</ele></trkpt><trkpt lat="47.441291" lon="13.577296"><ele>1146.53</ele></trkpt><trkpt lat="47.441069" lon="13.577307"><ele>1146.88</ele></trkpt><trkpt lat="47.440932" lon="13.577287"><ele>1147.01</ele></trkpt><trkpt lat="47.440821" lon="13.577219"><ele>1146.4</ele></trkpt><trkpt lat="47.440615" lon="13.577048"><ele>1144.49</ele></trkpt><trkpt lat="47.440479" lon="13.576883"><ele>1142.84</ele></trkpt><trkpt lat="47.440416" lon="13.576758"><ele>1143.28</ele></trkpt><trkpt lat="47.440406" lon="13.576675"><ele>1142.96</ele></trkpt><trkpt lat="47.440492" lon="13.576015"><ele>1143.19</ele></trkpt><trkpt lat="47.440512" lon="13.575742"><ele>1143.02</ele></trkpt><trkpt lat="47.440521" lon="13.575243"><ele>1142.75</ele></trkpt><trkpt lat="47.440484" lon="13.575053"><ele>1144.64</ele></trkpt><trkpt lat="47.440404" lon="13.57492"><ele>1146.11</ele></trkpt><trkpt lat="47.440276" lon="13.574859"><ele>1147.82</ele></trkpt><trkpt lat="47.440152" lon="13.574894"><ele>1148.33</ele></trkpt><trkpt lat="47.43962" lon="13.575272"><ele>1145.63</ele></trkpt><trkpt lat="47.439357" lon="13.575415"><ele>1145.25</ele></trkpt><trkpt lat="47.439155" lon="13.575469"><ele>1142.91</ele></trkpt><trkpt lat="47.438824" lon="13.575449"><ele>1137.05</ele></trkpt><trkpt lat="47.438575" lon="13.575342"><ele>1136.2</ele></trkpt><trkpt lat="47.438275" lon="13.575074"><ele>1136.43</ele></trkpt><trkpt lat="47.438155" lon="13.575018"><ele>1136.16</ele></trkpt><trkpt lat="47.438012" lon="13.575006"><ele>1136.11</ele></trkpt><trkpt lat="47.43771" lon="13.57506"><ele>1136.22</ele></trkpt><trkpt lat="47.437532" lon="13.575022"><ele>1136.12</ele></trkpt><trkpt lat="47.437477" lon="13.57498"><ele>1136.31</ele></trkpt><trkpt lat="47.437434" lon="13.574917"><ele>1136.73</ele></trkpt><trkpt lat="47.437261" lon="13.574372"><ele>1138.23</ele></trkpt><trkpt lat="47.437195" lon="13.574267"><ele>1138.98</ele></trkpt><trkpt lat="47.437013" lon="13.574138"><ele>1140.46</ele></trkpt><trkpt lat="47.436705" lon="13.574047"><ele>1143.87</ele></trkpt><trkpt lat="47.436365" lon="13.573843"><ele>1145.29</ele></trkpt><trkpt lat="47.436168" lon="13.573676"><ele>1145.27</ele></trkpt><trkpt lat="47.43603" lon="13.57349"><ele>1145.23</ele></trkpt><trkpt lat="47.435957" lon="13.57332"><ele>1145.59</ele></trkpt><trkpt lat="47.435892" lon="13.572984"><ele>1145.81</ele></trkpt><trkpt lat="47.435891" lon="13.572855"><ele>1146.03</ele></trkpt><trkpt lat="47.436014" lon="13.571997"><ele>1146.86</ele></trkpt><trkpt lat="47.436015" lon="13.571876"><ele>1147.5</ele></trkpt><trkpt lat="47.435966" lon="13.571625"><ele>1149.44</ele></trkpt><trkpt lat="47.435913" lon="13.571487"><ele>1151.41</ele></trkpt><trkpt lat="47.435839" lon="13.571362"><ele>1152.9</ele></trkpt><trkpt lat="47.434553" lon="13.569854"><ele>1154.82</ele></trkpt><trkpt lat="47.434179" lon="13.569265"><ele>1157.96</ele></trkpt><trkpt lat="47.434018" lon="13.568955"><ele>1158.91</ele></trkpt><trkpt lat="47.433382" lon="13.567608"><ele>1163.92</ele></trkpt><trkpt lat="47.433056" lon="13.567085"><ele>1161.26</ele></trkpt><trkpt lat="47.432282" lon="13.566185"><ele>1149.38</ele></trkpt><trkpt lat="47.4319" lon="13.5656"><ele>1153.4</ele></trkpt><trkpt lat="47.43139" lon="13.564444"><ele>1154.43</ele></trkpt><trkpt lat="47.4312" lon="13.564066"><ele>1162.8</ele><time>2021-08-03T05:53:48Z</time></trkpt><trkpt lat="47.430636" lon="13.562966"><ele>1162.6</ele><time>2021-08-03T05:54:08Z</time></trkpt><trkpt lat="47.430704" lon="13.562843"><ele>1166.69</ele></trkpt><trkpt lat="47.43072" lon="13.562731"><ele>1165.98</ele></trkpt><trkpt lat="47.430686" lon="13.562628"><ele>1165.39</ele></trkpt><trkpt lat="47.430272" lon="13.562051"><ele>1179.2</ele><time>2021-08-03T05:54:28Z</time></trkpt><trkpt lat="47.430154" lon="13.561807"><ele>1188.45</ele></trkpt><trkpt lat="47.429613" lon="13.560846"><ele>1191.48</ele></trkpt><trkpt lat="47.429469" lon="13.560471"><ele>1196.14</ele></trkpt><trkpt lat="47.429085" lon="13.559767"><ele>1206.13</ele></trkpt><trkpt lat="47.428809" lon="13.559391"><ele>1211.21</ele></trkpt><trkpt lat="47.428608" lon="13.559066"><ele>1220.81</ele></trkpt><trkpt lat="47.428437" lon="13.55867"><ele>1226.87</ele></trkpt><trkpt lat="47.428194" lon="13.558008"><ele>1230.38</ele></trkpt><trkpt lat="47.427867" lon="13.556898"><ele>1244.37</ele></trkpt><trkpt lat="47.427617" lon="13.555778"><ele>1257.74</ele></trkpt><trkpt lat="47.427544" lon="13.555546"><ele>1258.27</ele></trkpt><trkpt lat="47.427515" lon="13.555232"><ele>1258.97</ele></trkpt><trkpt lat="47.427532" lon="13.55477"><ele>1260.27</ele></trkpt><trkpt lat="47.427561" lon="13.554565"><ele>1260.41</ele></trkpt><trkpt lat="47.427688" lon="13.554045"><ele>1259.79</ele></trkpt><trkpt lat="47.42787" lon="13.553152"><ele>1257.26</ele></trkpt><trkpt lat="47.428024" lon="13.552674"><ele>1249.0</ele><time>2021-08-03T05:58:34Z</time></trkpt><trkpt lat="47.428068" lon="13.552583"><ele>1256.03</ele></trkpt><trkpt lat="47.428267" lon="13.552317"><ele>1254.1</ele></trkpt><trkpt lat="47.428357" lon="13.552151"><ele>1256.78</ele></trkpt><trkpt lat="47.428608" lon="13.551408"><ele>1260.75</ele></trkpt><trkpt lat="47.429049" lon="13.550313"><ele>1262.9</ele></trkpt><trkpt lat="47.42927" lon="13.550039"><ele>1262.72</ele></trkpt><trkpt lat="47.42949" lon="13.549854"><ele>1261.23</ele></trkpt><trkpt lat="47.429629" lon="13.549779"><ele>1261.25</ele></trkpt><trkpt lat="47.430233" lon="13.549541"><ele>1269.5</ele></trkpt><trkpt lat="47.430669" lon="13.549258"><ele>1269.74</ele></trkpt><trkpt lat="47.430796" lon="13.549218"><ele>1269.94</ele></trkpt><trkpt lat="47.430971" lon="13.54922"><ele>1270.25</ele></trkpt><trkpt lat="47.431251" lon="13.549335"><ele>1271.4</ele></trkpt><trkpt lat="47.431819" lon="13.54963"><ele>1286.75</ele></trkpt><trkpt lat="47.43209" lon="13.549699"><ele>1286.71</ele></trkpt><trkpt lat="47.432198" lon="13.549696"><ele>1286.56</ele></trkpt><trkpt lat="47.432425" lon="13.549608"><ele>1286.15</ele></trkpt><trkpt lat="47.432511" lon="13.549595"><ele>1286.77</ele></trkpt><trkpt lat="47.432699" lon="13.549633"><ele>1287.93</ele></trkpt><trkpt lat="47.43276" lon="13.549627"><ele>1288.5</ele></trkpt><trkpt lat="47.432811" lon="13.549584"><ele>1289.71</ele></trkpt><trkpt lat="47.432837" lon="13.549511"><ele>1290.24</ele></trkpt><trkpt lat="47.432838" lon="13.549401"><ele>1290.75</ele></trkpt><trkpt lat="47.432788" lon="13.549224"><ele>1290.75</ele></trkpt><trkpt lat="47.432546" lon="13.548826"><ele>1291.48</ele></trkpt><trkpt lat="47.432495" lon="13.548718"><ele>1290.98</ele></trkpt><trkpt lat="47.432467" lon="13.54861"><ele>1290.02</ele></trkpt><trkpt lat="47.432395" lon="13.548139"><ele>1288.83</ele></trkpt><trkpt lat="47.432326" lon="13.54739"><ele>1284.18</ele></trkpt><trkpt lat="47.432324" lon="13.547034"><ele>1277.71</ele></trkpt><trkpt lat="47.432377" lon="13.546198"><ele>1274.83</ele></trkpt><trkpt lat="47.432396" lon="13.545413"><ele>1273.26</ele></trkpt><trkpt lat="47.432358" lon="13.544476"><ele>1272.09</ele><time>2021-08-03T06:03:11Z</time></trkpt></trkseg><trkseg><trkpt lat="47.432358" lon="13.544476"><ele>1272.09</ele><time>2021-08-03T05:27:08Z</time></trkpt><trkpt lat="47.432342" lon="13.544081"><ele>1270.91</ele></trkpt><trkpt lat="47.432342" lon="13.543324"><ele>1270.57</ele></trkpt><trkpt lat="47.432408" lon="13.541993"><ele>1268.2</ele></trkpt><trkpt lat="47.432362" lon="13.541179"><ele>1266.9</ele></trkpt><trkpt lat="47.432312" lon="13.54061"><ele>1265.93</ele></trkpt><trkpt lat="47.432315" lon="13.540225"><ele>1265.22</ele></trkpt><trkpt lat="47.432356" lon="13.539875"><ele>1263.64</ele></trkpt><trkpt lat="47.432629" lon="13.538808"><ele>1264.04</ele></trkpt><trkpt lat="47.432721" lon="13.538035"><ele>1256.6</ele><time>2021-08-03T05:28:59Z</time></trkpt><trkpt lat="47.432755" lon="13.537771"><ele>1252.1</ele></trkpt><trkpt lat="47.432877" lon="13.537186"><ele>1250.24</ele></trkpt><trkpt lat="47.433019" lon="13.536694"><ele>1246.0</ele></trkpt><trkpt lat="47.433152" lon="13.536297"><ele>1235.6</ele></trkpt><trkpt lat="47.433264" lon="13.536049"><ele>1230.76</ele></trkpt><trkpt lat="47.433404" lon="13.535616"><ele>1230.68</ele></trkpt><trkpt lat="47.433525" lon="13.535"><ele>1230.06</ele></trkpt><trkpt lat="47.43362" lon="13.534672"><ele>1228.95</ele></trkpt><trkpt lat="47.433712" lon="13.534486"><ele>1228.46</ele></trkpt><trkpt lat="47.433899" lon="13.534253"><ele>1226.2</ele></trkpt><trkpt lat="47.434133" lon="13.534065"><ele>1203.52</ele></trkpt><trkpt lat="47.43428" lon="13.534036"><ele>1202.11</ele></trkpt><trkpt lat="47.434413" lon="13.534044"><ele>1200.94</ele></trkpt><trkpt lat="47.434512" lon="13.534092"><ele>1199.94</ele></trkpt><trkpt lat="47.434791" lon="13.534357"><ele>1197.77</ele></trkpt><trkpt lat="47.434929" lon="13.534461"><ele>1198.35</ele></trkpt><trkpt lat="47.435621" lon="13.534774"><ele>1192.05</ele></trkpt><trkpt lat="47.435887" lon="13.534979"><ele>1169.2</ele></trkpt><trkpt lat="47.435939" lon="13.534961"><ele>1169.25</ele></trkpt><trkpt lat="47.435978" lon="13.534896"><ele>1169.25</ele></trkpt><trkpt lat="47.435988" lon="13.534807"><ele>1169.25</ele></trkpt><trkpt lat="47.435978" lon="13.534698"><ele>1169.19</ele></trkpt><trkpt lat="47.435938" lon="13.534557"><ele>1169.09</ele></trkpt><trkpt lat="47.435881" lon="13.534446"><ele>1168.86</ele></trkpt><trkpt lat="47.435778" lon="13.534346"><ele>1169.31</ele></trkpt><trkpt lat="47.435477" lon="13.534152"><ele>1169.8</ele></trkpt><trkpt lat="47.435353" lon="13.534006"><ele>1169.75</ele></trkpt><trkpt lat="47.435327" lon="13.533918"><ele>1169.36</ele></trkpt><trkpt lat="47.435335" lon="13.53366"><ele>1168.94</ele></trkpt><trkpt lat="47.435305" lon="13.533456"><ele>1168.55</ele></trkpt><trkpt lat="47.43526" lon="13.533348"><ele>1168.57</ele></trkpt><trkpt lat="47.435117" lon="13.533102"><ele>1167.12</ele></trkpt><trkpt lat="47.435075" lon="13.53301"><ele>1166.69</ele></trkpt><trkpt lat="47.435044" lon="13.532891"><ele>1165.82</ele></trkpt><trkpt lat="47.435036" lon="13.532728"><ele>1165.39</ele></trkpt><trkpt lat="47.435095" lon="13.532261"><ele>1161.17</ele></trkpt><trkpt lat="47.435092" lon="13.53204"><ele>1159.19</ele></trkpt><trkpt lat="47.435073" lon="13.531834"><ele>1157.72</ele></trkpt><trkpt lat="47.434945" lon="13.531182"><ele>1153.96</ele></trkpt><trkpt lat="47.434923" lon="13.530973"><ele>1152.5</ele></trkpt><trkpt lat="47.434915" lon="13.530669"><ele>1152.18</ele></trkpt><trkpt lat="47.434926" lon="13.530459"><ele>1152.28</ele></trkpt><trkpt lat="47.434963" lon="13.530249"><ele>1153.12</ele></trkpt><trkpt lat="47.435341" lon="13.529102"><ele>1122.02</ele></trkpt><trkpt lat="47.435345" lon="13.528786"><ele>1122.65</ele></trkpt><trkpt lat="47.435313" lon="13.528592"><ele>1122.9</ele></trkpt><trkpt lat="47.4351" lon="13.527847"><ele>1115.68</ele></trkpt><trkpt lat="47.434929" lon="13.526963"><ele>1115.77</ele></trkpt><trkpt lat="47.43492" lon="13.526744"><ele>1116.0</ele><time>2021-08-03T05:33:20Z</time></trkpt><trkpt lat="47.434956" lon="13.526698"><ele>1105.65</ele></trkpt><trkpt lat="47.435042" lon="13.526658"><ele>1104.38</ele></trkpt><trkpt lat="47.435144" lon="13.526697"><ele>1104.17</ele></trkpt><trkpt lat="47.435191" lon="13.526757"><ele>1104.08</ele></trkpt><trkpt lat="47.435318" lon="13.527213"><ele>1103.99</ele></trkpt><trkpt lat="47.435403" lon="13.527423"><ele>1103.92</ele></trkpt><trkpt lat="47.435513" lon="13.527587"><ele>1104.68</ele></trkpt><trkpt lat="47.43572" lon="13.52784"><ele>1106.06</ele></trkpt><trkpt lat="47.435789" lon="13.527955"><ele>1106.69</ele></trkpt><trkpt lat="47.435837" lon="13.528094"><ele>1094.0</ele></trkpt><trkpt lat="47.435899" lon="13.528356"><ele>1107.36</ele></trkpt><trkpt lat="47.436014" lon="13.52931"><ele>1110.52</ele></trkpt><trkpt lat="47.436012" lon="13.529534"><ele>1110.58</ele></trkpt><trkpt lat="47.435948" lon="13.530425"><ele>1115.44</ele></trkpt><trkpt lat="47.435954" lon="13.530589"><ele>1116.95</ele></trkpt><trkpt lat="47.436149" lon="13.530832"><ele>1123.4</ele><time>2021-08-03T05:34:41Z</time></trkpt><trkpt lat="47.436309" lon="13.530343"><ele>1115.23</ele></trkpt><trkpt lat="47.436405" lon="13.529927"><ele>1114.56</ele></trkpt><trkpt lat="47.436462" lon="13.529569"><ele>1110.75</ele></trkpt><trkpt lat="47.436499" lon="13.529119"><ele>1104.06</ele></trkpt><trkpt lat="47.436572" lon="13.527748"><ele>1091.24</ele></trkpt><trkpt lat="47.436572" lon="13.52748"><ele>1085.06</ele></trkpt><trkpt lat="47.436545" lon="13.527285"><ele>1084.95</ele></trkpt><trkpt lat="47.436291" lon="13.526223"><ele>1080.33</ele></trkpt><trkpt lat="47.436149" lon="13.525832"><ele>1068.8</ele></trkpt><trkpt lat="47.436106" lon="13.525549"><ele>1067.11</ele></trkpt><trkpt lat="47.436064" lon="13.525112"><ele>1067.56</ele></trkpt><trkpt lat="47.435901" lon="13.524368"><ele>1063.14</ele></trkpt><trkpt lat="47.435885" lon="13.524228"><ele>1063.15</ele></trkpt><trkpt lat="47.435892" lon="13.524055"><ele>1063.71</ele></trkpt><trkpt lat="47.436007" lon="13.523251"><ele>1062.48</ele></trkpt><trkpt lat="47.436079" lon="13.52219"><ele>1072.0</ele><time>2021-08-03T05:36:56Z</time></trkpt><trkpt lat="47.435367" lon="13.52195"><ele>1069.2</ele></trkpt><trkpt lat="47.43473" lon="13.521617"><ele>1069.33</ele></trkpt><trkpt lat="47.434671" lon="13.521603"><ele>1073.8</ele><time>2021-08-03T05:37:30Z</time></trkpt><trkpt lat="47.434279" lon="13.521744"><ele>1062.63</ele><time>2021-08-03T05:37:39Z</time></trkpt></trkseg><trkseg><trkpt lat="47.434279" lon="13.521744"><ele>1062.63</ele><time>2021-08-03T05:27:08Z</time></trkpt></trkseg><trkseg><trkpt lat="47.434279" lon="13.521744"><ele>1062.63</ele><time>2021-08-03T05:27:08Z</time></trkpt><trkpt lat="47.434671" lon="13.521603"><ele>1073.8</ele><time>2021-08-03T05:27:18Z</time></trkpt><trkpt lat="47.43473" lon="13.521617"><ele>1069.33</ele></trkpt><trkpt lat="47.435367" lon="13.52195"><ele>1069.2</ele></trkpt><trkpt lat="47.436079" lon="13.52219"><ele>1072.0</ele></trkpt><trkpt lat="47.436672" lon="13.522265"><ele>1066.23</ele></trkpt><trkpt lat="47.436891" lon="13.522313"><ele>1065.96</ele></trkpt><trkpt lat="47.437197" lon="13.52244"><ele>1065.66</ele></trkpt><trkpt lat="47.437571" lon="13.522666"><ele>1063.39</ele></trkpt><trkpt lat="47.437726" lon="13.522733"><ele>1057.8</ele></trkpt><trkpt lat="47.437883" lon="13.522764"><ele>1058.84</ele></trkpt><trkpt lat="47.438414" lon="13.522792"><ele>1059.3</ele></trkpt><trkpt lat="47.438779" lon="13.522771"><ele>1060.4</ele><time>2021-08-03T05:28:53Z</time></trkpt><trkpt lat="47.438785" lon="13.522772"><ele>1062.23</ele><time>2021-08-03T05:28:53Z</time></trkpt></trkseg><trkseg><trkpt lat="47.438785" lon="13.522772"><ele>1062.23</ele><time>2021-08-03T05:27:08Z</time></trkpt><trkpt lat="47.438779" lon="13.522771"><ele>1060.4</ele><time>2021-08-03T05:27:09Z</time></trkpt><trkpt lat="47.439123" lon="13.522448"><ele>1065.8</ele></trkpt><trkpt lat="47.439253" lon="13.52238"><ele>1067.46</ele></trkpt><trkpt lat="47.439603" lon="13.522267"><ele>1068.86</ele></trkpt><trkpt lat="47.440499" lon="13.521625"><ele>1072.99</ele></trkpt><trkpt lat="47.440743" lon="13.521399"><ele>1075.83</ele></trkpt><trkpt lat="47.440923" lon="13.521136"><ele>1080.31</ele></trkpt><trkpt lat="47.441241" lon="13.520545"><ele>1081.35</ele></trkpt><trkpt lat="47.441588" lon="13.520126"><ele>1085.45</ele></trkpt><trkpt lat="47.441915" lon="13.519872"><ele>1088.05</ele></trkpt><trkpt lat="47.442704" lon="13.519516"><ele>1088.67</ele></trkpt><trkpt lat="47.443155" lon="13.51936"><ele>1090.6</ele><time>2021-08-03T05:29:02Z</time></trkpt><trkpt lat="47.443241" lon="13.519283"><ele>1094.3</ele><time>2021-08-03T05:29:04Z</time></trkpt></trkseg><trkseg><trkpt lat="47.443241" lon="13.519283"><ele>1094.3</ele><time>2021-08-03T05:27:08Z</time></trkpt><trkpt lat="47.443448" lon="13.519098"><ele>1098.0</ele></trkpt><trkpt lat="47.443589" lon="13.518913"><ele>1098.0</ele></trkpt><trkpt lat="47.444094" lon="13.518348"><ele>1098.95</ele></trkpt><trkpt lat="47.445577" lon="13.517675"><ele>1105.88</ele></trkpt><trkpt lat="47.446065" lon="13.517217"><ele>1107.44</ele></trkpt><trkpt lat="47.446616" lon="13.517134"><ele>1107.63</ele></trkpt><trkpt lat="47.447256" lon="13.517108"><ele>1106.47</ele></trkpt><trkpt lat="47.448077" lon="13.516918"><ele>1114.42</ele></trkpt><trkpt lat="47.448959" lon="13.516547"><ele>1125.54</ele></trkpt><trkpt lat="47.449544" lon="13.516465"><ele>1127.21</ele><time>2021-08-03T05:29:38Z</time></trkpt></trkseg><trkseg><trkpt lat="47.449544" lon="13.516465"><ele>1127.21</ele><time>2021-08-03T05:27:08Z</time></trkpt><trkpt lat="47.450966" lon="13.516265"><ele>1128.88</ele></trkpt><trkpt lat="47.452259" lon="13.51581"><ele>1134.08</ele></trkpt><trkpt lat="47.452624" lon="13.515619"><ele>1132.95</ele></trkpt><trkpt lat="47.453865" lon="13.515384"><ele>1142.85</ele></trkpt><trkpt lat="47.455103" lon="13.51489"><ele>1152.53</ele></trkpt><trkpt lat="47.455751" lon="13.515092"><ele>1151.47</ele></trkpt><trkpt lat="47.456139" lon="13.515332"><ele>1154.7</ele></trkpt><trkpt lat="47.456249" lon="13.515419"><ele>1156.05</ele><time>2021-08-03T05:29:42Z</time></trkpt></trkseg><trkseg><trkpt lat="47.456249" lon="13.515419"><ele>1156.05</ele><time>2021-08-03T05:27:08Z</time></trkpt><trkpt lat="47.456442" lon="13.515573"><ele>1157.4</ele><time>2021-08-03T05:27:13Z</time></trkpt><trkpt lat="47.456643" lon="13.515488"><ele>1157.4</ele></trkpt><trkpt lat="47.456739" lon="13.515494"><ele>1168.94</ele></trkpt><trkpt lat="47.457276" lon="13.515815"><ele>1170.35</ele></trkpt><trkpt lat="47.457601" lon="13.51611"><ele>1172.64</ele></trkpt><trkpt lat="47.457672" lon="13.516143"><ele>1172.88</ele></trkpt><trkpt lat="47.457909" lon="13.516166"><ele>1174.02</ele></trkpt><trkpt lat="47.457999" lon="13.516146"><ele>1175.21</ele></trkpt><trkpt lat="47.458165" lon="13.515999"><ele>1176.4</ele></trkpt><trkpt lat="47.458259" lon="13.515952"><ele>1178.28</ele></trkpt><trkpt lat="47.458339" lon="13.515944"><ele>1180.06</ele></trkpt><trkpt lat="47.458917" lon="13.516201"><ele>1180.82</ele></trkpt><trkpt lat="47.459154" lon="13.516262"><ele>1183.35</ele></trkpt><trkpt lat="47.459524" lon="13.516441"><ele>1186.03</ele></trkpt><trkpt lat="47.459624" lon="13.516535"><ele>1186.84</ele></trkpt><trkpt lat="47.459674" lon="13.516673"><ele>1187.58</ele></trkpt><trkpt lat="47.459736" lon="13.516759"><ele>1188.69</ele></trkpt><trkpt lat="47.459991" lon="13.516808"><ele>1190.89</ele></trkpt><trkpt lat="47.460411" lon="13.516958"><ele>1192.75</ele></trkpt><trkpt lat="47.460871" lon="13.516943"><ele>1193.55</ele><time>2021-08-03T05:29:53Z</time></trkpt></trkseg><trkseg><trkpt lat="47.460871" lon="13.516943"><ele>1193.55</ele><time>2021-08-03T05:27:08Z</time></trkpt><trkpt lat="47.46096" lon="13.51691"><ele>1208.0</ele></trkpt><trkpt lat="47.461029" lon="13.516844"><ele>1218.8</ele></trkpt><trkpt lat="47.461102" lon="13.516703"><ele>1222.98</ele></trkpt><trkpt lat="47.461183" lon="13.516291"><ele>1229.04</ele></trkpt><trkpt lat="47.461311" lon="13.515921"><ele>1229.68</ele></trkpt><trkpt lat="47.461403" lon="13.515793"><ele>1230.38</ele></trkpt><trkpt lat="47.461597" lon="13.515348"><ele>1230.39</ele></trkpt><trkpt lat="47.461714" lon="13.514968"><ele>1234.19</ele></trkpt><trkpt lat="47.461754" lon="13.514766"><ele>1234.17</ele></trkpt><trkpt lat="47.461739" lon="13.51468"><ele>1245.6</ele><time>2021-08-03T05:28:16Z</time></trkpt><trkpt lat="47.461862" lon="13.51417"><ele>1245.6</ele><time>2021-08-03T05:28:28Z</time></trkpt><trkpt lat="47.462009" lon="13.513582"><ele>1241.87</ele></trkpt><trkpt lat="47.462023" lon="13.513185"><ele>1241.23</ele></trkpt><trkpt lat="47.462015" lon="13.51306"><ele>1238.8</ele><time>2021-08-03T05:28:54Z</time></trkpt><trkpt lat="47.461883" lon="13.512028"><ele>1222.47</ele></trkpt><trkpt lat="47.461753" lon="13.511442"><ele>1214.86</ele></trkpt><trkpt lat="47.461609" lon="13.510622"><ele>1209.81</ele></trkpt><trkpt lat="47.461319" lon="13.510122"><ele>1205.1</ele></trkpt><trkpt lat="47.46113" lon="13.509963"><ele>1202.75</ele></trkpt><trkpt lat="47.461078" lon="13.509897"><ele>1203.05</ele></trkpt><trkpt lat="47.460993" lon="13.509716"><ele>1201.94</ele></trkpt><trkpt lat="47.46089" lon="13.509348"><ele>1202.62</ele></trkpt><trkpt lat="47.460716" lon="13.509092"><ele>1199.96</ele></trkpt><trkpt lat="47.460185" lon="13.508565"><ele>1196.4</ele></trkpt><trkpt lat="47.459906" lon="13.508378"><ele>1195.35</ele></trkpt><trkpt lat="47.459641" lon="13.508243"><ele>1193.24</ele></trkpt><trkpt lat="47.459304" lon="13.508117"><ele>1191.9</ele></trkpt><trkpt lat="47.45926" lon="13.508079"><ele>1192.27</ele></trkpt><trkpt lat="47.459219" lon="13.508025"><ele>1192.65</ele></trkpt><trkpt lat="47.459114" lon="13.507651"><ele>1194.64</ele></trkpt><trkpt lat="47.458986" lon="13.507423"><ele>1193.85</ele></trkpt><trkpt lat="47.458812" lon="13.507193"><ele>1193.99</ele></trkpt><trkpt lat="47.458643" lon="13.506863"><ele>1193.04</ele></trkpt><trkpt lat="47.458461" lon="13.506563"><ele>1191.57</ele></trkpt><trkpt lat="47.458243" lon="13.506296"><ele>1193.24</ele></trkpt><trkpt lat="47.458148" lon="13.506241"><ele>1193.05</ele></trkpt><trkpt lat="47.458083" lon="13.50623"><ele>1192.66</ele></trkpt><trkpt lat="47.457984" lon="13.506143"><ele>1191.72</ele></trkpt><trkpt lat="47.457875" lon="13.505778"><ele>1190.49</ele></trkpt><trkpt lat="47.457811" lon="13.505623"><ele>1190.42</ele></trkpt><trkpt lat="47.457661" lon="13.50535"><ele>1190.92</ele></trkpt><trkpt lat="47.457514" lon="13.505131"><ele>1192.08</ele></trkpt><trkpt lat="47.45734" lon="13.504766"><ele>1190.3</ele></trkpt><trkpt lat="47.456849" lon="13.503933"><ele>1191.04</ele></trkpt><trkpt lat="47.456765" lon="13.50369"><ele>1191.08</ele></trkpt><trkpt lat="47.456576" lon="13.503034"><ele>1189.18</ele></trkpt><trkpt lat="47.456382" lon="13.502567"><ele>1185.41</ele></trkpt><trkpt lat="47.456164" lon="13.502172"><ele>1185.64</ele><time>2021-08-03T05:34:25Z</time></trkpt></trkseg><trkseg><trkpt lat="47.456164" lon="13.502172"><ele>1185.64</ele><time>2021-08-03T05:27:09Z</time></trkpt><trkpt lat="47.455847" lon="13.501664"><ele>1189.57</ele></trkpt><trkpt lat="47.455646" lon="13.501465"><ele>1191.47</ele></trkpt><trkpt lat="47.455449" lon="13.501375"><ele>1192.67</ele></trkpt><trkpt lat="47.455281" lon="13.501396"><ele>1194.25</ele></trkpt><trkpt lat="47.455177" lon="13.50143"><ele>1194.91</ele></trkpt><trkpt lat="47.455021" lon="13.501549"><ele>1196.33</ele></trkpt><trkpt lat="47.454948" lon="13.501647"><ele>1197.11</ele></trkpt><trkpt lat="47.454761" lon="13.502046"><ele>1197.15</ele></trkpt><trkpt lat="47.454653" lon="13.502216"><ele>1195.93</ele></trkpt><trkpt lat="47.454599" lon="13.502262"><ele>1207.2</ele><time>2021-08-03T05:28:18Z</time></trkpt><trkpt lat="47.45416" lon="13.502483"><ele>1206.27</ele></trkpt><trkpt lat="47.453661" lon="13.50282"><ele>1206.9</ele></trkpt><trkpt lat="47.453579" lon="13.502812"><ele>1205.76</ele></trkpt><trkpt lat="47.453545" lon="13.502777"><ele>1204.24</ele></trkpt><trkpt lat="47.453528" lon="13.502713"><ele>1203.59</ele></trkpt><trkpt lat="47.453536" lon="13.502624"><ele>1202.91</ele></trkpt><trkpt lat="47.45368" lon="13.502196"><ele>1200.5</ele></trkpt><trkpt lat="47.4537" lon="13.502034"><ele>1199.63</ele></trkpt><trkpt lat="47.453655" lon="13.501832"><ele>1198.78</ele></trkpt><trkpt lat="47.453497" lon="13.501283"><ele>1199.44</ele></trkpt><trkpt lat="47.453453" lon="13.500621"><ele>1198.52</ele></trkpt><trkpt lat="47.453386" lon="13.500184"><ele>1198.82</ele></trkpt><trkpt lat="47.453255" lon="13.499659"><ele>1199.61</ele></trkpt><trkpt lat="47.453149" lon="13.499308"><ele>1197.53</ele></trkpt><trkpt lat="47.453138" lon="13.49907"><ele>1195.69</ele></trkpt><trkpt lat="47.453159" lon="13.498785"><ele>1193.42</ele></trkpt><trkpt lat="47.453134" lon="13.498515"><ele>1192.95</ele></trkpt><trkpt lat="47.453011" lon="13.498001"><ele>1192.31</ele></trkpt><trkpt lat="47.452899" lon="13.49739"><ele>1190.74</ele></trkpt><trkpt lat="47.452833" lon="13.49722"><ele>1190.63</ele></trkpt><trkpt lat="47.452724" lon="13.497071"><ele>1190.29</ele></trkpt><trkpt lat="47.452399" lon="13.496762"><ele>1190.18</ele></trkpt><trkpt lat="47.452331" lon="13.496674"><ele>1189.67</ele></trkpt><trkpt lat="47.451726" lon="13.495733"><ele>1183.07</ele></trkpt><trkpt lat="47.451553" lon="13.495557"><ele>1182.64</ele></trkpt><trkpt lat="47.451481" lon="13.495372"><ele>1180.53</ele></trkpt><trkpt lat="47.451449" lon="13.494932"><ele>1177.74</ele></trkpt><trkpt lat="47.451379" lon="13.494582"><ele>1177.53</ele></trkpt><trkpt lat="47.451347" lon="13.494495"><ele>1177.41</ele></trkpt><trkpt lat="47.451225" lon="13.494275"><ele>1177.5</ele></trkpt><trkpt lat="47.45108" lon="13.494064"><ele>1178.57</ele></trkpt><trkpt lat="47.450922" lon="13.493895"><ele>1178.91</ele></trkpt><trkpt lat="47.450849" lon="13.493835"><ele>1179.85</ele></trkpt><trkpt lat="47.450762" lon="13.493796"><ele>1180.95</ele></trkpt><trkpt lat="47.450382" lon="13.493713"><ele>1181.23</ele></trkpt><trkpt lat="47.450054" lon="13.493682"><ele>1183.07</ele></trkpt><trkpt lat="47.449797" lon="13.49363"><ele>1183.54</ele></trkpt><trkpt lat="47.449546" lon="13.49364"><ele>1183.92</ele></trkpt><trkpt lat="47.449483" lon="13.49361"><ele>1183.96</ele></trkpt><trkpt lat="47.449087" lon="13.492941"><ele>1183.71</ele></trkpt><trkpt lat="47.448958" lon="13.492643"><ele>1182.43</ele></trkpt><trkpt lat="47.44868" lon="13.491322"><ele>1173.39</ele></trkpt><trkpt lat="47.448667" lon="13.49086"><ele>1171.34</ele></trkpt><trkpt lat="47.448624" lon="13.490679"><ele>1169.76</ele></trkpt><trkpt lat="47.448478" lon="13.490391"><ele>1170.49</ele></trkpt><trkpt lat="47.448286" lon="13.490183"><ele>1171.39</ele></trkpt><trkpt lat="47.448272" lon="13.490062"><ele>1170.5</ele></trkpt><trkpt lat="47.448319" lon="13.489385"><ele>1169.07</ele></trkpt><trkpt lat="47.448324" lon="13.489002"><ele>1161.4</ele></trkpt><trkpt lat="47.448359" lon="13.488881"><ele>1148.01</ele></trkpt><trkpt lat="47.448355" lon="13.488442"><ele>1149.22</ele></trkpt><trkpt lat="47.448322" lon="13.488227"><ele>1147.88</ele></trkpt><trkpt lat="47.448212" lon="13.487847"><ele>1143.42</ele></trkpt><trkpt lat="47.44819" lon="13.487484"><ele>1135.88</ele></trkpt><trkpt lat="47.448251" lon="13.487035"><ele>1128.51</ele></trkpt><trkpt lat="47.44848" lon="13.486221"><ele>1117.1</ele><time>2021-08-03T05:36:47Z</time></trkpt></trkseg><trkseg><trkpt lat="47.44848" lon="13.486221"><ele>1117.1</ele><time>2021-08-03T05:27:09Z</time></trkpt><trkpt lat="47.448522" lon="13.485998"><ele>1115.25</ele></trkpt><trkpt lat="47.448527" lon="13.485883"><ele>1113.92</ele></trkpt><trkpt lat="47.448498" lon="13.485699"><ele>1114.86</ele></trkpt><trkpt lat="47.448386" lon="13.485465"><ele>1114.8</ele></trkpt><trkpt lat="47.448366" lon="13.485349"><ele>1116.71</ele></trkpt><trkpt lat="47.448376" lon="13.485316"><ele>1100.0</ele><time>2021-08-03T05:27:35Z</time></trkpt><trkpt lat="47.448419" lon="13.485281"><ele>1102.26</ele></trkpt><trkpt lat="47.448474" lon="13.4853"><ele>1102.49</ele></trkpt><trkpt lat="47.448618" lon="13.48547"><ele>1101.67</ele></trkpt><trkpt lat="47.448806" lon="13.485618"><ele>1100.7</ele></trkpt><trkpt lat="47.448861" lon="13.485684"><ele>1100.26</ele></trkpt><trkpt lat="47.448904" lon="13.485756"><ele>1100.06</ele></trkpt><trkpt lat="47.448985" lon="13.485979"><ele>1099.63</ele></trkpt><trkpt lat="47.44922" lon="13.486835"><ele>1098.99</ele></trkpt><trkpt lat="47.449269" lon="13.486926"><ele>1098.7</ele></trkpt><trkpt lat="47.449393" lon="13.487047"><ele>1098.24</ele></trkpt><trkpt lat="47.449669" lon="13.487181"><ele>1096.65</ele></trkpt><trkpt lat="47.449709" lon="13.487218"><ele>1096.73</ele></trkpt><trkpt lat="47.449738" lon="13.487297"><ele>1096.71</ele></trkpt><trkpt lat="47.449786" lon="13.48757"><ele>1096.75</ele></trkpt><trkpt lat="47.449843" lon="13.487696"><ele>1095.59</ele></trkpt><trkpt lat="47.449882" lon="13.487717"><ele>1094.9</ele></trkpt><trkpt lat="47.450633" lon="13.487695"><ele>1089.12</ele></trkpt><trkpt lat="47.450941" lon="13.487752"><ele>1084.58</ele></trkpt><trkpt lat="47.451618" lon="13.488259"><ele>1075.92</ele></trkpt><trkpt lat="47.451791" lon="13.488419"><ele>1076.24</ele></trkpt><trkpt lat="47.451855" lon="13.488507"><ele>1075.85</ele></trkpt><trkpt lat="47.451899" lon="13.48862"><ele>1075.44</ele></trkpt><trkpt lat="47.451949" lon="13.489065"><ele>1074.94</ele></trkpt><trkpt lat="47.451991" lon="13.489155"><ele>1074.61</ele></trkpt><trkpt lat="47.452034" lon="13.489185"><ele>1074.84</ele></trkpt><trkpt lat="47.452092" lon="13.489178"><ele>1074.46</ele></trkpt><trkpt lat="47.452184" lon="13.489119"><ele>1074.07</ele></trkpt><trkpt lat="47.452273" lon="13.489025"><ele>1074.26</ele></trkpt><trkpt lat="47.452383" lon="13.48887"><ele>1074.68</ele></trkpt><trkpt lat="47.452489" lon="13.488796"><ele>1070.8</ele></trkpt><trkpt lat="47.452668" lon="13.488725"><ele>1063.51</ele></trkpt><trkpt lat="47.453156" lon="13.488608"><ele>1060.2</ele></trkpt><trkpt lat="47.453929" lon="13.488564"><ele>1051.84</ele></trkpt><trkpt lat="47.454092" lon="13.488604"><ele>1052.12</ele></trkpt><trkpt lat="47.454167" lon="13.488591"><ele>1052.47</ele></trkpt><trkpt lat="47.454199" lon="13.48844"><ele>1048.64</ele></trkpt><trkpt lat="47.454187" lon="13.48817"><ele>1048.57</ele></trkpt><trkpt lat="47.454027" lon="13.487342"><ele>1049.31</ele></trkpt><trkpt lat="47.454036" lon="13.487206"><ele>1050.6</ele></trkpt><trkpt lat="47.454115" lon="13.486967"><ele>1050.6</ele><time>2021-08-03T05:32:18Z</time></trkpt><trkpt lat="47.453914" lon="13.486722"><ele>1055.24</ele><time>2021-08-03T05:32:24Z</time></trkpt></trkseg><trkseg><trkpt lat="47.453914" lon="13.486722"><ele>1055.24</ele><time>2021-08-03T05:27:09Z</time></trkpt><trkpt lat="47.453543" lon="13.486125"><ele>1061.19</ele></trkpt><trkpt lat="47.45347" lon="13.486075"><ele>1061.28</ele></trkpt><trkpt lat="47.453373" lon="13.485969"><ele>1061.37</ele></trkpt><trkpt lat="47.453003" lon="13.485485"><ele>1060.43</ele></trkpt><trkpt lat="47.452906" lon="13.485287"><ele>1060.26</ele></trkpt><trkpt lat="47.452804" lon="13.484963"><ele>1060.29</ele></trkpt><trkpt lat="47.452689" lon="13.484756"><ele>1060.81</ele></trkpt><trkpt lat="47.452447" lon="13.484419"><ele>1050.6</ele></trkpt><trkpt lat="47.452154" lon="13.484075"><ele>1052.04</ele></trkpt><trkpt lat="47.452076" lon="13.483953"><ele>1054.2</ele></trkpt><trkpt lat="47.451312" lon="13.482366"><ele>1043.8</ele></trkpt><trkpt lat="47.451176" lon="13.482132"><ele>1039.78</ele></trkpt><trkpt lat="47.450828" lon="13.481697"><ele>1040.0</ele></trkpt><trkpt lat="47.450788" lon="13.481603"><ele>1039.54</ele></trkpt><trkpt lat="47.450737" lon="13.481358"><ele>1038.69</ele></trkpt><trkpt lat="47.450696" lon="13.480781"><ele>1037.66</ele></trkpt><trkpt lat="47.450598" lon="13.479744"><ele>1034.42</ele></trkpt><trkpt lat="47.450462" lon="13.478999"><ele>1035.24</ele><time>2021-08-03T05:29:35Z</time></trkpt></trkseg><trkseg><trkpt lat="47.450462" lon="13.478999"><ele>1035.24</ele><time>2021-08-03T05:27:09Z</time></trkpt><trkpt lat="47.450447" lon="13.478801"><ele>1036.0</ele></trkpt><trkpt lat="47.450481" lon="13.478564"><ele>1038.5</ele></trkpt><trkpt lat="47.450588" lon="13.478358"><ele>1037.97</ele></trkpt><trkpt lat="47.45119" lon="13.47771"><ele>1047.2</ele><time>2021-08-03T05:27:37Z</time></trkpt><trkpt lat="47.451243" lon="13.477747"><ele>1047.2</ele></trkpt><trkpt lat="47.451348" lon="13.477733"><ele>1047.2</ele></trkpt><trkpt lat="47.45146" lon="13.477575"><ele>1047.2</ele><time>2021-08-03T05:27:44Z</time></trkpt><trkpt lat="47.451711" lon="13.476732"><ele>1058.6</ele></trkpt><trkpt lat="47.451832" lon="13.47641"><ele>1054.13</ele><time>2021-08-03T05:28:04Z</time></trkpt></trkseg><trkseg><trkpt lat="47.451832" lon="13.47641"><ele>1054.13</ele><time>2021-08-03T05:27:09Z</time></trkpt><trkpt lat="47.451916" lon="13.476258"><ele>1054.33</ele></trkpt><trkpt lat="47.45198" lon="13.47621"><ele>1052.8</ele></trkpt><trkpt lat="47.452048" lon="13.476171"><ele>1057.87</ele></trkpt><trkpt lat="47.4524" lon="13.476064"><ele>1059.58</ele></trkpt><trkpt lat="47.452573" lon="13.475949"><ele>1060.52</ele></trkpt><trkpt lat="47.452653" lon="13.475861"><ele>1059.97</ele></trkpt><trkpt lat="47.45278" lon="13.475674"><ele>1059.3</ele></trkpt><trkpt lat="47.453559" lon="13.474351"><ele>1070.0</ele><time>2021-08-03T05:28:02Z</time></trkpt><trkpt lat="47.453669" lon="13.474027"><ele>1060.13</ele></trkpt><trkpt lat="47.453847" lon="13.473852"><ele>1055.2</ele><time>2021-08-03T05:28:13Z</time></trkpt><trkpt lat="47.454001" lon="13.47367"><ele>1055.2</ele></trkpt><trkpt lat="47.454091" lon="13.473622"><ele>1055.2</ele></trkpt><trkpt lat="47.454139" lon="13.473622"><ele>1055.2</ele><time>2021-08-03T05:28:24Z</time></trkpt><trkpt lat="47.454184" lon="13.473622"><ele>1069.98</ele></trkpt><trkpt lat="47.454549" lon="13.473299"><ele>1070.41</ele><time>2021-08-03T05:28:43Z</time></trkpt></trkseg><trkseg><trkpt lat="47.454549" lon="13.473299"><ele>1070.41</ele><time>2021-08-03T05:27:09Z</time></trkpt><trkpt lat="47.455441" lon="13.472614"><ele>1070.86</ele></trkpt><trkpt lat="47.455815" lon="13.47238"><ele>1064.6</ele><time>2021-08-03T05:27:57Z</time></trkpt><trkpt lat="47.455901" lon="13.472328"><ele>1073.12</ele></trkpt><trkpt lat="47.456212" lon="13.471991"><ele>1073.86</ele></trkpt><trkpt lat="47.456318" lon="13.471835"><ele>1074.22</ele></trkpt><trkpt lat="47.456543" lon="13.471621"><ele>1076.46</ele></trkpt><trkpt lat="47.456898" lon="13.471313"><ele>1085.25</ele></trkpt><trkpt lat="47.457088" lon="13.471109"><ele>1084.83</ele></trkpt><trkpt lat="47.457409" lon="13.470935"><ele>1084.16</ele></trkpt><trkpt lat="47.457734" lon="13.470632"><ele>1096.0</ele></trkpt><trkpt lat="47.457831" lon="13.470473"><ele>1106.96</ele><time>2021-08-03T05:29:22Z</time></trkpt></trkseg><trkseg><trkpt lat="47.457831" lon="13.470473"><ele>1106.96</ele><time>2021-08-03T05:27:09Z</time></trkpt><trkpt lat="47.457899" lon="13.470346"><ele>1106.66</ele></trkpt><trkpt lat="47.457968" lon="13.470266"><ele>1105.9</ele></trkpt><trkpt lat="47.458181" lon="13.470098"><ele>1107.19</ele></trkpt><trkpt lat="47.458528" lon="13.469897"><ele>1110.28</ele></trkpt><trkpt lat="47.458836" lon="13.469799"><ele>1114.28</ele></trkpt><trkpt lat="47.459133" lon="13.469618"><ele>1120.46</ele></trkpt><trkpt lat="47.45974" lon="13.469187"><ele>1132.77</ele></trkpt><trkpt lat="47.45988" lon="13.469134"><ele>1134.73</ele></trkpt><trkpt lat="47.459981" lon="13.469119"><ele>1139.49</ele></trkpt><trkpt lat="47.460041" lon="13.469085"><ele>1140.12</ele></trkpt><trkpt lat="47.460176" lon="13.468915"><ele>1142.09</ele></trkpt><trkpt lat="47.460316" lon="13.468639"><ele>1144.58</ele></trkpt><trkpt lat="47.460447" lon="13.468335"><ele>1145.59</ele></trkpt><trkpt lat="47.460598" lon="13.467942"><ele>1147.33</ele></trkpt><trkpt lat="47.460626" lon="13.467811"><ele>1147.38</ele></trkpt><trkpt lat="47.46066" lon="13.467488"><ele>1149.24</ele></trkpt><trkpt lat="47.460634" lon="13.467406"><ele>1149.42</ele></trkpt><trkpt lat="47.460608" lon="13.467369"><ele>1149.94</ele></trkpt><trkpt lat="47.460546" lon="13.467345"><ele>1150.1</ele></trkpt><trkpt lat="47.460396" lon="13.467346"><ele>1149.72</ele></trkpt><trkpt lat="47.460342" lon="13.467326"><ele>1149.89</ele></trkpt><trkpt lat="47.460196" lon="13.467188"><ele>1150.9</ele></trkpt><trkpt lat="47.460134" lon="13.467095"><ele>1151.79</ele></trkpt><trkpt lat="47.459968" lon="13.466958"><ele>1151.95</ele></trkpt><trkpt lat="47.459386" lon="13.466623"><ele>1160.4</ele><time>2021-08-03T05:30:02Z</time></trkpt><trkpt lat="47.459261" lon="13.466546"><ele>1170.01</ele></trkpt><trkpt lat="47.459079" lon="13.466369"><ele>1169.6</ele></trkpt><trkpt lat="47.459055" lon="13.466323"><ele>1169.41</ele></trkpt><trkpt lat="47.459051" lon="13.466205"><ele>1169.05</ele></trkpt><trkpt lat="47.459075" lon="13.466173"><ele>1169.66</ele></trkpt><trkpt lat="47.459117" lon="13.466163"><ele>1169.47</ele></trkpt><trkpt lat="47.459234" lon="13.466202"><ele>1169.89</ele></trkpt><trkpt lat="47.459402" lon="13.466162"><ele>1170.17</ele></trkpt><trkpt lat="47.45947" lon="13.466089"><ele>1169.78</ele></trkpt><trkpt lat="47.459667" lon="13.465773"><ele>1173.07</ele></trkpt><trkpt lat="47.459893" lon="13.465456"><ele>1175.23</ele><time>2021-08-03T05:30:55Z</time></trkpt></trkseg><trkseg><trkpt lat="47.459893" lon="13.465456"><ele>1175.23</ele><time>2021-08-03T05:27:09Z</time></trkpt><trkpt lat="47.459985" lon="13.465307"><ele>1178.38</ele></trkpt><trkpt lat="47.460121" lon="13.464959"><ele>1186.74</ele></trkpt><trkpt lat="47.46024" lon="13.464436"><ele>1200.22</ele></trkpt><trkpt lat="47.460319" lon="13.464174"><ele>1202.7</ele></trkpt><trkpt lat="47.460432" lon="13.463932"><ele>1205.69</ele></trkpt><trkpt lat="47.460582" lon="13.463713"><ele>1208.49</ele></trkpt><trkpt lat="47.460755" lon="13.46351"><ele>1213.75</ele></trkpt><trkpt lat="47.460889" lon="13.46339"><ele>1215.62</ele></trkpt><trkpt lat="47.461003" lon="13.463351"><ele>1217.85</ele></trkpt><trkpt lat="47.461982" lon="13.46338"><ele>1236.41</ele></trkpt><trkpt lat="47.462176" lon="13.463322"><ele>1238.51</ele></trkpt><trkpt lat="47.462495" lon="13.463344"><ele>1244.55</ele></trkpt><trkpt lat="47.462531" lon="13.463394"><ele>1246.24</ele></trkpt><trkpt lat="47.462548" lon="13.463471"><ele>1247.59</ele></trkpt><trkpt lat="47.462434" lon="13.463811"><ele>1249.06</ele></trkpt><trkpt lat="47.462414" lon="13.463892"><ele>1249.32</ele></trkpt><trkpt lat="47.462412" lon="13.463977"><ele>1250.59</ele></trkpt><trkpt lat="47.462475" lon="13.464306"><ele>1253.92</ele></trkpt><trkpt lat="47.462624" lon="13.464853"><ele>1261.5</ele></trkpt><trkpt lat="47.462633" lon="13.464946"><ele>1262.16</ele></trkpt><trkpt lat="47.46261" lon="13.465218"><ele>1265.99</ele></trkpt><trkpt lat="47.462632" lon="13.465585"><ele>1268.28</ele><time>2021-08-03T05:29:58Z</time></trkpt></trkseg><trkseg><trkpt lat="47.462632" lon="13.465585"><ele>1268.28</ele><time>2021-08-03T05:27:09Z</time></trkpt><trkpt lat="47.462646" lon="13.465812"><ele>1270.58</ele></trkpt><trkpt lat="47.462664" lon="13.465859"><ele>1271.64</ele></trkpt><trkpt lat="47.462717" lon="13.465909"><ele>1272.19</ele></trkpt><trkpt lat="47.462808" lon="13.465916"><ele>1273.32</ele></trkpt><trkpt lat="47.462872" lon="13.465945"><ele>1273.74</ele></trkpt><trkpt lat="47.462992" lon="13.466094"><ele>1275.19</ele></trkpt><trkpt lat="47.463019" lon="13.466171"><ele>1276.81</ele></trkpt><trkpt lat="47.463017" lon="13.466273"><ele>1276.77</ele></trkpt><trkpt lat="47.462974" lon="13.466425"><ele>1277.3</ele></trkpt><trkpt lat="47.462976" lon="13.466517"><ele>1277.72</ele></trkpt><trkpt lat="47.463069" lon="13.466921"><ele>1279.93</ele></trkpt><trkpt lat="47.463176" lon="13.467291"><ele>1281.39</ele></trkpt><trkpt lat="47.463338" lon="13.467607"><ele>1284.25</ele></trkpt><trkpt lat="47.463471" lon="13.468018"><ele>1289.99</ele></trkpt><trkpt lat="47.463525" lon="13.468133"><ele>1292.22</ele></trkpt><trkpt lat="47.463674" lon="13.468288"><ele>1296.04</ele></trkpt><trkpt lat="47.464047" lon="13.468514"><ele>1299.59</ele></trkpt><trkpt lat="47.464283" lon="13.468704"><ele>1301.55</ele></trkpt><trkpt lat="47.464651" lon="13.469119"><ele>1303.95</ele></trkpt><trkpt lat="47.464738" lon="13.469167"><ele>1303.68</ele></trkpt><trkpt lat="47.464889" lon="13.469199"><ele>1303.11</ele></trkpt><trkpt lat="47.465005" lon="13.46915"><ele>1303.77</ele></trkpt><trkpt lat="47.465131" lon="13.46903"><ele>1306.33</ele></trkpt><trkpt lat="47.465245" lon="13.468768"><ele>1321.2</ele></trkpt><trkpt lat="47.465364" lon="13.468567"><ele>1327.87</ele></trkpt><trkpt lat="47.465561" lon="13.468431"><ele>1327.38</ele></trkpt><trkpt lat="47.465922" lon="13.468318"><ele>1329.52</ele></trkpt><trkpt lat="47.46618" lon="13.468313"><ele>1331.87</ele></trkpt><trkpt lat="47.46658" lon="13.46843"><ele>1332.11</ele></trkpt><trkpt lat="47.466836" lon="13.468569"><ele>1333.92</ele></trkpt><trkpt lat="47.466923" lon="13.468667"><ele>1335.09</ele></trkpt><trkpt lat="47.467112" lon="13.469076"><ele>1335.98</ele></trkpt><trkpt lat="47.467203" lon="13.469181"><ele>1334.34</ele></trkpt><trkpt lat="47.467291" lon="13.469234"><ele>1332.79</ele></trkpt><trkpt lat="47.467593" lon="13.469267"><ele>1330.91</ele></trkpt><trkpt lat="47.468034" lon="13.469271"><ele>1330.06</ele></trkpt><trkpt lat="47.468271" lon="13.46934"><ele>1329.15</ele></trkpt><trkpt lat="47.468369" lon="13.469336"><ele>1328.16</ele></trkpt><trkpt lat="47.468639" lon="13.46924"><ele>1328.0</ele></trkpt><trkpt lat="47.468915" lon="13.469214"><ele>1328.72</ele></trkpt><trkpt lat="47.468977" lon="13.469284"><ele>1328.73</ele></trkpt><trkpt lat="47.469063" lon="13.469504"><ele>1328.8</ele></trkpt><trkpt lat="47.469117" lon="13.469589"><ele>1330.24</ele></trkpt><trkpt lat="47.469217" lon="13.469589"><ele>1330.3</ele><time>2021-08-03T05:31:59Z</time></trkpt></trkseg><trkseg><trkpt lat="47.469217" lon="13.469589"><ele>1330.3</ele><time>2021-08-03T05:27:09Z</time></trkpt><trkpt lat="47.46938" lon="13.469559"><ele>1330.48</ele></trkpt><trkpt lat="47.469527" lon="13.46959"><ele>1330.68</ele></trkpt><trkpt lat="47.469583" lon="13.469581"><ele>1330.76</ele></trkpt><trkpt lat="47.469639" lon="13.469546"><ele>1331.6</ele></trkpt><trkpt lat="47.469685" lon="13.469494"><ele>1330.86</ele></trkpt><trkpt lat="47.469879" lon="13.469089"><ele>1328.8</ele></trkpt><trkpt lat="47.469949" lon="13.468981"><ele>1325.53</ele></trkpt><trkpt lat="47.470088" lon="13.468833"><ele>1314.33</ele></trkpt><trkpt lat="47.470229" lon="13.468735"><ele>1314.05</ele></trkpt><trkpt lat="47.470607" lon="13.468574"><ele>1314.49</ele></trkpt><trkpt lat="47.471103" lon="13.468321"><ele>1313.16</ele></trkpt><trkpt lat="47.471298" lon="13.46831"><ele>1311.63</ele></trkpt><trkpt lat="47.471524" lon="13.46841"><ele>1309.65</ele></trkpt><trkpt lat="47.471556" lon="13.468406"><ele>1309.52</ele></trkpt><trkpt lat="47.471584" lon="13.468328"><ele>1297.4</ele></trkpt><trkpt lat="47.471573" lon="13.468273"><ele>1297.19</ele></trkpt><trkpt lat="47.471265" lon="13.467969"><ele>1297.41</ele></trkpt><trkpt lat="47.471239" lon="13.46792"><ele>1297.44</ele></trkpt><trkpt lat="47.471236" lon="13.467763"><ele>1297.12</ele></trkpt><trkpt lat="47.471258" lon="13.467701"><ele>1297.17</ele></trkpt><trkpt lat="47.47193" lon="13.466553"><ele>1293.65</ele></trkpt><trkpt lat="47.472013" lon="13.466437"><ele>1290.47</ele><time>2021-08-03T05:29:41Z</time></trkpt></trkseg><trkseg><trkpt lat="47.472013" lon="13.466437"><ele>1290.47</ele><time>2021-08-03T05:27:09Z</time></trkpt><trkpt lat="47.472226" lon="13.466142"><ele>1287.29</ele></trkpt><trkpt lat="47.472464" lon="13.465744"><ele>1285.66</ele></trkpt><trkpt lat="47.473027" lon="13.465004"><ele>1276.42</ele></trkpt><trkpt lat="47.473315" lon="13.464478"><ele>1270.68</ele></trkpt><trkpt lat="47.473555" lon="13.464083"><ele>1261.35</ele></trkpt><trkpt lat="47.474764" lon="13.462249"><ele>1227.38</ele></trkpt><trkpt lat="47.474887" lon="13.461991"><ele>1227.03</ele></trkpt><trkpt lat="47.474917" lon="13.461881"><ele>1226.88</ele></trkpt><trkpt lat="47.474954" lon="13.461629"><ele>1222.6</ele></trkpt><trkpt lat="47.474984" lon="13.461521"><ele>1214.2</ele></trkpt><trkpt lat="47.475005" lon="13.461496"><ele>1199.12</ele></trkpt><trkpt lat="47.475064" lon="13.461532"><ele>1197.0</ele></trkpt><trkpt lat="47.47509" lon="13.4616"><ele>1196.7</ele></trkpt><trkpt lat="47.475092" lon="13.461702"><ele>1196.86</ele></trkpt><trkpt lat="47.475049" lon="13.461957"><ele>1196.65</ele></trkpt><trkpt lat="47.474826" lon="13.462676"><ele>1201.79</ele></trkpt><trkpt lat="47.474715" lon="13.463086"><ele>1203.78</ele></trkpt><trkpt lat="47.47465" lon="13.463447"><ele>1207.41</ele></trkpt><trkpt lat="47.474614" lon="13.463949"><ele>1210.74</ele></trkpt><trkpt lat="47.474562" lon="13.464306"><ele>1207.84</ele></trkpt><trkpt lat="47.47433" lon="13.465297"><ele>1203.94</ele></trkpt><trkpt lat="47.474102" lon="13.465855"><ele>1204.29</ele></trkpt><trkpt lat="47.474102" lon="13.465932"><ele>1205.04</ele></trkpt><trkpt lat="47.474134" lon="13.466041"><ele>1206.3</ele></trkpt><trkpt lat="47.474172" lon="13.466082"><ele>1206.4</ele></trkpt><trkpt lat="47.474219" lon="13.466098"><ele>1206.5</ele></trkpt><trkpt lat="47.474636" lon="13.465976"><ele>1205.17</ele></trkpt><trkpt lat="47.474943" lon="13.465997"><ele>1203.72</ele></trkpt><trkpt lat="47.4756" lon="13.465705"><ele>1190.77</ele></trkpt><trkpt lat="47.475711" lon="13.465676"><ele>1180.56</ele><time>2021-08-03T05:32:33Z</time></trkpt></trkseg><trkseg><trkpt lat="47.475711" lon="13.465676"><ele>1180.56</ele><time>2021-08-03T05:27:09Z</time></trkpt><trkpt lat="47.476089" lon="13.465579"><ele>1170.36</ele></trkpt><trkpt lat="47.476865" lon="13.465162"><ele>1160.7</ele></trkpt><trkpt lat="47.47695" lon="13.465137"><ele>1159.61</ele></trkpt><trkpt lat="47.477102" lon="13.465184"><ele>1158.67</ele></trkpt><trkpt lat="47.477154" lon="13.465259"><ele>1157.33</ele></trkpt><trkpt lat="47.477189" lon="13.465372"><ele>1156.87</ele></trkpt><trkpt lat="47.477249" lon="13.465824"><ele>1156.07</ele></trkpt><trkpt lat="47.477274" lon="13.466194"><ele>1155.41</ele></trkpt><trkpt lat="47.477238" lon="13.466362"><ele>1155.33</ele></trkpt><trkpt lat="47.477092" lon="13.466728"><ele>1155.21</ele></trkpt><trkpt lat="47.477064" lon="13.466834"><ele>1154.83</ele></trkpt><trkpt lat="47.477057" lon="13.46692"><ele>1154.64</ele></trkpt><trkpt lat="47.477116" lon="13.467204"><ele>1150.9</ele></trkpt><trkpt lat="47.477106" lon="13.467317"><ele>1150.74</ele></trkpt><trkpt lat="47.477046" lon="13.467699"><ele>1150.55</ele></trkpt><trkpt lat="47.476841" lon="13.468705"><ele>1149.21</ele></trkpt><trkpt lat="47.476831" lon="13.468792"><ele>1149.42</ele></trkpt><trkpt lat="47.476845" lon="13.468867"><ele>1149.04</ele></trkpt><trkpt lat="47.476875" lon="13.468927"><ele>1149.1</ele></trkpt><trkpt lat="47.476923" lon="13.468963"><ele>1148.84</ele></trkpt><trkpt lat="47.476974" lon="13.468967"><ele>1149.07</ele></trkpt><trkpt lat="47.477119" lon="13.468888"><ele>1148.63</ele></trkpt><trkpt lat="47.477471" lon="13.468594"><ele>1148.03</ele></trkpt><trkpt lat="47.477597" lon="13.468517"><ele>1146.67</ele></trkpt><trkpt lat="47.477757" lon="13.468574"><ele>1144.47</ele></trkpt><trkpt lat="47.477936" lon="13.46872"><ele>1142.43</ele><time>2021-08-03T05:30:06Z</time></trkpt></trkseg><trkseg><trkpt lat="47.477936" lon="13.46872"><ele>1142.43</ele><time>2021-08-03T05:27:09Z</time></trkpt><trkpt lat="47.478062" lon="13.468822"><ele>1140.39</ele></trkpt><trkpt lat="47.478131" lon="13.468908"><ele>1139.08</ele></trkpt><trkpt lat="47.4783" lon="13.469384"><ele>1132.95</ele></trkpt><trkpt lat="47.478381" lon="13.469757"><ele>1129.82</ele></trkpt><trkpt lat="47.478437" lon="13.469866"><ele>1128.58</ele></trkpt><trkpt lat="47.478684" lon="13.470212"><ele>1128.97</ele></trkpt><trkpt lat="47.479144" lon="13.471126"><ele>1132.38</ele></trkpt><trkpt lat="47.479313" lon="13.471297"><ele>1134.0</ele></trkpt><trkpt lat="47.479384" lon="13.471402"><ele>1134.52</ele></trkpt><trkpt lat="47.479421" lon="13.471538"><ele>1134.17</ele></trkpt><trkpt lat="47.47943" lon="13.471696"><ele>1133.99</ele></trkpt><trkpt lat="47.479418" lon="13.472008"><ele>1133.66</ele></trkpt><trkpt lat="47.47943" lon="13.472115"><ele>1133.51</ele></trkpt><trkpt lat="47.479461" lon="13.472204"><ele>1133.32</ele></trkpt><trkpt lat="47.479512" lon="13.472243"><ele>1131.4</ele></trkpt><trkpt lat="47.479586" lon="13.472239"><ele>1117.31</ele></trkpt><trkpt lat="47.479677" lon="13.472194"><ele>1117.59</ele></trkpt><trkpt lat="47.479815" lon="13.472053"><ele>1118.63</ele></trkpt><trkpt lat="47.479886" lon="13.471953"><ele>1119.12</ele></trkpt><trkpt lat="47.479994" lon="13.471683"><ele>1120.05</ele></trkpt><trkpt lat="47.48004" lon="13.471611"><ele>1119.41</ele></trkpt><trkpt lat="47.480088" lon="13.471572"><ele>1118.81</ele></trkpt><trkpt lat="47.48015" lon="13.471602"><ele>1118.22</ele></trkpt><trkpt lat="47.480238" lon="13.471861"><ele>1116.86</ele></trkpt><trkpt lat="47.480278" lon="13.471935"><ele>1116.05</ele></trkpt><trkpt lat="47.480408" lon="13.472034"><ele>1114.95</ele></trkpt><trkpt lat="47.48048" lon="13.472064"><ele>1114.29</ele></trkpt><trkpt lat="47.480545" lon="13.472125"><ele>1114.0</ele></trkpt><trkpt lat="47.480594" lon="13.472254"><ele>1113.4</ele></trkpt><trkpt lat="47.480609" lon="13.472377"><ele>1112.35</ele></trkpt><trkpt lat="47.4806" lon="13.472676"><ele>1112.1</ele></trkpt><trkpt lat="47.480788" lon="13.473155"><ele>1110.49</ele></trkpt><trkpt lat="47.480873" lon="13.473627"><ele>1105.36</ele></trkpt><trkpt lat="47.480982" lon="13.473913"><ele>1104.36</ele></trkpt><trkpt lat="47.48112" lon="13.474124"><ele>1103.09</ele></trkpt><trkpt lat="47.481181" lon="13.474153"><ele>1097.0</ele></trkpt><trkpt lat="47.481242" lon="13.474156"><ele>1095.59</ele></trkpt><trkpt lat="47.481338" lon="13.47406"><ele>1095.37</ele><time>2021-08-03T05:30:37Z</time></trkpt></trkseg><trkseg><trkpt lat="47.481338" lon="13.47406"><ele>1095.37</ele><time>2021-08-03T05:27:09Z</time></trkpt><trkpt lat="47.481643" lon="13.473669"><ele>1095.05</ele></trkpt><trkpt lat="47.481815" lon="13.473398"><ele>1096.69</ele></trkpt><trkpt lat="47.481869" lon="13.473265"><ele>1095.6</ele></trkpt><trkpt lat="47.48189" lon="13.473068"><ele>1095.64</ele></trkpt><trkpt lat="47.481851" lon="13.472527"><ele>1093.3</ele></trkpt><trkpt lat="47.481858" lon="13.472124"><ele>1089.23</ele></trkpt><trkpt lat="47.481836" lon="13.471703"><ele>1087.86</ele></trkpt><trkpt lat="47.481849" lon="13.471336"><ele>1079.75</ele></trkpt><trkpt lat="47.481883" lon="13.470973"><ele>1074.75</ele></trkpt><trkpt lat="47.481939" lon="13.470733"><ele>1072.05</ele></trkpt><trkpt lat="47.482147" lon="13.470185"><ele>1068.62</ele></trkpt><trkpt lat="47.48227" lon="13.469786"><ele>1063.6</ele></trkpt><trkpt lat="47.482311" lon="13.469588"><ele>1062.6</ele></trkpt><trkpt lat="47.482317" lon="13.469497"><ele>1058.6</ele><time>2021-08-03T05:29:04Z</time></trkpt></trkseg><trkseg><trkpt lat="47.482317" lon="13.469497"><ele>1058.6</ele><time>2021-08-03T05:27:09Z</time></trkpt><trkpt lat="47.482313" lon="13.469071"><ele>1043.51</ele></trkpt><trkpt lat="47.482288" lon="13.468862"><ele>1043.26</ele></trkpt><trkpt lat="47.482206" lon="13.468646"><ele>1042.41</ele></trkpt><trkpt lat="47.481972" lon="13.468247"><ele>1041.93</ele></trkpt><trkpt lat="47.481891" lon="13.467993"><ele>1041.23</ele></trkpt><trkpt lat="47.481838" lon="13.467681"><ele>1040.59</ele></trkpt><trkpt lat="47.481785" lon="13.467228"><ele>1037.99</ele></trkpt><trkpt lat="47.481799" lon="13.46645"><ele>1033.73</ele></trkpt><trkpt lat="47.481848" lon="13.465812"><ele>1031.33</ele></trkpt><trkpt lat="47.481858" lon="13.465423"><ele>1029.77</ele></trkpt><trkpt lat="47.481919" lon="13.464475"><ele>1026.67</ele></trkpt><trkpt lat="47.481981" lon="13.464172"><ele>1025.98</ele></trkpt><trkpt lat="47.482095" lon="13.463787"><ele>1025.02</ele></trkpt><trkpt lat="47.482163" lon="13.463113"><ele>1024.69</ele></trkpt><trkpt lat="47.48231" lon="13.462551"><ele>1024.22</ele></trkpt><trkpt lat="47.482441" lon="13.462175"><ele>1023.72</ele></trkpt><trkpt lat="47.482603" lon="13.461954"><ele>1024.49</ele></trkpt><trkpt lat="47.482673" lon="13.461805"><ele>1025.05</ele></trkpt><trkpt lat="47.482707" lon="13.461672"><ele>1025.1</ele></trkpt><trkpt lat="47.482722" lon="13.461218"><ele>1024.53</ele></trkpt><trkpt lat="47.482755" lon="13.460869"><ele>1023.87</ele></trkpt><trkpt lat="47.482856" lon="13.460391"><ele>1021.3</ele></trkpt><trkpt lat="47.482877" lon="13.460105"><ele>1018.25</ele></trkpt><trkpt lat="47.482852" lon="13.459008"><ele>1011.43</ele></trkpt><trkpt lat="47.48282" lon="13.458499"><ele>1009.34</ele></trkpt><trkpt lat="47.482858" lon="13.458313"><ele>1003.0</ele></trkpt><trkpt lat="47.482951" lon="13.458129"><ele>995.29</ele></trkpt><trkpt lat="47.482962" lon="13.458002"><ele>996.06</ele></trkpt><trkpt lat="47.482942" lon="13.457498"><ele>995.22</ele></trkpt><trkpt lat="47.482877" lon="13.456833"><ele>992.58</ele></trkpt><trkpt lat="47.482858" lon="13.456473"><ele>989.72</ele></trkpt><trkpt lat="47.482863" lon="13.455846"><ele>982.39</ele></trkpt><trkpt lat="47.482877" lon="13.455461"><ele>979.78</ele></trkpt><trkpt lat="47.483043" lon="13.45458"><ele>973.98</ele></trkpt><trkpt lat="47.483065" lon="13.454055"><ele>971.9</ele><time>2021-08-03T05:33:15Z</time></trkpt></trkseg><trkseg><trkpt lat="47.483065" lon="13.454055"><ele>971.9</ele><time>2021-08-03T05:27:09Z</time></trkpt><trkpt lat="47.483108" lon="13.453798"><ele>967.22</ele></trkpt><trkpt lat="47.483208" lon="13.453492"><ele>962.8</ele></trkpt><trkpt lat="47.483357" lon="13.453115"><ele>957.96</ele></trkpt><trkpt lat="47.483505" lon="13.452824"><ele>957.94</ele></trkpt><trkpt lat="47.483919" lon="13.452254"><ele>957.51</ele></trkpt><trkpt lat="47.484037" lon="13.452041"><ele>957.14</ele></trkpt><trkpt lat="47.484264" lon="13.451547"><ele>950.4</ele></trkpt><trkpt lat="47.484572" lon="13.451022"><ele>950.72</ele></trkpt><trkpt lat="47.484882" lon="13.45063"><ele>951.56</ele></trkpt><trkpt lat="47.485134" lon="13.45016"><ele>950.93</ele></trkpt><trkpt lat="47.485415" lon="13.449711"><ele>949.78</ele></trkpt><trkpt lat="47.485719" lon="13.449333"><ele>949.08</ele><time>2021-08-03T05:29:06Z</time></trkpt></trkseg><trkseg><trkpt lat="47.485719" lon="13.449333"><ele>949.08</ele><time>2021-08-03T05:27:09Z</time></trkpt><trkpt lat="47.485837" lon="13.449197"><ele>948.66</ele></trkpt><trkpt lat="47.486024" lon="13.449057"><ele>947.17</ele></trkpt><trkpt lat="47.486107" lon="13.448969"><ele>946.99</ele></trkpt><trkpt lat="47.486342" lon="13.448631"><ele>944.72</ele></trkpt><trkpt lat="47.487251" lon="13.447687"><ele>940.52</ele></trkpt><trkpt lat="47.487539" lon="13.447313"><ele>939.14</ele></trkpt><trkpt lat="47.488336" lon="13.446665"><ele>937.13</ele></trkpt><trkpt lat="47.488476" lon="13.446491"><ele>935.89</ele></trkpt><trkpt lat="47.488807" lon="13.445978"><ele>934.29</ele><time>2021-08-03T05:28:35Z</time></trkpt></trkseg><trkseg><trkpt lat="47.488807" lon="13.445978"><ele>934.29</ele><time>2021-08-03T05:27:09Z</time></trkpt><trkpt lat="47.489182" lon="13.445478"><ele>931.21</ele></trkpt><trkpt lat="47.489553" lon="13.444898"><ele>927.66</ele></trkpt><trkpt lat="47.490106" lon="13.443931"><ele>924.65</ele></trkpt><trkpt lat="47.49017" lon="13.443776"><ele>924.67</ele></trkpt><trkpt lat="47.490235" lon="13.443512"><ele>924.33</ele></trkpt><trkpt lat="47.49035" lon="13.442715"><ele>923.27</ele></trkpt><trkpt lat="47.490388" lon="13.442546"><ele>921.2</ele><time>2021-08-03T05:28:13Z</time></trkpt><trkpt lat="47.490395" lon="13.44255"><ele>926.46</ele><time>2021-08-03T05:28:15Z</time></trkpt></trkseg><trkseg><trkpt lat="47.490395" lon="13.44255"><ele>926.46</ele><time>2021-08-03T05:27:09Z</time></trkpt><trkpt lat="47.490614" lon="13.44284"><ele>934.64</ele></trkpt><trkpt lat="47.490761" lon="13.442992"><ele>937.47</ele></trkpt><trkpt lat="47.491271" lon="13.44334"><ele>941.3</ele></trkpt><trkpt lat="47.491389" lon="13.443441"><ele>941.21</ele></trkpt><trkpt lat="47.491452" lon="13.443536"><ele>941.16</ele></trkpt><trkpt lat="47.491528" lon="13.44383"><ele>942.94</ele></trkpt><trkpt lat="47.491644" lon="13.44461"><ele>944.15</ele></trkpt><trkpt lat="47.49172" lon="13.444671"><ele>970.56</ele></trkpt><trkpt lat="47.491766" lon="13.444653"><ele>969.76</ele></trkpt><trkpt lat="47.491857" lon="13.444545"><ele>968.75</ele></trkpt><trkpt lat="47.491963" lon="13.44435"><ele>967.72</ele></trkpt><trkpt lat="47.492043" lon="13.443951"><ele>967.25</ele></trkpt><trkpt lat="47.492316" lon="13.443364"><ele>968.37</ele></trkpt><trkpt lat="47.492388" lon="13.443072"><ele>968.61</ele></trkpt><trkpt lat="47.492394" lon="13.442796"><ele>969.55</ele></trkpt><trkpt lat="47.492437" lon="13.442673"><ele>969.95</ele></trkpt><trkpt lat="47.492719" lon="13.442237"><ele>984.51</ele></trkpt><trkpt lat="47.492775" lon="13.442168"><ele>985.38</ele></trkpt><trkpt lat="47.492853" lon="13.442114"><ele>985.8</ele></trkpt><trkpt lat="47.493012" lon="13.442093"><ele>987.96</ele></trkpt><trkpt lat="47.493136" lon="13.442111"><ele>988.96</ele></trkpt><trkpt lat="47.493943" lon="13.442366"><ele>1005.6</ele></trkpt><trkpt lat="47.493997" lon="13.442388"><ele>1007.43</ele></trkpt><trkpt lat="47.494023" lon="13.442425"><ele>1008.48</ele></trkpt><trkpt lat="47.494043" lon="13.442488"><ele>1008.99</ele></trkpt><trkpt lat="47.494026" lon="13.442597"><ele>1009.74</ele></trkpt><trkpt lat="47.493951" lon="13.442667"><ele>1009.7</ele></trkpt><trkpt lat="47.493743" lon="13.442764"><ele>1005.12</ele></trkpt><trkpt lat="47.493634" lon="13.442846"><ele>1001.92</ele></trkpt><trkpt lat="47.493538" lon="13.442997"><ele>1000.22</ele></trkpt><trkpt lat="47.493515" lon="13.443115"><ele>999.87</ele></trkpt><trkpt lat="47.493523" lon="13.443376"><ele>999.91</ele></trkpt><trkpt lat="47.493572" lon="13.443499"><ele>999.64</ele></trkpt><trkpt lat="47.493639" lon="13.443566"><ele>1004.44</ele></trkpt><trkpt lat="47.4937" lon="13.443592"><ele>1006.02</ele></trkpt><trkpt lat="47.493843" lon="13.443584"><ele>1012.34</ele><time>2021-08-03T05:31:07Z</time></trkpt></trkseg><trkseg><trkpt lat="47.493843" lon="13.443584"><ele>1012.34</ele><time>2021-08-03T05:27:09Z</time></trkpt><trkpt lat="47.4945" lon="13.443451"><ele>1016.79</ele></trkpt><trkpt lat="47.494572" lon="13.443409"><ele>1016.46</ele></trkpt><trkpt lat="47.494616" lon="13.443354"><ele>1016.13</ele></trkpt><trkpt lat="47.494776" lon="13.4429"><ele>1016.36</ele></trkpt><trkpt lat="47.494855" lon="13.442782"><ele>1023.23</ele></trkpt><trkpt lat="47.49499" lon="13.442629"><ele>1025.85</ele></trkpt><trkpt lat="47.495068" lon="13.442598"><ele>1026.14</ele></trkpt><trkpt lat="47.495134" lon="13.442599"><ele>1026.04</ele></trkpt><trkpt lat="47.495186" lon="13.442642"><ele>1025.81</ele></trkpt><trkpt lat="47.495317" lon="13.442884"><ele>1025.07</ele></trkpt><trkpt lat="47.495374" lon="13.442934"><ele>1024.97</ele></trkpt><trkpt lat="47.495433" lon="13.442934"><ele>1025.04</ele></trkpt><trkpt lat="47.495487" lon="13.442884"><ele>1024.78</ele></trkpt><trkpt lat="47.49554" lon="13.442793"><ele>1024.51</ele></trkpt><trkpt lat="47.49565" lon="13.442551"><ele>1024.2</ele></trkpt><trkpt lat="47.495831" lon="13.442378"><ele>1025.25</ele></trkpt><trkpt lat="47.495923" lon="13.442324"><ele>1026.76</ele></trkpt><trkpt lat="47.496048" lon="13.442309"><ele>1027.51</ele></trkpt><trkpt lat="47.496296" lon="13.442321"><ele>1029.17</ele></trkpt><trkpt lat="47.496613" lon="13.442262"><ele>1031.91</ele></trkpt><trkpt lat="47.496991" lon="13.442236"><ele>1035.66</ele></trkpt><trkpt lat="47.497231" lon="13.442191"><ele>1036.73</ele></trkpt><trkpt lat="47.497485" lon="13.442086"><ele>1038.35</ele></trkpt><trkpt lat="47.497744" lon="13.441947"><ele>1040.66</ele></trkpt><trkpt lat="47.49805" lon="13.441916"><ele>1042.29</ele></trkpt><trkpt lat="47.4986" lon="13.441757"><ele>1042.73</ele></trkpt><trkpt lat="47.499343" lon="13.441617"><ele>1042.55</ele></trkpt><trkpt lat="47.499863" lon="13.441485"><ele>1039.8</ele><time>2021-08-03T05:30:51Z</time></trkpt></trkseg><trkseg><trkpt lat="47.499863" lon="13.441485"><ele>1039.8</ele><time>2021-08-03T05:27:09Z</time></trkpt><trkpt lat="47.49985" lon="13.441493"><ele>1039.8</ele><time>2021-08-03T05:27:09Z</time></trkpt><trkpt lat="47.49986" lon="13.441578"><ele>1040.48</ele></trkpt><trkpt lat="47.499903" lon="13.441709"><ele>1040.6</ele></trkpt><trkpt lat="47.500057" lon="13.441913"><ele>1039.65</ele></trkpt><trkpt lat="47.500103" lon="13.44204"><ele>1038.46</ele></trkpt><trkpt lat="47.500119" lon="13.442168"><ele>1038.1</ele></trkpt><trkpt lat="47.500108" lon="13.442291"><ele>1037.99</ele></trkpt><trkpt lat="47.500064" lon="13.442431"><ele>1038.21</ele></trkpt><trkpt lat="47.499855" lon="13.442826"><ele>1041.39</ele></trkpt><trkpt lat="47.499756" lon="13.44307"><ele>1042.71</ele></trkpt><trkpt lat="47.499702" lon="13.443246"><ele>1043.85</ele></trkpt><trkpt lat="47.499659" lon="13.443578"><ele>1047.07</ele></trkpt><trkpt lat="47.499661" lon="13.443805"><ele>1049.54</ele></trkpt><trkpt lat="47.49969" lon="13.443984"><ele>1053.62</ele></trkpt><trkpt lat="47.499793" lon="13.444362"><ele>1065.38</ele></trkpt><trkpt lat="47.49981" lon="13.444565"><ele>1067.93</ele></trkpt><trkpt lat="47.499814" lon="13.444754"><ele>1068.48</ele></trkpt><trkpt lat="47.499766" lon="13.445276"><ele>1071.44</ele></trkpt><trkpt lat="47.499759" lon="13.44554"><ele>1071.97</ele></trkpt><trkpt lat="47.499785" lon="13.446032"><ele>1073.72</ele></trkpt><trkpt lat="47.499782" lon="13.446097"><ele>1074.01</ele></trkpt><trkpt lat="47.499756" lon="13.44615"><ele>1074.29</ele></trkpt><trkpt lat="47.499716" lon="13.446184"><ele>1075.48</ele></trkpt><trkpt lat="47.499675" lon="13.446175"><ele>1075.7</ele></trkpt><trkpt lat="47.49964" lon="13.446104"><ele>1075.55</ele></trkpt><trkpt lat="47.499483" lon="13.445609"><ele>1074.89</ele></trkpt><trkpt lat="47.499382" lon="13.445385"><ele>1074.89</ele></trkpt><trkpt lat="47.499313" lon="13.445273"><ele>1074.27</ele></trkpt><trkpt lat="47.499227" lon="13.445176"><ele>1075.04</ele></trkpt><trkpt lat="47.4991" lon="13.44512"><ele>1076.42</ele></trkpt><trkpt lat="47.49899" lon="13.44512"><ele>1078.3</ele></trkpt><trkpt lat="47.498779" lon="13.445147"><ele>1080.85</ele></trkpt><trkpt lat="47.498333" lon="13.445281"><ele>1094.01</ele></trkpt><trkpt lat="47.497811" lon="13.445561"><ele>1104.7</ele></trkpt><trkpt lat="47.497623" lon="13.445576"><ele>1106.08</ele></trkpt><trkpt lat="47.497395" lon="13.4455"><ele>1106.78</ele></trkpt><trkpt lat="47.497179" lon="13.445391"><ele>1107.44</ele></trkpt><trkpt lat="47.496985" lon="13.445392"><ele>1107.6</ele></trkpt><trkpt lat="47.496815" lon="13.445515"><ele>1107.79</ele></trkpt><trkpt lat="47.496639" lon="13.445746"><ele>1107.54</ele></trkpt><trkpt lat="47.496455" lon="13.44611"><ele>1108.39</ele></trkpt><trkpt lat="47.496377" lon="13.446312"><ele>1108.87</ele></trkpt><trkpt lat="47.496336" lon="13.446487"><ele>1109.54</ele></trkpt><trkpt lat="47.49624" lon="13.447259"><ele>1114.26</ele></trkpt><trkpt lat="47.496114" lon="13.447987"><ele>1120.22</ele></trkpt><trkpt lat="47.4961" lon="13.448163"><ele>1121.13</ele></trkpt><trkpt lat="47.496082" lon="13.448544"><ele>1124.76</ele></trkpt><trkpt lat="47.496144" lon="13.449435"><ele>1129.04</ele></trkpt><trkpt lat="47.496132" lon="13.449617"><ele>1130.21</ele></trkpt><trkpt lat="47.496059" lon="13.449941"><ele>1131.23</ele></trkpt><trkpt lat="47.495981" lon="13.450405"><ele>1133.36</ele></trkpt><trkpt lat="47.495968" lon="13.450549"><ele>1133.85</ele></trkpt><trkpt lat="47.495999" lon="13.45091"><ele>1134.02</ele></trkpt><trkpt lat="47.496251" lon="13.452567"><ele>1130.06</ele></trkpt><trkpt lat="47.496335" lon="13.452827"><ele>1128.85</ele></trkpt><trkpt lat="47.496669" lon="13.453479"><ele>1127.87</ele></trkpt><trkpt lat="47.496772" lon="13.453716"><ele>1127.65</ele></trkpt><trkpt lat="47.496821" lon="13.453894"><ele>1127.9</ele></trkpt><trkpt lat="47.496824" lon="13.454128"><ele>1127.85</ele></trkpt><trkpt lat="47.496841" lon="13.454224"><ele>1127.59</ele></trkpt><trkpt lat="47.49694" lon="13.454435"><ele>1126.83</ele></trkpt><trkpt lat="47.497023" lon="13.454563"><ele>1126.98</ele></trkpt><trkpt lat="47.497139" lon="13.454688"><ele>1126.92</ele></trkpt><trkpt lat="47.497629" lon="13.455023"><ele>1126.24</ele></trkpt><trkpt lat="47.497698" lon="13.45511"><ele>1125.99</ele></trkpt><trkpt lat="47.497758" lon="13.455221"><ele>1125.18</ele></trkpt><trkpt lat="47.497791" lon="13.455329"><ele>1124.61</ele></trkpt><trkpt lat="47.497809" lon="13.455461"><ele>1123.61</ele></trkpt><trkpt lat="47.497791" lon="13.455606"><ele>1122.96</ele></trkpt><trkpt lat="47.497678" lon="13.456026"><ele>1122.4</ele><time>2021-08-03T05:32:42Z</time></trkpt><trkpt lat="47.497796" lon="13.456199"><ele>1124.33</ele></trkpt><trkpt lat="47.49791" lon="13.456532"><ele>1124.86</ele></trkpt><trkpt lat="47.497899" lon="13.456833"><ele>1124.95</ele></trkpt><trkpt lat="47.497873" lon="13.457"><ele>1124.83</ele></trkpt><trkpt lat="47.497819" lon="13.457174"><ele>1124.7</ele></trkpt><trkpt lat="47.497727" lon="13.457375"><ele>1124.56</ele></trkpt><trkpt lat="47.497436" lon="13.457895"><ele>1142.92</ele></trkpt><trkpt lat="47.497311" lon="13.458242"><ele>1141.63</ele></trkpt><trkpt lat="47.497234" lon="13.458407"><ele>1141.19</ele></trkpt><trkpt lat="47.497077" lon="13.458668"><ele>1140.84</ele></trkpt><trkpt lat="47.496827" lon="13.459293"><ele>1140.25</ele></trkpt><trkpt lat="47.496781" lon="13.459455"><ele>1141.15</ele></trkpt><trkpt lat="47.496773" lon="13.459605"><ele>1141.15</ele></trkpt><trkpt lat="47.496836" lon="13.459948"><ele>1140.94</ele></trkpt><trkpt lat="47.496836" lon="13.460023"><ele>1140.92</ele></trkpt><trkpt lat="47.496817" lon="13.460076"><ele>1140.93</ele></trkpt><trkpt lat="47.49673" lon="13.460104"><ele>1157.3</ele></trkpt><trkpt lat="47.496697" lon="13.460058"><ele>1158.48</ele></trkpt><trkpt lat="47.496681" lon="13.459981"><ele>1159.84</ele></trkpt><trkpt lat="47.496571" lon="13.459099"><ele>1160.17</ele></trkpt><trkpt lat="47.496563" lon="13.458577"><ele>1159.6</ele></trkpt><trkpt lat="47.496506" lon="13.458271"><ele>1159.16</ele></trkpt><trkpt lat="47.496408" lon="13.45806"><ele>1160.28</ele></trkpt><trkpt lat="47.496348" lon="13.457993"><ele>1160.24</ele></trkpt><trkpt lat="47.496268" lon="13.457951"><ele>1160.18</ele></trkpt><trkpt lat="47.49619" lon="13.457936"><ele>1161.2</ele></trkpt><trkpt lat="47.496121" lon="13.457949"><ele>1162.83</ele></trkpt><trkpt lat="47.495829" lon="13.458044"><ele>1163.33</ele></trkpt><trkpt lat="47.495265" lon="13.458185"><ele>1163.0</ele></trkpt><trkpt lat="47.494626" lon="13.458441"><ele>1178.64</ele></trkpt><trkpt lat="47.494017" lon="13.458709"><ele>1178.14</ele></trkpt><trkpt lat="47.493391" lon="13.459127"><ele>1179.03</ele></trkpt><trkpt lat="47.493379" lon="13.459164"><ele>1180.2</ele><time>2021-08-03T05:37:12Z</time></trkpt><trkpt lat="47.493388" lon="13.459218"><ele>1198.87</ele></trkpt><trkpt lat="47.49343" lon="13.459249"><ele>1198.8</ele></trkpt><trkpt lat="47.493593" lon="13.459182"><ele>1198.51</ele></trkpt><trkpt lat="47.493655" lon="13.459177"><ele>1198.43</ele></trkpt><trkpt lat="47.494114" lon="13.459271"><ele>1198.13</ele></trkpt><trkpt lat="47.494241" lon="13.459316"><ele>1198.02</ele></trkpt><trkpt lat="47.494574" lon="13.459524"><ele>1201.2</ele></trkpt><trkpt lat="47.494724" lon="13.459597"><ele>1197.27</ele></trkpt><trkpt lat="47.494798" lon="13.459629"><ele>1196.83</ele></trkpt><trkpt lat="47.49497" lon="13.459648"><ele>1195.2</ele></trkpt><trkpt lat="47.495023" lon="13.459713"><ele>1195.11</ele></trkpt><trkpt lat="47.495026" lon="13.459766"><ele>1189.4</ele></trkpt><trkpt lat="47.495006" lon="13.459823"><ele>1208.13</ele></trkpt><trkpt lat="47.494964" lon="13.459844"><ele>1209.23</ele></trkpt><trkpt lat="47.494785" lon="13.459843"><ele>1211.97</ele></trkpt><trkpt lat="47.494752" lon="13.45987"><ele>1213.08</ele></trkpt><trkpt lat="47.494638" lon="13.460118"><ele>1214.55</ele></trkpt><trkpt lat="47.494567" lon="13.460204"><ele>1214.36</ele></trkpt><trkpt lat="47.494418" lon="13.460312"><ele>1214.19</ele></trkpt><trkpt lat="47.493854" lon="13.460445"><ele>1234.29</ele></trkpt><trkpt lat="47.49337" lon="13.460522"><ele>1241.87</ele></trkpt><trkpt lat="47.493224" lon="13.46057"><ele>1243.88</ele></trkpt><trkpt lat="47.493002" lon="13.460704"><ele>1248.15</ele></trkpt><trkpt lat="47.492836" lon="13.460882"><ele>1251.13</ele></trkpt><trkpt lat="47.492765" lon="13.461027"><ele>1251.65</ele></trkpt><trkpt lat="47.492756" lon="13.461186"><ele>1252.21</ele></trkpt><trkpt lat="47.492771" lon="13.46127"><ele>1252.5</ele></trkpt><trkpt lat="47.492823" lon="13.461394"><ele>1253.11</ele></trkpt><trkpt lat="47.492953" lon="13.461571"><ele>1253.76</ele></trkpt><trkpt lat="47.493057" lon="13.461775"><ele>1253.89</ele></trkpt><trkpt lat="47.493095" lon="13.461805"><ele>1253.6</ele></trkpt><trkpt lat="47.493242" lon="13.461799"><ele>1252.69</ele></trkpt><trkpt lat="47.493368" lon="13.461832"><ele>1250.88</ele></trkpt><trkpt lat="47.493515" lon="13.461913"><ele>1250.21</ele></trkpt><trkpt lat="47.493626" lon="13.462012"><ele>1248.46</ele></trkpt><trkpt lat="47.493675" lon="13.462086"><ele>1262.0</ele><time>2021-08-03T05:40:35Z</time></trkpt><trkpt lat="47.493821" lon="13.46244"><ele>1270.34</ele></trkpt><trkpt lat="47.493925" lon="13.462972"><ele>1270.78</ele></trkpt><trkpt lat="47.493936" lon="13.463104"><ele>1270.86</ele></trkpt><trkpt lat="47.493914" lon="13.46342"><ele>1271.13</ele></trkpt><trkpt lat="47.493944" lon="13.463625"><ele>1270.84</ele></trkpt><trkpt lat="47.493938" lon="13.463667"><ele>1270.74</ele></trkpt><trkpt lat="47.493897" lon="13.463701"><ele>1270.52</ele></trkpt><trkpt lat="47.493851" lon="13.463669"><ele>1270.29</ele></trkpt><trkpt lat="47.49358" lon="13.463025"><ele>1269.88</ele></trkpt><trkpt lat="47.493501" lon="13.462905"><ele>1269.98</ele></trkpt><trkpt lat="47.4934" lon="13.462856"><ele>1284.98</ele></trkpt><trkpt lat="47.49323" lon="13.462894"><ele>1286.53</ele></trkpt><trkpt lat="47.493154" lon="13.462941"><ele>1287.25</ele></trkpt><trkpt lat="47.493091" lon="13.46303"><ele>1288.02</ele></trkpt><trkpt lat="47.493028" lon="13.463343"><ele>1289.29</ele></trkpt><trkpt lat="47.492963" lon="13.463572"><ele>1289.45</ele></trkpt><trkpt lat="47.492961" lon="13.463639"><ele>1289.5</ele></trkpt><trkpt lat="47.492999" lon="13.463882"><ele>1289.64</ele></trkpt><trkpt lat="47.492999" lon="13.464042"><ele>1289.75</ele></trkpt><trkpt lat="47.49296" lon="13.464197"><ele>1289.86</ele></trkpt><trkpt lat="47.492873" lon="13.464384"><ele>1289.08</ele></trkpt><trkpt lat="47.492876" lon="13.464447"><ele>1288.67</ele></trkpt><trkpt lat="47.492889" lon="13.464479"><ele>1300.6</ele></trkpt><trkpt lat="47.492913" lon="13.464489"><ele>1300.6</ele></trkpt><trkpt lat="47.492969" lon="13.464455"><ele>1300.6</ele></trkpt><trkpt lat="47.493027" lon="13.46434"><ele>1300.6</ele></trkpt><trkpt lat="47.493078" lon="13.464302"><ele>1300.6</ele></trkpt><trkpt lat="47.493131" lon="13.464299"><ele>1294.73</ele></trkpt><trkpt lat="47.493244" lon="13.464371"><ele>1294.46</ele></trkpt><trkpt lat="47.493382" lon="13.464572"><ele>1294.9</ele></trkpt><trkpt lat="47.493462" lon="13.464757"><ele>1295.74</ele></trkpt><trkpt lat="47.49358" lon="13.465119"><ele>1298.42</ele></trkpt><trkpt lat="47.493602" lon="13.465232"><ele>1298.61</ele></trkpt><trkpt lat="47.493603" lon="13.465464"><ele>1299.02</ele></trkpt><trkpt lat="47.493584" lon="13.465673"><ele>1299.46</ele></trkpt><trkpt lat="47.493613" lon="13.466073"><ele>1302.95</ele></trkpt><trkpt lat="47.493583" lon="13.466326"><ele>1304.48</ele></trkpt><trkpt lat="47.493521" lon="13.466554"><ele>1305.49</ele></trkpt><trkpt lat="47.49351" lon="13.466753"><ele>1307.28</ele></trkpt><trkpt lat="47.493708" lon="13.467828"><ele>1314.84</ele></trkpt><trkpt lat="47.493706" lon="13.467892"><ele>1314.83</ele></trkpt><trkpt lat="47.493666" lon="13.468036"><ele>1315.27</ele></trkpt><trkpt lat="47.493521" lon="13.468354"><ele>1316.68</ele></trkpt><trkpt lat="47.493402" lon="13.468691"><ele>1318.28</ele></trkpt><trkpt lat="47.493361" lon="13.468865"><ele>1319.05</ele></trkpt><trkpt lat="47.493342" lon="13.469206"><ele>1321.06</ele></trkpt><trkpt lat="47.493318" lon="13.469295"><ele>1322.02</ele></trkpt><trkpt lat="47.493293" lon="13.469309"><ele>1359.6</ele></trkpt><trkpt lat="47.493268" lon="13.469303"><ele>1354.43</ele></trkpt><trkpt lat="47.493245" lon="13.469266"><ele>1354.03</ele></trkpt><trkpt lat="47.49324" lon="13.469213"><ele>1353.6</ele></trkpt><trkpt lat="47.493246" lon="13.469057"><ele>1352.86</ele></trkpt><trkpt lat="47.493203" lon="13.468238"><ele>1351.88</ele></trkpt><trkpt lat="47.493201" lon="13.467878"><ele>1348.4</ele><time>2021-08-03T05:45:35Z</time></trkpt><trkpt lat="47.49317" lon="13.467792"><ele>1348.4</ele></trkpt><trkpt lat="47.493089" lon="13.467667"><ele>1360.69</ele></trkpt><trkpt lat="47.492993" lon="13.46758"><ele>1362.2</ele></trkpt><trkpt lat="47.492808" lon="13.467514"><ele>1364.76</ele></trkpt><trkpt lat="47.492597" lon="13.467492"><ele>1367.13</ele></trkpt><trkpt lat="47.492495" lon="13.467498"><ele>1368.1</ele></trkpt><trkpt lat="47.492323" lon="13.467559"><ele>1369.13</ele></trkpt><trkpt lat="47.492143" lon="13.467693"><ele>1369.4</ele></trkpt><trkpt lat="47.492064" lon="13.467812"><ele>1369.68</ele></trkpt><trkpt lat="47.491994" lon="13.468063"><ele>1370.15</ele></trkpt><trkpt lat="47.491979" lon="13.468288"><ele>1370.48</ele></trkpt><trkpt lat="47.491995" lon="13.468596"><ele>1370.03</ele></trkpt><trkpt lat="47.491988" lon="13.468706"><ele>1369.38</ele></trkpt><trkpt lat="47.491842" lon="13.468974"><ele>1370.5</ele></trkpt><trkpt lat="47.491854" lon="13.469061"><ele>1386.1</ele></trkpt><trkpt lat="47.491878" lon="13.46908"><ele>1386.23</ele></trkpt><trkpt lat="47.49193" lon="13.469066"><ele>1386.51</ele></trkpt><trkpt lat="47.492266" lon="13.468815"><ele>1387.44</ele></trkpt><trkpt lat="47.49235" lon="13.468821"><ele>1387.79</ele></trkpt><trkpt lat="47.492384" lon="13.468847"><ele>1387.96</ele></trkpt><trkpt lat="47.492438" lon="13.468946"><ele>1388.34</ele></trkpt><trkpt lat="47.49247" lon="13.469083"><ele>1388.73</ele></trkpt><trkpt lat="47.492469" lon="13.46921"><ele>1389.14</ele></trkpt><trkpt lat="47.492449" lon="13.469257"><ele>1389.08</ele></trkpt><trkpt lat="47.492392" lon="13.469301"><ele>1388.97</ele></trkpt><trkpt lat="47.492204" lon="13.469281"><ele>1388.73</ele></trkpt><trkpt lat="47.492169" lon="13.4693"><ele>1388.66</ele></trkpt><trkpt lat="47.492141" lon="13.469371"><ele>1388.53</ele></trkpt><trkpt lat="47.492159" lon="13.469428"><ele>1388.39</ele></trkpt><trkpt lat="47.492302" lon="13.469504"><ele>1388.16</ele></trkpt><trkpt lat="47.492393" lon="13.469608"><ele>1388.0</ele></trkpt><trkpt lat="47.492434" lon="13.46976"><ele>1394.47</ele></trkpt><trkpt lat="47.492449" lon="13.470058"><ele>1396.39</ele></trkpt><trkpt lat="47.492438" lon="13.470153"><ele>1401.0</ele></trkpt><trkpt lat="47.492325" lon="13.470486"><ele>1412.1</ele></trkpt><trkpt lat="47.492305" lon="13.470683"><ele>1414.58</ele></trkpt><trkpt lat="47.49235" lon="13.471656"><ele>1422.96</ele></trkpt><trkpt lat="47.492435" lon="13.47231"><ele>1431.15</ele></trkpt><trkpt lat="47.492428" lon="13.472531"><ele>1432.65</ele></trkpt><trkpt lat="47.492367" lon="13.47295"><ele>1434.23</ele></trkpt><trkpt lat="47.492379" lon="13.473198"><ele>1434.8</ele></trkpt><trkpt lat="47.492454" lon="13.473694"><ele>1435.7</ele></trkpt><trkpt lat="47.492428" lon="13.473747"><ele>1435.32</ele></trkpt><trkpt lat="47.492408" lon="13.473748"><ele>1435.13</ele></trkpt><trkpt lat="47.492361" lon="13.473694"><ele>1434.72</ele></trkpt><trkpt lat="47.492299" lon="13.473495"><ele>1433.68</ele></trkpt><trkpt lat="47.492058" lon="13.472981"><ele>1432.03</ele></trkpt><trkpt lat="47.491952" lon="13.472643"><ele>1432.8</ele></trkpt><trkpt lat="47.491936" lon="13.472556"><ele>1424.87</ele></trkpt><trkpt lat="47.491925" lon="13.472279"><ele>1424.5</ele></trkpt><trkpt lat="47.491901" lon="13.472192"><ele>1424.94</ele></trkpt><trkpt lat="47.491881" lon="13.47217"><ele>1422.6</ele><time>2021-08-03T05:50:07Z</time></trkpt><trkpt lat="47.491864" lon="13.472181"><ele>1427.31</ele></trkpt><trkpt lat="47.491837" lon="13.472273"><ele>1428.06</ele></trkpt><trkpt lat="47.491838" lon="13.472389"><ele>1428.93</ele></trkpt><trkpt lat="47.491704" lon="13.473049"><ele>1429.49</ele></trkpt><trkpt lat="47.491705" lon="13.473206"><ele>1428.96</ele></trkpt><trkpt lat="47.491777" lon="13.473487"><ele>1440.79</ele></trkpt><trkpt lat="47.491789" lon="13.473757"><ele>1440.58</ele></trkpt><trkpt lat="47.491867" lon="13.473939"><ele>1440.35</ele></trkpt><trkpt lat="47.491886" lon="13.47406"><ele>1440.22</ele></trkpt><trkpt lat="47.491887" lon="13.474342"><ele>1458.16</ele></trkpt><trkpt lat="47.491858" lon="13.474651"><ele>1458.24</ele></trkpt><trkpt lat="47.49188" lon="13.474767"><ele>1458.28</ele></trkpt><trkpt lat="47.491933" lon="13.474851"><ele>1458.32</ele></trkpt><trkpt lat="47.492011" lon="13.474911"><ele>1458.21</ele></trkpt><trkpt lat="47.492206" lon="13.475"><ele>1455.45</ele></trkpt><trkpt lat="47.492332" lon="13.475083"><ele>1454.43</ele></trkpt><trkpt lat="47.492576" lon="13.475331"><ele>1452.8</ele></trkpt><trkpt lat="47.492743" lon="13.475546"><ele>1452.76</ele></trkpt><trkpt lat="47.492967" lon="13.475749"><ele>1452.08</ele></trkpt><trkpt lat="47.493124" lon="13.475798"><ele>1450.84</ele></trkpt><trkpt lat="47.493341" lon="13.475745"><ele>1449.51</ele></trkpt><trkpt lat="47.493418" lon="13.475764"><ele>1450.91</ele></trkpt><trkpt lat="47.49343" lon="13.475795"><ele>1436.0</ele></trkpt><trkpt lat="47.493413" lon="13.475871"><ele>1460.89</ele></trkpt><trkpt lat="47.4933" lon="13.47597"><ele>1460.31</ele></trkpt><trkpt lat="47.493206" lon="13.476137"><ele>1461.5</ele></trkpt><trkpt lat="47.493091" lon="13.476571"><ele>1463.47</ele></trkpt><trkpt lat="47.492959" lon="13.476963"><ele>1464.91</ele></trkpt><trkpt lat="47.492929" lon="13.477202"><ele>1465.66</ele></trkpt><trkpt lat="47.49295" lon="13.47731"><ele>1468.76</ele></trkpt><trkpt lat="47.493081" lon="13.477462"><ele>1469.3</ele></trkpt><trkpt lat="47.493132" lon="13.477604"><ele>1468.92</ele></trkpt><trkpt lat="47.493173" lon="13.478245"><ele>1468.02</ele></trkpt><trkpt lat="47.493213" lon="13.478288"><ele>1467.78</ele></trkpt><trkpt lat="47.493257" lon="13.478265"><ele>1460.7</ele></trkpt><trkpt lat="47.493266" lon="13.477937"><ele>1462.18</ele></trkpt><trkpt lat="47.493355" lon="13.477566"><ele>1461.16</ele></trkpt><trkpt lat="47.493661" lon="13.477156"><ele>1453.16</ele><time>2021-08-03T05:54:05Z</time></trkpt></trkseg><trkseg><trkpt lat="47.493661" lon="13.477156"><ele>1453.16</ele><time>2021-08-03T05:27:09Z</time></trkpt><trkpt lat="47.493355" lon="13.477566"><ele>1461.16</ele></trkpt><trkpt lat="47.493266" lon="13.477937"><ele>1462.18</ele></trkpt><trkpt lat="47.493257" lon="13.478265"><ele>1460.7</ele></trkpt><trkpt lat="47.493213" lon="13.478288"><ele>1467.78</ele></trkpt><trkpt lat="47.493173" lon="13.478245"><ele>1468.02</ele></trkpt><trkpt lat="47.493132" lon="13.477604"><ele>1468.92</ele></trkpt><trkpt lat="47.493081" lon="13.477462"><ele>1469.3</ele></trkpt><trkpt lat="47.49295" lon="13.47731"><ele>1468.76</ele></trkpt><trkpt lat="47.492929" lon="13.477202"><ele>1465.66</ele></trkpt><trkpt lat="47.492959" lon="13.476963"><ele>1464.91</ele></trkpt><trkpt lat="47.493091" lon="13.476571"><ele>1463.47</ele></trkpt><trkpt lat="47.493206" lon="13.476137"><ele>1461.5</ele></trkpt><trkpt lat="47.4933" lon="13.47597"><ele>1460.31</ele></trkpt><trkpt lat="47.493413" lon="13.475871"><ele>1460.89</ele></trkpt><trkpt lat="47.49343" lon="13.475795"><ele>1436.0</ele></trkpt><trkpt lat="47.493418" lon="13.475764"><ele>1450.91</ele></trkpt><trkpt lat="47.493341" lon="13.475745"><ele>1449.51</ele></trkpt><trkpt lat="47.493124" lon="13.475798"><ele>1450.84</ele></trkpt><trkpt lat="47.492967" lon="13.475749"><ele>1452.08</ele></trkpt><trkpt lat="47.492743" lon="13.475546"><ele>1452.76</ele></trkpt><trkpt lat="47.492576" lon="13.475331"><ele>1452.8</ele></trkpt><trkpt lat="47.492332" lon="13.475083"><ele>1454.43</ele></trkpt><trkpt lat="47.492206" lon="13.475"><ele>1455.45</ele></trkpt><trkpt lat="47.492011" lon="13.474911"><ele>1458.21</ele></trkpt><trkpt lat="47.491933" lon="13.474851"><ele>1458.32</ele></trkpt><trkpt lat="47.49188" lon="13.474767"><ele>1458.28</ele></trkpt><trkpt lat="47.491858" lon="13.474651"><ele>1458.24</ele></trkpt><trkpt lat="47.491887" lon="13.474342"><ele>1458.16</ele></trkpt><trkpt lat="47.491886" lon="13.47406"><ele>1440.22</ele></trkpt><trkpt lat="47.491867" lon="13.473939"><ele>1440.35</ele></trkpt><trkpt lat="47.491789" lon="13.473757"><ele>1440.58</ele></trkpt><trkpt lat="47.491777" lon="13.473487"><ele>1440.79</ele></trkpt><trkpt lat="47.491705" lon="13.473206"><ele>1428.96</ele></trkpt><trkpt lat="47.491704" lon="13.473049"><ele>1429.49</ele></trkpt><trkpt lat="47.491838" lon="13.472389"><ele>1428.93</ele></trkpt><trkpt lat="47.491837" lon="13.472273"><ele>1428.06</ele></trkpt><trkpt lat="47.491864" lon="13.472181"><ele>1427.31</ele></trkpt><trkpt lat="47.491881" lon="13.47217"><ele>1422.6</ele><time>2021-08-03T05:31:06Z</time></trkpt><trkpt lat="47.491901" lon="13.472192"><ele>1424.94</ele></trkpt><trkpt lat="47.491925" lon="13.472279"><ele>1424.5</ele></trkpt><trkpt lat="47.491936" lon="13.472556"><ele>1424.87</ele></trkpt><trkpt lat="47.491952" lon="13.472643"><ele>1432.8</ele></trkpt><trkpt lat="47.492058" lon="13.472981"><ele>1432.03</ele></trkpt><trkpt lat="47.492299" lon="13.473495"><ele>1433.68</ele></trkpt><trkpt lat="47.492361" lon="13.473694"><ele>1434.72</ele></trkpt><trkpt lat="47.492408" lon="13.473748"><ele>1435.13</ele></trkpt><trkpt lat="47.492428" lon="13.473747"><ele>1435.32</ele></trkpt><trkpt lat="47.492454" lon="13.473694"><ele>1435.7</ele></trkpt><trkpt lat="47.492379" lon="13.473198"><ele>1434.8</ele></trkpt><trkpt lat="47.492367" lon="13.47295"><ele>1434.23</ele></trkpt><trkpt lat="47.492428" lon="13.472531"><ele>1432.65</ele></trkpt><trkpt lat="47.492435" lon="13.47231"><ele>1431.15</ele></trkpt><trkpt lat="47.49235" lon="13.471656"><ele>1422.96</ele></trkpt><trkpt lat="47.492305" lon="13.470683"><ele>1414.58</ele></trkpt><trkpt lat="47.492325" lon="13.470486"><ele>1412.1</ele></trkpt><trkpt lat="47.492438" lon="13.470153"><ele>1401.0</ele></trkpt><trkpt lat="47.492449" lon="13.470058"><ele>1396.39</ele></trkpt><trkpt lat="47.492434" lon="13.46976"><ele>1394.47</ele></trkpt><trkpt lat="47.492393" lon="13.469608"><ele>1388.0</ele></trkpt><trkpt lat="47.492302" lon="13.469504"><ele>1388.16</ele></trkpt><trkpt lat="47.492159" lon="13.469428"><ele>1388.39</ele></trkpt><trkpt lat="47.492141" lon="13.469371"><ele>1388.53</ele></trkpt><trkpt lat="47.492169" lon="13.4693"><ele>1388.66</ele></trkpt><trkpt lat="47.492204" lon="13.469281"><ele>1388.73</ele></trkpt><trkpt lat="47.492392" lon="13.469301"><ele>1388.97</ele></trkpt><trkpt lat="47.492449" lon="13.469257"><ele>1389.08</ele></trkpt><trkpt lat="47.492469" lon="13.46921"><ele>1389.14</ele></trkpt><trkpt lat="47.49247" lon="13.469083"><ele>1388.73</ele></trkpt><trkpt lat="47.492438" lon="13.468946"><ele>1388.34</ele></trkpt><trkpt lat="47.492384" lon="13.468847"><ele>1387.96</ele></trkpt><trkpt lat="47.49235" lon="13.468821"><ele>1387.79</ele></trkpt><trkpt lat="47.492266" lon="13.468815"><ele>1387.44</ele></trkpt><trkpt lat="47.49193" lon="13.469066"><ele>1386.51</ele></trkpt><trkpt lat="47.491878" lon="13.46908"><ele>1386.23</ele></trkpt><trkpt lat="47.491854" lon="13.469061"><ele>1386.1</ele></trkpt><trkpt lat="47.491842" lon="13.468974"><ele>1370.5</ele></trkpt><trkpt lat="47.491988" lon="13.468706"><ele>1369.38</ele></trkpt><trkpt lat="47.491995" lon="13.468596"><ele>1370.03</ele></trkpt><trkpt lat="47.491979" lon="13.468288"><ele>1370.48</ele></trkpt><trkpt lat="47.491994" lon="13.468063"><ele>1370.15</ele></trkpt><trkpt lat="47.492064" lon="13.467812"><ele>1369.68</ele></trkpt><trkpt lat="47.492143" lon="13.467693"><ele>1369.4</ele></trkpt><trkpt lat="47.492323" lon="13.467559"><ele>1369.13</ele></trkpt><trkpt lat="47.492495" lon="13.467498"><ele>1368.1</ele></trkpt><trkpt lat="47.492808" lon="13.467514"><ele>1364.76</ele></trkpt><trkpt lat="47.492993" lon="13.46758"><ele>1362.2</ele></trkpt><trkpt lat="47.493089" lon="13.467667"><ele>1360.69</ele></trkpt><trkpt lat="47.49317" lon="13.467792"><ele>1348.4</ele></trkpt><trkpt lat="47.493201" lon="13.467878"><ele>1348.4</ele></trkpt><trkpt lat="47.493203" lon="13.468238"><ele>1351.88</ele></trkpt><trkpt lat="47.493246" lon="13.469057"><ele>1352.86</ele></trkpt><trkpt lat="47.49324" lon="13.469213"><ele>1353.6</ele></trkpt><trkpt lat="47.493245" lon="13.469266"><ele>1354.03</ele></trkpt><trkpt lat="47.493268" lon="13.469303"><ele>1354.43</ele></trkpt><trkpt lat="47.493293" lon="13.469309"><ele>1359.6</ele></trkpt><trkpt lat="47.493318" lon="13.469295"><ele>1322.02</ele></trkpt><trkpt lat="47.493342" lon="13.469206"><ele>1321.06</ele></trkpt><trkpt lat="47.493361" lon="13.468865"><ele>1319.05</ele></trkpt><trkpt lat="47.493402" lon="13.468691"><ele>1318.28</ele></trkpt><trkpt lat="47.493521" lon="13.468354"><ele>1316.68</ele></trkpt><trkpt lat="47.493666" lon="13.468036"><ele>1315.27</ele></trkpt><trkpt lat="47.493706" lon="13.467892"><ele>1314.83</ele></trkpt><trkpt lat="47.493708" lon="13.467828"><ele>1314.84</ele></trkpt><trkpt lat="47.49351" lon="13.466753"><ele>1307.28</ele></trkpt><trkpt lat="47.493521" lon="13.466554"><ele>1305.49</ele></trkpt><trkpt lat="47.493583" lon="13.466326"><ele>1304.48</ele></trkpt><trkpt lat="47.493613" lon="13.466073"><ele>1302.95</ele></trkpt><trkpt lat="47.493584" lon="13.465673"><ele>1299.46</ele></trkpt><trkpt lat="47.493603" lon="13.465464"><ele>1299.02</ele></trkpt><trkpt lat="47.493602" lon="13.465232"><ele>1298.61</ele></trkpt><trkpt lat="47.49358" lon="13.465119"><ele>1298.42</ele></trkpt><trkpt lat="47.493462" lon="13.464757"><ele>1295.74</ele></trkpt><trkpt lat="47.493382" lon="13.464572"><ele>1294.9</ele></trkpt><trkpt lat="47.493244" lon="13.464371"><ele>1294.46</ele></trkpt><trkpt lat="47.493131" lon="13.464299"><ele>1294.73</ele></trkpt><trkpt lat="47.493078" lon="13.464302"><ele>1300.6</ele></trkpt><trkpt lat="47.493027" lon="13.46434"><ele>1300.6</ele></trkpt><trkpt lat="47.492969" lon="13.464455"><ele>1300.6</ele></trkpt><trkpt lat="47.492913" lon="13.464489"><ele>1300.6</ele></trkpt><trkpt lat="47.492889" lon="13.464479"><ele>1300.6</ele></trkpt><trkpt lat="47.492876" lon="13.464447"><ele>1288.67</ele></trkpt><trkpt lat="47.492873" lon="13.464384"><ele>1289.08</ele></trkpt><trkpt lat="47.49296" lon="13.464197"><ele>1289.86</ele></trkpt><trkpt lat="47.492999" lon="13.464042"><ele>1289.75</ele></trkpt><trkpt lat="47.492999" lon="13.463882"><ele>1289.64</ele></trkpt><trkpt lat="47.492961" lon="13.463639"><ele>1289.5</ele></trkpt><trkpt lat="47.492963" lon="13.463572"><ele>1289.45</ele></trkpt><trkpt lat="47.493028" lon="13.463343"><ele>1289.29</ele></trkpt><trkpt lat="47.493091" lon="13.46303"><ele>1288.02</ele></trkpt><trkpt lat="47.493154" lon="13.462941"><ele>1287.25</ele></trkpt><trkpt lat="47.49323" lon="13.462894"><ele>1286.53</ele></trkpt><trkpt lat="47.4934" lon="13.462856"><ele>1284.98</ele></trkpt><trkpt lat="47.493501" lon="13.462905"><ele>1269.98</ele></trkpt><trkpt lat="47.49358" lon="13.463025"><ele>1269.88</ele></trkpt><trkpt lat="47.493851" lon="13.463669"><ele>1270.29</ele></trkpt><trkpt lat="47.493897" lon="13.463701"><ele>1270.52</ele></trkpt><trkpt lat="47.493938" lon="13.463667"><ele>1270.74</ele></trkpt><trkpt lat="47.493944" lon="13.463625"><ele>1270.84</ele></trkpt><trkpt lat="47.493914" lon="13.46342"><ele>1271.13</ele></trkpt><trkpt lat="47.493936" lon="13.463104"><ele>1270.86</ele></trkpt><trkpt lat="47.493925" lon="13.462972"><ele>1270.78</ele></trkpt><trkpt lat="47.493821" lon="13.46244"><ele>1270.34</ele></trkpt><trkpt lat="47.493675" lon="13.462086"><ele>1262.0</ele></trkpt><trkpt lat="47.493626" lon="13.462012"><ele>1248.46</ele></trkpt><trkpt lat="47.493515" lon="13.461913"><ele>1250.21</ele></trkpt><trkpt lat="47.493368" lon="13.461832"><ele>1250.88</ele></trkpt><trkpt lat="47.493242" lon="13.461799"><ele>1252.69</ele></trkpt><trkpt lat="47.493095" lon="13.461805"><ele>1253.6</ele></trkpt><trkpt lat="47.493057" lon="13.461775"><ele>1253.89</ele></trkpt><trkpt lat="47.492953" lon="13.461571"><ele>1253.76</ele></trkpt><trkpt lat="47.492823" lon="13.461394"><ele>1253.11</ele></trkpt><trkpt lat="47.492771" lon="13.46127"><ele>1252.5</ele></trkpt><trkpt lat="47.492756" lon="13.461186"><ele>1252.21</ele></trkpt><trkpt lat="47.492765" lon="13.461027"><ele>1251.65</ele></trkpt><trkpt lat="47.492836" lon="13.460882"><ele>1251.13</ele></trkpt><trkpt lat="47.493002" lon="13.460704"><ele>1248.15</ele></trkpt><trkpt lat="47.493224" lon="13.46057"><ele>1243.88</ele></trkpt><trkpt lat="47.49337" lon="13.460522"><ele>1241.87</ele></trkpt><trkpt lat="47.493854" lon="13.460445"><ele>1234.29</ele></trkpt><trkpt lat="47.494418" lon="13.460312"><ele>1214.19</ele></trkpt><trkpt lat="47.494567" lon="13.460204"><ele>1214.36</ele></trkpt><trkpt lat="47.494638" lon="13.460118"><ele>1214.55</ele></trkpt><trkpt lat="47.494752" lon="13.45987"><ele>1213.08</ele></trkpt><trkpt lat="47.494785" lon="13.459843"><ele>1211.97</ele></trkpt><trkpt lat="47.494964" lon="13.459844"><ele>1209.23</ele></trkpt><trkpt lat="47.495006" lon="13.459823"><ele>1208.13</ele></trkpt><trkpt lat="47.495026" lon="13.459766"><ele>1189.4</ele><time>2021-08-03T05:42:56Z</time></trkpt><trkpt lat="47.495023" lon="13.459713"><ele>1195.11</ele></trkpt><trkpt lat="47.49497" lon="13.459648"><ele>1195.2</ele></trkpt><trkpt lat="47.494798" lon="13.459629"><ele>1196.83</ele></trkpt><trkpt lat="47.494724" lon="13.459597"><ele>1197.27</ele></trkpt><trkpt lat="47.494574" lon="13.459524"><ele>1201.2</ele></trkpt><trkpt lat="47.494241" lon="13.459316"><ele>1198.02</ele></trkpt><trkpt lat="47.494114" lon="13.459271"><ele>1198.13</ele></trkpt><trkpt lat="47.493655" lon="13.459177"><ele>1198.43</ele></trkpt><trkpt lat="47.493593" lon="13.459182"><ele>1198.51</ele></trkpt><trkpt lat="47.49343" lon="13.459249"><ele>1198.8</ele></trkpt><trkpt lat="47.493388" lon="13.459218"><ele>1198.87</ele></trkpt><trkpt lat="47.493379" lon="13.459164"><ele>1180.2</ele><time>2021-08-03T05:44:01Z</time></trkpt><trkpt lat="47.493391" lon="13.459127"><ele>1179.03</ele></trkpt><trkpt lat="47.494017" lon="13.458709"><ele>1178.14</ele></trkpt><trkpt lat="47.494626" lon="13.458441"><ele>1178.64</ele></trkpt><trkpt lat="47.495265" lon="13.458185"><ele>1163.0</ele></trkpt><trkpt lat="47.495829" lon="13.458044"><ele>1163.33</ele></trkpt><trkpt lat="47.496121" lon="13.457949"><ele>1162.83</ele></trkpt><trkpt lat="47.49619" lon="13.457936"><ele>1161.2</ele></trkpt><trkpt lat="47.496268" lon="13.457951"><ele>1160.18</ele></trkpt><trkpt lat="47.496348" lon="13.457993"><ele>1160.24</ele></trkpt><trkpt lat="47.496408" lon="13.45806"><ele>1160.28</ele></trkpt><trkpt lat="47.496506" lon="13.458271"><ele>1159.16</ele></trkpt><trkpt lat="47.496563" lon="13.458577"><ele>1159.6</ele></trkpt><trkpt lat="47.496571" lon="13.459099"><ele>1160.17</ele></trkpt><trkpt lat="47.496681" lon="13.459981"><ele>1159.84</ele></trkpt><trkpt lat="47.496697" lon="13.460058"><ele>1158.48</ele></trkpt><trkpt lat="47.49673" lon="13.460104"><ele>1157.3</ele></trkpt><trkpt lat="47.496817" lon="13.460076"><ele>1140.93</ele></trkpt><trkpt lat="47.496836" lon="13.460023"><ele>1140.92</ele></trkpt><trkpt lat="47.496836" lon="13.459948"><ele>1140.94</ele></trkpt><trkpt lat="47.496773" lon="13.459605"><ele>1141.15</ele></trkpt><trkpt lat="47.496781" lon="13.459455"><ele>1141.15</ele></trkpt><trkpt lat="47.496827" lon="13.459293"><ele>1140.25</ele></trkpt><trkpt lat="47.497077" lon="13.458668"><ele>1140.84</ele></trkpt><trkpt lat="47.497234" lon="13.458407"><ele>1141.19</ele></trkpt><trkpt lat="47.497311" lon="13.458242"><ele>1141.63</ele></trkpt><trkpt lat="47.497436" lon="13.457895"><ele>1142.92</ele></trkpt><trkpt lat="47.497727" lon="13.457375"><ele>1124.56</ele></trkpt><trkpt lat="47.497819" lon="13.457174"><ele>1124.7</ele></trkpt><trkpt lat="47.497873" lon="13.457"><ele>1124.83</ele></trkpt><trkpt lat="47.497899" lon="13.456833"><ele>1124.95</ele></trkpt><trkpt lat="47.49791" lon="13.456532"><ele>1124.86</ele></trkpt><trkpt lat="47.497796" lon="13.456199"><ele>1124.33</ele></trkpt><trkpt lat="47.497678" lon="13.456026"><ele>1122.4</ele><time>2021-08-03T05:48:32Z</time></trkpt><trkpt lat="47.497791" lon="13.455606"><ele>1122.96</ele></trkpt><trkpt lat="47.497809" lon="13.455461"><ele>1123.61</ele></trkpt><trkpt lat="47.497791" lon="13.455329"><ele>1124.61</ele></trkpt><trkpt lat="47.497758" lon="13.455221"><ele>1125.18</ele></trkpt><trkpt lat="47.497698" lon="13.45511"><ele>1125.99</ele></trkpt><trkpt lat="47.497629" lon="13.455023"><ele>1126.24</ele></trkpt><trkpt lat="47.497139" lon="13.454688"><ele>1126.92</ele></trkpt><trkpt lat="47.497023" lon="13.454563"><ele>1126.98</ele></trkpt><trkpt lat="47.49694" lon="13.454435"><ele>1126.83</ele></trkpt><trkpt lat="47.496841" lon="13.454224"><ele>1127.59</ele></trkpt><trkpt lat="47.496824" lon="13.454128"><ele>1127.85</ele></trkpt><trkpt lat="47.496821" lon="13.453894"><ele>1127.9</ele></trkpt><trkpt lat="47.496772" lon="13.453716"><ele>1127.65</ele></trkpt><trkpt lat="47.496669" lon="13.453479"><ele>1127.87</ele></trkpt><trkpt lat="47.496335" lon="13.452827"><ele>1128.85</ele></trkpt><trkpt lat="47.496251" lon="13.452567"><ele>1130.06</ele></trkpt><trkpt lat="47.495999" lon="13.45091"><ele>1134.02</ele></trkpt><trkpt lat="47.495968" lon="13.450549"><ele>1133.85</ele></trkpt><trkpt lat="47.495981" lon="13.450405"><ele>1133.36</ele></trkpt><trkpt lat="47.496059" lon="13.449941"><ele>1131.23</ele></trkpt><trkpt lat="47.496132" lon="13.449617"><ele>1130.21</ele></trkpt><trkpt lat="47.496144" lon="13.449435"><ele>1129.04</ele></trkpt><trkpt lat="47.496082" lon="13.448544"><ele>1124.76</ele></trkpt><trkpt lat="47.4961" lon="13.448163"><ele>1121.13</ele></trkpt><trkpt lat="47.496114" lon="13.447987"><ele>1120.22</ele></trkpt><trkpt lat="47.49624" lon="13.447259"><ele>1114.26</ele></trkpt><trkpt lat="47.496336" lon="13.446487"><ele>1109.54</ele></trkpt><trkpt lat="47.496377" lon="13.446312"><ele>1108.87</ele></trkpt><trkpt lat="47.496455" lon="13.44611"><ele>1108.39</ele></trkpt><trkpt lat="47.496639" lon="13.445746"><ele>1107.54</ele></trkpt><trkpt lat="47.496815" lon="13.445515"><ele>1107.79</ele></trkpt><trkpt lat="47.496985" lon="13.445392"><ele>1107.6</ele></trkpt><trkpt lat="47.497179" lon="13.445391"><ele>1107.44</ele></trkpt><trkpt lat="47.497395" lon="13.4455"><ele>1106.78</ele></trkpt><trkpt lat="47.497623" lon="13.445576"><ele>1106.08</ele></trkpt><trkpt lat="47.497811" lon="13.445561"><ele>1104.7</ele></trkpt><trkpt lat="47.498333" lon="13.445281"><ele>1094.01</ele></trkpt><trkpt lat="47.498779" lon="13.445147"><ele>1080.85</ele></trkpt><trkpt lat="47.49899" lon="13.44512"><ele>1078.3</ele></trkpt><trkpt lat="47.4991" lon="13.44512"><ele>1076.42</ele></trkpt><trkpt lat="47.499227" lon="13.445176"><ele>1075.04</ele></trkpt><trkpt lat="47.499313" lon="13.445273"><ele>1074.27</ele></trkpt><trkpt lat="47.499382" lon="13.445385"><ele>1074.89</ele></trkpt><trkpt lat="47.499483" lon="13.445609"><ele>1074.89</ele></trkpt><trkpt lat="47.49964" lon="13.446104"><ele>1075.55</ele></trkpt><trkpt lat="47.499675" lon="13.446175"><ele>1075.7</ele></trkpt><trkpt lat="47.499716" lon="13.446184"><ele>1075.48</ele></trkpt><trkpt lat="47.499756" lon="13.44615"><ele>1074.29</ele></trkpt><trkpt lat="47.499782" lon="13.446097"><ele>1074.01</ele></trkpt><trkpt lat="47.499785" lon="13.446032"><ele>1073.72</ele></trkpt><trkpt lat="47.499759" lon="13.44554"><ele>1071.97</ele></trkpt><trkpt lat="47.499766" lon="13.445276"><ele>1071.44</ele></trkpt><trkpt lat="47.499814" lon="13.444754"><ele>1068.48</ele></trkpt><trkpt lat="47.49981" lon="13.444565"><ele>1067.93</ele></trkpt><trkpt lat="47.499793" lon="13.444362"><ele>1065.38</ele></trkpt><trkpt lat="47.49969" lon="13.443984"><ele>1053.62</ele></trkpt><trkpt lat="47.499661" lon="13.443805"><ele>1049.54</ele></trkpt><trkpt lat="47.499659" lon="13.443578"><ele>1047.07</ele></trkpt><trkpt lat="47.499702" lon="13.443246"><ele>1043.85</ele></trkpt><trkpt lat="47.499756" lon="13.44307"><ele>1042.71</ele></trkpt><trkpt lat="47.499855" lon="13.442826"><ele>1041.39</ele></trkpt><trkpt lat="47.500064" lon="13.442431"><ele>1038.21</ele></trkpt><trkpt lat="47.500108" lon="13.442291"><ele>1037.99</ele></trkpt><trkpt lat="47.500119" lon="13.442168"><ele>1038.1</ele></trkpt><trkpt lat="47.500103" lon="13.44204"><ele>1038.46</ele></trkpt><trkpt lat="47.500057" lon="13.441913"><ele>1039.65</ele></trkpt><trkpt lat="47.499903" lon="13.441709"><ele>1040.6</ele></trkpt><trkpt lat="47.49986" lon="13.441578"><ele>1040.48</ele></trkpt><trkpt lat="47.49985" lon="13.441493"><ele>1039.8</ele><time>2021-08-03T05:54:04Z</time></trkpt><trkpt lat="47.499897" lon="13.441463"><ele>1039.8</ele></trkpt><trkpt lat="47.499935" lon="13.441471"><ele>1026.32</ele></trkpt><trkpt lat="47.500018" lon="13.441585"><ele>1025.05</ele></trkpt><trkpt lat="47.500269" lon="13.44212"><ele>1023.14</ele></trkpt><trkpt lat="47.500294" lon="13.442258"><ele>1022.62</ele></trkpt><trkpt lat="47.500289" lon="13.442408"><ele>1022.13</ele></trkpt><trkpt lat="47.500161" lon="13.44305"><ele>1023.17</ele></trkpt><trkpt lat="47.500152" lon="13.443205"><ele>1023.12</ele></trkpt><trkpt lat="47.500182" lon="13.443461"><ele>1021.3</ele></trkpt><trkpt lat="47.500286" lon="13.443757"><ele>1024.07</ele></trkpt><trkpt lat="47.500578" lon="13.444422"><ele>1029.64</ele></trkpt><trkpt lat="47.500648" lon="13.444792"><ele>1031.24</ele></trkpt><trkpt lat="47.500726" lon="13.44532"><ele>1035.54</ele></trkpt><trkpt lat="47.500781" lon="13.44595"><ele>1034.02</ele></trkpt><trkpt lat="47.500861" lon="13.447251"><ele>1032.6</ele></trkpt><trkpt lat="47.500857" lon="13.447813"><ele>1030.31</ele></trkpt><trkpt lat="47.500876" lon="13.447885"><ele>1030.35</ele></trkpt><trkpt lat="47.500904" lon="13.447895"><ele>1030.8</ele><time>2021-08-03T05:55:52Z</time></trkpt><trkpt lat="47.500885" lon="13.448241"><ele>1031.12</ele></trkpt><trkpt lat="47.5009" lon="13.44861"><ele>1038.79</ele></trkpt><trkpt lat="47.500875" lon="13.448721"><ele>1038.44</ele></trkpt><trkpt lat="47.500753" lon="13.449056"><ele>1041.02</ele></trkpt><trkpt lat="47.500756" lon="13.449166"><ele>1041.67</ele></trkpt><trkpt lat="47.50089" lon="13.449592"><ele>1040.7</ele></trkpt><trkpt lat="47.500927" lon="13.449813"><ele>1040.35</ele></trkpt><trkpt lat="47.501065" lon="13.450175"><ele>1039.67</ele></trkpt><trkpt lat="47.501221" lon="13.450464"><ele>1039.81</ele></trkpt><trkpt lat="47.501288" lon="13.450629"><ele>1040.19</ele></trkpt><trkpt lat="47.501328" lon="13.450863"><ele>1038.05</ele></trkpt><trkpt lat="47.501323" lon="13.451039"><ele>1037.19</ele></trkpt><trkpt lat="47.501301" lon="13.451188"><ele>1036.22</ele></trkpt><trkpt lat="47.50131" lon="13.451313"><ele>1036.61</ele></trkpt><trkpt lat="47.501348" lon="13.451452"><ele>1036.79</ele></trkpt><trkpt lat="47.501442" lon="13.451672"><ele>1037.56</ele></trkpt><trkpt lat="47.501493" lon="13.451878"><ele>1038.08</ele></trkpt><trkpt lat="47.501518" lon="13.452076"><ele>1038.45</ele></trkpt><trkpt lat="47.50149" lon="13.452494"><ele>1039.03</ele></trkpt><trkpt lat="47.501446" lon="13.452782"><ele>1039.36</ele><time>2021-08-03T05:57:51Z</time></trkpt></trkseg><trkseg><trkpt lat="47.501446" lon="13.452782"><ele>1039.36</ele><time>2021-08-03T05:27:09Z</time></trkpt><trkpt lat="47.501417" lon="13.452973"><ele>1039.69</ele></trkpt><trkpt lat="47.501201" lon="13.453555"><ele>1041.26</ele></trkpt><trkpt lat="47.500741" lon="13.45511"><ele>1042.57</ele></trkpt><trkpt lat="47.500733" lon="13.455203"><ele>1043.14</ele></trkpt><trkpt lat="47.500748" lon="13.455286"><ele>1043.56</ele></trkpt><trkpt lat="47.500849" lon="13.455482"><ele>1043.48</ele></trkpt><trkpt lat="47.500928" lon="13.455582"><ele>1043.14</ele></trkpt><trkpt lat="47.500969" lon="13.45567"><ele>1042.77</ele></trkpt><trkpt lat="47.500989" lon="13.455792"><ele>1042.43</ele></trkpt><trkpt lat="47.500984" lon="13.455878"><ele>1042.02</ele></trkpt><trkpt lat="47.500832" lon="13.456232"><ele>1042.21</ele></trkpt><trkpt lat="47.500819" lon="13.456323"><ele>1043.06</ele></trkpt><trkpt lat="47.500851" lon="13.45657"><ele>1042.63</ele></trkpt><trkpt lat="47.500808" lon="13.456834"><ele>1043.68</ele></trkpt><trkpt lat="47.500099" lon="13.458169"><ele>1053.65</ele></trkpt><trkpt lat="47.499976" lon="13.45833"><ele>1058.3</ele></trkpt><trkpt lat="47.499864" lon="13.45854"><ele>1059.13</ele></trkpt><trkpt lat="47.499774" lon="13.458768"><ele>1059.52</ele></trkpt><trkpt lat="47.499607" lon="13.459337"><ele>1060.33</ele></trkpt><trkpt lat="47.49956" lon="13.459582"><ele>1060.84</ele></trkpt><trkpt lat="47.499547" lon="13.459812"><ele>1061.18</ele></trkpt><trkpt lat="47.499565" lon="13.460156"><ele>1061.36</ele></trkpt><trkpt lat="47.499635" lon="13.460286"><ele>1060.23</ele></trkpt><trkpt lat="47.499959" lon="13.460746"><ele>1059.03</ele></trkpt><trkpt lat="47.500342" lon="13.461245"><ele>1057.67</ele></trkpt><trkpt lat="47.50054" lon="13.461665"><ele>1057.29</ele></trkpt><trkpt lat="47.50063" lon="13.461778"><ele>1057.42</ele></trkpt><trkpt lat="47.500716" lon="13.461854"><ele>1057.63</ele></trkpt><trkpt lat="47.50078" lon="13.46188"><ele>1057.68</ele></trkpt><trkpt lat="47.500865" lon="13.461883"><ele>1057.9</ele></trkpt><trkpt lat="47.501334" lon="13.461799"><ele>1058.37</ele></trkpt><trkpt lat="47.501362" lon="13.461764"><ele>1058.62</ele></trkpt><trkpt lat="47.501381" lon="13.461712"><ele>1058.52</ele></trkpt><trkpt lat="47.501383" lon="13.461645"><ele>1058.47</ele></trkpt><trkpt lat="47.501349" lon="13.461352"><ele>1057.51</ele></trkpt><trkpt lat="47.501374" lon="13.461127"><ele>1057.06</ele></trkpt><trkpt lat="47.501408" lon="13.460971"><ele>1056.65</ele></trkpt><trkpt lat="47.501536" lon="13.460587"><ele>1055.3</ele></trkpt><trkpt lat="47.501684" lon="13.460256"><ele>1052.08</ele></trkpt><trkpt lat="47.50175" lon="13.460193"><ele>1051.53</ele></trkpt><trkpt lat="47.502064" lon="13.460026"><ele>1047.49</ele></trkpt><trkpt lat="47.5025" lon="13.459878"><ele>1041.49</ele></trkpt><trkpt lat="47.502714" lon="13.45984"><ele>1039.68</ele></trkpt><trkpt lat="47.503383" lon="13.459825"><ele>1036.83</ele></trkpt><trkpt lat="47.503664" lon="13.45989"><ele>1036.94</ele></trkpt><trkpt lat="47.503865" lon="13.459993"><ele>1037.27</ele></trkpt><trkpt lat="47.504025" lon="13.46011"><ele>1038.06</ele></trkpt><trkpt lat="47.504149" lon="13.46023"><ele>1039.01</ele></trkpt><trkpt lat="47.504212" lon="13.460427"><ele>1038.71</ele></trkpt><trkpt lat="47.504281" lon="13.460798"><ele>1038.56</ele><time>2021-08-03T05:33:52Z</time></trkpt></trkseg><trkseg><trkpt lat="47.504281" lon="13.460798"><ele>1038.56</ele><time>2021-08-03T05:27:09Z</time></trkpt><trkpt lat="47.504315" lon="13.460978"><ele>1038.41</ele></trkpt><trkpt lat="47.504354" lon="13.461091"><ele>1036.8</ele></trkpt><trkpt lat="47.504365" lon="13.461054"><ele>1033.6</ele></trkpt><trkpt lat="47.504345" lon="13.460769"><ele>1033.64</ele></trkpt><trkpt lat="47.504431" lon="13.460472"><ele>1033.45</ele></trkpt><trkpt lat="47.504453" lon="13.460273"><ele>1033.35</ele></trkpt><trkpt lat="47.504458" lon="13.460035"><ele>1033.27</ele></trkpt><trkpt lat="47.504437" lon="13.4599"><ele>1033.13</ele></trkpt><trkpt lat="47.504393" lon="13.459796"><ele>1032.89</ele></trkpt><trkpt lat="47.50434" lon="13.45972"><ele>1032.77</ele></trkpt><trkpt lat="47.504236" lon="13.45963"><ele>1032.55</ele></trkpt><trkpt lat="47.504156" lon="13.459492"><ele>1032.64</ele></trkpt><trkpt lat="47.504135" lon="13.459393"><ele>1032.71</ele></trkpt><trkpt lat="47.50415" lon="13.458871"><ele>1031.34</ele></trkpt><trkpt lat="47.504102" lon="13.458605"><ele>1031.02</ele></trkpt><trkpt lat="47.503919" lon="13.457728"><ele>1029.89</ele></trkpt><trkpt lat="47.50386" lon="13.457609"><ele>1029.86</ele></trkpt><trkpt lat="47.503741" lon="13.457429"><ele>1029.03</ele></trkpt><trkpt lat="47.503736" lon="13.457262"><ele>1028.14</ele></trkpt><trkpt lat="47.503793" lon="13.457058"><ele>1027.53</ele></trkpt><trkpt lat="47.503866" lon="13.456928"><ele>1026.98</ele></trkpt><trkpt lat="47.503928" lon="13.456762"><ele>1026.52</ele></trkpt><trkpt lat="47.504137" lon="13.455318"><ele>1023.07</ele><time>2021-08-03T05:34:21Z</time></trkpt></trkseg><trkseg><trkpt lat="47.504137" lon="13.455318"><ele>1023.07</ele><time>2021-08-03T05:27:09Z</time></trkpt><trkpt lat="47.504176" lon="13.454547"><ele>1019.22</ele></trkpt><trkpt lat="47.504237" lon="13.454248"><ele>1019.57</ele></trkpt><trkpt lat="47.504391" lon="13.453943"><ele>1020.18</ele></trkpt><trkpt lat="47.504581" lon="13.45368"><ele>1020.6</ele></trkpt><trkpt lat="47.504677" lon="13.453575"><ele>1020.93</ele></trkpt><trkpt lat="47.505069" lon="13.453285"><ele>1021.9</ele></trkpt><trkpt lat="47.505413" lon="13.452905"><ele>1024.6</ele><time>2021-08-03T05:30:54Z</time></trkpt><trkpt lat="47.505415" lon="13.45293"><ele>1023.59</ele><time>2021-08-03T05:30:54Z</time></trkpt></trkseg><trkseg><trkpt lat="47.505415" lon="13.45293"><ele>1023.59</ele><time>2021-08-03T05:27:09Z</time></trkpt><trkpt lat="47.505547" lon="13.454018"><ele>1021.9</ele></trkpt><trkpt lat="47.505593" lon="13.454132"><ele>1019.2</ele></trkpt><trkpt lat="47.505673" lon="13.45428"><ele>1007.33</ele></trkpt><trkpt lat="47.505773" lon="13.454376"><ele>1007.68</ele></trkpt><trkpt lat="47.505963" lon="13.454494"><ele>1007.31</ele></trkpt><trkpt lat="47.506125" lon="13.454553"><ele>1006.98</ele></trkpt><trkpt lat="47.506451" lon="13.454544"><ele>1005.16</ele></trkpt><trkpt lat="47.507009" lon="13.454301"><ele>999.16</ele></trkpt><trkpt lat="47.507613" lon="13.454128"><ele>992.65</ele></trkpt><trkpt lat="47.508169" lon="13.454006"><ele>990.66</ele></trkpt><trkpt lat="47.508298" lon="13.453938"><ele>991.22</ele></trkpt><trkpt lat="47.508371" lon="13.453867"><ele>990.79</ele></trkpt><trkpt lat="47.508439" lon="13.453755"><ele>990.53</ele></trkpt><trkpt lat="47.508545" lon="13.453671"><ele>990.28</ele></trkpt><trkpt lat="47.508651" lon="13.453654"><ele>990.05</ele></trkpt><trkpt lat="47.508927" lon="13.453678"><ele>989.63</ele></trkpt><trkpt lat="47.50902" lon="13.453656"><ele>988.72</ele></trkpt><trkpt lat="47.509254" lon="13.45352"><ele>986.52</ele></trkpt><trkpt lat="47.509342" lon="13.453493"><ele>972.8</ele></trkpt><trkpt lat="47.509768" lon="13.453447"><ele>971.9</ele></trkpt><trkpt lat="47.509861" lon="13.453397"><ele>971.85</ele><time>2021-08-03T05:29:10Z</time></trkpt></trkseg><trkseg><trkpt lat="47.509861" lon="13.453397"><ele>971.85</ele><time>2021-08-03T05:27:09Z</time></trkpt><trkpt lat="47.510018" lon="13.453313"><ele>971.8</ele></trkpt><trkpt lat="47.510345" lon="13.452992"><ele>971.41</ele></trkpt><trkpt lat="47.510493" lon="13.452757"><ele>969.8</ele></trkpt><trkpt lat="47.510583" lon="13.45267"><ele>960.58</ele></trkpt><trkpt lat="47.511904" lon="13.45196"><ele>944.85</ele></trkpt><trkpt lat="47.512271" lon="13.451837"><ele>942.59</ele></trkpt><trkpt lat="47.512506" lon="13.451835"><ele>940.5</ele></trkpt><trkpt lat="47.512744" lon="13.451905"><ele>923.8</ele></trkpt><trkpt lat="47.513316" lon="13.451776"><ele>921.0</ele></trkpt><trkpt lat="47.513385" lon="13.451747"><ele>919.42</ele></trkpt><trkpt lat="47.513839" lon="13.451319"><ele>913.01</ele></trkpt><trkpt lat="47.51395" lon="13.451243"><ele>913.78</ele></trkpt><trkpt lat="47.514347" lon="13.451254"><ele>899.6</ele><time>2021-08-03T05:29:01Z</time></trkpt><trkpt lat="47.514528" lon="13.451205"><ele>899.6</ele></trkpt><trkpt lat="47.514662" lon="13.451141"><ele>899.6</ele></trkpt><trkpt lat="47.514868" lon="13.450927"><ele>896.92</ele></trkpt><trkpt lat="47.515044" lon="13.450697"><ele>896.6</ele></trkpt><trkpt lat="47.51519" lon="13.450469"><ele>892.4</ele></trkpt><trkpt lat="47.515228" lon="13.450437"><ele>892.4</ele></trkpt><trkpt lat="47.515304" lon="13.450449"><ele>892.4</ele><time>2021-08-03T05:29:27Z</time></trkpt><trkpt lat="47.515318" lon="13.450399"><ele>894.93</ele><time>2021-08-03T05:29:28Z</time></trkpt></trkseg><trkseg><trkpt lat="47.515318" lon="13.450399"><ele>894.93</ele><time>2021-08-03T05:27:09Z</time></trkpt><trkpt lat="47.515264" lon="13.450743"><ele>888.18</ele></trkpt><trkpt lat="47.515286" lon="13.451899"><ele>880.8</ele></trkpt><trkpt lat="47.515275" lon="13.452082"><ele>880.8</ele></trkpt><trkpt lat="47.515237" lon="13.45232"><ele>880.8</ele></trkpt><trkpt lat="47.515135" lon="13.452703"><ele>878.0</ele></trkpt><trkpt lat="47.515091" lon="13.453003"><ele>878.0</ele></trkpt><trkpt lat="47.514976" lon="13.453361"><ele>882.95</ele></trkpt><trkpt lat="47.514963" lon="13.453501"><ele>883.4</ele></trkpt><trkpt lat="47.514977" lon="13.453607"><ele>885.2</ele></trkpt><trkpt lat="47.515031" lon="13.453709"><ele>879.97</ele></trkpt><trkpt lat="47.515093" lon="13.453787"><ele>879.5</ele></trkpt><trkpt lat="47.515175" lon="13.453851"><ele>877.6</ele></trkpt><trkpt lat="47.51527" lon="13.453883"><ele>877.6</ele></trkpt><trkpt lat="47.515362" lon="13.453874"><ele>877.6</ele></trkpt><trkpt lat="47.515472" lon="13.453814"><ele>877.6</ele></trkpt><trkpt lat="47.51557" lon="13.453713"><ele>877.49</ele></trkpt><trkpt lat="47.515636" lon="13.453599"><ele>877.5</ele></trkpt><trkpt lat="47.515815" lon="13.452977"><ele>877.63</ele></trkpt><trkpt lat="47.516181" lon="13.452354"><ele>876.17</ele></trkpt><trkpt lat="47.516453" lon="13.452002"><ele>875.0</ele></trkpt><trkpt lat="47.517202" lon="13.451396"><ele>869.4</ele></trkpt><trkpt lat="47.517868" lon="13.450794"><ele>862.07</ele></trkpt><trkpt lat="47.518188" lon="13.450458"><ele>859.0</ele></trkpt><trkpt lat="47.518345" lon="13.450247"><ele>858.12</ele></trkpt><trkpt lat="47.51839" lon="13.450099"><ele>855.56</ele></trkpt><trkpt lat="47.518405" lon="13.449984"><ele>855.52</ele></trkpt><trkpt lat="47.518403" lon="13.449746"><ele>855.44</ele></trkpt><trkpt lat="47.518418" lon="13.449666"><ele>855.41</ele></trkpt><trkpt lat="47.518473" lon="13.449581"><ele>855.33</ele></trkpt><trkpt lat="47.518692" lon="13.449492"><ele>855.21</ele></trkpt><trkpt lat="47.518787" lon="13.449416"><ele>855.2</ele></trkpt><trkpt lat="47.519168" lon="13.448946"><ele>855.12</ele></trkpt><trkpt lat="47.5203" lon="13.447867"><ele>857.72</ele></trkpt><trkpt lat="47.520933" lon="13.447504"><ele>855.0</ele></trkpt><trkpt lat="47.52107" lon="13.447414"><ele>851.54</ele></trkpt><trkpt lat="47.521189" lon="13.447308"><ele>851.2</ele></trkpt><trkpt lat="47.521737" lon="13.446695"><ele>850.8</ele></trkpt><trkpt lat="47.52248" lon="13.445605"><ele>845.67</ele></trkpt><trkpt lat="47.522703" lon="13.445228"><ele>840.0</ele></trkpt><trkpt lat="47.52329" lon="13.443839"><ele>835.86</ele></trkpt><trkpt lat="47.523428" lon="13.443437"><ele>835.63</ele></trkpt><trkpt lat="47.5236" lon="13.442733"><ele>835.44</ele></trkpt><trkpt lat="47.52382" lon="13.441665"><ele>834.73</ele></trkpt><trkpt lat="47.523817" lon="13.441511"><ele>834.66</ele></trkpt><trkpt lat="47.523691" lon="13.44107"><ele>834.79</ele></trkpt><trkpt lat="47.523674" lon="13.440935"><ele>834.87</ele></trkpt><trkpt lat="47.523677" lon="13.440806"><ele>834.83</ele></trkpt><trkpt lat="47.523703" lon="13.440685"><ele>834.69</ele></trkpt><trkpt lat="47.523757" lon="13.440548"><ele>834.66</ele></trkpt><trkpt lat="47.524012" lon="13.440074"><ele>834.43</ele></trkpt><trkpt lat="47.524094" lon="13.439955"><ele>834.66</ele></trkpt><trkpt lat="47.524191" lon="13.439858"><ele>833.67</ele></trkpt><trkpt lat="47.524653" lon="13.439489"><ele>819.22</ele></trkpt><trkpt lat="47.524841" lon="13.439286"><ele>819.08</ele></trkpt><trkpt lat="47.524915" lon="13.43917"><ele>818.94</ele></trkpt><trkpt lat="47.524981" lon="13.439021"><ele>818.71</ele></trkpt><trkpt lat="47.525026" lon="13.43883"><ele>818.05</ele></trkpt><trkpt lat="47.525209" lon="13.437649"><ele>815.43</ele></trkpt><trkpt lat="47.525235" lon="13.437429"><ele>814.32</ele></trkpt><trkpt lat="47.525238" lon="13.437056"><ele>812.29</ele></trkpt><trkpt lat="47.525201" lon="13.436858"><ele>812.19</ele></trkpt><trkpt lat="47.52505" lon="13.436384"><ele>808.84</ele></trkpt><trkpt lat="47.524997" lon="13.436093"><ele>807.95</ele></trkpt><trkpt lat="47.524998" lon="13.435812"><ele>807.84</ele></trkpt><trkpt lat="47.525052" lon="13.435515"><ele>807.32</ele></trkpt><trkpt lat="47.525141" lon="13.435179"><ele>806.72</ele></trkpt><trkpt lat="47.525326" lon="13.43468"><ele>804.95</ele></trkpt><trkpt lat="47.525345" lon="13.434522"><ele>804.78</ele></trkpt><trkpt lat="47.525273" lon="13.434004"><ele>797.32</ele></trkpt><trkpt lat="47.5253" lon="13.433741"><ele>796.87</ele></trkpt><trkpt lat="47.525397" lon="13.433528"><ele>795.6</ele></trkpt><trkpt lat="47.526307" lon="13.432036"><ele>782.34</ele></trkpt><trkpt lat="47.526422" lon="13.431766"><ele>782.3</ele></trkpt><trkpt lat="47.526484" lon="13.431472"><ele>780.72</ele></trkpt><trkpt lat="47.526523" lon="13.430982"><ele>779.27</ele></trkpt><trkpt lat="47.52653" lon="13.430652"><ele>778.94</ele></trkpt><trkpt lat="47.526501" lon="13.430438"><ele>778.24</ele></trkpt><trkpt lat="47.526433" lon="13.430223"><ele>777.95</ele></trkpt><trkpt lat="47.525976" lon="13.429161"><ele>760.4</ele></trkpt><trkpt lat="47.525794" lon="13.428829"><ele>756.35</ele></trkpt><trkpt lat="47.525671" lon="13.428687"><ele>755.6</ele><time>2021-08-03T05:36:36Z</time></trkpt><trkpt lat="47.52588" lon="13.428273"><ele>752.4</ele></trkpt><trkpt lat="47.526353" lon="13.427441"><ele>754.0</ele></trkpt><trkpt lat="47.52661" lon="13.426873"><ele>754.93</ele></trkpt><trkpt lat="47.526891" lon="13.426171"><ele>755.61</ele></trkpt><trkpt lat="47.526964" lon="13.426041"><ele>755.7</ele></trkpt><trkpt lat="47.527042" lon="13.425983"><ele>755.85</ele></trkpt><trkpt lat="47.527196" lon="13.425995"><ele>755.98</ele></trkpt><trkpt lat="47.527459" lon="13.426112"><ele>756.14</ele></trkpt><trkpt lat="47.527728" lon="13.426083"><ele>749.27</ele></trkpt><trkpt lat="47.527983" lon="13.426002"><ele>749.29</ele></trkpt><trkpt lat="47.52823" lon="13.425895"><ele>749.32</ele></trkpt><trkpt lat="47.529502" lon="13.425179"><ele>743.43</ele></trkpt><trkpt lat="47.529739" lon="13.425076"><ele>742.28</ele></trkpt><trkpt lat="47.529974" lon="13.425044"><ele>742.53</ele></trkpt><trkpt lat="47.530143" lon="13.425063"><ele>742.08</ele></trkpt><trkpt lat="47.530371" lon="13.425133"><ele>741.7</ele></trkpt><trkpt lat="47.530636" lon="13.425273"><ele>739.4</ele><time>2021-08-03T05:38:51Z</time></trkpt><trkpt lat="47.530597" lon="13.425478"><ele>739.4</ele></trkpt><trkpt lat="47.530637" lon="13.425597"><ele>739.4</ele><time>2021-08-03T05:38:56Z</time></trkpt><trkpt lat="47.530677" lon="13.42561"><ele>739.4</ele><time>2021-08-03T05:38:57Z</time></trkpt><trkpt lat="47.53069" lon="13.425676"><ele>738.02</ele></trkpt><trkpt lat="47.530847" lon="13.425976"><ele>737.73</ele></trkpt><trkpt lat="47.5309" lon="13.426253"><ele>735.2</ele></trkpt><trkpt lat="47.530948" lon="13.426422"><ele>735.2</ele></trkpt><trkpt lat="47.531013" lon="13.426559"><ele>735.2</ele></trkpt><trkpt lat="47.531098" lon="13.426655"><ele>735.2</ele></trkpt><trkpt lat="47.531233" lon="13.426711"><ele>740.5</ele></trkpt><trkpt lat="47.531429" lon="13.426694"><ele>741.12</ele></trkpt><trkpt lat="47.531634" lon="13.426626"><ele>740.39</ele></trkpt><trkpt lat="47.532316" lon="13.426196"><ele>739.78</ele></trkpt><trkpt lat="47.532544" lon="13.425956"><ele>739.77</ele></trkpt><trkpt lat="47.532918" lon="13.425359"><ele>739.38</ele></trkpt><trkpt lat="47.533394" lon="13.424354"><ele>735.6</ele></trkpt><trkpt lat="47.533407" lon="13.424241"><ele>735.6</ele></trkpt><trkpt lat="47.533368" lon="13.424054"><ele>736.8</ele><time>2021-08-03T05:40:26Z</time></trkpt><trkpt lat="47.533643" lon="13.423918"><ele>736.8</ele></trkpt><trkpt lat="47.53397" lon="13.423859"><ele>736.15</ele></trkpt><trkpt lat="47.534957" lon="13.423892"><ele>732.69</ele></trkpt><trkpt lat="47.535413" lon="13.423812"><ele>732.19</ele></trkpt><trkpt lat="47.535631" lon="13.423721"><ele>732.06</ele></trkpt><trkpt lat="47.535887" lon="13.423584"><ele>732.05</ele></trkpt><trkpt lat="47.536156" lon="13.423365"><ele>732.0</ele></trkpt><trkpt lat="47.536494" lon="13.423045"><ele>731.2</ele><time>2021-08-03T05:41:39Z</time></trkpt><trkpt lat="47.536479" lon="13.422952"><ele>731.2</ele></trkpt><trkpt lat="47.536513" lon="13.422853"><ele>732.56</ele></trkpt><trkpt lat="47.536565" lon="13.422781"><ele>732.83</ele></trkpt><trkpt lat="47.5369" lon="13.422551"><ele>734.6</ele></trkpt><trkpt lat="47.537306" lon="13.422338"><ele>742.3</ele></trkpt><trkpt lat="47.537466" lon="13.422236"><ele>741.4</ele></trkpt><trkpt lat="47.537513" lon="13.422186"><ele>740.83</ele></trkpt><trkpt lat="47.537543" lon="13.422184"><ele>742.4</ele><time>2021-08-03T05:42:16Z</time></trkpt><trkpt lat="47.537594" lon="13.422234"><ele>742.4</ele></trkpt><trkpt lat="47.537625" lon="13.422304"><ele>742.4</ele><time>2021-08-03T05:42:19Z</time></trkpt><trkpt lat="47.538329" lon="13.421695"><ele>743.75</ele></trkpt><trkpt lat="47.538461" lon="13.421654"><ele>747.16</ele></trkpt><trkpt lat="47.538583" lon="13.421667"><ele>744.4</ele></trkpt><trkpt lat="47.538713" lon="13.421716"><ele>744.4</ele></trkpt><trkpt lat="47.538825" lon="13.421812"><ele>744.4</ele></trkpt><trkpt lat="47.538941" lon="13.421956"><ele>744.4</ele></trkpt><trkpt lat="47.539109" lon="13.422111"><ele>745.48</ele></trkpt><trkpt lat="47.539263" lon="13.422187"><ele>745.55</ele></trkpt><trkpt lat="47.540137" lon="13.422476"><ele>745.73</ele></trkpt><trkpt lat="47.540234" lon="13.422488"><ele>745.78</ele></trkpt><trkpt lat="47.540348" lon="13.422433"><ele>745.97</ele></trkpt><trkpt lat="47.540412" lon="13.422314"><ele>746.2</ele></trkpt><trkpt lat="47.540476" lon="13.421958"><ele>746.78</ele></trkpt><trkpt lat="47.54053" lon="13.421825"><ele>746.75</ele></trkpt><trkpt lat="47.54062" lon="13.421733"><ele>746.71</ele></trkpt><trkpt lat="47.540705" lon="13.421738"><ele>746.68</ele></trkpt><trkpt lat="47.540816" lon="13.421777"><ele>746.65</ele></trkpt><trkpt lat="47.541139" lon="13.421981"><ele>746.61</ele></trkpt><trkpt lat="47.541399" lon="13.422018"><ele>746.58</ele></trkpt><trkpt lat="47.54155" lon="13.421999"><ele>746.57</ele></trkpt><trkpt lat="47.541654" lon="13.421897"><ele>746.56</ele></trkpt><trkpt lat="47.541726" lon="13.421725"><ele>750.2</ele></trkpt><trkpt lat="47.541829" lon="13.421321"><ele>751.62</ele></trkpt><trkpt lat="47.541908" lon="13.420847"><ele>751.18</ele></trkpt><trkpt lat="47.541959" lon="13.420704"><ele>751.78</ele></trkpt><trkpt lat="47.542037" lon="13.420651"><ele>752.33</ele></trkpt><trkpt lat="47.54215" lon="13.420637"><ele>752.85</ele></trkpt><trkpt lat="47.542418" lon="13.420721"><ele>753.76</ele></trkpt><trkpt lat="47.542621" lon="13.420745"><ele>753.08</ele></trkpt><trkpt lat="47.542756" lon="13.420688"><ele>749.2</ele></trkpt><trkpt lat="47.543199" lon="13.420335"><ele>746.3</ele></trkpt><trkpt lat="47.543403" lon="13.420222"><ele>745.45</ele></trkpt><trkpt lat="47.54358" lon="13.420093"><ele>744.06</ele></trkpt><trkpt lat="47.543683" lon="13.419977"><ele>743.94</ele></trkpt><trkpt lat="47.544068" lon="13.419424"><ele>742.63</ele></trkpt><trkpt lat="47.54458" lon="13.418833"><ele>730.4</ele></trkpt><trkpt lat="47.544692" lon="13.418667"><ele>730.4</ele></trkpt><trkpt lat="47.544779" lon="13.418472"><ele>730.4</ele></trkpt><trkpt lat="47.544903" lon="13.418011"><ele>729.0</ele></trkpt><trkpt lat="47.545074" lon="13.416573"><ele>725.9</ele></trkpt><trkpt lat="47.545152" lon="13.41603"><ele>722.8</ele></trkpt><trkpt lat="47.545624" lon="13.413615"><ele>714.8</ele></trkpt><trkpt lat="47.545704" lon="13.413361"><ele>714.8</ele></trkpt><trkpt lat="47.545796" lon="13.413137"><ele>716.33</ele></trkpt><trkpt lat="47.545974" lon="13.412845"><ele>704.8</ele></trkpt><trkpt lat="47.546115" lon="13.412674"><ele>712.52</ele></trkpt><trkpt lat="47.546302" lon="13.412501"><ele>713.13</ele></trkpt><trkpt lat="47.546446" lon="13.412407"><ele>714.4</ele></trkpt><trkpt lat="47.546677" lon="13.412309"><ele>714.86</ele></trkpt><trkpt lat="47.546896" lon="13.412274"><ele>715.27</ele></trkpt><trkpt lat="47.547146" lon="13.412272"><ele>715.65</ele></trkpt><trkpt lat="47.547433" lon="13.412321"><ele>717.22</ele></trkpt><trkpt lat="47.547636" lon="13.412382"><ele>726.4</ele></trkpt><trkpt lat="47.547907" lon="13.412497"><ele>717.78</ele></trkpt><trkpt lat="47.548293" lon="13.412748"><ele>703.4</ele><time>2021-08-03T05:48:04Z</time></trkpt><trkpt lat="47.54826" lon="13.412895"><ele>702.25</ele></trkpt><trkpt lat="47.548261" lon="13.413008"><ele>702.31</ele></trkpt><trkpt lat="47.548278" lon="13.41307"><ele>702.22</ele></trkpt><trkpt lat="47.548315" lon="13.413117"><ele>702.28</ele></trkpt><trkpt lat="47.548589" lon="13.413211"><ele>702.79</ele></trkpt><trkpt lat="47.548703" lon="13.413301"><ele>703.07</ele></trkpt><trkpt lat="47.548883" lon="13.413536"><ele>702.41</ele></trkpt><trkpt lat="47.549007" lon="13.413826"><ele>701.82</ele></trkpt><trkpt lat="47.54908" lon="13.413921"><ele>701.54</ele></trkpt><trkpt lat="47.549169" lon="13.413982"><ele>701.19</ele></trkpt><trkpt lat="47.549274" lon="13.413993"><ele>700.86</ele></trkpt><trkpt lat="47.549375" lon="13.413956"><ele>700.24</ele></trkpt><trkpt lat="47.54959" lon="13.413783"><ele>694.2</ele></trkpt><trkpt lat="47.549704" lon="13.413664"><ele>695.42</ele></trkpt><trkpt lat="47.549936" lon="13.413351"><ele>695.23</ele></trkpt><trkpt lat="47.55019" lon="13.412863"><ele>694.85</ele></trkpt><trkpt lat="47.550337" lon="13.412651"><ele>694.65</ele></trkpt><trkpt lat="47.550762" lon="13.41221"><ele>701.2</ele></trkpt><trkpt lat="47.551447" lon="13.411341"><ele>701.71</ele></trkpt><trkpt lat="47.551554" lon="13.411239"><ele>701.89</ele></trkpt><trkpt lat="47.551766" lon="13.411088"><ele>701.42</ele></trkpt><trkpt lat="47.552431" lon="13.410832"><ele>702.33</ele></trkpt><trkpt lat="47.55269" lon="13.410674"><ele>702.67</ele></trkpt><trkpt lat="47.552809" lon="13.41065"><ele>702.76</ele></trkpt><trkpt lat="47.553246" lon="13.410728"><ele>704.05</ele></trkpt><trkpt lat="47.553413" lon="13.410686"><ele>704.3</ele></trkpt><trkpt lat="47.553503" lon="13.410631"><ele>704.75</ele></trkpt><trkpt lat="47.553837" lon="13.410307"><ele>704.48</ele></trkpt><trkpt lat="47.55421" lon="13.409873"><ele>704.91</ele></trkpt><trkpt lat="47.554307" lon="13.409783"><ele>705.07</ele></trkpt><trkpt lat="47.554407" lon="13.409728"><ele>705.23</ele></trkpt><trkpt lat="47.554507" lon="13.409733"><ele>705.41</ele></trkpt><trkpt lat="47.554569" lon="13.409758"><ele>705.84</ele></trkpt><trkpt lat="47.554641" lon="13.409837"><ele>706.29</ele></trkpt><trkpt lat="47.554826" lon="13.410245"><ele>704.33</ele></trkpt><trkpt lat="47.554873" lon="13.410292"><ele>704.26</ele></trkpt><trkpt lat="47.554976" lon="13.41031"><ele>704.2</ele></trkpt><trkpt lat="47.555164" lon="13.410266"><ele>704.6</ele></trkpt><trkpt lat="47.555553" lon="13.410057"><ele>705.03</ele></trkpt><trkpt lat="47.555764" lon="13.409907"><ele>704.67</ele></trkpt><trkpt lat="47.556202" lon="13.409455"><ele>703.85</ele></trkpt><trkpt lat="47.556833" lon="13.409081"><ele>702.0</ele></trkpt><trkpt lat="47.557074" lon="13.408892"><ele>701.87</ele></trkpt><trkpt lat="47.557396" lon="13.408558"><ele>701.3</ele></trkpt><trkpt lat="47.557539" lon="13.408334"><ele>702.34</ele></trkpt><trkpt lat="47.557633" lon="13.408112"><ele>702.84</ele></trkpt><trkpt lat="47.557737" lon="13.407698"><ele>703.5</ele></trkpt><trkpt lat="47.557758" lon="13.407523"><ele>703.87</ele></trkpt><trkpt lat="47.557721" lon="13.406887"><ele>701.47</ele></trkpt><trkpt lat="47.557869" lon="13.405603"><ele>695.14</ele></trkpt><trkpt lat="47.557931" lon="13.405338"><ele>692.2</ele></trkpt><trkpt lat="47.557989" lon="13.405276"><ele>690.54</ele></trkpt><trkpt lat="47.558127" lon="13.405221"><ele>683.6</ele></trkpt><trkpt lat="47.558371" lon="13.405174"><ele>690.51</ele></trkpt><trkpt lat="47.558694" lon="13.40515"><ele>690.81</ele></trkpt><trkpt lat="47.558884" lon="13.405099"><ele>690.87</ele></trkpt><trkpt lat="47.559169" lon="13.404988"><ele>690.95</ele></trkpt><trkpt lat="47.559299" lon="13.404878"><ele>690.97</ele></trkpt><trkpt lat="47.559396" lon="13.404741"><ele>690.98</ele></trkpt><trkpt lat="47.559462" lon="13.404567"><ele>691.34</ele></trkpt><trkpt lat="47.559497" lon="13.404363"><ele>691.28</ele></trkpt><trkpt lat="47.559511" lon="13.403874"><ele>690.52</ele></trkpt><trkpt lat="47.55956" lon="13.403613"><ele>689.96</ele></trkpt><trkpt lat="47.559671" lon="13.403385"><ele>689.63</ele></trkpt><trkpt lat="47.559776" lon="13.403262"><ele>689.31</ele></trkpt><trkpt lat="47.559937" lon="13.403189"><ele>688.99</ele></trkpt><trkpt lat="47.560409" lon="13.403063"><ele>688.02</ele></trkpt><trkpt lat="47.560537" lon="13.402993"><ele>687.66</ele></trkpt><trkpt lat="47.560653" lon="13.402894"><ele>687.39</ele></trkpt><trkpt lat="47.560747" lon="13.402759"><ele>687.5</ele></trkpt><trkpt lat="47.560936" lon="13.402384"><ele>688.49</ele></trkpt><trkpt lat="47.561066" lon="13.401982"><ele>688.94</ele></trkpt><trkpt lat="47.561632" lon="13.399942"><ele>681.22</ele></trkpt><trkpt lat="47.561748" lon="13.399573"><ele>680.85</ele></trkpt><trkpt lat="47.561907" lon="13.399313"><ele>679.28</ele></trkpt><trkpt lat="47.5621" lon="13.399078"><ele>675.6</ele></trkpt><trkpt lat="47.562538" lon="13.398645"><ele>674.06</ele></trkpt><trkpt lat="47.562717" lon="13.39844"><ele>674.07</ele></trkpt><trkpt lat="47.562917" lon="13.398188"><ele>673.93</ele></trkpt><trkpt lat="47.56306" lon="13.397976"><ele>673.81</ele></trkpt><trkpt lat="47.563214" lon="13.397845"><ele>673.46</ele></trkpt><trkpt lat="47.563522" lon="13.397798"><ele>671.8</ele></trkpt><trkpt lat="47.56367" lon="13.397812"><ele>671.8</ele></trkpt><trkpt lat="47.563997" lon="13.397923"><ele>671.8</ele><time>2021-08-03T05:56:17Z</time></trkpt><trkpt lat="47.564174" lon="13.397737"><ele>677.51</ele></trkpt><trkpt lat="47.564275" lon="13.397586"><ele>679.39</ele></trkpt><trkpt lat="47.564326" lon="13.397394"><ele>670.6</ele></trkpt><trkpt lat="47.564352" lon="13.397041"><ele>670.6</ele></trkpt><trkpt lat="47.564406" lon="13.396828"><ele>670.6</ele></trkpt><trkpt lat="47.564514" lon="13.396647"><ele>670.6</ele></trkpt><trkpt lat="47.564663" lon="13.39653"><ele>670.15</ele></trkpt><trkpt lat="47.565082" lon="13.39628"><ele>670.11</ele></trkpt><trkpt lat="47.565164" lon="13.396264"><ele>670.0</ele></trkpt><trkpt lat="47.565438" lon="13.396267"><ele>669.7</ele></trkpt><trkpt lat="47.566077" lon="13.395976"><ele>672.2</ele></trkpt><trkpt lat="47.567254" lon="13.395168"><ele>667.71</ele></trkpt><trkpt lat="47.567997" lon="13.3945"><ele>664.6</ele></trkpt><trkpt lat="47.568289" lon="13.394033"><ele>661.8</ele></trkpt><trkpt lat="47.568781" lon="13.393375"><ele>660.72</ele></trkpt><trkpt lat="47.568953" lon="13.393182"><ele>660.88</ele></trkpt><trkpt lat="47.569148" lon="13.393025"><ele>660.43</ele></trkpt><trkpt lat="47.570678" lon="13.392088"><ele>655.72</ele></trkpt><trkpt lat="47.570856" lon="13.391907"><ele>656.25</ele></trkpt><trkpt lat="47.570969" lon="13.391717"><ele>657.23</ele></trkpt><trkpt lat="47.571443" lon="13.39079"><ele>654.39</ele></trkpt><trkpt lat="47.572086" lon="13.38949"><ele>647.14</ele></trkpt><trkpt lat="47.572287" lon="13.389201"><ele>644.6</ele><time>2021-08-03T06:00:15Z</time></trkpt><trkpt lat="47.572498" lon="13.389532"><ele>649.48</ele></trkpt><trkpt lat="47.572592" lon="13.389779"><ele>650.68</ele></trkpt><trkpt lat="47.572624" lon="13.389982"><ele>651.62</ele></trkpt><trkpt lat="47.572627" lon="13.390114"><ele>651.83</ele></trkpt><trkpt lat="47.572578" lon="13.390893"><ele>652.86</ele></trkpt><trkpt lat="47.572585" lon="13.39107"><ele>653.01</ele></trkpt><trkpt lat="47.572642" lon="13.391372"><ele>654.02</ele></trkpt><trkpt lat="47.572796" lon="13.391691"><ele>660.29</ele></trkpt><trkpt lat="47.573149" lon="13.392092"><ele>662.84</ele></trkpt><trkpt lat="47.573447" lon="13.392498"><ele>664.2</ele></trkpt><trkpt lat="47.57352" lon="13.39266"><ele>665.12</ele></trkpt><trkpt lat="47.573621" lon="13.392989"><ele>668.36</ele></trkpt><trkpt lat="47.573615" lon="13.39305"><ele>668.75</ele></trkpt><trkpt lat="47.573581" lon="13.393097"><ele>669.15</ele></trkpt><trkpt lat="47.57354" lon="13.393107"><ele>671.41</ele></trkpt><trkpt lat="47.573392" lon="13.393025"><ele>684.53</ele></trkpt><trkpt lat="47.573293" lon="13.393038"><ele>684.99</ele></trkpt><trkpt lat="47.573231" lon="13.393097"><ele>688.03</ele></trkpt><trkpt lat="47.572944" lon="13.393651"><ele>690.99</ele></trkpt><trkpt lat="47.572816" lon="13.393828"><ele>691.59</ele></trkpt><trkpt lat="47.572562" lon="13.394123"><ele>694.59</ele></trkpt><trkpt lat="47.572471" lon="13.394264"><ele>696.78</ele></trkpt><trkpt lat="47.572456" lon="13.394331"><ele>697.05</ele></trkpt><trkpt lat="47.572455" lon="13.3944"><ele>697.32</ele></trkpt><trkpt lat="47.572485" lon="13.394443"><ele>698.26</ele></trkpt><trkpt lat="47.572543" lon="13.394463"><ele>702.54</ele></trkpt><trkpt lat="47.572884" lon="13.394234"><ele>698.4</ele></trkpt><trkpt lat="47.572973" lon="13.394148"><ele>693.68</ele></trkpt><trkpt lat="47.57319" lon="13.393864"><ele>692.3</ele></trkpt><trkpt lat="47.573268" lon="13.393848"><ele>692.53</ele></trkpt><trkpt lat="47.573297" lon="13.393874"><ele>692.64</ele></trkpt><trkpt lat="47.573345" lon="13.394418"><ele>700.05</ele></trkpt><trkpt lat="47.573334" lon="13.394485"><ele>700.29</ele></trkpt><trkpt lat="47.57331" lon="13.39452"><ele>701.04</ele></trkpt><trkpt lat="47.573228" lon="13.394563"><ele>701.06</ele></trkpt><trkpt lat="47.573136" lon="13.394581"><ele>701.94</ele></trkpt><trkpt lat="47.57309" lon="13.394616"><ele>701.98</ele></trkpt><trkpt lat="47.573076" lon="13.394664"><ele>702.01</ele></trkpt><trkpt lat="47.573077" lon="13.394728"><ele>703.04</ele></trkpt><trkpt lat="47.573102" lon="13.394779"><ele>703.59</ele></trkpt><trkpt lat="47.573259" lon="13.394825"><ele>703.7</ele></trkpt><trkpt lat="47.5733" lon="13.39488"><ele>704.24</ele></trkpt><trkpt lat="47.573321" lon="13.394968"><ele>706.64</ele></trkpt><trkpt lat="47.573288" lon="13.395047"><ele>709.72</ele></trkpt><trkpt lat="47.573245" lon="13.395054"><ele>710.03</ele></trkpt><trkpt lat="47.573115" lon="13.39495"><ele>707.84</ele></trkpt><trkpt lat="47.573048" lon="13.394926"><ele>708.3</ele></trkpt><trkpt lat="47.573011" lon="13.394955"><ele>710.19</ele></trkpt><trkpt lat="47.572998" lon="13.394991"><ele>710.67</ele></trkpt><trkpt lat="47.573013" lon="13.395109"><ele>711.44</ele></trkpt><trkpt lat="47.573101" lon="13.39526"><ele>711.73</ele></trkpt><trkpt lat="47.573134" lon="13.39538"><ele>711.71</ele></trkpt><trkpt lat="47.573258" lon="13.396008"><ele>717.4</ele></trkpt><trkpt lat="47.573253" lon="13.396071"><ele>717.22</ele></trkpt><trkpt lat="47.573234" lon="13.396117"><ele>717.46</ele></trkpt><trkpt lat="47.573151" lon="13.39612"><ele>717.11</ele></trkpt><trkpt lat="47.573043" lon="13.395918"><ele>716.33</ele></trkpt><trkpt lat="47.572973" lon="13.39582"><ele>715.72</ele></trkpt><trkpt lat="47.572904" lon="13.395782"><ele>715.36</ele></trkpt><trkpt lat="47.57285" lon="13.395779"><ele>715.81</ele></trkpt><trkpt lat="47.572787" lon="13.395812"><ele>716.28</ele></trkpt><trkpt lat="47.572744" lon="13.395872"><ele>716.34</ele></trkpt><trkpt lat="47.572727" lon="13.395973"><ele>716.55</ele></trkpt><trkpt lat="47.572742" lon="13.396076"><ele>716.69</ele></trkpt><trkpt lat="47.572826" lon="13.396247"><ele>716.49</ele></trkpt><trkpt lat="47.5729" lon="13.396515"><ele>717.57</ele></trkpt><trkpt lat="47.572896" lon="13.396671"><ele>718.39</ele></trkpt><trkpt lat="47.572846" lon="13.396755"><ele>718.82</ele></trkpt><trkpt lat="47.572789" lon="13.396774"><ele>718.68</ele></trkpt><trkpt lat="47.572731" lon="13.396741"><ele>718.19</ele></trkpt><trkpt lat="47.572529" lon="13.396518"><ele>717.14</ele></trkpt><trkpt lat="47.572381" lon="13.39645"><ele>717.01</ele></trkpt><trkpt lat="47.57232" lon="13.396459"><ele>716.71</ele></trkpt><trkpt lat="47.572252" lon="13.396501"><ele>716.79</ele></trkpt><trkpt lat="47.57215" lon="13.396612"><ele>736.0</ele></trkpt><trkpt lat="47.572099" lon="13.396846"><ele>758.08</ele></trkpt><trkpt lat="47.571991" lon="13.397946"><ele>759.49</ele></trkpt><trkpt lat="47.571969" lon="13.398059"><ele>759.62</ele></trkpt><trkpt lat="47.571904" lon="13.398199"><ele>759.9</ele></trkpt><trkpt lat="47.57184" lon="13.398235"><ele>761.02</ele></trkpt><trkpt lat="47.571799" lon="13.398225"><ele>761.22</ele></trkpt><trkpt lat="47.571505" lon="13.39799"><ele>762.28</ele></trkpt><trkpt lat="47.571429" lon="13.397946"><ele>762.21</ele></trkpt><trkpt lat="47.571282" lon="13.397906"><ele>762.67</ele></trkpt><trkpt lat="47.571115" lon="13.397934"><ele>763.83</ele></trkpt><trkpt lat="47.570918" lon="13.398036"><ele>764.12</ele></trkpt><trkpt lat="47.570722" lon="13.39817"><ele>764.14</ele></trkpt><trkpt lat="47.570418" lon="13.39847"><ele>767.58</ele></trkpt><trkpt lat="47.570135" lon="13.398852"><ele>773.55</ele></trkpt><trkpt lat="47.56948" lon="13.399826"><ele>783.44</ele></trkpt><trkpt lat="47.569413" lon="13.399975"><ele>785.63</ele></trkpt><trkpt lat="47.569376" lon="13.40015"><ele>787.78</ele></trkpt><trkpt lat="47.569358" lon="13.40039"><ele>787.65</ele></trkpt><trkpt lat="47.569311" lon="13.402128"><ele>803.45</ele></trkpt><trkpt lat="47.569263" lon="13.40253"><ele>806.82</ele></trkpt><trkpt lat="47.569273" lon="13.402789"><ele>806.58</ele></trkpt><trkpt lat="47.569316" lon="13.40292"><ele>806.43</ele></trkpt><trkpt lat="47.5694" lon="13.40304"><ele>806.1</ele></trkpt><trkpt lat="47.569671" lon="13.403255"><ele>808.0</ele></trkpt><trkpt lat="47.569968" lon="13.403459"><ele>806.17</ele></trkpt><trkpt lat="47.570268" lon="13.403706"><ele>804.87</ele></trkpt><trkpt lat="47.570335" lon="13.40379"><ele>804.98</ele></trkpt><trkpt lat="47.570425" lon="13.403964"><ele>805.24</ele></trkpt><trkpt lat="47.570475" lon="13.404168"><ele>811.04</ele></trkpt><trkpt lat="47.570491" lon="13.40428"><ele>810.69</ele></trkpt><trkpt lat="47.570484" lon="13.40451"><ele>810.27</ele></trkpt><trkpt lat="47.570408" lon="13.405111"><ele>818.72</ele></trkpt><trkpt lat="47.570394" lon="13.405439"><ele>818.07</ele></trkpt><trkpt lat="47.570465" lon="13.406694"><ele>833.8</ele></trkpt><trkpt lat="47.570441" lon="13.406893"><ele>833.8</ele></trkpt><trkpt lat="47.570247" lon="13.40761"><ele>837.8</ele></trkpt><trkpt lat="47.570238" lon="13.407732"><ele>837.67</ele></trkpt><trkpt lat="47.570252" lon="13.407833"><ele>837.51</ele></trkpt><trkpt lat="47.570299" lon="13.407891"><ele>837.33</ele></trkpt><trkpt lat="47.570341" lon="13.407912"><ele>838.6</ele></trkpt><trkpt lat="47.570386" lon="13.407902"><ele>834.42</ele></trkpt><trkpt lat="47.570503" lon="13.407832"><ele>833.93</ele></trkpt><trkpt lat="47.570884" lon="13.407478"><ele>833.4</ele></trkpt><trkpt lat="47.570979" lon="13.407419"><ele>833.82</ele></trkpt><trkpt lat="47.571125" lon="13.407424"><ele>834.74</ele></trkpt><trkpt lat="47.571197" lon="13.407488"><ele>835.23</ele></trkpt><trkpt lat="47.571247" lon="13.407589"><ele>835.76</ele></trkpt><trkpt lat="47.571328" lon="13.408027"><ele>835.87</ele></trkpt><trkpt lat="47.571375" lon="13.408185"><ele>835.93</ele></trkpt><trkpt lat="47.571463" lon="13.408335"><ele>836.06</ele></trkpt><trkpt lat="47.571539" lon="13.408402"><ele>835.58</ele></trkpt><trkpt lat="47.5717" lon="13.408478"><ele>834.2</ele><time>2021-08-03T06:08:39Z</time></trkpt><trkpt lat="47.571704" lon="13.40858"><ele>834.2</ele></trkpt><trkpt lat="47.571734" lon="13.408725"><ele>834.2</ele></trkpt><trkpt lat="47.571788" lon="13.408888"><ele>834.2</ele><time>2021-08-03T06:08:47Z</time></trkpt><trkpt lat="47.571765" lon="13.408995"><ele>834.2</ele></trkpt><trkpt lat="47.571713" lon="13.409052"><ele>834.2</ele><time>2021-08-03T06:08:51Z</time></trkpt><trkpt lat="47.571485" lon="13.409001"><ele>852.6</ele></trkpt><trkpt lat="47.571358" lon="13.409039"><ele>853.6</ele></trkpt><trkpt lat="47.571222" lon="13.40914"><ele>854.72</ele></trkpt><trkpt lat="47.571121" lon="13.409312"><ele>855.99</ele></trkpt><trkpt lat="47.570806" lon="13.410163"><ele>856.14</ele></trkpt><trkpt lat="47.570765" lon="13.410334"><ele>854.91</ele></trkpt><trkpt lat="47.570775" lon="13.410432"><ele>866.0</ele><time>2021-08-03T06:09:37Z</time></trkpt><trkpt lat="47.570815" lon="13.410478"><ele>867.4</ele></trkpt><trkpt lat="47.571005" lon="13.410536"><ele>868.01</ele></trkpt><trkpt lat="47.571087" lon="13.410603"><ele>868.54</ele></trkpt><trkpt lat="47.571148" lon="13.410696"><ele>869.12</ele></trkpt><trkpt lat="47.571189" lon="13.410805"><ele>871.02</ele></trkpt><trkpt lat="47.571221" lon="13.410952"><ele>871.75</ele></trkpt><trkpt lat="47.571286" lon="13.411956"><ele>874.41</ele></trkpt><trkpt lat="47.571284" lon="13.412246"><ele>874.13</ele></trkpt><trkpt lat="47.571128" lon="13.413367"><ele>896.29</ele></trkpt><trkpt lat="47.571059" lon="13.413695"><ele>897.8</ele></trkpt><trkpt lat="47.57086" lon="13.414226"><ele>902.84</ele></trkpt><trkpt lat="47.570757" lon="13.414419"><ele>905.47</ele></trkpt><trkpt lat="47.570651" lon="13.414518"><ele>907.22</ele></trkpt><trkpt lat="47.570521" lon="13.414525"><ele>907.05</ele></trkpt><trkpt lat="47.570238" lon="13.414412"><ele>906.69</ele></trkpt><trkpt lat="47.570134" lon="13.414428"><ele>906.48</ele></trkpt><trkpt lat="47.570026" lon="13.414553"><ele>907.24</ele></trkpt><trkpt lat="47.569913" lon="13.414842"><ele>912.93</ele><time>2021-08-03T06:11:35Z</time></trkpt></trkseg><trkseg><trkpt lat="47.569913" lon="13.414842"><ele>912.93</ele><time>2021-08-03T05:27:09Z</time></trkpt><trkpt lat="47.569717" lon="13.415336"><ele>918.62</ele></trkpt><trkpt lat="47.569297" lon="13.416287"><ele>939.46</ele></trkpt><trkpt lat="47.568976" lon="13.416882"><ele>942.05</ele></trkpt><trkpt lat="47.568931" lon="13.41703"><ele>944.0</ele></trkpt><trkpt lat="47.568915" lon="13.417191"><ele>944.15</ele></trkpt><trkpt lat="47.568971" lon="13.418127"><ele>943.41</ele></trkpt><trkpt lat="47.568961" lon="13.418217"><ele>947.6</ele><time>2021-08-03T05:28:24Z</time></trkpt><trkpt lat="47.56898" lon="13.419094"><ele>960.12</ele></trkpt><trkpt lat="47.569023" lon="13.419881"><ele>961.07</ele></trkpt><trkpt lat="47.56906" lon="13.420222"><ele>962.43</ele></trkpt><trkpt lat="47.569209" lon="13.420675"><ele>962.8</ele></trkpt><trkpt lat="47.569301" lon="13.42115"><ele>966.67</ele></trkpt><trkpt lat="47.569526" lon="13.421632"><ele>970.19</ele></trkpt><trkpt lat="47.569595" lon="13.421813"><ele>971.07</ele></trkpt><trkpt lat="47.569629" lon="13.421995"><ele>972.78</ele></trkpt><trkpt lat="47.569658" lon="13.422156"><ele>974.52</ele></trkpt><trkpt lat="47.569673" lon="13.422352"><ele>976.92</ele></trkpt><trkpt lat="47.569676" lon="13.423177"><ele>984.25</ele></trkpt><trkpt lat="47.569722" lon="13.423827"><ele>987.71</ele></trkpt><trkpt lat="47.569755" lon="13.424086"><ele>988.07</ele></trkpt><trkpt lat="47.569791" lon="13.424339"><ele>988.79</ele></trkpt><trkpt lat="47.569854" lon="13.424619"><ele>989.34</ele></trkpt><trkpt lat="47.570108" lon="13.425302"><ele>989.97</ele></trkpt><trkpt lat="47.570209" lon="13.425749"><ele>992.83</ele></trkpt><trkpt lat="47.570267" lon="13.426308"><ele>995.06</ele></trkpt><trkpt lat="47.570304" lon="13.427025"><ele>999.04</ele></trkpt><trkpt lat="47.570334" lon="13.42852"><ele>1011.21</ele></trkpt><trkpt lat="47.570322" lon="13.428863"><ele>1015.87</ele></trkpt><trkpt lat="47.570274" lon="13.429324"><ele>1025.38</ele></trkpt><trkpt lat="47.570212" lon="13.429618"><ele>1030.78</ele></trkpt><trkpt lat="47.570122" lon="13.429945"><ele>1036.57</ele></trkpt><trkpt lat="47.569852" lon="13.430604"><ele>1044.49</ele></trkpt><trkpt lat="47.569803" lon="13.430786"><ele>1045.21</ele></trkpt><trkpt lat="47.569751" lon="13.431085"><ele>1045.61</ele></trkpt><trkpt lat="47.569724" lon="13.431153"><ele>1046.34</ele></trkpt><trkpt lat="47.569568" lon="13.43139"><ele>1046.71</ele></trkpt><trkpt lat="47.569352" lon="13.431634"><ele>1046.63</ele></trkpt><trkpt lat="47.569324" lon="13.43169"><ele>1046.43</ele></trkpt><trkpt lat="47.569304" lon="13.431766"><ele>1046.34</ele></trkpt><trkpt lat="47.569309" lon="13.431956"><ele>1046.39</ele></trkpt><trkpt lat="47.569399" lon="13.432212"><ele>1046.19</ele></trkpt><trkpt lat="47.569441" lon="13.432285"><ele>1048.2</ele><time>2021-08-03T05:34:05Z</time></trkpt><trkpt lat="47.569404" lon="13.432363"><ele>1055.34</ele></trkpt><trkpt lat="47.569394" lon="13.432478"><ele>1055.89</ele></trkpt><trkpt lat="47.569429" lon="13.432796"><ele>1058.52</ele></trkpt><trkpt lat="47.569395" lon="13.433134"><ele>1060.92</ele></trkpt><trkpt lat="47.569421" lon="13.433307"><ele>1062.2</ele></trkpt><trkpt lat="47.569579" lon="13.433936"><ele>1064.28</ele></trkpt><trkpt lat="47.569701" lon="13.435004"><ele>1069.15</ele></trkpt><trkpt lat="47.569723" lon="13.435494"><ele>1069.42</ele></trkpt><trkpt lat="47.569711" lon="13.435826"><ele>1071.11</ele><time>2021-08-03T05:35:27Z</time></trkpt></trkseg><trkseg><trkpt lat="47.569711" lon="13.435826"><ele>1071.11</ele><time>2021-08-03T05:27:09Z</time></trkpt><trkpt lat="47.5697" lon="13.436124"><ele>1072.79</ele></trkpt><trkpt lat="47.569625" lon="13.436581"><ele>1074.7</ele></trkpt><trkpt lat="47.569576" lon="13.436747"><ele>1075.12</ele></trkpt><trkpt lat="47.569139" lon="13.437427"><ele>1080.23</ele></trkpt><trkpt lat="47.568971" lon="13.437733"><ele>1079.81</ele></trkpt><trkpt lat="47.568799" lon="13.438104"><ele>1095.2</ele><time>2021-08-03T05:28:12Z</time></trkpt><trkpt lat="47.568424" lon="13.438849"><ele>1097.51</ele></trkpt><trkpt lat="47.568151" lon="13.43989"><ele>1096.34</ele></trkpt><trkpt lat="47.568055" lon="13.440184"><ele>1096.32</ele></trkpt><trkpt lat="47.567921" lon="13.440517"><ele>1096.19</ele></trkpt><trkpt lat="47.567816" lon="13.44073"><ele>1095.95</ele></trkpt><trkpt lat="47.567491" lon="13.441213"><ele>1098.5</ele><time>2021-08-03T05:29:36Z</time></trkpt></trkseg><trkseg><trkpt lat="47.567491" lon="13.441213"><ele>1098.5</ele><time>2021-08-03T05:27:09Z</time></trkpt><trkpt lat="47.567271" lon="13.441514"><ele>1102.15</ele></trkpt><trkpt lat="47.567102" lon="13.441667"><ele>1102.48</ele></trkpt><trkpt lat="47.566711" lon="13.441874"><ele>1107.54</ele></trkpt><trkpt lat="47.566586" lon="13.441969"><ele>1110.24</ele></trkpt><trkpt lat="47.566286" lon="13.44231"><ele>1112.07</ele></trkpt><trkpt lat="47.566114" lon="13.442461"><ele>1115.08</ele></trkpt><trkpt lat="47.565926" lon="13.442589"><ele>1116.92</ele></trkpt><trkpt lat="47.565745" lon="13.442663"><ele>1120.58</ele></trkpt><trkpt lat="47.565554" lon="13.442713"><ele>1122.87</ele></trkpt><trkpt lat="47.565374" lon="13.442726"><ele>1124.74</ele></trkpt><trkpt lat="47.565221" lon="13.442696"><ele>1125.96</ele></trkpt><trkpt lat="47.565105" lon="13.442716"><ele>1126.98</ele></trkpt><trkpt lat="47.564968" lon="13.442792"><ele>1127.3</ele></trkpt><trkpt lat="47.564548" lon="13.443101"><ele>1126.22</ele></trkpt><trkpt lat="47.564079" lon="13.443248"><ele>1123.8</ele></trkpt><trkpt lat="47.563734" lon="13.443473"><ele>1122.93</ele></trkpt><trkpt lat="47.563164" lon="13.443575"><ele>1122.69</ele></trkpt><trkpt lat="47.563119" lon="13.443558"><ele>1122.92</ele></trkpt><trkpt lat="47.563076" lon="13.443498"><ele>1123.01</ele></trkpt><trkpt lat="47.563" lon="13.443272"><ele>1123.56</ele></trkpt><trkpt lat="47.562722" lon="13.442707"><ele>1126.0</ele></trkpt><trkpt lat="47.5626" lon="13.442544"><ele>1126.05</ele></trkpt><trkpt lat="47.562148" lon="13.442174"><ele>1129.89</ele></trkpt><trkpt lat="47.562005" lon="13.442024"><ele>1130.3</ele></trkpt><trkpt lat="47.561841" lon="13.441794"><ele>1130.76</ele></trkpt><trkpt lat="47.561538" lon="13.441438"><ele>1135.4</ele></trkpt><trkpt lat="47.561333" lon="13.441386"><ele>1134.56</ele></trkpt><trkpt lat="47.561201" lon="13.441406"><ele>1134.62</ele></trkpt><trkpt lat="47.561076" lon="13.441476"><ele>1133.89</ele></trkpt><trkpt lat="47.560856" lon="13.441796"><ele>1133.99</ele></trkpt><trkpt lat="47.560661" lon="13.442134"><ele>1134.82</ele></trkpt><trkpt lat="47.560058" lon="13.442585"><ele>1134.24</ele></trkpt><trkpt lat="47.559822" lon="13.442904"><ele>1135.2</ele></trkpt><trkpt lat="47.559661" lon="13.443021"><ele>1134.94</ele></trkpt><trkpt lat="47.559192" lon="13.443421"><ele>1133.0</ele><time>2021-08-03T05:32:35Z</time></trkpt><trkpt lat="47.558667" lon="13.443887"><ele>1142.47</ele></trkpt><trkpt lat="47.557417" lon="13.445374"><ele>1163.11</ele></trkpt><trkpt lat="47.557044" lon="13.445841"><ele>1169.84</ele></trkpt><trkpt lat="47.556585" lon="13.446229"><ele>1174.61</ele></trkpt><trkpt lat="47.556208" lon="13.446649"><ele>1177.9</ele></trkpt><trkpt lat="47.556058" lon="13.446782"><ele>1179.87</ele></trkpt><trkpt lat="47.555982" lon="13.446904"><ele>1180.93</ele></trkpt><trkpt lat="47.555362" lon="13.447467"><ele>1187.16</ele></trkpt><trkpt lat="47.555043" lon="13.447918"><ele>1189.11</ele></trkpt><trkpt lat="47.554724" lon="13.448301"><ele>1200.56</ele></trkpt><trkpt lat="47.554176" lon="13.448731"><ele>1210.83</ele></trkpt><trkpt lat="47.553835" lon="13.448965"><ele>1216.45</ele></trkpt><trkpt lat="47.553581" lon="13.449086"><ele>1218.49</ele><time>2021-08-03T05:36:25Z</time></trkpt></trkseg><trkseg><trkpt lat="47.553581" lon="13.449086"><ele>1218.49</ele><time>2021-08-03T05:27:09Z</time></trkpt><trkpt lat="47.553064" lon="13.449331"><ele>1220.52</ele></trkpt><trkpt lat="47.552878" lon="13.449464"><ele>1221.34</ele></trkpt><trkpt lat="47.552069" lon="13.450186"><ele>1224.4</ele></trkpt><trkpt lat="47.551901" lon="13.450312"><ele>1228.4</ele></trkpt><trkpt lat="47.551777" lon="13.450379"><ele>1229.2</ele></trkpt><trkpt lat="47.551628" lon="13.450428"><ele>1230.16</ele></trkpt><trkpt lat="47.551358" lon="13.450454"><ele>1234.4</ele></trkpt><trkpt lat="47.551236" lon="13.450407"><ele>1234.4</ele></trkpt><trkpt lat="47.551067" lon="13.450288"><ele>1234.4</ele></trkpt><trkpt lat="47.550911" lon="13.450273"><ele>1234.4</ele></trkpt><trkpt lat="47.550647" lon="13.450499"><ele>1237.07</ele></trkpt><trkpt lat="47.550301" lon="13.450719"><ele>1238.0</ele><time>2021-08-03T05:29:10Z</time></trkpt><trkpt lat="47.550261" lon="13.450806"><ele>1230.4</ele></trkpt><trkpt lat="47.550239" lon="13.450921"><ele>1229.89</ele></trkpt><trkpt lat="47.550272" lon="13.451165"><ele>1229.42</ele></trkpt><trkpt lat="47.55035" lon="13.451322"><ele>1229.1</ele></trkpt><trkpt lat="47.550573" lon="13.451628"><ele>1228.74</ele></trkpt><trkpt lat="47.550651" lon="13.451685"><ele>1228.63</ele></trkpt><trkpt lat="47.550766" lon="13.451706"><ele>1228.64</ele></trkpt><trkpt lat="47.551175" lon="13.451718"><ele>1229.03</ele></trkpt><trkpt lat="47.551267" lon="13.451776"><ele>1229.27</ele></trkpt><trkpt lat="47.551324" lon="13.451854"><ele>1229.63</ele></trkpt><trkpt lat="47.551389" lon="13.451996"><ele>1229.85</ele></trkpt><trkpt lat="47.551526" lon="13.452476"><ele>1230.28</ele></trkpt><trkpt lat="47.551519" lon="13.452648"><ele>1230.47</ele></trkpt><trkpt lat="47.551466" lon="13.453056"><ele>1230.67</ele></trkpt><trkpt lat="47.551463" lon="13.453871"><ele>1231.45</ele></trkpt><trkpt lat="47.551412" lon="13.454022"><ele>1241.2</ele></trkpt><trkpt lat="47.550892" lon="13.45489"><ele>1246.83</ele></trkpt><trkpt lat="47.550036" lon="13.456133"><ele>1254.6</ele><time>2021-08-03T05:32:01Z</time></trkpt><trkpt lat="47.549496" lon="13.45695"><ele>1263.09</ele></trkpt><trkpt lat="47.549359" lon="13.457218"><ele>1263.08</ele></trkpt><trkpt lat="47.549314" lon="13.457463"><ele>1263.06</ele></trkpt><trkpt lat="47.549407" lon="13.457727"><ele>1263.0</ele></trkpt><trkpt lat="47.549443" lon="13.457899"><ele>1262.95</ele></trkpt><trkpt lat="47.549446" lon="13.458349"><ele>1263.59</ele></trkpt><trkpt lat="47.549405" lon="13.458762"><ele>1270.62</ele></trkpt><trkpt lat="47.549417" lon="13.458893"><ele>1271.14</ele></trkpt><trkpt lat="47.549464" lon="13.459007"><ele>1272.06</ele></trkpt><trkpt lat="47.549563" lon="13.459163"><ele>1273.24</ele></trkpt><trkpt lat="47.549604" lon="13.459294"><ele>1274.07</ele></trkpt><trkpt lat="47.549614" lon="13.459476"><ele>1274.72</ele></trkpt><trkpt lat="47.549591" lon="13.459688"><ele>1275.35</ele></trkpt><trkpt lat="47.549513" lon="13.460007"><ele>1275.62</ele></trkpt><trkpt lat="47.549484" lon="13.460165"><ele>1275.63</ele></trkpt><trkpt lat="47.549477" lon="13.46029"><ele>1275.64</ele></trkpt><trkpt lat="47.549505" lon="13.460418"><ele>1275.65</ele></trkpt><trkpt lat="47.549645" lon="13.460671"><ele>1276.46</ele></trkpt><trkpt lat="47.549676" lon="13.460764"><ele>1276.83</ele></trkpt><trkpt lat="47.549676" lon="13.460891"><ele>1277.22</ele></trkpt><trkpt lat="47.549611" lon="13.461379"><ele>1277.2</ele></trkpt><trkpt lat="47.549634" lon="13.46148"><ele>1283.2</ele></trkpt><trkpt lat="47.549686" lon="13.46155"><ele>1284.16</ele></trkpt><trkpt lat="47.549829" lon="13.461615"><ele>1284.38</ele></trkpt><trkpt lat="47.550181" lon="13.461608"><ele>1284.89</ele></trkpt><trkpt lat="47.551" lon="13.461456"><ele>1286.78</ele></trkpt><trkpt lat="47.551596" lon="13.461229"><ele>1290.53</ele></trkpt><trkpt lat="47.551807" lon="13.461214"><ele>1290.76</ele></trkpt><trkpt lat="47.55199" lon="13.461236"><ele>1291.17</ele></trkpt><trkpt lat="47.552147" lon="13.461281"><ele>1291.21</ele></trkpt><trkpt lat="47.55227" lon="13.461351"><ele>1291.65</ele></trkpt><trkpt lat="47.552469" lon="13.461548"><ele>1292.33</ele></trkpt><trkpt lat="47.552554" lon="13.461672"><ele>1292.49</ele></trkpt><trkpt lat="47.552637" lon="13.461879"><ele>1292.17</ele></trkpt><trkpt lat="47.552685" lon="13.462062"><ele>1296.0</ele></trkpt><trkpt lat="47.552768" lon="13.462232"><ele>1297.75</ele></trkpt><trkpt lat="47.553" lon="13.462575"><ele>1297.93</ele></trkpt><trkpt lat="47.553217" lon="13.462824"><ele>1297.41</ele></trkpt><trkpt lat="47.553511" lon="13.463062"><ele>1296.94</ele></trkpt><trkpt lat="47.553755" lon="13.463178"><ele>1296.89</ele></trkpt><trkpt lat="47.553908" lon="13.463397"><ele>1296.76</ele></trkpt><trkpt lat="47.553924" lon="13.463619"><ele>1296.6</ele></trkpt><trkpt lat="47.5539" lon="13.46386"><ele>1296.54</ele></trkpt><trkpt lat="47.553793" lon="13.464235"><ele>1297.26</ele></trkpt><trkpt lat="47.553399" lon="13.464997"><ele>1297.56</ele></trkpt><trkpt lat="47.552983" lon="13.465467"><ele>1304.56</ele></trkpt><trkpt lat="47.552268" lon="13.466501"><ele>1310.94</ele><time>2021-08-03T05:38:34Z</time></trkpt></trkseg><trkseg><trkpt lat="47.552268" lon="13.466501"><ele>1310.94</ele><time>2021-08-03T05:27:10Z</time></trkpt><trkpt lat="47.5519" lon="13.467202"><ele>1310.53</ele></trkpt><trkpt lat="47.551561" lon="13.467947"><ele>1310.92</ele></trkpt><trkpt lat="47.551114" lon="13.469261"><ele>1300.6</ele></trkpt><trkpt lat="47.550981" lon="13.470469"><ele>1298.56</ele></trkpt><trkpt lat="47.550836" lon="13.471404"><ele>1293.2</ele></trkpt><trkpt lat="47.550581" lon="13.471792"><ele>1298.56</ele></trkpt><trkpt lat="47.550432" lon="13.472149"><ele>1298.48</ele></trkpt><trkpt lat="47.550189" lon="13.472884"><ele>1301.95</ele></trkpt><trkpt lat="47.549946" lon="13.474081"><ele>1307.63</ele></trkpt><trkpt lat="47.549867" lon="13.474647"><ele>1315.2</ele><time>2021-08-03T05:30:34Z</time></trkpt><trkpt lat="47.549972" lon="13.474623"><ele>1315.57</ele></trkpt><trkpt lat="47.550048" lon="13.474645"><ele>1315.7</ele></trkpt><trkpt lat="47.550125" lon="13.474705"><ele>1316.2</ele><time>2021-08-03T05:30:43Z</time></trkpt><trkpt lat="47.55042" lon="13.474489"><ele>1309.8</ele></trkpt><trkpt lat="47.550753" lon="13.474277"><ele>1305.29</ele></trkpt><trkpt lat="47.551443" lon="13.473916"><ele>1300.44</ele></trkpt><trkpt lat="47.551711" lon="13.473703"><ele>1298.91</ele></trkpt><trkpt lat="47.551964" lon="13.473424"><ele>1299.2</ele></trkpt><trkpt lat="47.552278" lon="13.473225"><ele>1291.2</ele></trkpt><trkpt lat="47.552514" lon="13.473158"><ele>1295.32</ele></trkpt><trkpt lat="47.552608" lon="13.473186"><ele>1296.38</ele></trkpt><trkpt lat="47.552691" lon="13.473265"><ele>1297.17</ele></trkpt><trkpt lat="47.552721" lon="13.473354"><ele>1297.75</ele></trkpt><trkpt lat="47.552791" lon="13.473714"><ele>1298.9</ele></trkpt><trkpt lat="47.552941" lon="13.474048"><ele>1300.48</ele></trkpt><trkpt lat="47.553112" lon="13.474312"><ele>1301.08</ele></trkpt><trkpt lat="47.55328" lon="13.474842"><ele>1302.16</ele></trkpt><trkpt lat="47.553385" lon="13.474975"><ele>1302.43</ele></trkpt><trkpt lat="47.553549" lon="13.475065"><ele>1303.19</ele></trkpt><trkpt lat="47.553729" lon="13.475216"><ele>1303.49</ele></trkpt><trkpt lat="47.553839" lon="13.475452"><ele>1303.45</ele></trkpt><trkpt lat="47.554142" lon="13.475853"><ele>1303.66</ele></trkpt><trkpt lat="47.554309" lon="13.476016"><ele>1299.4</ele><time>2021-08-03T05:33:43Z</time></trkpt><trkpt lat="47.554123" lon="13.476798"><ele>1311.09</ele></trkpt><trkpt lat="47.554034" lon="13.476944"><ele>1313.31</ele></trkpt><trkpt lat="47.553894" lon="13.477264"><ele>1315.33</ele></trkpt><trkpt lat="47.553646" lon="13.477573"><ele>1318.75</ele></trkpt><trkpt lat="47.553383" lon="13.47796"><ele>1324.55</ele></trkpt><trkpt lat="47.55326" lon="13.478344"><ele>1333.99</ele></trkpt><trkpt lat="47.553165" lon="13.478544"><ele>1337.68</ele></trkpt><trkpt lat="47.552939" lon="13.47873"><ele>1345.43</ele></trkpt><trkpt lat="47.5527" lon="13.478983"><ele>1345.8</ele></trkpt><trkpt lat="47.552414" lon="13.479474"><ele>1349.34</ele></trkpt><trkpt lat="47.552303" lon="13.47972"><ele>1348.91</ele></trkpt><trkpt lat="47.552242" lon="13.479981"><ele>1349.27</ele></trkpt><trkpt lat="47.552245" lon="13.480218"><ele>1349.31</ele></trkpt><trkpt lat="47.552279" lon="13.480321"><ele>1348.79</ele></trkpt><trkpt lat="47.552502" lon="13.480392"><ele>1347.59</ele></trkpt><trkpt lat="47.552622" lon="13.480401"><ele>1347.5</ele></trkpt><trkpt lat="47.552713" lon="13.480486"><ele>1347.51</ele></trkpt><trkpt lat="47.552813" lon="13.480531"><ele>1347.47</ele></trkpt><trkpt lat="47.552882" lon="13.4805"><ele>1347.48</ele></trkpt><trkpt lat="47.552994" lon="13.480379"><ele>1347.38</ele></trkpt><trkpt lat="47.553096" lon="13.480375"><ele>1347.69</ele></trkpt><trkpt lat="47.553552" lon="13.480549"><ele>1349.0</ele></trkpt><trkpt lat="47.553758" lon="13.48067"><ele>1349.5</ele></trkpt><trkpt lat="47.553848" lon="13.480665"><ele>1350.56</ele></trkpt><trkpt lat="47.553963" lon="13.480567"><ele>1350.78</ele></trkpt><trkpt lat="47.554443" lon="13.48037"><ele>1354.7</ele></trkpt><trkpt lat="47.554606" lon="13.480357"><ele>1356.85</ele></trkpt><trkpt lat="47.55482" lon="13.480424"><ele>1359.51</ele></trkpt><trkpt lat="47.554983" lon="13.480419"><ele>1361.23</ele></trkpt><trkpt lat="47.55517" lon="13.480357"><ele>1363.01</ele></trkpt><trkpt lat="47.555623" lon="13.480012"><ele>1368.94</ele></trkpt><trkpt lat="47.555735" lon="13.480012"><ele>1369.66</ele></trkpt><trkpt lat="47.555828" lon="13.480142"><ele>1370.88</ele></trkpt><trkpt lat="47.555895" lon="13.480343"><ele>1371.3</ele></trkpt><trkpt lat="47.555976" lon="13.480486"><ele>1371.95</ele></trkpt><trkpt lat="47.556091" lon="13.480558"><ele>1372.03</ele></trkpt><trkpt lat="47.556278" lon="13.480571"><ele>1373.07</ele></trkpt><trkpt lat="47.556462" lon="13.480535"><ele>1373.63</ele></trkpt><trkpt lat="47.556541" lon="13.480455"><ele>1374.18</ele></trkpt><trkpt lat="47.556646" lon="13.480227"><ele>1375.04</ele></trkpt><trkpt lat="47.556779" lon="13.48003"><ele>1375.02</ele></trkpt><trkpt lat="47.557229" lon="13.47965"><ele>1379.93</ele></trkpt><trkpt lat="47.557406" lon="13.479636"><ele>1381.11</ele></trkpt><trkpt lat="47.557449" lon="13.479605"><ele>1381.42</ele></trkpt><trkpt lat="47.558285" lon="13.479395"><ele>1385.83</ele></trkpt><trkpt lat="47.558469" lon="13.47923"><ele>1386.6</ele></trkpt><trkpt lat="47.558645" lon="13.479118"><ele>1386.12</ele></trkpt><trkpt lat="47.559136" lon="13.479122"><ele>1386.9</ele></trkpt><trkpt lat="47.559345" lon="13.479037"><ele>1386.51</ele></trkpt><trkpt lat="47.55958" lon="13.479001"><ele>1385.67</ele></trkpt><trkpt lat="47.560036" lon="13.479006"><ele>1383.8</ele></trkpt><trkpt lat="47.560501" lon="13.478934"><ele>1384.53</ele></trkpt><trkpt lat="47.560664" lon="13.479019"><ele>1385.54</ele></trkpt><trkpt lat="47.560769" lon="13.479136"><ele>1386.48</ele></trkpt><trkpt lat="47.560914" lon="13.479614"><ele>1387.86</ele></trkpt><trkpt lat="47.560981" lon="13.479753"><ele>1388.3</ele></trkpt><trkpt lat="47.561313" lon="13.480151"><ele>1390.22</ele></trkpt><trkpt lat="47.561558" lon="13.480388"><ele>1390.42</ele><time>2021-08-03T05:41:35Z</time></trkpt></trkseg><trkseg><trkpt lat="47.561558" lon="13.480388"><ele>1390.42</ele><time>2021-08-03T05:27:10Z</time></trkpt><trkpt lat="47.561793" lon="13.480549"><ele>1389.95</ele></trkpt><trkpt lat="47.562031" lon="13.480643"><ele>1390.05</ele></trkpt><trkpt lat="47.562309" lon="13.480679"><ele>1393.36</ele></trkpt><trkpt lat="47.563075" lon="13.480598"><ele>1394.02</ele></trkpt><trkpt lat="47.56388" lon="13.480357"><ele>1395.6</ele><time>2021-08-03T05:28:29Z</time></trkpt><trkpt lat="47.563614" lon="13.480647"><ele>1389.09</ele></trkpt><trkpt lat="47.563297" lon="13.480833"><ele>1391.77</ele></trkpt><trkpt lat="47.563251" lon="13.480947"><ele>1392.72</ele></trkpt><trkpt lat="47.563588" lon="13.481402"><ele>1389.1</ele></trkpt><trkpt lat="47.563845" lon="13.481899"><ele>1387.63</ele></trkpt><trkpt lat="47.564013" lon="13.482082"><ele>1388.12</ele></trkpt><trkpt lat="47.564407" lon="13.4821"><ele>1372.16</ele></trkpt><trkpt lat="47.564723" lon="13.482072"><ele>1371.57</ele></trkpt><trkpt lat="47.565164" lon="13.481971"><ele>1369.07</ele></trkpt><trkpt lat="47.565366" lon="13.481974"><ele>1365.97</ele></trkpt><trkpt lat="47.56542" lon="13.48214"><ele>1365.3</ele></trkpt><trkpt lat="47.565383" lon="13.482354"><ele>1365.75</ele></trkpt><trkpt lat="47.565299" lon="13.48252"><ele>1366.52</ele></trkpt><trkpt lat="47.565093" lon="13.482706"><ele>1367.11</ele></trkpt><trkpt lat="47.565033" lon="13.482862"><ele>1367.42</ele></trkpt><trkpt lat="47.56503" lon="13.483056"><ele>1366.82</ele></trkpt><trkpt lat="47.565084" lon="13.483219"><ele>1365.44</ele></trkpt><trkpt lat="47.56521" lon="13.483264"><ele>1362.58</ele></trkpt><trkpt lat="47.565486" lon="13.483117"><ele>1361.91</ele></trkpt><trkpt lat="47.56565" lon="13.483089"><ele>1360.44</ele></trkpt><trkpt lat="47.565841" lon="13.483185"><ele>1359.57</ele></trkpt><trkpt lat="47.565977" lon="13.483182"><ele>1357.37</ele></trkpt><trkpt lat="47.566259" lon="13.483025"><ele>1356.61</ele></trkpt><trkpt lat="47.566409" lon="13.483061"><ele>1349.2</ele></trkpt><trkpt lat="47.566504" lon="13.483178"><ele>1343.0</ele><time>2021-08-03T05:31:42Z</time></trkpt><trkpt lat="47.565866" lon="13.48382"><ele>1315.48</ele></trkpt><trkpt lat="47.565565" lon="13.48424"><ele>1312.97</ele></trkpt><trkpt lat="47.565431" lon="13.484481"><ele>1304.45</ele></trkpt><trkpt lat="47.565368" lon="13.484678"><ele>1300.4</ele><time>2021-08-03T05:32:36Z</time></trkpt><trkpt lat="47.565397" lon="13.484738"><ele>1292.77</ele></trkpt><trkpt lat="47.565635" lon="13.484901"><ele>1292.92</ele></trkpt><trkpt lat="47.565785" lon="13.484914"><ele>1292.06</ele></trkpt><trkpt lat="47.565979" lon="13.484898"><ele>1289.69</ele></trkpt><trkpt lat="47.566145" lon="13.484847"><ele>1289.76</ele></trkpt><trkpt lat="47.566269" lon="13.48485"><ele>1289.83</ele></trkpt><trkpt lat="47.5664" lon="13.484883"><ele>1289.9</ele></trkpt><trkpt lat="47.566648" lon="13.484995"><ele>1289.96</ele></trkpt><trkpt lat="47.566848" lon="13.48513"><ele>1286.78</ele></trkpt><trkpt lat="47.567016" lon="13.485294"><ele>1284.22</ele></trkpt><trkpt lat="47.567153" lon="13.485512"><ele>1280.2</ele></trkpt><trkpt lat="47.567215" lon="13.485687"><ele>1269.6</ele></trkpt><trkpt lat="47.567251" lon="13.485952"><ele>1263.78</ele></trkpt><trkpt lat="47.567271" lon="13.486333"><ele>1263.75</ele></trkpt><trkpt lat="47.567223" lon="13.486646"><ele>1263.07</ele></trkpt><trkpt lat="47.566834" lon="13.487486"><ele>1261.23</ele></trkpt><trkpt lat="47.566603" lon="13.488172"><ele>1258.44</ele></trkpt><trkpt lat="47.566503" lon="13.488637"><ele>1251.4</ele><time>2021-08-03T05:35:02Z</time></trkpt><trkpt lat="47.56599" lon="13.48925"><ele>1248.32</ele></trkpt><trkpt lat="47.565159" lon="13.490044"><ele>1247.23</ele></trkpt><trkpt lat="47.56492" lon="13.490179"><ele>1247.18</ele></trkpt><trkpt lat="47.564775" lon="13.490326"><ele>1247.9</ele></trkpt><trkpt lat="47.56457" lon="13.490613"><ele>1247.55</ele></trkpt><trkpt lat="47.56428" lon="13.490948"><ele>1244.88</ele></trkpt><trkpt lat="47.564066" lon="13.491118"><ele>1243.34</ele></trkpt><trkpt lat="47.563903" lon="13.491216"><ele>1243.13</ele></trkpt><trkpt lat="47.563517" lon="13.49131"><ele>1241.14</ele></trkpt><trkpt lat="47.563034" lon="13.491462"><ele>1242.16</ele></trkpt><trkpt lat="47.562605" lon="13.491677"><ele>1244.65</ele></trkpt><trkpt lat="47.562412" lon="13.491695"><ele>1244.91</ele></trkpt><trkpt lat="47.561954" lon="13.491945"><ele>1244.95</ele></trkpt><trkpt lat="47.561751" lon="13.491928"><ele>1244.72</ele></trkpt><trkpt lat="47.561704" lon="13.49187"><ele>1244.49</ele><time>2021-08-03T05:38:03Z</time></trkpt></trkseg><trkseg><trkpt lat="47.561704" lon="13.49187"><ele>1244.49</ele><time>2021-08-03T05:27:10Z</time></trkpt><trkpt lat="47.561661" lon="13.491816"><ele>1244.26</ele></trkpt><trkpt lat="47.561609" lon="13.491641"><ele>1245.47</ele></trkpt><trkpt lat="47.561583" lon="13.491141"><ele>1247.58</ele></trkpt><trkpt lat="47.561523" lon="13.490965"><ele>1257.6</ele></trkpt><trkpt lat="47.561443" lon="13.490944"><ele>1253.4</ele></trkpt><trkpt lat="47.561283" lon="13.490997"><ele>1253.86</ele></trkpt><trkpt lat="47.561042" lon="13.491176"><ele>1253.06</ele></trkpt><trkpt lat="47.560604" lon="13.491708"><ele>1249.85</ele></trkpt><trkpt lat="47.560387" lon="13.492156"><ele>1246.01</ele></trkpt><trkpt lat="47.560158" lon="13.492433"><ele>1242.1</ele></trkpt><trkpt lat="47.559971" lon="13.492576"><ele>1239.87</ele></trkpt><trkpt lat="47.559632" lon="13.492755"><ele>1237.57</ele></trkpt><trkpt lat="47.55946" lon="13.492916"><ele>1237.34</ele></trkpt><trkpt lat="47.55927" lon="13.493292"><ele>1235.53</ele></trkpt><trkpt lat="47.559147" lon="13.493341"><ele>1234.07</ele></trkpt><trkpt lat="47.558999" lon="13.493582"><ele>1230.94</ele></trkpt><trkpt lat="47.558827" lon="13.493909"><ele>1229.27</ele></trkpt><trkpt lat="47.558648" lon="13.494097"><ele>1228.55</ele></trkpt><trkpt lat="47.558434" lon="13.494262"><ele>1225.3</ele></trkpt><trkpt lat="47.55825" lon="13.494388"><ele>1223.38</ele></trkpt><trkpt lat="47.558033" lon="13.49437"><ele>1220.61</ele></trkpt><trkpt lat="47.557888" lon="13.494271"><ele>1217.83</ele></trkpt><trkpt lat="47.557517" lon="13.4939"><ele>1217.89</ele></trkpt><trkpt lat="47.557405" lon="13.493882"><ele>1216.99</ele></trkpt><trkpt lat="47.55713" lon="13.493922"><ele>1216.02</ele></trkpt><trkpt lat="47.556859" lon="13.494003"><ele>1215.93</ele></trkpt><trkpt lat="47.556725" lon="13.49415"><ele>1216.07</ele></trkpt><trkpt lat="47.556665" lon="13.494374"><ele>1214.27</ele></trkpt><trkpt lat="47.556662" lon="13.494489"><ele>1197.2</ele><time>2021-08-03T05:30:58Z</time></trkpt><trkpt lat="47.556797" lon="13.494735"><ele>1201.62</ele></trkpt><trkpt lat="47.557056" lon="13.495049"><ele>1201.48</ele></trkpt><trkpt lat="47.557371" lon="13.495291"><ele>1200.82</ele></trkpt><trkpt lat="47.557868" lon="13.495726"><ele>1202.0</ele></trkpt><trkpt lat="47.558088" lon="13.49614"><ele>1182.9</ele></trkpt><trkpt lat="47.558271" lon="13.496635"><ele>1181.19</ele></trkpt><trkpt lat="47.558414" lon="13.496879"><ele>1179.81</ele></trkpt><trkpt lat="47.558557" lon="13.497031"><ele>1178.65</ele></trkpt><trkpt lat="47.558785" lon="13.497318"><ele>1175.53</ele></trkpt><trkpt lat="47.558923" lon="13.497425"><ele>1174.88</ele></trkpt><trkpt lat="47.559394" lon="13.497615"><ele>1170.85</ele></trkpt><trkpt lat="47.559773" lon="13.497686"><ele>1167.32</ele></trkpt><trkpt lat="47.559937" lon="13.497797"><ele>1164.82</ele></trkpt><trkpt lat="47.560072" lon="13.497942"><ele>1164.12</ele></trkpt><trkpt lat="47.560249" lon="13.49807"><ele>1162.21</ele></trkpt><trkpt lat="47.560793" lon="13.4983"><ele>1157.55</ele></trkpt><trkpt lat="47.561062" lon="13.498527"><ele>1151.82</ele></trkpt><trkpt lat="47.56181" lon="13.498628"><ele>1142.34</ele></trkpt><trkpt lat="47.562003" lon="13.49859"><ele>1140.07</ele></trkpt><trkpt lat="47.562126" lon="13.498614"><ele>1137.87</ele></trkpt><trkpt lat="47.562397" lon="13.498835"><ele>1137.38</ele></trkpt><trkpt lat="47.562633" lon="13.499107"><ele>1135.2</ele></trkpt><trkpt lat="47.562854" lon="13.499465"><ele>1120.28</ele></trkpt><trkpt lat="47.562994" lon="13.499827"><ele>1119.16</ele></trkpt><trkpt lat="47.563345" lon="13.501655"><ele>1104.63</ele></trkpt><trkpt lat="47.563446" lon="13.501956"><ele>1102.45</ele></trkpt><trkpt lat="47.563627" lon="13.502306"><ele>1100.82</ele></trkpt><trkpt lat="47.563736" lon="13.502435"><ele>1100.9</ele></trkpt><trkpt lat="47.563837" lon="13.502507"><ele>1100.34</ele></trkpt><trkpt lat="47.563969" lon="13.502566"><ele>1099.82</ele></trkpt><trkpt lat="47.564524" lon="13.502622"><ele>1097.56</ele></trkpt><trkpt lat="47.564597" lon="13.502653"><ele>1092.8</ele></trkpt><trkpt lat="47.565427" lon="13.502699"><ele>1092.5</ele></trkpt><trkpt lat="47.56552" lon="13.502741"><ele>1092.8</ele></trkpt><trkpt lat="47.565861" lon="13.502687"><ele>1091.92</ele></trkpt><trkpt lat="47.56626" lon="13.502481"><ele>1091.2</ele></trkpt><trkpt lat="47.566737" lon="13.502526"><ele>1089.89</ele></trkpt><trkpt lat="47.567042" lon="13.502577"><ele>1087.53</ele></trkpt><trkpt lat="47.567279" lon="13.502531"><ele>1086.16</ele></trkpt><trkpt lat="47.567564" lon="13.502417"><ele>1089.24</ele></trkpt><trkpt lat="47.567954" lon="13.50221"><ele>1089.35</ele></trkpt><trkpt lat="47.568121" lon="13.502063"><ele>1089.8</ele></trkpt><trkpt lat="47.568347" lon="13.501968"><ele>1092.76</ele></trkpt><trkpt lat="47.568466" lon="13.502012"><ele>1093.27</ele></trkpt><trkpt lat="47.568637" lon="13.50213"><ele>1093.72</ele></trkpt><trkpt lat="47.568882" lon="13.502219"><ele>1094.13</ele></trkpt><trkpt lat="47.56926" lon="13.502478"><ele>1095.47</ele></trkpt><trkpt lat="47.569372" lon="13.502687"><ele>1086.4</ele></trkpt><trkpt lat="47.56943" lon="13.502881"><ele>1072.04</ele></trkpt><trkpt lat="47.569573" lon="13.503131"><ele>1072.48</ele></trkpt><trkpt lat="47.569848" lon="13.503395"><ele>1070.82</ele></trkpt><trkpt lat="47.569953" lon="13.503455"><ele>1070.82</ele></trkpt><trkpt lat="47.570147" lon="13.503452"><ele>1068.72</ele></trkpt><trkpt lat="47.570347" lon="13.503393"><ele>1068.34</ele></trkpt><trkpt lat="47.57047" lon="13.503424"><ele>1067.22</ele></trkpt><trkpt lat="47.57066" lon="13.503562"><ele>1064.94</ele></trkpt><trkpt lat="47.570774" lon="13.50361"><ele>1063.81</ele></trkpt><trkpt lat="47.571014" lon="13.503655"><ele>1059.24</ele></trkpt><trkpt lat="47.571387" lon="13.503589"><ele>1054.01</ele></trkpt><trkpt lat="47.571481" lon="13.50363"><ele>1053.54</ele></trkpt><trkpt lat="47.571684" lon="13.503835"><ele>1049.36</ele></trkpt><trkpt lat="47.571947" lon="13.504158"><ele>1045.08</ele></trkpt><trkpt lat="47.572238" lon="13.50462"><ele>1021.6</ele><time>2021-08-03T05:41:37Z</time></trkpt><trkpt lat="47.572307" lon="13.504689"><ele>1026.36</ele></trkpt><trkpt lat="47.572391" lon="13.504679"><ele>1026.02</ele></trkpt><trkpt lat="47.572429" lon="13.50449"><ele>1026.57</ele></trkpt><trkpt lat="47.5724" lon="13.504128"><ele>1026.72</ele></trkpt><trkpt lat="47.572419" lon="13.50394"><ele>1027.15</ele></trkpt><trkpt lat="47.572479" lon="13.50384"><ele>1027.55</ele></trkpt><trkpt lat="47.572555" lon="13.503806"><ele>1027.87</ele></trkpt><trkpt lat="47.572778" lon="13.503829"><ele>1028.16</ele></trkpt><trkpt lat="47.57301" lon="13.503899"><ele>1028.44</ele></trkpt><trkpt lat="47.573761" lon="13.503913"><ele>1038.6</ele></trkpt><trkpt lat="47.573844" lon="13.503978"><ele>1039.94</ele></trkpt><trkpt lat="47.573905" lon="13.504147"><ele>1039.98</ele></trkpt><trkpt lat="47.573982" lon="13.504296"><ele>1039.0</ele></trkpt><trkpt lat="47.57428" lon="13.504595"><ele>1040.16</ele></trkpt><trkpt lat="47.574466" lon="13.505118"><ele>1041.48</ele></trkpt><trkpt lat="47.574625" lon="13.505438"><ele>1041.37</ele></trkpt><trkpt lat="47.574768" lon="13.505627"><ele>1041.72</ele></trkpt><trkpt lat="47.57502" lon="13.505767"><ele>1045.27</ele></trkpt><trkpt lat="47.575295" lon="13.505811"><ele>1048.88</ele></trkpt><trkpt lat="47.575544" lon="13.505884"><ele>1059.6</ele></trkpt><trkpt lat="47.575777" lon="13.506115"><ele>1059.74</ele></trkpt><trkpt lat="47.576033" lon="13.506445"><ele>1063.12</ele></trkpt><trkpt lat="47.576253" lon="13.506795"><ele>1064.08</ele></trkpt><trkpt lat="47.576356" lon="13.50716"><ele>1064.69</ele></trkpt><trkpt lat="47.576472" lon="13.507463"><ele>1067.29</ele></trkpt><trkpt lat="47.576702" lon="13.507943"><ele>1069.34</ele></trkpt><trkpt lat="47.576955" lon="13.508399"><ele>1067.2</ele></trkpt><trkpt lat="47.577108" lon="13.50855"><ele>1066.24</ele></trkpt><trkpt lat="47.577306" lon="13.508582"><ele>1065.69</ele></trkpt><trkpt lat="47.577433" lon="13.508661"><ele>1065.02</ele></trkpt><trkpt lat="47.577615" lon="13.508883"><ele>1066.62</ele></trkpt><trkpt lat="47.57789" lon="13.509162"><ele>1067.47</ele></trkpt><trkpt lat="47.578282" lon="13.50978"><ele>1070.31</ele></trkpt><trkpt lat="47.580101" lon="13.512088"><ele>1064.56</ele></trkpt><trkpt lat="47.580252" lon="13.512699"><ele>1065.53</ele></trkpt><trkpt lat="47.58037" lon="13.512865"><ele>1063.75</ele></trkpt><trkpt lat="47.580516" lon="13.513119"><ele>1061.01</ele></trkpt><trkpt lat="47.580965" lon="13.513553"><ele>1054.55</ele></trkpt><trkpt lat="47.581196" lon="13.51359"><ele>1049.41</ele></trkpt><trkpt lat="47.581849" lon="13.513414"><ele>1034.88</ele></trkpt><trkpt lat="47.582076" lon="13.513305"><ele>1030.25</ele></trkpt><trkpt lat="47.582269" lon="13.513251"><ele>1028.46</ele></trkpt><trkpt lat="47.58258" lon="13.513285"><ele>1025.48</ele></trkpt><trkpt lat="47.582787" lon="13.51328"><ele>1025.64</ele></trkpt><trkpt lat="47.582983" lon="13.513225"><ele>1021.37</ele></trkpt><trkpt lat="47.583196" lon="13.513113"><ele>1020.43</ele></trkpt><trkpt lat="47.583455" lon="13.512945"><ele>1014.59</ele></trkpt><trkpt lat="47.583581" lon="13.512788"><ele>1012.07</ele></trkpt><trkpt lat="47.583815" lon="13.512547"><ele>1007.16</ele></trkpt><trkpt lat="47.584177" lon="13.512344"><ele>1000.63</ele></trkpt><trkpt lat="47.584467" lon="13.511933"><ele>994.4</ele></trkpt><trkpt lat="47.584906" lon="13.511226"><ele>992.87</ele></trkpt><trkpt lat="47.585" lon="13.511019"><ele>991.77</ele></trkpt><trkpt lat="47.585024" lon="13.510904"><ele>991.38</ele></trkpt><trkpt lat="47.5851" lon="13.510818"><ele>991.6</ele></trkpt><trkpt lat="47.585183" lon="13.510764"><ele>991.63</ele></trkpt><trkpt lat="47.585263" lon="13.510745"><ele>991.76</ele></trkpt><trkpt lat="47.585368" lon="13.510753"><ele>991.17</ele></trkpt><trkpt lat="47.585533" lon="13.510697"><ele>991.16</ele></trkpt><trkpt lat="47.585728" lon="13.510568"><ele>990.71</ele></trkpt><trkpt lat="47.585955" lon="13.510335"><ele>988.76</ele></trkpt><trkpt lat="47.586025" lon="13.510289"><ele>988.71</ele></trkpt><trkpt lat="47.586111" lon="13.510284"><ele>987.41</ele></trkpt><trkpt lat="47.586168" lon="13.510313"><ele>986.63</ele></trkpt><trkpt lat="47.586279" lon="13.510428"><ele>984.53</ele></trkpt><trkpt lat="47.586383" lon="13.510581"><ele>983.23</ele></trkpt><trkpt lat="47.586497" lon="13.510794"><ele>982.74</ele></trkpt><trkpt lat="47.586674" lon="13.511209"><ele>979.17</ele></trkpt><trkpt lat="47.586757" lon="13.511333"><ele>977.69</ele></trkpt><trkpt lat="47.586829" lon="13.511391"><ele>976.14</ele></trkpt><trkpt lat="47.586927" lon="13.511417"><ele>973.72</ele></trkpt><trkpt lat="47.58702" lon="13.511381"><ele>971.37</ele></trkpt><trkpt lat="47.587131" lon="13.511288"><ele>970.33</ele></trkpt><trkpt lat="47.587275" lon="13.511099"><ele>967.63</ele></trkpt><trkpt lat="47.587426" lon="13.510843"><ele>964.85</ele></trkpt><trkpt lat="47.587499" lon="13.510679"><ele>963.45</ele></trkpt><trkpt lat="47.587585" lon="13.510571"><ele>962.16</ele></trkpt><trkpt lat="47.587691" lon="13.510547"><ele>960.71</ele></trkpt><trkpt lat="47.588234" lon="13.51053"><ele>953.63</ele></trkpt><trkpt lat="47.588383" lon="13.510448"><ele>950.12</ele></trkpt><trkpt lat="47.588543" lon="13.510314"><ele>947.41</ele></trkpt><trkpt lat="47.588647" lon="13.510199"><ele>946.36</ele></trkpt><trkpt lat="47.588724" lon="13.51006"><ele>943.98</ele></trkpt><trkpt lat="47.588851" lon="13.509907"><ele>942.13</ele></trkpt><trkpt lat="47.589778" lon="13.509535"><ele>938.58</ele></trkpt><trkpt lat="47.589963" lon="13.50941"><ele>940.1</ele></trkpt><trkpt lat="47.59006" lon="13.509413"><ele>940.63</ele></trkpt><trkpt lat="47.590161" lon="13.50948"><ele>940.05</ele></trkpt><trkpt lat="47.590282" lon="13.509738"><ele>935.4</ele><time>2021-08-03T05:54:30Z</time></trkpt><trkpt lat="47.590073" lon="13.509809"><ele>930.13</ele></trkpt><trkpt lat="47.58977" lon="13.509948"><ele>927.25</ele></trkpt><trkpt lat="47.589574" lon="13.510076"><ele>924.53</ele></trkpt><trkpt lat="47.589222" lon="13.510382"><ele>922.96</ele></trkpt><trkpt lat="47.589056" lon="13.510576"><ele>920.89</ele></trkpt><trkpt lat="47.588927" lon="13.510763"><ele>919.47</ele></trkpt><trkpt lat="47.588688" lon="13.511197"><ele>916.43</ele></trkpt><trkpt lat="47.588513" lon="13.511652"><ele>915.73</ele></trkpt><trkpt lat="47.588369" lon="13.512191"><ele>915.08</ele></trkpt><trkpt lat="47.587972" lon="13.514354"><ele>889.51</ele></trkpt><trkpt lat="47.587837" lon="13.51498"><ele>886.47</ele></trkpt><trkpt lat="47.587285" lon="13.517158"><ele>859.75</ele></trkpt><trkpt lat="47.58717" lon="13.517711"><ele>856.86</ele></trkpt><trkpt lat="47.587092" lon="13.518275"><ele>855.76</ele></trkpt><trkpt lat="47.587064" lon="13.518576"><ele>855.53</ele></trkpt><trkpt lat="47.587033" lon="13.519183"><ele>854.33</ele></trkpt><trkpt lat="47.586955" lon="13.521844"><ele>839.18</ele></trkpt><trkpt lat="47.586922" lon="13.522234"><ele>834.0</ele></trkpt><trkpt lat="47.586847" lon="13.52273"><ele>821.01</ele></trkpt><trkpt lat="47.586713" lon="13.523275"><ele>819.85</ele></trkpt><trkpt lat="47.586553" lon="13.523775"><ele>819.75</ele></trkpt><trkpt lat="47.585941" lon="13.525485"><ele>799.22</ele></trkpt><trkpt lat="47.585845" lon="13.525899"><ele>790.5</ele></trkpt><trkpt lat="47.585807" lon="13.526258"><ele>790.22</ele></trkpt><trkpt lat="47.585801" lon="13.526974"><ele>786.2</ele></trkpt><trkpt lat="47.585761" lon="13.527927"><ele>783.13</ele></trkpt><trkpt lat="47.585784" lon="13.528147"><ele>781.8</ele></trkpt><trkpt lat="47.585922" lon="13.528693"><ele>785.93</ele></trkpt><trkpt lat="47.585945" lon="13.528844"><ele>787.6</ele></trkpt><trkpt lat="47.585948" lon="13.529183"><ele>774.26</ele></trkpt><trkpt lat="47.585893" lon="13.529486"><ele>772.33</ele><time>2021-08-03T06:00:05Z</time></trkpt></trkseg><trkseg><trkpt lat="47.585893" lon="13.529486"><ele>772.33</ele><time>2021-08-03T05:27:10Z</time></trkpt><trkpt lat="47.585819" lon="13.529736"><ele>771.6</ele></trkpt><trkpt lat="47.585698" lon="13.529949"><ele>771.97</ele></trkpt><trkpt lat="47.585507" lon="13.530156"><ele>762.8</ele><time>2021-08-03T05:27:24Z</time></trkpt><trkpt lat="47.585301" lon="13.530279"><ele>761.28</ele></trkpt><trkpt lat="47.584978" lon="13.530416"><ele>760.61</ele></trkpt><trkpt lat="47.584805" lon="13.530513"><ele>759.0</ele></trkpt><trkpt lat="47.584566" lon="13.53069"><ele>759.0</ele></trkpt><trkpt lat="47.584353" lon="13.530894"><ele>753.4</ele></trkpt><trkpt lat="47.584222" lon="13.531052"><ele>748.72</ele></trkpt><trkpt lat="47.584004" lon="13.531382"><ele>747.9</ele></trkpt><trkpt lat="47.583914" lon="13.531558"><ele>747.49</ele><time>2021-08-03T05:28:06Z</time></trkpt></trkseg><trkseg><trkpt lat="47.583914" lon="13.531558"><ele>747.49</ele><time>2021-08-03T05:27:10Z</time></trkpt><trkpt lat="47.583836" lon="13.531709"><ele>747.08</ele></trkpt><trkpt lat="47.583682" lon="13.532124"><ele>747.34</ele></trkpt><trkpt lat="47.583564" lon="13.532603"><ele>741.8</ele><time>2021-08-03T05:27:27Z</time></trkpt><trkpt lat="47.583387" lon="13.532491"><ele>743.47</ele></trkpt><trkpt lat="47.58325" lon="13.532439"><ele>742.8</ele><time>2021-08-03T05:27:37Z</time></trkpt><trkpt lat="47.583122" lon="13.532512"><ele>740.13</ele></trkpt><trkpt lat="47.583054" lon="13.532607"><ele>738.8</ele></trkpt><trkpt lat="47.582905" lon="13.532951"><ele>738.27</ele></trkpt><trkpt lat="47.582736" lon="13.533231"><ele>738.17</ele></trkpt><trkpt lat="47.582573" lon="13.533556"><ele>736.6</ele><time>2021-08-03T05:28:02Z</time></trkpt><trkpt lat="47.582516" lon="13.533533"><ele>736.6</ele><time>2021-08-03T05:28:03Z</time></trkpt><trkpt lat="47.582319" lon="13.53381"><ele>732.4</ele></trkpt><trkpt lat="47.582012" lon="13.534192"><ele>731.73</ele></trkpt><trkpt lat="47.581706" lon="13.534509"><ele>731.4</ele></trkpt><trkpt lat="47.581048" lon="13.535276"><ele>728.4</ele></trkpt><trkpt lat="47.580587" lon="13.535868"><ele>726.6</ele></trkpt><trkpt lat="47.580286" lon="13.536087"><ele>726.6</ele></trkpt><trkpt lat="47.580125" lon="13.536182"><ele>726.6</ele></trkpt><trkpt lat="47.580016" lon="13.53622"><ele>726.6</ele><time>2021-08-03T05:29:15Z</time></trkpt><trkpt lat="47.579966" lon="13.535835"><ele>726.2</ele></trkpt><trkpt lat="47.579779" lon="13.535219"><ele>726.11</ele><time>2021-08-03T05:30:27Z</time></trkpt></trkseg><trkseg><trkpt lat="47.579779" lon="13.535219"><ele>726.11</ele><time>2021-08-03T05:27:10Z</time></trkpt><trkpt lat="47.579679" lon="13.534894"><ele>726.02</ele></trkpt><trkpt lat="47.579351" lon="13.534366"><ele>725.24</ele></trkpt><trkpt lat="47.579031" lon="13.533898"><ele>725.17</ele></trkpt><trkpt lat="47.578724" lon="13.533529"><ele>725.24</ele></trkpt><trkpt lat="47.576259" lon="13.530849"><ele>729.15</ele><time>2021-08-03T05:34:53Z</time></trkpt></trkseg><trkseg><trkpt lat="47.576259" lon="13.530849"><ele>729.15</ele><time>2021-08-03T05:27:10Z</time></trkpt><trkpt lat="47.574704" lon="13.529155"><ele>732.33</ele></trkpt><trkpt lat="47.574625" lon="13.529047"><ele>732.31</ele></trkpt><trkpt lat="47.573966" lon="13.528378"><ele>732.9</ele></trkpt><trkpt lat="47.573909" lon="13.528267"><ele>732.8</ele></trkpt><trkpt lat="47.573844" lon="13.528194"><ele>732.8</ele></trkpt><trkpt lat="47.572326" lon="13.526548"><ele>734.4</ele><time>2021-08-03T05:35:19Z</time></trkpt></trkseg><trkseg><trkpt lat="47.572326" lon="13.526548"><ele>734.4</ele><time>2021-08-03T05:27:10Z</time></trkpt><trkpt lat="47.570006" lon="13.523988"><ele>740.07</ele><time>2021-08-03T05:31:59Z</time></trkpt></trkseg><trkseg><trkpt lat="47.570006" lon="13.523988"><ele>740.07</ele><time>2021-08-03T05:27:10Z</time></trkpt><trkpt lat="47.568313" lon="13.522121"><ele>748.0</ele></trkpt><trkpt lat="47.567979" lon="13.521778"><ele>748.0</ele><time>2021-08-03T05:31:22Z</time></trkpt><trkpt lat="47.568086" lon="13.521626"><ele>749.2</ele></trkpt><trkpt lat="47.568233" lon="13.521512"><ele>749.2</ele></trkpt><trkpt lat="47.56828" lon="13.521445"><ele>749.2</ele></trkpt><trkpt lat="47.568331" lon="13.521244"><ele>749.2</ele><time>2021-08-03T05:31:33Z</time></trkpt><trkpt lat="47.568151" lon="13.521101"><ele>749.95</ele></trkpt><trkpt lat="47.567881" lon="13.520814"><ele>751.6</ele></trkpt><trkpt lat="47.567736" lon="13.520633"><ele>751.6</ele></trkpt><trkpt lat="47.567116" lon="13.519803"><ele>749.6</ele></trkpt><trkpt lat="47.566683" lon="13.519144"><ele>757.4</ele></trkpt><trkpt lat="47.566256" lon="13.518684"><ele>751.92</ele></trkpt><trkpt lat="47.565999" lon="13.518464"><ele>751.75</ele></trkpt><trkpt lat="47.565678" lon="13.518279"><ele>754.2</ele></trkpt><trkpt lat="47.565388" lon="13.518153"><ele>753.01</ele></trkpt><trkpt lat="47.564916" lon="13.518"><ele>750.4</ele></trkpt><trkpt lat="47.564784" lon="13.51799"><ele>750.4</ele></trkpt><trkpt lat="47.564468" lon="13.518023"><ele>750.4</ele><time>2021-08-03T05:33:16Z</time></trkpt><trkpt lat="47.564477" lon="13.518273"><ele>750.4</ele><time>2021-08-03T05:33:27Z</time></trkpt><trkpt lat="47.563969" lon="13.518254"><ele>749.92</ele></trkpt><trkpt lat="47.563355" lon="13.518347"><ele>748.61</ele></trkpt><trkpt lat="47.563208" lon="13.518389"><ele>747.94</ele><time>2021-08-03T05:35:35Z</time></trkpt></trkseg><trkseg><trkpt lat="47.563208" lon="13.518389"><ele>747.94</ele><time>2021-08-03T05:27:10Z</time></trkpt><trkpt lat="47.562152" lon="13.518691"><ele>747.28</ele></trkpt><trkpt lat="47.561229" lon="13.518992"><ele>747.0</ele></trkpt><trkpt lat="47.560402" lon="13.519316"><ele>748.67</ele></trkpt><trkpt lat="47.559997" lon="13.519442"><ele>749.19</ele><time>2021-08-03T05:32:39Z</time></trkpt></trkseg><trkseg><trkpt lat="47.559997" lon="13.519442"><ele>749.19</ele><time>2021-08-03T05:27:10Z</time></trkpt><trkpt lat="47.559376" lon="13.519634"><ele>749.72</ele></trkpt><trkpt lat="47.558667" lon="13.519737"><ele>750.44</ele></trkpt><trkpt lat="47.558108" lon="13.519736"><ele>750.8</ele></trkpt><trkpt lat="47.557776" lon="13.519671"><ele>750.92</ele></trkpt><trkpt lat="47.557718" lon="13.519631"><ele>751.21</ele></trkpt><trkpt lat="47.557638" lon="13.519642"><ele>751.33</ele></trkpt><trkpt lat="47.557311" lon="13.51953"><ele>751.91</ele></trkpt><trkpt lat="47.557153" lon="13.519514"><ele>751.95</ele></trkpt><trkpt lat="47.557023" lon="13.519463"><ele>752.0</ele></trkpt><trkpt lat="47.556223" lon="13.519013"><ele>753.8</ele><time>2021-08-03T05:33:37Z</time></trkpt><trkpt lat="47.556078" lon="13.518815"><ele>753.8</ele><time>2021-08-03T05:33:46Z</time></trkpt><trkpt lat="47.556184" lon="13.518106"><ele>754.0</ele><time>2021-08-03T05:34:03Z</time></trkpt><trkpt lat="47.555895" lon="13.517651"><ele>755.65</ele></trkpt><trkpt lat="47.555761" lon="13.517519"><ele>756.06</ele></trkpt><trkpt lat="47.555565" lon="13.517385"><ele>758.0</ele></trkpt><trkpt lat="47.554899" lon="13.517016"><ele>759.65</ele></trkpt><trkpt lat="47.55442" lon="13.516791"><ele>760.2</ele><time>2021-08-03T05:34:48Z</time></trkpt><trkpt lat="47.554363" lon="13.516865"><ele>760.51</ele></trkpt><trkpt lat="47.554079" lon="13.517472"><ele>760.65</ele></trkpt><trkpt lat="47.55395" lon="13.517549"><ele>760.6</ele></trkpt><trkpt lat="47.55353" lon="13.51773"><ele>760.64</ele></trkpt><trkpt lat="47.553367" lon="13.517735"><ele>760.66</ele></trkpt><trkpt lat="47.553218" lon="13.517681"><ele>760.69</ele></trkpt><trkpt lat="47.553083" lon="13.517541"><ele>761.2</ele><time>2021-08-03T05:35:24Z</time></trkpt><trkpt lat="47.553043" lon="13.517382"><ele>761.2</ele></trkpt><trkpt lat="47.552982" lon="13.517265"><ele>761.2</ele></trkpt><trkpt lat="47.552906" lon="13.51717"><ele>761.2</ele></trkpt><trkpt lat="47.55264" lon="13.51693"><ele>761.5</ele></trkpt><trkpt lat="47.552037" lon="13.51663"><ele>762.47</ele></trkpt><trkpt lat="47.551719" lon="13.516364"><ele>762.8</ele></trkpt><trkpt lat="47.551265" lon="13.516247"><ele>763.75</ele></trkpt><trkpt lat="47.55083" lon="13.516097"><ele>767.2</ele></trkpt><trkpt lat="47.550685" lon="13.516078"><ele>767.2</ele><time>2021-08-03T05:36:24Z</time></trkpt><trkpt lat="47.550878" lon="13.516592"><ele>762.6</ele></trkpt><trkpt lat="47.55111" lon="13.517117"><ele>762.8</ele><time>2021-08-03T05:36:43Z</time></trkpt><trkpt lat="47.550968" lon="13.517403"><ele>764.92</ele></trkpt><trkpt lat="47.550887" lon="13.517397"><ele>764.62</ele></trkpt><trkpt lat="47.550546" lon="13.517065"><ele>777.59</ele></trkpt><trkpt lat="47.550405" lon="13.517011"><ele>776.76</ele></trkpt><trkpt lat="47.550068" lon="13.516926"><ele>779.29</ele></trkpt><trkpt lat="47.549847" lon="13.516679"><ele>782.73</ele></trkpt><trkpt lat="47.549164" lon="13.516192"><ele>788.95</ele></trkpt><trkpt lat="47.549082" lon="13.516177"><ele>790.17</ele></trkpt><trkpt lat="47.548889" lon="13.516282"><ele>792.54</ele></trkpt><trkpt lat="47.54876" lon="13.516282"><ele>794.74</ele></trkpt><trkpt lat="47.548659" lon="13.516212"><ele>794.96</ele></trkpt><trkpt lat="47.548435" lon="13.515852"><ele>795.38</ele></trkpt><trkpt lat="47.548197" lon="13.515679"><ele>796.66</ele></trkpt><trkpt lat="47.54786" lon="13.515639"><ele>796.35</ele></trkpt><trkpt lat="47.547723" lon="13.515694"><ele>794.6</ele></trkpt><trkpt lat="47.547384" lon="13.515644"><ele>801.6</ele></trkpt><trkpt lat="47.547349" lon="13.515609"><ele>801.6</ele><time>2021-08-03T05:39:06Z</time></trkpt><trkpt lat="47.547228" lon="13.515477"><ele>801.51</ele></trkpt><trkpt lat="47.5471" lon="13.515382"><ele>801.52</ele><time>2021-08-03T05:39:15Z</time></trkpt></trkseg><trkseg><trkpt lat="47.5471" lon="13.515382"><ele>801.52</ele><time>2021-08-03T05:27:10Z</time></trkpt><trkpt lat="47.546843" lon="13.51519"><ele>801.52</ele></trkpt><trkpt lat="47.546746" lon="13.515095"><ele>801.53</ele></trkpt><trkpt lat="47.5467" lon="13.514841"><ele>800.36</ele></trkpt><trkpt lat="47.546651" lon="13.514727"><ele>800.67</ele></trkpt><trkpt lat="47.546491" lon="13.514702"><ele>803.2</ele><time>2021-08-03T05:27:38Z</time></trkpt><trkpt lat="47.546418" lon="13.514619"><ele>803.2</ele><time>2021-08-03T05:27:41Z</time></trkpt><trkpt lat="47.546384" lon="13.514579"><ele>803.2</ele></trkpt><trkpt lat="47.546413" lon="13.514307"><ele>800.41</ele></trkpt><trkpt lat="47.546343" lon="13.514092"><ele>799.83</ele></trkpt><trkpt lat="47.546211" lon="13.513903"><ele>799.43</ele></trkpt><trkpt lat="47.546112" lon="13.513705"><ele>799.36</ele></trkpt><trkpt lat="47.545824" lon="13.512855"><ele>799.42</ele></trkpt><trkpt lat="47.545684" lon="13.512579"><ele>800.21</ele></trkpt><trkpt lat="47.545567" lon="13.512414"><ele>800.48</ele></trkpt><trkpt lat="47.545421" lon="13.512255"><ele>800.77</ele></trkpt><trkpt lat="47.545366" lon="13.512163"><ele>800.63</ele></trkpt><trkpt lat="47.54534" lon="13.512066"><ele>800.49</ele></trkpt><trkpt lat="47.545332" lon="13.51177"><ele>800.8</ele></trkpt><trkpt lat="47.54531" lon="13.511585"><ele>800.23</ele></trkpt><trkpt lat="47.545244" lon="13.511427"><ele>800.6</ele></trkpt><trkpt lat="47.544946" lon="13.511117"><ele>805.4</ele><time>2021-08-03T05:29:19Z</time></trkpt><trkpt lat="47.544807" lon="13.510737"><ele>801.93</ele></trkpt><trkpt lat="47.544781" lon="13.510565"><ele>800.2</ele><time>2021-08-03T05:29:32Z</time></trkpt><trkpt lat="47.544883" lon="13.510438"><ele>798.1</ele></trkpt><trkpt lat="47.545293" lon="13.510294"><ele>791.8</ele></trkpt><trkpt lat="47.545598" lon="13.510249"><ele>793.71</ele></trkpt><trkpt lat="47.545668" lon="13.510187"><ele>793.52</ele></trkpt><trkpt lat="47.545675" lon="13.510104"><ele>793.35</ele></trkpt><trkpt lat="47.54555" lon="13.509354"><ele>793.49</ele></trkpt><trkpt lat="47.545529" lon="13.50904"><ele>793.84</ele></trkpt><trkpt lat="47.545556" lon="13.508766"><ele>794.44</ele></trkpt><trkpt lat="47.545594" lon="13.508659"><ele>797.0</ele><time>2021-08-03T05:30:40Z</time></trkpt><trkpt lat="47.545752" lon="13.508666"><ele>797.0</ele><time>2021-08-03T05:30:45Z</time></trkpt><trkpt lat="47.546194" lon="13.508707"><ele>801.8</ele><time>2021-08-03T05:31:00Z</time></trkpt><trkpt lat="47.545814" lon="13.506341"><ele>807.95</ele></trkpt><trkpt lat="47.545756" lon="13.506078"><ele>809.29</ele></trkpt><trkpt lat="47.545627" lon="13.50574"><ele>809.68</ele></trkpt><trkpt lat="47.545413" lon="13.505416"><ele>810.0</ele></trkpt><trkpt lat="47.545067" lon="13.504957"><ele>815.05</ele></trkpt><trkpt lat="47.544815" lon="13.504451"><ele>814.8</ele></trkpt><trkpt lat="47.544492" lon="13.503562"><ele>826.13</ele></trkpt><trkpt lat="47.544344" lon="13.503213"><ele>826.68</ele></trkpt><trkpt lat="47.544143" lon="13.502887"><ele>827.43</ele></trkpt><trkpt lat="47.543437" lon="13.502131"><ele>840.33</ele></trkpt><trkpt lat="47.543036" lon="13.501567"><ele>845.27</ele></trkpt><trkpt lat="47.542132" lon="13.499881"><ele>866.2</ele></trkpt><trkpt lat="47.541536" lon="13.498676"><ele>868.91</ele></trkpt><trkpt lat="47.541306" lon="13.498085"><ele>869.28</ele></trkpt><trkpt lat="47.541161" lon="13.497664"><ele>874.6</ele></trkpt><trkpt lat="47.540945" lon="13.497214"><ele>898.2</ele></trkpt><trkpt lat="47.540684" lon="13.496846"><ele>882.85</ele></trkpt><trkpt lat="47.540486" lon="13.496652"><ele>885.41</ele></trkpt><trkpt lat="47.539413" lon="13.495887"><ele>881.4</ele></trkpt><trkpt lat="47.539283" lon="13.495813"><ele>910.4</ele></trkpt><trkpt lat="47.538547" lon="13.495493"><ele>894.45</ele></trkpt><trkpt lat="47.537868" lon="13.495134"><ele>893.21</ele></trkpt><trkpt lat="47.537592" lon="13.495062"><ele>892.74</ele></trkpt><trkpt lat="47.537341" lon="13.495036"><ele>893.77</ele></trkpt><trkpt lat="47.536948" lon="13.495071"><ele>895.5</ele></trkpt><trkpt lat="47.536499" lon="13.495214"><ele>909.24</ele></trkpt><trkpt lat="47.536352" lon="13.495314"><ele>909.48</ele></trkpt><trkpt lat="47.536077" lon="13.495547"><ele>911.2</ele></trkpt><trkpt lat="47.53567" lon="13.49592"><ele>933.0</ele></trkpt><trkpt lat="47.535419" lon="13.496056"><ele>931.0</ele></trkpt><trkpt lat="47.535037" lon="13.496163"><ele>931.4</ele></trkpt><trkpt lat="47.534634" lon="13.496226"><ele>926.6</ele></trkpt><trkpt lat="47.53437" lon="13.496322"><ele>926.26</ele></trkpt><trkpt lat="47.534198" lon="13.496419"><ele>926.32</ele></trkpt><trkpt lat="47.533868" lon="13.49667"><ele>949.6</ele></trkpt><trkpt lat="47.533714" lon="13.496644"><ele>931.76</ele></trkpt><trkpt lat="47.533454" lon="13.496461"><ele>932.83</ele></trkpt><trkpt lat="47.533379" lon="13.49643"><ele>933.43</ele></trkpt><trkpt lat="47.533284" lon="13.49645"><ele>934.25</ele></trkpt><trkpt lat="47.53325" lon="13.496493"><ele>934.44</ele></trkpt><trkpt lat="47.533232" lon="13.496612"><ele>934.86</ele></trkpt><trkpt lat="47.533252" lon="13.496776"><ele>937.8</ele></trkpt><trkpt lat="47.533282" lon="13.496853"><ele>937.8</ele><time>2021-08-03T05:38:04Z</time></trkpt><trkpt lat="47.53322" lon="13.496944"><ele>937.8</ele></trkpt><trkpt lat="47.532902" lon="13.497556"><ele>960.4</ele><time>2021-08-03T05:38:20Z</time></trkpt><trkpt lat="47.532876" lon="13.497897"><ele>960.4</ele></trkpt><trkpt lat="47.532827" lon="13.498126"><ele>960.4</ele></trkpt><trkpt lat="47.532796" lon="13.498407"><ele>979.16</ele></trkpt><trkpt lat="47.532703" lon="13.498647"><ele>980.0</ele></trkpt><trkpt lat="47.532677" lon="13.498793"><ele>980.77</ele></trkpt><trkpt lat="47.532693" lon="13.499127"><ele>980.63</ele></trkpt><trkpt lat="47.532664" lon="13.499409"><ele>979.81</ele></trkpt><trkpt lat="47.532494" lon="13.499767"><ele>975.85</ele></trkpt><trkpt lat="47.532488" lon="13.499936"><ele>977.99</ele></trkpt><trkpt lat="47.532601" lon="13.500423"><ele>983.17</ele></trkpt><trkpt lat="47.53259" lon="13.500706"><ele>983.59</ele></trkpt><trkpt lat="47.532607" lon="13.500855"><ele>981.95</ele><time>2021-08-03T05:39:13Z</time></trkpt></trkseg><trkseg><trkpt lat="47.532607" lon="13.500855"><ele>981.95</ele><time>2021-08-03T05:27:10Z</time></trkpt><trkpt lat="47.532655" lon="13.501281"><ele>980.31</ele></trkpt><trkpt lat="47.532632" lon="13.501948"><ele>976.39</ele></trkpt><trkpt lat="47.532543" lon="13.502285"><ele>974.57</ele></trkpt><trkpt lat="47.532579" lon="13.502588"><ele>972.75</ele></trkpt><trkpt lat="47.532561" lon="13.502785"><ele>969.68</ele></trkpt><trkpt lat="47.532413" lon="13.503201"><ele>968.63</ele></trkpt><trkpt lat="47.532376" lon="13.503502"><ele>969.75</ele></trkpt><trkpt lat="47.532353" lon="13.503588"><ele>961.8</ele></trkpt><trkpt lat="47.532295" lon="13.503643"><ele>961.8</ele></trkpt><trkpt lat="47.532086" lon="13.503752"><ele>968.29</ele></trkpt><trkpt lat="47.531918" lon="13.504034"><ele>969.81</ele></trkpt><trkpt lat="47.53187" lon="13.504444"><ele>970.7</ele></trkpt><trkpt lat="47.531811" lon="13.504637"><ele>969.82</ele></trkpt><trkpt lat="47.531675" lon="13.504945"><ele>967.76</ele></trkpt><trkpt lat="47.531627" lon="13.505198"><ele>953.0</ele><time>2021-08-03T05:28:26Z</time></trkpt><trkpt lat="47.531633" lon="13.505949"><ele>983.66</ele></trkpt><trkpt lat="47.531559" lon="13.506328"><ele>983.02</ele></trkpt><trkpt lat="47.531446" lon="13.506685"><ele>977.3</ele></trkpt><trkpt lat="47.53142" lon="13.507029"><ele>975.17</ele></trkpt><trkpt lat="47.531392" lon="13.507073"><ele>975.04</ele></trkpt><trkpt lat="47.531208" lon="13.507192"><ele>974.77</ele></trkpt><trkpt lat="47.531166" lon="13.507262"><ele>974.65</ele></trkpt><trkpt lat="47.531185" lon="13.507399"><ele>974.41</ele></trkpt><trkpt lat="47.531299" lon="13.507421"><ele>974.2</ele></trkpt><trkpt lat="47.531592" lon="13.507291"><ele>974.81</ele></trkpt><trkpt lat="47.531634" lon="13.507224"><ele>974.69</ele></trkpt><trkpt lat="47.531795" lon="13.506837"><ele>984.04</ele></trkpt><trkpt lat="47.531985" lon="13.506581"><ele>984.56</ele></trkpt><trkpt lat="47.53205" lon="13.506372"><ele>985.07</ele></trkpt><trkpt lat="47.532074" lon="13.506063"><ele>985.56</ele></trkpt><trkpt lat="47.532207" lon="13.505787"><ele>997.27</ele></trkpt><trkpt lat="47.532206" lon="13.505307"><ele>1000.58</ele></trkpt><trkpt lat="47.532305" lon="13.505151"><ele>999.32</ele></trkpt><trkpt lat="47.532388" lon="13.505247"><ele>998.87</ele></trkpt><trkpt lat="47.53241" lon="13.505842"><ele>997.96</ele></trkpt><trkpt lat="47.532334" lon="13.506507"><ele>985.63</ele></trkpt><trkpt lat="47.532305" lon="13.507368"><ele>1003.25</ele></trkpt><trkpt lat="47.532345" lon="13.507449"><ele>1003.91</ele></trkpt><trkpt lat="47.532404" lon="13.507454"><ele>1004.5</ele></trkpt><trkpt lat="47.532456" lon="13.507362"><ele>1005.02</ele></trkpt><trkpt lat="47.532448" lon="13.507035"><ele>987.75</ele></trkpt><trkpt lat="47.532482" lon="13.506846"><ele>1009.2</ele></trkpt><trkpt lat="47.532762" lon="13.50617"><ele>1039.13</ele></trkpt><trkpt lat="47.53292" lon="13.505829"><ele>1040.31</ele></trkpt><trkpt lat="47.532936" lon="13.50539"><ele>1041.46</ele></trkpt><trkpt lat="47.533003" lon="13.505223"><ele>1041.0</ele></trkpt><trkpt lat="47.533101" lon="13.505202"><ele>1040.57</ele></trkpt><trkpt lat="47.533222" lon="13.504957"><ele>1042.41</ele></trkpt><trkpt lat="47.533426" lon="13.504677"><ele>1044.62</ele></trkpt><trkpt lat="47.533735" lon="13.504605"><ele>1047.4</ele></trkpt><trkpt lat="47.533833" lon="13.504489"><ele>1049.21</ele></trkpt><trkpt lat="47.533935" lon="13.504229"><ele>1050.77</ele></trkpt><trkpt lat="47.533986" lon="13.504174"><ele>1051.28</ele></trkpt><trkpt lat="47.534143" lon="13.503922"><ele>1056.12</ele></trkpt><trkpt lat="47.53416" lon="13.503513"><ele>1059.46</ele></trkpt><trkpt lat="47.534331" lon="13.502758"><ele>1065.32</ele></trkpt><trkpt lat="47.534517" lon="13.502325"><ele>1068.67</ele></trkpt><trkpt lat="47.534725" lon="13.502059"><ele>1070.95</ele></trkpt><trkpt lat="47.534834" lon="13.501755"><ele>1073.86</ele></trkpt><trkpt lat="47.535052" lon="13.501315"><ele>1074.26</ele></trkpt><trkpt lat="47.535257" lon="13.50084"><ele>1074.71</ele></trkpt><trkpt lat="47.535507" lon="13.500431"><ele>1076.6</ele></trkpt><trkpt lat="47.535753" lon="13.500316"><ele>1073.8</ele></trkpt><trkpt lat="47.536072" lon="13.50033"><ele>1077.73</ele></trkpt><trkpt lat="47.53646" lon="13.500431"><ele>1077.58</ele></trkpt><trkpt lat="47.537127" lon="13.501555"><ele>1080.2</ele></trkpt><trkpt lat="47.537364" lon="13.50201"><ele>1082.17</ele></trkpt><trkpt lat="47.537353" lon="13.502284"><ele>1082.87</ele></trkpt><trkpt lat="47.537202" lon="13.50249"><ele>1083.03</ele></trkpt><trkpt lat="47.536977" lon="13.502535"><ele>1083.8</ele></trkpt><trkpt lat="47.536907" lon="13.502645"><ele>1084.94</ele></trkpt><trkpt lat="47.536952" lon="13.502794"><ele>1085.97</ele></trkpt><trkpt lat="47.53756" lon="13.503458"><ele>1088.72</ele></trkpt><trkpt lat="47.538199" lon="13.503812"><ele>1087.47</ele></trkpt><trkpt lat="47.538697" lon="13.504319"><ele>1080.8</ele></trkpt><trkpt lat="47.539521" lon="13.505736"><ele>1072.16</ele></trkpt><trkpt lat="47.539771" lon="13.506008"><ele>1072.05</ele></trkpt><trkpt lat="47.539896" lon="13.506462"><ele>1072.27</ele></trkpt><trkpt lat="47.539884" lon="13.506739"><ele>1074.48</ele></trkpt><trkpt lat="47.539788" lon="13.507029"><ele>1076.45</ele></trkpt><trkpt lat="47.53919" lon="13.507049"><ele>1078.2</ele></trkpt><trkpt lat="47.539085" lon="13.507194"><ele>1112.2</ele><time>2021-08-03T05:39:44Z</time></trkpt><trkpt lat="47.53912" lon="13.507363"><ele>1109.89</ele></trkpt><trkpt lat="47.539207" lon="13.507469"><ele>1107.8</ele></trkpt><trkpt lat="47.539595" lon="13.507795"><ele>1106.83</ele></trkpt><trkpt lat="47.539723" lon="13.508447"><ele>1110.4</ele></trkpt><trkpt lat="47.539875" lon="13.509882"><ele>1121.51</ele></trkpt><trkpt lat="47.539816" lon="13.510399"><ele>1122.09</ele></trkpt><trkpt lat="47.539565" lon="13.510714"><ele>1127.49</ele></trkpt><trkpt lat="47.538992" lon="13.511067"><ele>1135.28</ele></trkpt><trkpt lat="47.538255" lon="13.511316"><ele>1147.39</ele></trkpt><trkpt lat="47.537981" lon="13.511359"><ele>1148.29</ele></trkpt><trkpt lat="47.537171" lon="13.511557"><ele>1151.94</ele></trkpt><trkpt lat="47.537002" lon="13.511658"><ele>1154.01</ele></trkpt><trkpt lat="47.53664" lon="13.511923"><ele>1156.97</ele></trkpt><trkpt lat="47.536503" lon="13.51198"><ele>1161.0</ele></trkpt><trkpt lat="47.536372" lon="13.512017"><ele>1161.0</ele></trkpt><trkpt lat="47.535755" lon="13.512009"><ele>1160.86</ele></trkpt><trkpt lat="47.535438" lon="13.512203"><ele>1160.85</ele></trkpt><trkpt lat="47.535176" lon="13.51228"><ele>1160.84</ele></trkpt><trkpt lat="47.535118" lon="13.512395"><ele>1160.8</ele><time>2021-08-03T05:43:54Z</time></trkpt><trkpt lat="47.535587" lon="13.512405"><ele>1165.42</ele></trkpt><trkpt lat="47.535731" lon="13.512449"><ele>1164.76</ele></trkpt><trkpt lat="47.535952" lon="13.512639"><ele>1166.65</ele></trkpt><trkpt lat="47.53686" lon="13.513"><ele>1169.71</ele></trkpt><trkpt lat="47.537176" lon="13.513071"><ele>1173.42</ele></trkpt><trkpt lat="47.537405" lon="13.513175"><ele>1173.11</ele></trkpt><trkpt lat="47.537856" lon="13.513454"><ele>1178.19</ele></trkpt><trkpt lat="47.538213" lon="13.513813"><ele>1182.25</ele></trkpt><trkpt lat="47.538746" lon="13.514842"><ele>1200.46</ele></trkpt><trkpt lat="47.539166" lon="13.515266"><ele>1211.54</ele></trkpt><trkpt lat="47.53963" lon="13.515675"><ele>1210.21</ele></trkpt><trkpt lat="47.539769" lon="13.515842"><ele>1213.65</ele></trkpt><trkpt lat="47.539905" lon="13.516055"><ele>1218.22</ele></trkpt><trkpt lat="47.540464" lon="13.516815"><ele>1218.37</ele></trkpt><trkpt lat="47.540719" lon="13.517133"><ele>1221.37</ele></trkpt><trkpt lat="47.541234" lon="13.517678"><ele>1217.59</ele></trkpt><trkpt lat="47.541588" lon="13.518112"><ele>1220.87</ele></trkpt><trkpt lat="47.542123" lon="13.51918"><ele>1245.19</ele></trkpt><trkpt lat="47.542451" lon="13.519581"><ele>1237.84</ele></trkpt><trkpt lat="47.542532" lon="13.519787"><ele>1235.58</ele></trkpt><trkpt lat="47.542583" lon="13.520029"><ele>1239.35</ele></trkpt><trkpt lat="47.542756" lon="13.520224"><ele>1238.93</ele></trkpt><trkpt lat="47.542861" lon="13.520391"><ele>1237.0</ele></trkpt><trkpt lat="47.542937" lon="13.520607"><ele>1236.67</ele></trkpt><trkpt lat="47.54291" lon="13.520713"><ele>1236.35</ele></trkpt><trkpt lat="47.542857" lon="13.520755"><ele>1236.06</ele></trkpt><trkpt lat="47.542764" lon="13.520542"><ele>1237.35</ele></trkpt><trkpt lat="47.542691" lon="13.520433"><ele>1237.01</ele></trkpt><trkpt lat="47.542552" lon="13.520342"><ele>1235.26</ele></trkpt><trkpt lat="47.542417" lon="13.520214"><ele>1238.75</ele></trkpt><trkpt lat="47.542295" lon="13.520004"><ele>1237.88</ele></trkpt><trkpt lat="47.542112" lon="13.519788"><ele>1250.21</ele></trkpt><trkpt lat="47.541873" lon="13.519631"><ele>1247.51</ele></trkpt><trkpt lat="47.541333" lon="13.5194"><ele>1270.37</ele></trkpt><trkpt lat="47.541028" lon="13.51923"><ele>1269.43</ele></trkpt><trkpt lat="47.540957" lon="13.519276"><ele>1270.45</ele></trkpt><trkpt lat="47.540944" lon="13.519387"><ele>1273.51</ele></trkpt><trkpt lat="47.541081" lon="13.519559"><ele>1274.13</ele></trkpt><trkpt lat="47.541617" lon="13.520455"><ele>1260.09</ele></trkpt><trkpt lat="47.541675" lon="13.520653"><ele>1263.46</ele></trkpt><trkpt lat="47.541632" lon="13.520906"><ele>1266.34</ele></trkpt><trkpt lat="47.541655" lon="13.521015"><ele>1303.27</ele></trkpt><trkpt lat="47.541882" lon="13.521331"><ele>1306.5</ele></trkpt><trkpt lat="47.542125" lon="13.521763"><ele>1308.15</ele></trkpt><trkpt lat="47.542214" lon="13.521982"><ele>1308.49</ele></trkpt><trkpt lat="47.542285" lon="13.522241"><ele>1309.43</ele></trkpt><trkpt lat="47.542513" lon="13.522839"><ele>1312.34</ele></trkpt><trkpt lat="47.542619" lon="13.523014"><ele>1312.99</ele></trkpt><trkpt lat="47.542737" lon="13.523147"><ele>1312.03</ele></trkpt><trkpt lat="47.542944" lon="13.52329"><ele>1312.59</ele></trkpt><trkpt lat="47.543261" lon="13.523552"><ele>1313.87</ele></trkpt><trkpt lat="47.543404" lon="13.523792"><ele>1312.86</ele></trkpt><trkpt lat="47.543726" lon="13.524531"><ele>1319.88</ele></trkpt><trkpt lat="47.543803" lon="13.524795"><ele>1322.65</ele></trkpt><trkpt lat="47.543883" lon="13.525459"><ele>1329.18</ele></trkpt><trkpt lat="47.543931" lon="13.525664"><ele>1333.91</ele></trkpt><trkpt lat="47.544076" lon="13.525953"><ele>1338.98</ele></trkpt><trkpt lat="47.544205" lon="13.526474"><ele>1340.8</ele></trkpt><trkpt lat="47.544417" lon="13.526745"><ele>1344.1</ele></trkpt><trkpt lat="47.544505" lon="13.527225"><ele>1345.99</ele></trkpt><trkpt lat="47.544865" lon="13.528252"><ele>1356.81</ele></trkpt><trkpt lat="47.544941" lon="13.528397"><ele>1359.43</ele></trkpt><trkpt lat="47.545046" lon="13.528456"><ele>1359.16</ele></trkpt><trkpt lat="47.545074" lon="13.528582"><ele>1360.5</ele></trkpt><trkpt lat="47.545056" lon="13.528762"><ele>1362.42</ele></trkpt><trkpt lat="47.545066" lon="13.528963"><ele>1362.04</ele></trkpt><trkpt lat="47.545151" lon="13.529105"><ele>1363.43</ele></trkpt><trkpt lat="47.545372" lon="13.5294"><ele>1366.09</ele></trkpt><trkpt lat="47.545566" lon="13.529591"><ele>1367.89</ele></trkpt><trkpt lat="47.545574" lon="13.529767"><ele>1368.45</ele></trkpt><trkpt lat="47.545512" lon="13.529856"><ele>1368.42</ele></trkpt><trkpt lat="47.545244" lon="13.530022"><ele>1368.85</ele></trkpt><trkpt lat="47.545191" lon="13.530127"><ele>1369.29</ele></trkpt><trkpt lat="47.545159" lon="13.530317"><ele>1371.0</ele></trkpt><trkpt lat="47.545188" lon="13.530529"><ele>1372.85</ele></trkpt><trkpt lat="47.545308" lon="13.530686"><ele>1375.32</ele></trkpt><trkpt lat="47.54565" lon="13.530918"><ele>1378.34</ele></trkpt><trkpt lat="47.545877" lon="13.531181"><ele>1380.79</ele></trkpt><trkpt lat="47.545921" lon="13.531315"><ele>1381.26</ele></trkpt><trkpt lat="47.545944" lon="13.531656"><ele>1383.7</ele></trkpt><trkpt lat="47.545992" lon="13.532031"><ele>1388.1</ele></trkpt><trkpt lat="47.545948" lon="13.532283"><ele>1388.83</ele></trkpt><trkpt lat="47.545901" lon="13.532436"><ele>1389.63</ele></trkpt><trkpt lat="47.545914" lon="13.532895"><ele>1390.87</ele></trkpt><trkpt lat="47.545961" lon="13.533088"><ele>1391.34</ele></trkpt><trkpt lat="47.546189" lon="13.533724"><ele>1394.94</ele></trkpt><trkpt lat="47.546243" lon="13.533987"><ele>1396.69</ele></trkpt><trkpt lat="47.546218" lon="13.534118"><ele>1397.83</ele></trkpt><trkpt lat="47.545936" lon="13.534789"><ele>1403.77</ele></trkpt><trkpt lat="47.545577" lon="13.535347"><ele>1410.79</ele></trkpt><trkpt lat="47.545496" lon="13.53544"><ele>1413.03</ele></trkpt><trkpt lat="47.545342" lon="13.535513"><ele>1417.19</ele></trkpt><trkpt lat="47.545085" lon="13.535459"><ele>1419.17</ele></trkpt><trkpt lat="47.54497" lon="13.535467"><ele>1421.96</ele></trkpt><trkpt lat="47.544876" lon="13.535526"><ele>1423.35</ele></trkpt><trkpt lat="47.544799" lon="13.535615"><ele>1425.85</ele></trkpt><trkpt lat="47.544637" lon="13.535872"><ele>1429.33</ele></trkpt><trkpt lat="47.544563" lon="13.536004"><ele>1429.55</ele></trkpt><trkpt lat="47.544476" lon="13.536277"><ele>1430.21</ele></trkpt><trkpt lat="47.544449" lon="13.536457"><ele>1430.66</ele></trkpt><trkpt lat="47.544398" lon="13.536621"><ele>1431.13</ele></trkpt><trkpt lat="47.544348" lon="13.53669"><ele>1430.4</ele></trkpt><trkpt lat="47.54408" lon="13.5369"><ele>1432.48</ele></trkpt><trkpt lat="47.543926" lon="13.53713"><ele>1432.53</ele></trkpt><trkpt lat="47.54389" lon="13.537219"><ele>1432.56</ele></trkpt><trkpt lat="47.543875" lon="13.537361"><ele>1433.26</ele></trkpt><trkpt lat="47.543899" lon="13.537795"><ele>1433.37</ele></trkpt><trkpt lat="47.543873" lon="13.537889"><ele>1431.4</ele></trkpt><trkpt lat="47.54368" lon="13.538077"><ele>1428.77</ele></trkpt><trkpt lat="47.543647" lon="13.538192"><ele>1428.96</ele></trkpt><trkpt lat="47.543675" lon="13.53827"><ele>1428.9</ele></trkpt><trkpt lat="47.543748" lon="13.538383"><ele>1429.07</ele></trkpt><trkpt lat="47.543938" lon="13.538531"><ele>1429.11</ele></trkpt><trkpt lat="47.544259" lon="13.538737"><ele>1427.71</ele></trkpt><trkpt lat="47.544333" lon="13.538909"><ele>1426.98</ele></trkpt><trkpt lat="47.544402" lon="13.539426"><ele>1426.72</ele></trkpt><trkpt lat="47.544455" lon="13.539609"><ele>1426.62</ele></trkpt><trkpt lat="47.544545" lon="13.539794"><ele>1425.66</ele></trkpt><trkpt lat="47.544672" lon="13.539928"><ele>1425.0</ele></trkpt><trkpt lat="47.544971" lon="13.540123"><ele>1424.75</ele></trkpt><trkpt lat="47.545135" lon="13.540188"><ele>1424.69</ele></trkpt><trkpt lat="47.545385" lon="13.540161"><ele>1425.38</ele></trkpt><trkpt lat="47.545548" lon="13.540246"><ele>1425.19</ele></trkpt><trkpt lat="47.545667" lon="13.540395"><ele>1424.66</ele></trkpt><trkpt lat="47.545922" lon="13.540797"><ele>1423.2</ele></trkpt><trkpt lat="47.54602" lon="13.541092"><ele>1422.06</ele></trkpt><trkpt lat="47.546084" lon="13.541374"><ele>1421.65</ele></trkpt><trkpt lat="47.546127" lon="13.541674"><ele>1421.03</ele></trkpt><trkpt lat="47.546162" lon="13.541781"><ele>1420.83</ele></trkpt><trkpt lat="47.546243" lon="13.541862"><ele>1420.29</ele></trkpt><trkpt lat="47.546325" lon="13.54188"><ele>1419.41</ele></trkpt><trkpt lat="47.546857" lon="13.541819"><ele>1417.29</ele></trkpt><trkpt lat="47.547049" lon="13.541988"><ele>1415.81</ele></trkpt><trkpt lat="47.547172" lon="13.542049"><ele>1414.06</ele></trkpt><trkpt lat="47.547368" lon="13.542098"><ele>1412.69</ele></trkpt><trkpt lat="47.547634" lon="13.54223"><ele>1408.54</ele></trkpt><trkpt lat="47.547943" lon="13.542488"><ele>1401.31</ele></trkpt><trkpt lat="47.548401" lon="13.542556"><ele>1391.24</ele></trkpt><trkpt lat="47.549392" lon="13.544513"><ele>1363.54</ele></trkpt><trkpt lat="47.549705" lon="13.544822"><ele>1361.98</ele></trkpt><trkpt lat="47.549809" lon="13.545268"><ele>1363.92</ele></trkpt><trkpt lat="47.550053" lon="13.545689"><ele>1363.6</ele></trkpt><trkpt lat="47.550289" lon="13.546651"><ele>1367.8</ele></trkpt><trkpt lat="47.550389" lon="13.547474"><ele>1366.6</ele></trkpt><trkpt lat="47.550399" lon="13.547704"><ele>1362.12</ele></trkpt><trkpt lat="47.550371" lon="13.547963"><ele>1362.14</ele></trkpt><trkpt lat="47.550421" lon="13.54851"><ele>1361.48</ele></trkpt><trkpt lat="47.550481" lon="13.548857"><ele>1358.2</ele><time>2021-08-03T06:06:34Z</time></trkpt><trkpt lat="47.550459" lon="13.549281"><ele>1358.78</ele></trkpt><trkpt lat="47.550456" lon="13.549689"><ele>1358.67</ele></trkpt><trkpt lat="47.550552" lon="13.550292"><ele>1359.06</ele></trkpt><trkpt lat="47.550609" lon="13.550477"><ele>1359.49</ele></trkpt><trkpt lat="47.550684" lon="13.550564"><ele>1359.61</ele></trkpt><trkpt lat="47.551016" lon="13.550636"><ele>1358.76</ele></trkpt><trkpt lat="47.551142" lon="13.55071"><ele>1358.6</ele></trkpt><trkpt lat="47.551364" lon="13.550748"><ele>1358.42</ele></trkpt><trkpt lat="47.551471" lon="13.550694"><ele>1358.26</ele></trkpt><trkpt lat="47.551994" lon="13.550611"><ele>1356.09</ele></trkpt><trkpt lat="47.552173" lon="13.550629"><ele>1353.4</ele><time>2021-08-03T06:08:05Z</time></trkpt><trkpt lat="47.552436" lon="13.550667"><ele>1353.77</ele></trkpt><trkpt lat="47.552644" lon="13.55073"><ele>1353.24</ele></trkpt><trkpt lat="47.552823" lon="13.550883"><ele>1355.4</ele><time>2021-08-03T06:08:28Z</time></trkpt><trkpt lat="47.552921" lon="13.550967"><ele>1355.7</ele></trkpt><trkpt lat="47.553003" lon="13.551582"><ele>1355.78</ele></trkpt><trkpt lat="47.552928" lon="13.552676"><ele>1355.58</ele></trkpt><trkpt lat="47.552773" lon="13.553737"><ele>1355.24</ele></trkpt><trkpt lat="47.55289" lon="13.554495"><ele>1355.88</ele></trkpt><trkpt lat="47.55287" lon="13.554882"><ele>1355.06</ele></trkpt><trkpt lat="47.552919" lon="13.555826"><ele>1354.94</ele></trkpt><trkpt lat="47.55277" lon="13.55677"><ele>1353.4</ele></trkpt><trkpt lat="47.552767" lon="13.558571"><ele>1357.4</ele></trkpt><trkpt lat="47.552342" lon="13.559729"><ele>1360.1</ele></trkpt><trkpt lat="47.552191" lon="13.560468"><ele>1357.22</ele></trkpt><trkpt lat="47.551941" lon="13.561269"><ele>1355.63</ele></trkpt><trkpt lat="47.551854" lon="13.561858"><ele>1357.05</ele></trkpt><trkpt lat="47.551869" lon="13.562866"><ele>1359.81</ele></trkpt><trkpt lat="47.551623" lon="13.563538"><ele>1362.37</ele></trkpt><trkpt lat="47.551438" lon="13.564301"><ele>1366.0</ele><time>2021-08-03T06:13:43Z</time></trkpt><trkpt lat="47.551447" lon="13.564452"><ele>1364.12</ele></trkpt><trkpt lat="47.551533" lon="13.564641"><ele>1364.12</ele></trkpt><trkpt lat="47.551992" lon="13.565342"><ele>1364.95</ele></trkpt><trkpt lat="47.552146" lon="13.566037"><ele>1366.0</ele></trkpt><trkpt lat="47.552254" lon="13.566289"><ele>1366.31</ele></trkpt><trkpt lat="47.552365" lon="13.566457"><ele>1366.48</ele></trkpt><trkpt lat="47.552787" lon="13.56683"><ele>1366.56</ele></trkpt><trkpt lat="47.55353" lon="13.567"><ele>1364.51</ele></trkpt><trkpt lat="47.554423" lon="13.566918"><ele>1359.38</ele></trkpt><trkpt lat="47.55491" lon="13.566997"><ele>1362.48</ele></trkpt><trkpt lat="47.555346" lon="13.567297"><ele>1365.91</ele></trkpt><trkpt lat="47.555715" lon="13.567328"><ele>1367.56</ele></trkpt><trkpt lat="47.55611" lon="13.567548"><ele>1371.51</ele></trkpt><trkpt lat="47.556402" lon="13.567516"><ele>1380.8</ele></trkpt><trkpt lat="47.556535" lon="13.567456"><ele>1358.2</ele></trkpt><trkpt lat="47.556746" lon="13.567248"><ele>1361.1</ele></trkpt><trkpt lat="47.55703" lon="13.567096"><ele>1361.26</ele></trkpt><trkpt lat="47.557588" lon="13.566996"><ele>1372.46</ele></trkpt><trkpt lat="47.558265" lon="13.567277"><ele>1374.49</ele></trkpt><trkpt lat="47.55853" lon="13.567439"><ele>1376.77</ele></trkpt><trkpt lat="47.558646" lon="13.567593"><ele>1376.86</ele></trkpt><trkpt lat="47.558743" lon="13.567647"><ele>1375.73</ele></trkpt><trkpt lat="47.558828" lon="13.567625"><ele>1375.12</ele></trkpt><trkpt lat="47.559183" lon="13.567397"><ele>1374.33</ele></trkpt><trkpt lat="47.559258" lon="13.56738"><ele>1374.88</ele></trkpt><trkpt lat="47.559326" lon="13.567394"><ele>1375.46</ele></trkpt><trkpt lat="47.559562" lon="13.567543"><ele>1375.93</ele></trkpt><trkpt lat="47.559716" lon="13.567779"><ele>1378.4</ele><time>2021-08-03T06:19:07Z</time></trkpt><trkpt lat="47.560061" lon="13.568172"><ele>1369.06</ele></trkpt><trkpt lat="47.560426" lon="13.568746"><ele>1372.83</ele></trkpt><trkpt lat="47.560905" lon="13.569257"><ele>1371.75</ele></trkpt><trkpt lat="47.561664" lon="13.569197"><ele>1368.33</ele></trkpt><trkpt lat="47.562002" lon="13.569326"><ele>1363.04</ele></trkpt><trkpt lat="47.562297" lon="13.569243"><ele>1360.89</ele></trkpt><trkpt lat="47.562677" lon="13.56958"><ele>1357.72</ele></trkpt><trkpt lat="47.562991" lon="13.569694"><ele>1357.24</ele></trkpt><trkpt lat="47.563164" lon="13.56986"><ele>1355.24</ele></trkpt><trkpt lat="47.56392" lon="13.569885"><ele>1352.83</ele></trkpt><trkpt lat="47.56412" lon="13.570025"><ele>1353.16</ele></trkpt><trkpt lat="47.5643" lon="13.570336"><ele>1352.43</ele></trkpt><trkpt lat="47.564769" lon="13.570849"><ele>1347.4</ele></trkpt><trkpt lat="47.564951" lon="13.571239"><ele>1342.75</ele></trkpt><trkpt lat="47.564993" lon="13.572023"><ele>1339.31</ele></trkpt><trkpt lat="47.56518" lon="13.572305"><ele>1333.23</ele></trkpt><trkpt lat="47.56531" lon="13.572673"><ele>1332.95</ele></trkpt><trkpt lat="47.565425" lon="13.572808"><ele>1331.94</ele></trkpt><trkpt lat="47.565634" lon="13.572899"><ele>1331.98</ele></trkpt><trkpt lat="47.565824" lon="13.573216"><ele>1331.34</ele></trkpt><trkpt lat="47.566042" lon="13.573413"><ele>1330.43</ele></trkpt><trkpt lat="47.566261" lon="13.574079"><ele>1331.35</ele></trkpt><trkpt lat="47.566288" lon="13.574344"><ele>1332.72</ele></trkpt><trkpt lat="47.566259" lon="13.574706"><ele>1331.46</ele></trkpt><trkpt lat="47.565895" lon="13.576132"><ele>1350.48</ele><time>2021-08-03T06:24:44Z</time></trkpt></trkseg><trkseg><trkpt lat="47.565895" lon="13.576132"><ele>1350.48</ele><time>2021-08-03T05:27:10Z</time></trkpt><trkpt lat="47.565773" lon="13.576611"><ele>1369.5</ele></trkpt><trkpt lat="47.565775" lon="13.576729"><ele>1367.77</ele></trkpt><trkpt lat="47.565851" lon="13.576834"><ele>1366.42</ele></trkpt><trkpt lat="47.566164" lon="13.57689"><ele>1364.2</ele></trkpt><trkpt lat="47.566341" lon="13.576998"><ele>1368.51</ele></trkpt><trkpt lat="47.566413" lon="13.577006"><ele>1368.9</ele></trkpt><trkpt lat="47.566526" lon="13.576951"><ele>1369.33</ele></trkpt><trkpt lat="47.566667" lon="13.57692"><ele>1369.79</ele></trkpt><trkpt lat="47.566738" lon="13.576971"><ele>1370.68</ele></trkpt><trkpt lat="47.566796" lon="13.577121"><ele>1370.92</ele></trkpt><trkpt lat="47.56685" lon="13.577675"><ele>1373.34</ele></trkpt><trkpt lat="47.566995" lon="13.578474"><ele>1374.0</ele></trkpt><trkpt lat="47.567093" lon="13.579603"><ele>1384.6</ele><time>2021-08-03T05:29:01Z</time></trkpt><trkpt lat="47.567022" lon="13.579611"><ele>1384.6</ele></trkpt><trkpt lat="47.566772" lon="13.579445"><ele>1384.6</ele><time>2021-08-03T05:29:12Z</time></trkpt><trkpt lat="47.566645" lon="13.579646"><ele>1384.0</ele></trkpt><trkpt lat="47.566614" lon="13.579787"><ele>1383.4</ele><time>2021-08-03T05:29:22Z</time></trkpt><trkpt lat="47.566543" lon="13.580197"><ele>1392.46</ele></trkpt><trkpt lat="47.566357" lon="13.581082"><ele>1402.8</ele></trkpt><trkpt lat="47.566175" lon="13.582381"><ele>1416.11</ele></trkpt><trkpt lat="47.566052" lon="13.582757"><ele>1431.0</ele></trkpt><trkpt lat="47.565993" lon="13.582881"><ele>1431.0</ele></trkpt><trkpt lat="47.565996" lon="13.583189"><ele>1431.0</ele></trkpt><trkpt lat="47.566035" lon="13.583269"><ele>1431.0</ele></trkpt><trkpt lat="47.566097" lon="13.583248"><ele>1431.0</ele></trkpt><trkpt lat="47.56616" lon="13.583119"><ele>1431.0</ele></trkpt><trkpt lat="47.566193" lon="13.583003"><ele>1431.0</ele></trkpt><trkpt lat="47.566268" lon="13.582861"><ele>1431.0</ele></trkpt><trkpt lat="47.566328" lon="13.582807"><ele>1431.0</ele><time>2021-08-03T05:31:02Z</time></trkpt><trkpt lat="47.566424" lon="13.582851"><ele>1445.43</ele></trkpt><trkpt lat="47.566514" lon="13.583064"><ele>1446.91</ele></trkpt><trkpt lat="47.566562" lon="13.583248"><ele>1447.74</ele></trkpt><trkpt lat="47.566756" lon="13.583356"><ele>1448.63</ele></trkpt><trkpt lat="47.56698" lon="13.583395"><ele>1448.58</ele></trkpt><trkpt lat="47.56733" lon="13.583342"><ele>1447.96</ele></trkpt><trkpt lat="47.567547" lon="13.583243"><ele>1447.23</ele></trkpt><trkpt lat="47.56762" lon="13.583256"><ele>1448.38</ele></trkpt><trkpt lat="47.567611" lon="13.583364"><ele>1449.6</ele></trkpt><trkpt lat="47.567557" lon="13.583496"><ele>1450.41</ele></trkpt><trkpt lat="47.567389" lon="13.583678"><ele>1451.18</ele></trkpt><trkpt lat="47.567256" lon="13.583884"><ele>1451.28</ele></trkpt><trkpt lat="47.567072" lon="13.58428"><ele>1451.48</ele></trkpt><trkpt lat="47.566963" lon="13.584447"><ele>1450.78</ele></trkpt><trkpt lat="47.566508" lon="13.584616"><ele>1452.73</ele></trkpt><trkpt lat="47.566366" lon="13.584859"><ele>1459.0</ele></trkpt><trkpt lat="47.566339" lon="13.584976"><ele>1469.05</ele></trkpt><trkpt lat="47.566316" lon="13.585317"><ele>1470.04</ele></trkpt><trkpt lat="47.566264" lon="13.585453"><ele>1469.42</ele></trkpt><trkpt lat="47.566231" lon="13.585474"><ele>1469.05</ele></trkpt><trkpt lat="47.566198" lon="13.585543"><ele>1472.4</ele></trkpt><trkpt lat="47.566081" lon="13.585891"><ele>1495.72</ele></trkpt><trkpt lat="47.565951" lon="13.586202"><ele>1499.03</ele></trkpt><trkpt lat="47.565733" lon="13.586601"><ele>1498.84</ele></trkpt><trkpt lat="47.56568" lon="13.586749"><ele>1498.88</ele></trkpt><trkpt lat="47.565449" lon="13.587167"><ele>1499.27</ele></trkpt><trkpt lat="47.565384" lon="13.587501"><ele>1501.13</ele></trkpt><trkpt lat="47.565375" lon="13.587631"><ele>1502.05</ele></trkpt><trkpt lat="47.565408" lon="13.587738"><ele>1502.9</ele></trkpt><trkpt lat="47.565459" lon="13.587774"><ele>1503.2</ele></trkpt><trkpt lat="47.565703" lon="13.587803"><ele>1503.18</ele></trkpt><trkpt lat="47.56579" lon="13.58784"><ele>1503.56</ele></trkpt><trkpt lat="47.565856" lon="13.587923"><ele>1504.61</ele></trkpt><trkpt lat="47.565968" lon="13.588328"><ele>1505.77</ele></trkpt><trkpt lat="47.566059" lon="13.588739"><ele>1506.51</ele></trkpt><trkpt lat="47.566212" lon="13.589208"><ele>1506.89</ele></trkpt><trkpt lat="47.566213" lon="13.589334"><ele>1504.91</ele></trkpt><trkpt lat="47.566185" lon="13.589471"><ele>1504.97</ele></trkpt><trkpt lat="47.566182" lon="13.589975"><ele>1504.65</ele></trkpt><trkpt lat="47.566161" lon="13.590066"><ele>1503.78</ele></trkpt><trkpt lat="47.566066" lon="13.590114"><ele>1503.33</ele></trkpt><trkpt lat="47.565846" lon="13.59035"><ele>1501.44</ele></trkpt><trkpt lat="47.56579" lon="13.590462"><ele>1500.57</ele></trkpt><trkpt lat="47.56578" lon="13.590582"><ele>1500.3</ele></trkpt><trkpt lat="47.56579" lon="13.590767"><ele>1498.87</ele></trkpt><trkpt lat="47.565754" lon="13.590858"><ele>1497.43</ele></trkpt><trkpt lat="47.565645" lon="13.590928"><ele>1495.88</ele></trkpt><trkpt lat="47.565484" lon="13.590894"><ele>1494.34</ele></trkpt><trkpt lat="47.565376" lon="13.590605"><ele>1494.39</ele></trkpt><trkpt lat="47.565297" lon="13.590572"><ele>1493.81</ele></trkpt><trkpt lat="47.565216" lon="13.590576"><ele>1493.13</ele></trkpt><trkpt lat="47.565157" lon="13.590638"><ele>1491.89</ele></trkpt><trkpt lat="47.564972" lon="13.590976"><ele>1486.33</ele></trkpt><trkpt lat="47.564876" lon="13.591236"><ele>1483.84</ele></trkpt><trkpt lat="47.56474" lon="13.591471"><ele>1482.73</ele></trkpt><trkpt lat="47.564515" lon="13.591668"><ele>1479.32</ele></trkpt><trkpt lat="47.56431" lon="13.591911"><ele>1475.47</ele></trkpt><trkpt lat="47.564199" lon="13.592003"><ele>1472.93</ele></trkpt><trkpt lat="47.563995" lon="13.59213"><ele>1471.04</ele></trkpt><trkpt lat="47.563905" lon="13.59222"><ele>1465.4</ele><time>2021-08-03T05:37:05Z</time></trkpt><trkpt lat="47.563791" lon="13.592398"><ele>1451.27</ele></trkpt><trkpt lat="47.563662" lon="13.592721"><ele>1450.65</ele></trkpt><trkpt lat="47.563521" lon="13.593134"><ele>1449.69</ele></trkpt><trkpt lat="47.56327" lon="13.593355"><ele>1432.6</ele><time>2021-08-03T05:37:44Z</time></trkpt><trkpt lat="47.563172" lon="13.593455"><ele>1425.46</ele></trkpt><trkpt lat="47.563037" lon="13.593699"><ele>1425.86</ele></trkpt><trkpt lat="47.562816" lon="13.594179"><ele>1425.88</ele></trkpt><trkpt lat="47.562598" lon="13.594446"><ele>1424.63</ele></trkpt><trkpt lat="47.562562" lon="13.594438"><ele>1424.36</ele></trkpt><trkpt lat="47.562522" lon="13.594377"><ele>1424.11</ele></trkpt><trkpt lat="47.562473" lon="13.594086"><ele>1423.78</ele></trkpt><trkpt lat="47.56237" lon="13.592744"><ele>1423.72</ele></trkpt><trkpt lat="47.562355" lon="13.592683"><ele>1423.66</ele></trkpt><trkpt lat="47.562333" lon="13.592707"><ele>1423.6</ele></trkpt><trkpt lat="47.562071" lon="13.593676"><ele>1410.98</ele></trkpt><trkpt lat="47.562026" lon="13.594153"><ele>1409.0</ele></trkpt><trkpt lat="47.561979" lon="13.594324"><ele>1407.47</ele></trkpt><trkpt lat="47.561414" lon="13.595655"><ele>1386.07</ele></trkpt><trkpt lat="47.561331" lon="13.595945"><ele>1379.59</ele></trkpt><trkpt lat="47.561306" lon="13.596423"><ele>1374.04</ele></trkpt><trkpt lat="47.561312" lon="13.596578"><ele>1374.22</ele></trkpt><trkpt lat="47.561412" lon="13.596801"><ele>1372.0</ele></trkpt><trkpt lat="47.561472" lon="13.597031"><ele>1371.78</ele></trkpt><trkpt lat="47.561557" lon="13.597272"><ele>1370.93</ele></trkpt><trkpt lat="47.561704" lon="13.597502"><ele>1369.23</ele></trkpt><trkpt lat="47.561807" lon="13.597557"><ele>1368.48</ele></trkpt><trkpt lat="47.561973" lon="13.597552"><ele>1366.23</ele></trkpt><trkpt lat="47.562222" lon="13.597479"><ele>1364.52</ele></trkpt><trkpt lat="47.562402" lon="13.597349"><ele>1365.24</ele></trkpt><trkpt lat="47.562451" lon="13.597377"><ele>1365.58</ele></trkpt><trkpt lat="47.562464" lon="13.597418"><ele>1371.2</ele></trkpt><trkpt lat="47.562463" lon="13.597468"><ele>1355.98</ele></trkpt><trkpt lat="47.562445" lon="13.597499"><ele>1356.82</ele></trkpt><trkpt lat="47.562249" lon="13.597649"><ele>1356.31</ele></trkpt><trkpt lat="47.562192" lon="13.597737"><ele>1356.16</ele></trkpt><trkpt lat="47.562092" lon="13.598002"><ele>1355.89</ele></trkpt><trkpt lat="47.562049" lon="13.598174"><ele>1355.76</ele></trkpt><trkpt lat="47.561981" lon="13.598324"><ele>1355.53</ele></trkpt><trkpt lat="47.561794" lon="13.59856"><ele>1353.14</ele></trkpt><trkpt lat="47.561726" lon="13.5986"><ele>1352.44</ele></trkpt><trkpt lat="47.561634" lon="13.598635"><ele>1333.8</ele></trkpt><trkpt lat="47.560887" lon="13.598538"><ele>1325.07</ele></trkpt><trkpt lat="47.559988" lon="13.598796"><ele>1312.78</ele></trkpt><trkpt lat="47.559736" lon="13.598639"><ele>1311.18</ele></trkpt><trkpt lat="47.559415" lon="13.597953"><ele>1308.37</ele></trkpt><trkpt lat="47.559088" lon="13.597481"><ele>1307.33</ele></trkpt><trkpt lat="47.558704" lon="13.596437"><ele>1308.52</ele></trkpt><trkpt lat="47.558604" lon="13.596048"><ele>1306.64</ele></trkpt><trkpt lat="47.558575" lon="13.596042"><ele>1307.4</ele><time>2021-08-03T05:44:37Z</time></trkpt><trkpt lat="47.558538" lon="13.596087"><ele>1306.19</ele></trkpt><trkpt lat="47.558627" lon="13.597668"><ele>1284.61</ele></trkpt><trkpt lat="47.558563" lon="13.598529"><ele>1279.78</ele></trkpt><trkpt lat="47.55876" lon="13.59929"><ele>1275.21</ele></trkpt><trkpt lat="47.558764" lon="13.599902"><ele>1267.71</ele></trkpt><trkpt lat="47.558812" lon="13.600272"><ele>1265.62</ele></trkpt><trkpt lat="47.558904" lon="13.600564"><ele>1262.1</ele></trkpt><trkpt lat="47.559128" lon="13.600912"><ele>1260.63</ele></trkpt><trkpt lat="47.559229" lon="13.601285"><ele>1258.53</ele></trkpt><trkpt lat="47.559265" lon="13.601787"><ele>1255.3</ele></trkpt><trkpt lat="47.559261" lon="13.602392"><ele>1253.02</ele></trkpt><trkpt lat="47.559214" lon="13.602964"><ele>1252.97</ele></trkpt><trkpt lat="47.559241" lon="13.60311"><ele>1252.96</ele></trkpt><trkpt lat="47.559313" lon="13.603235"><ele>1252.94</ele></trkpt><trkpt lat="47.559513" lon="13.603432"><ele>1251.07</ele></trkpt><trkpt lat="47.55969" lon="13.603702"><ele>1249.24</ele></trkpt><trkpt lat="47.559725" lon="13.603865"><ele>1248.47</ele></trkpt><trkpt lat="47.559703" lon="13.604015"><ele>1248.13</ele></trkpt><trkpt lat="47.559664" lon="13.604093"><ele>1244.4</ele><time>2021-08-03T05:47:55Z</time></trkpt><trkpt lat="47.559508" lon="13.604438"><ele>1232.6</ele></trkpt><trkpt lat="47.55935" lon="13.605248"><ele>1228.75</ele></trkpt><trkpt lat="47.559332" lon="13.60557"><ele>1228.49</ele></trkpt><trkpt lat="47.559507" lon="13.606082"><ele>1223.58</ele></trkpt><trkpt lat="47.559855" lon="13.606492"><ele>1219.58</ele></trkpt><trkpt lat="47.559861" lon="13.606729"><ele>1217.16</ele></trkpt><trkpt lat="47.559475" lon="13.607833"><ele>1209.91</ele></trkpt><trkpt lat="47.55941" lon="13.608476"><ele>1209.01</ele></trkpt><trkpt lat="47.559348" lon="13.608691"><ele>1210.78</ele></trkpt><trkpt lat="47.559093" lon="13.60906"><ele>1205.88</ele></trkpt><trkpt lat="47.558872" lon="13.609472"><ele>1193.8</ele><time>2021-08-03T05:50:18Z</time></trkpt><trkpt lat="47.558562" lon="13.609884"><ele>1189.53</ele></trkpt><trkpt lat="47.558484" lon="13.609907"><ele>1189.86</ele></trkpt><trkpt lat="47.558407" lon="13.609887"><ele>1190.16</ele></trkpt><trkpt lat="47.558379" lon="13.609715"><ele>1189.86</ele></trkpt><trkpt lat="47.558425" lon="13.609478"><ele>1188.8</ele></trkpt><trkpt lat="47.558498" lon="13.609337"><ele>1189.11</ele></trkpt><trkpt lat="47.55864" lon="13.609217"><ele>1189.41</ele></trkpt><trkpt lat="47.558751" lon="13.60901"><ele>1188.91</ele></trkpt><trkpt lat="47.558778" lon="13.608788"><ele>1188.44</ele></trkpt><trkpt lat="47.558737" lon="13.608452"><ele>1186.91</ele></trkpt><trkpt lat="47.558591" lon="13.608053"><ele>1185.28</ele></trkpt><trkpt lat="47.558591" lon="13.607812"><ele>1182.27</ele></trkpt><trkpt lat="47.558583" lon="13.607721"><ele>1179.53</ele></trkpt><trkpt lat="47.558556" lon="13.60764"><ele>1179.36</ele></trkpt><trkpt lat="47.558076" lon="13.606769"><ele>1169.5</ele></trkpt><trkpt lat="47.557988" lon="13.606484"><ele>1167.34</ele></trkpt><trkpt lat="47.5579" lon="13.606003"><ele>1160.49</ele></trkpt><trkpt lat="47.557867" lon="13.605573"><ele>1153.46</ele></trkpt><trkpt lat="47.557494" lon="13.60438"><ele>1137.55</ele></trkpt><trkpt lat="47.557275" lon="13.603944"><ele>1137.43</ele></trkpt><trkpt lat="47.557302" lon="13.603451"><ele>1137.76</ele></trkpt><trkpt lat="47.557269" lon="13.603255"><ele>1139.33</ele></trkpt><trkpt lat="47.557061" lon="13.602687"><ele>1141.6</ele></trkpt><trkpt lat="47.556984" lon="13.602628"><ele>1142.09</ele></trkpt><trkpt lat="47.556921" lon="13.602668"><ele>1142.54</ele></trkpt><trkpt lat="47.556903" lon="13.602763"><ele>1142.96</ele></trkpt><trkpt lat="47.557056" lon="13.603314"><ele>1141.43</ele></trkpt><trkpt lat="47.557063" lon="13.603517"><ele>1140.45</ele></trkpt><trkpt lat="47.556923" lon="13.603972"><ele>1138.67</ele></trkpt><trkpt lat="47.556888" lon="13.604374"><ele>1138.15</ele></trkpt><trkpt lat="47.556843" lon="13.604597"><ele>1137.95</ele></trkpt><trkpt lat="47.556771" lon="13.60481"><ele>1128.69</ele></trkpt><trkpt lat="47.556742" lon="13.605012"><ele>1127.26</ele></trkpt><trkpt lat="47.556745" lon="13.605264"><ele>1123.27</ele></trkpt><trkpt lat="47.556875" lon="13.60557"><ele>1122.11</ele></trkpt><trkpt lat="47.556916" lon="13.605803"><ele>1122.34</ele></trkpt><trkpt lat="47.556905" lon="13.606043"><ele>1120.84</ele></trkpt><trkpt lat="47.556655" lon="13.606621"><ele>1115.81</ele></trkpt><trkpt lat="47.556562" lon="13.606712"><ele>1113.34</ele></trkpt><trkpt lat="47.55611" lon="13.606641"><ele>1108.92</ele></trkpt><trkpt lat="47.555999" lon="13.606773"><ele>1086.2</ele></trkpt><trkpt lat="47.555888" lon="13.60684"><ele>1076.61</ele></trkpt><trkpt lat="47.555825" lon="13.60675"><ele>1074.16</ele></trkpt><trkpt lat="47.555833" lon="13.606559"><ele>1072.4</ele></trkpt><trkpt lat="47.556167" lon="13.605994"><ele>1073.1</ele></trkpt><trkpt lat="47.556199" lon="13.605795"><ele>1074.09</ele></trkpt><trkpt lat="47.556151" lon="13.605511"><ele>1075.87</ele></trkpt><trkpt lat="47.555673" lon="13.604849"><ele>1070.49</ele></trkpt><trkpt lat="47.555614" lon="13.604652"><ele>1070.05</ele></trkpt><trkpt lat="47.55547" lon="13.604321"><ele>1069.38</ele></trkpt><trkpt lat="47.55539" lon="13.603846"><ele>1061.19</ele></trkpt><trkpt lat="47.555295" lon="13.6036"><ele>1058.4</ele></trkpt><trkpt lat="47.554892" lon="13.602789"><ele>1057.36</ele></trkpt><trkpt lat="47.554746" lon="13.602566"><ele>1056.46</ele></trkpt><trkpt lat="47.554593" lon="13.602112"><ele>1056.49</ele></trkpt><trkpt lat="47.554553" lon="13.601831"><ele>1056.64</ele></trkpt><trkpt lat="47.554484" lon="13.601629"><ele>1058.73</ele></trkpt><trkpt lat="47.554341" lon="13.60153"><ele>1058.58</ele></trkpt><trkpt lat="47.553913" lon="13.601367"><ele>1061.49</ele></trkpt><trkpt lat="47.553329" lon="13.601519"><ele>1065.02</ele></trkpt><trkpt lat="47.553215" lon="13.601596"><ele>1066.68</ele></trkpt><trkpt lat="47.553141" lon="13.601725"><ele>1065.18</ele></trkpt><trkpt lat="47.553121" lon="13.601947"><ele>1037.8</ele><time>2021-08-03T05:59:15Z</time></trkpt><trkpt lat="47.553285" lon="13.602078"><ele>1025.89</ele></trkpt><trkpt lat="47.553228" lon="13.602269"><ele>1027.59</ele></trkpt><trkpt lat="47.552962" lon="13.602338"><ele>1026.3</ele></trkpt><trkpt lat="47.55238" lon="13.602634"><ele>1012.69</ele></trkpt><trkpt lat="47.552101" lon="13.602927"><ele>1013.14</ele></trkpt><trkpt lat="47.551872" lon="13.603332"><ele>1007.05</ele></trkpt><trkpt lat="47.551678" lon="13.603403"><ele>1007.77</ele></trkpt><trkpt lat="47.551552" lon="13.603527"><ele>1008.8</ele></trkpt><trkpt lat="47.551599" lon="13.60366"><ele>1008.02</ele></trkpt><trkpt lat="47.551871" lon="13.603645"><ele>1001.91</ele></trkpt><trkpt lat="47.55217" lon="13.603474"><ele>1005.91</ele></trkpt><trkpt lat="47.552451" lon="13.603589"><ele>1007.59</ele></trkpt><trkpt lat="47.552968" lon="13.603973"><ele>990.67</ele></trkpt><trkpt lat="47.553027" lon="13.604162"><ele>991.36</ele></trkpt><trkpt lat="47.55301" lon="13.604318"><ele>989.49</ele></trkpt><trkpt lat="47.552713" lon="13.604767"><ele>988.77</ele></trkpt><trkpt lat="47.552633" lon="13.605498"><ele>985.66</ele></trkpt><trkpt lat="47.552704" lon="13.605849"><ele>980.55</ele></trkpt><trkpt lat="47.552852" lon="13.606191"><ele>972.77</ele></trkpt><trkpt lat="47.55289" lon="13.606647"><ele>968.61</ele></trkpt><trkpt lat="47.553172" lon="13.607439"><ele>959.98</ele></trkpt><trkpt lat="47.553326" lon="13.607784"><ele>956.4</ele></trkpt><trkpt lat="47.55349" lon="13.608312"><ele>955.88</ele></trkpt><trkpt lat="47.553761" lon="13.608677"><ele>952.76</ele></trkpt><trkpt lat="47.553842" lon="13.608877"><ele>951.18</ele></trkpt><trkpt lat="47.553969" lon="13.609938"><ele>948.66</ele></trkpt><trkpt lat="47.553724" lon="13.610434"><ele>939.2</ele></trkpt><trkpt lat="47.553604" lon="13.6108"><ele>932.4</ele></trkpt><trkpt lat="47.553513" lon="13.612059"><ele>913.79</ele></trkpt><trkpt lat="47.553635" lon="13.612762"><ele>911.22</ele></trkpt><trkpt lat="47.553541" lon="13.613386"><ele>907.12</ele></trkpt><trkpt lat="47.553342" lon="13.613828"><ele>907.0</ele></trkpt><trkpt lat="47.553166" lon="13.614031"><ele>887.75</ele></trkpt><trkpt lat="47.552656" lon="13.614328"><ele>887.0</ele><time>2021-08-03T06:06:00Z</time></trkpt><trkpt lat="47.552574" lon="13.614616"><ele>889.6</ele></trkpt><trkpt lat="47.5526" lon="13.614823"><ele>888.29</ele></trkpt><trkpt lat="47.552776" lon="13.61552"><ele>885.28</ele></trkpt><trkpt lat="47.55285" lon="13.6157"><ele>884.94</ele></trkpt><trkpt lat="47.552889" lon="13.61584"><ele>884.56</ele></trkpt><trkpt lat="47.552851" lon="13.616207"><ele>882.72</ele></trkpt><trkpt lat="47.552781" lon="13.616504"><ele>881.68</ele></trkpt><trkpt lat="47.552592" lon="13.616641"><ele>878.74</ele></trkpt><trkpt lat="47.552415" lon="13.616729"><ele>876.59</ele></trkpt><trkpt lat="47.552336" lon="13.616869"><ele>876.18</ele></trkpt><trkpt lat="47.552308" lon="13.617165"><ele>876.64</ele></trkpt><trkpt lat="47.552298" lon="13.617911"><ele>873.59</ele></trkpt><trkpt lat="47.552222" lon="13.61836"><ele>872.19</ele></trkpt><trkpt lat="47.552139" lon="13.618598"><ele>861.8</ele><time>2021-08-03T06:07:51Z</time></trkpt><trkpt lat="47.552054" lon="13.618617"><ele>853.52</ele></trkpt><trkpt lat="47.551903" lon="13.618561"><ele>852.78</ele></trkpt><trkpt lat="47.551823" lon="13.618476"><ele>852.28</ele></trkpt><trkpt lat="47.551714" lon="13.618217"><ele>851.2</ele></trkpt><trkpt lat="47.551605" lon="13.618021"><ele>850.36</ele></trkpt><trkpt lat="47.551501" lon="13.617933"><ele>850.46</ele></trkpt><trkpt lat="47.55123" lon="13.618101"><ele>850.67</ele></trkpt><trkpt lat="47.551091" lon="13.618221"><ele>850.79</ele></trkpt><trkpt lat="47.551021" lon="13.617977"><ele>850.91</ele></trkpt><trkpt lat="47.551032" lon="13.617798"><ele>851.04</ele></trkpt><trkpt lat="47.551102" lon="13.617564"><ele>851.17</ele></trkpt><trkpt lat="47.551203" lon="13.617373"><ele>851.32</ele></trkpt><trkpt lat="47.551216" lon="13.617197"><ele>851.47</ele></trkpt><trkpt lat="47.551263" lon="13.617091"><ele>851.63</ele></trkpt><trkpt lat="47.551251" lon="13.61692"><ele>848.6</ele><time>2021-08-03T06:09:07Z</time></trkpt><trkpt lat="47.551014" lon="13.616723"><ele>848.6</ele><time>2021-08-03T06:09:16Z</time></trkpt><trkpt lat="47.550849" lon="13.616501"><ele>825.96</ele></trkpt><trkpt lat="47.550722" lon="13.616287"><ele>823.61</ele></trkpt><trkpt lat="47.55066" lon="13.616051"><ele>823.56</ele></trkpt><trkpt lat="47.550679" lon="13.615809"><ele>823.82</ele></trkpt><trkpt lat="47.550652" lon="13.615535"><ele>824.31</ele></trkpt><trkpt lat="47.550553" lon="13.615354"><ele>824.77</ele></trkpt><trkpt lat="47.550531" lon="13.615176"><ele>823.99</ele></trkpt><trkpt lat="47.550643" lon="13.614834"><ele>822.43</ele></trkpt><trkpt lat="47.5507" lon="13.614583"><ele>821.08</ele></trkpt><trkpt lat="47.550686" lon="13.614389"><ele>820.75</ele></trkpt><trkpt lat="47.550617" lon="13.614275"><ele>819.73</ele></trkpt><trkpt lat="47.550421" lon="13.614313"><ele>818.91</ele></trkpt><trkpt lat="47.550325" lon="13.614235"><ele>818.74</ele></trkpt><trkpt lat="47.550311" lon="13.613883"><ele>816.84</ele></trkpt><trkpt lat="47.550113" lon="13.613547"><ele>815.38</ele></trkpt><trkpt lat="47.549947" lon="13.613413"><ele>814.07</ele></trkpt><trkpt lat="47.549806" lon="13.61347"><ele>813.93</ele></trkpt><trkpt lat="47.549641" lon="13.613675"><ele>814.97</ele></trkpt><trkpt lat="47.549391" lon="13.613709"><ele>812.7</ele></trkpt><trkpt lat="47.549192" lon="13.613584"><ele>812.63</ele></trkpt><trkpt lat="47.549086" lon="13.613364"><ele>811.95</ele></trkpt><trkpt lat="47.548994" lon="13.613332"><ele>809.4</ele><time>2021-08-03T06:11:33Z</time></trkpt><trkpt lat="47.548853" lon="13.61339"><ele>801.29</ele></trkpt><trkpt lat="47.548727" lon="13.613498"><ele>797.6</ele><time>2021-08-03T06:11:41Z</time></trkpt><trkpt lat="47.548736" lon="13.613722"><ele>793.19</ele></trkpt><trkpt lat="47.548715" lon="13.614147"><ele>793.82</ele></trkpt><trkpt lat="47.548541" lon="13.6148"><ele>789.87</ele></trkpt><trkpt lat="47.548342" lon="13.615242"><ele>787.78</ele></trkpt><trkpt lat="47.547675" lon="13.615935"><ele>779.7</ele></trkpt><trkpt lat="47.546982" lon="13.616734"><ele>797.33</ele></trkpt><trkpt lat="47.546677" lon="13.61732"><ele>804.01</ele></trkpt><trkpt lat="47.546483" lon="13.617631"><ele>807.11</ele></trkpt><trkpt lat="47.54621" lon="13.618166"><ele>811.8</ele></trkpt><trkpt lat="47.546094" lon="13.618312"><ele>828.8</ele></trkpt><trkpt lat="47.545759" lon="13.618431"><ele>782.6</ele></trkpt><trkpt lat="47.545707" lon="13.618483"><ele>782.6</ele></trkpt><trkpt lat="47.54563" lon="13.61862"><ele>782.6</ele><time>2021-08-03T06:13:36Z</time></trkpt><trkpt lat="47.54527" lon="13.61942"><ele>713.2</ele></trkpt><trkpt lat="47.545204" lon="13.619497"><ele>713.2</ele></trkpt><trkpt lat="47.545141" lon="13.619675"><ele>713.2</ele></trkpt><trkpt lat="47.545111" lon="13.619878"><ele>704.28</ele></trkpt><trkpt lat="47.545031" lon="13.620106"><ele>700.35</ele></trkpt><trkpt lat="47.544951" lon="13.620268"><ele>704.19</ele></trkpt><trkpt lat="47.54479" lon="13.620756"><ele>702.67</ele></trkpt><trkpt lat="47.544816" lon="13.62147"><ele>692.06</ele></trkpt><trkpt lat="47.544972" lon="13.622408"><ele>669.04</ele></trkpt><trkpt lat="47.545047" lon="13.623156"><ele>644.17</ele></trkpt><trkpt lat="47.545376" lon="13.623752"><ele>631.52</ele></trkpt><trkpt lat="47.545477" lon="13.624033"><ele>629.49</ele></trkpt><trkpt lat="47.545729" lon="13.624877"><ele>622.12</ele></trkpt><trkpt lat="47.54582" lon="13.625073"><ele>623.21</ele></trkpt><trkpt lat="47.545955" lon="13.625673"><ele>612.53</ele></trkpt><trkpt lat="47.546078" lon="13.626701"><ele>605.09</ele></trkpt><trkpt lat="47.546165" lon="13.627073"><ele>597.35</ele></trkpt><trkpt lat="47.546294" lon="13.627467"><ele>597.49</ele></trkpt><trkpt lat="47.546508" lon="13.627729"><ele>598.56</ele></trkpt><trkpt lat="47.54665" lon="13.627946"><ele>601.8</ele></trkpt><trkpt lat="47.546728" lon="13.628017"><ele>587.51</ele></trkpt><trkpt lat="47.546933" lon="13.628484"><ele>583.73</ele></trkpt><trkpt lat="47.547259" lon="13.629339"><ele>584.71</ele></trkpt><trkpt lat="47.547535" lon="13.629687"><ele>579.85</ele></trkpt><trkpt lat="47.547976" lon="13.629981"><ele>572.6</ele><time>2021-08-03T06:17:07Z</time></trkpt><trkpt lat="47.548073" lon="13.630051"><ele>569.13</ele></trkpt><trkpt lat="47.548329" lon="13.630463"><ele>570.79</ele></trkpt><trkpt lat="47.548522" lon="13.630808"><ele>569.17</ele></trkpt><trkpt lat="47.548693" lon="13.630953"><ele>556.8</ele></trkpt><trkpt lat="47.548901" lon="13.631027"><ele>553.2</ele></trkpt><trkpt lat="47.549448" lon="13.630962"><ele>546.0</ele></trkpt><trkpt lat="47.549604" lon="13.631152"><ele>546.0</ele></trkpt><trkpt lat="47.54988" lon="13.631713"><ele>543.8</ele><time>2021-08-03T06:18:10Z</time></trkpt><trkpt lat="47.550235" lon="13.631869"><ele>541.03</ele></trkpt><trkpt lat="47.550452" lon="13.631882"><ele>539.0</ele></trkpt><trkpt lat="47.550535" lon="13.631907"><ele>539.0</ele><time>2021-08-03T06:18:25Z</time></trkpt><trkpt lat="47.550774" lon="13.632334"><ele>537.57</ele></trkpt><trkpt lat="47.551036" lon="13.633007"><ele>537.28</ele></trkpt><trkpt lat="47.551341" lon="13.633619"><ele>532.6</ele><time>2021-08-03T06:18:56Z</time></trkpt><trkpt lat="47.551404" lon="13.633679"><ele>575.13</ele></trkpt><trkpt lat="47.55199" lon="13.634031"><ele>593.39</ele></trkpt><trkpt lat="47.552282" lon="13.634134"><ele>597.02</ele></trkpt><trkpt lat="47.552405" lon="13.634206"><ele>598.81</ele></trkpt><trkpt lat="47.552522" lon="13.634336"><ele>601.87</ele></trkpt><trkpt lat="47.552617" lon="13.634498"><ele>600.47</ele></trkpt><trkpt lat="47.552741" lon="13.634797"><ele>598.54</ele></trkpt><trkpt lat="47.552811" lon="13.635115"><ele>595.02</ele></trkpt><trkpt lat="47.552881" lon="13.635356"><ele>594.63</ele></trkpt><trkpt lat="47.552919" lon="13.635603"><ele>594.27</ele></trkpt><trkpt lat="47.552862" lon="13.636385"><ele>561.6</ele><time>2021-08-03T06:20:07Z</time></trkpt><trkpt lat="47.552898" lon="13.636416"><ele>558.27</ele></trkpt><trkpt lat="47.553119" lon="13.636893"><ele>551.22</ele></trkpt><trkpt lat="47.553459" lon="13.637863"><ele>558.1</ele></trkpt><trkpt lat="47.553502" lon="13.638031"><ele>550.85</ele><time>2021-08-03T06:20:37Z</time></trkpt></trkseg><trkseg><trkpt lat="47.553502" lon="13.638031"><ele>550.85</ele><time>2021-08-03T05:27:10Z</time></trkpt><trkpt lat="47.55359" lon="13.638379"><ele>543.6</ele></trkpt><trkpt lat="47.553857" lon="13.639206"><ele>549.22</ele></trkpt><trkpt lat="47.5541" lon="13.639849"><ele>546.5</ele></trkpt><trkpt lat="47.554299" lon="13.640443"><ele>558.64</ele></trkpt><trkpt lat="47.554464" lon="13.641289"><ele>554.63</ele></trkpt><trkpt lat="47.554677" lon="13.642117"><ele>537.54</ele></trkpt><trkpt lat="47.555169" lon="13.643588"><ele>523.69</ele></trkpt><trkpt lat="47.555258" lon="13.643807"><ele>524.6</ele></trkpt><trkpt lat="47.555394" lon="13.644005"><ele>525.12</ele></trkpt><trkpt lat="47.555568" lon="13.64474"><ele>524.87</ele></trkpt><trkpt lat="47.555553" lon="13.644826"><ele>524.63</ele></trkpt><trkpt lat="47.555467" lon="13.645046"><ele>523.69</ele></trkpt><trkpt lat="47.555348" lon="13.645274"><ele>522.02</ele></trkpt><trkpt lat="47.555309" lon="13.645544"><ele>512.4</ele><time>2021-08-03T05:29:19Z</time></trkpt><trkpt lat="47.555535" lon="13.645833"><ele>512.4</ele><time>2021-08-03T05:29:26Z</time></trkpt><trkpt lat="47.554817" lon="13.646225"><ele>506.88</ele></trkpt><trkpt lat="47.554486" lon="13.646442"><ele>506.7</ele></trkpt><trkpt lat="47.55437" lon="13.64656"><ele>506.4</ele></trkpt><trkpt lat="47.554105" lon="13.646913"><ele>507.6</ele><time>2021-08-03T05:30:02Z</time></trkpt><trkpt lat="47.554163" lon="13.647349"><ele>507.6</ele><time>2021-08-03T05:30:09Z</time></trkpt><trkpt lat="47.553853" lon="13.647498"><ele>508.24</ele></trkpt><trkpt lat="47.553568" lon="13.647681"><ele>508.14</ele></trkpt><trkpt lat="47.553241" lon="13.647997"><ele>510.0</ele></trkpt><trkpt lat="47.553119" lon="13.648148"><ele>510.0</ele></trkpt><trkpt lat="47.552924" lon="13.648505"><ele>510.4</ele></trkpt><trkpt lat="47.552814" lon="13.648857"><ele>510.4</ele><time>2021-08-03T05:30:48Z</time></trkpt><trkpt lat="47.552697" lon="13.648833"><ele>510.4</ele><time>2021-08-03T05:30:51Z</time></trkpt><trkpt lat="47.552668" lon="13.648882"><ele>510.4</ele><time>2021-08-03T05:30:53Z</time></trkpt><trkpt lat="47.552724" lon="13.649044"><ele>511.03</ele></trkpt><trkpt lat="47.552711" lon="13.649356"><ele>511.14</ele></trkpt><trkpt lat="47.552737" lon="13.650081"><ele>511.13</ele></trkpt><trkpt lat="47.552705" lon="13.650382"><ele>511.08</ele></trkpt><trkpt lat="47.552634" lon="13.650654"><ele>511.4</ele><time>2021-08-03T05:31:42Z</time></trkpt><trkpt lat="47.552602" lon="13.650764"><ele>517.23</ele></trkpt><trkpt lat="47.552495" lon="13.650946"><ele>518.21</ele></trkpt><trkpt lat="47.552336" lon="13.651121"><ele>519.72</ele></trkpt><trkpt lat="47.551721" lon="13.651668"><ele>520.8</ele></trkpt><trkpt lat="47.550493" lon="13.652829"><ele>542.55</ele></trkpt><trkpt lat="47.550097" lon="13.653314"><ele>542.67</ele></trkpt><trkpt lat="47.549734" lon="13.653842"><ele>546.41</ele></trkpt><trkpt lat="47.549366" lon="13.654536"><ele>526.6</ele></trkpt><trkpt lat="47.549223" lon="13.654777"><ele>532.93</ele></trkpt><trkpt lat="47.548938" lon="13.655159"><ele>535.19</ele></trkpt><trkpt lat="47.548448" lon="13.655691"><ele>535.55</ele></trkpt><trkpt lat="47.547765" lon="13.656691"><ele>531.07</ele></trkpt><trkpt lat="47.547355" lon="13.657232"><ele>538.01</ele></trkpt><trkpt lat="47.546811" lon="13.657874"><ele>536.33</ele></trkpt><trkpt lat="47.546502" lon="13.658337"><ele>535.87</ele></trkpt><trkpt lat="47.546357" lon="13.658601"><ele>535.8</ele></trkpt><trkpt lat="47.546287" lon="13.658768"><ele>534.2</ele></trkpt><trkpt lat="47.546196" lon="13.65899"><ele>523.2</ele></trkpt><trkpt lat="47.54602" lon="13.659505"><ele>522.13</ele></trkpt><trkpt lat="47.545839" lon="13.660285"><ele>524.53</ele></trkpt><trkpt lat="47.545691" lon="13.661446"><ele>524.63</ele></trkpt><trkpt lat="47.545819" lon="13.66148"><ele>525.2</ele></trkpt><trkpt lat="47.545764" lon="13.661926"><ele>523.8</ele></trkpt><trkpt lat="47.545612" lon="13.662679"><ele>522.47</ele></trkpt><trkpt lat="47.545594" lon="13.662899"><ele>521.8</ele></trkpt><trkpt lat="47.545613" lon="13.663213"><ele>521.8</ele></trkpt><trkpt lat="47.545683" lon="13.66345"><ele>520.6</ele></trkpt><trkpt lat="47.546097" lon="13.66417"><ele>508.4</ele></trkpt><trkpt lat="47.546234" lon="13.664453"><ele>511.2</ele></trkpt><trkpt lat="47.546384" lon="13.664913"><ele>512.3</ele></trkpt><trkpt lat="47.546508" lon="13.665502"><ele>513.74</ele></trkpt><trkpt lat="47.546539" lon="13.665778"><ele>513.94</ele></trkpt><trkpt lat="47.546552" lon="13.66657"><ele>515.86</ele></trkpt><trkpt lat="47.546504" lon="13.667926"><ele>519.7</ele></trkpt><trkpt lat="47.54649" lon="13.668949"><ele>524.2</ele></trkpt><trkpt lat="47.54665" lon="13.670693"><ele>517.27</ele></trkpt><trkpt lat="47.546705" lon="13.67115"><ele>515.09</ele></trkpt><trkpt lat="47.546741" lon="13.671316"><ele>515.01</ele></trkpt><trkpt lat="47.54694" lon="13.671959"><ele>516.14</ele></trkpt><trkpt lat="47.546997" lon="13.67228"><ele>516.69</ele></trkpt><trkpt lat="47.547087" lon="13.673393"><ele>518.8</ele></trkpt><trkpt lat="47.54713" lon="13.673748"><ele>517.82</ele></trkpt><trkpt lat="47.547327" lon="13.674866"><ele>515.62</ele></trkpt><trkpt lat="47.547529" lon="13.675518"><ele>514.69</ele></trkpt><trkpt lat="47.547774" lon="13.676082"><ele>513.95</ele></trkpt><trkpt lat="47.547956" lon="13.676419"><ele>513.72</ele></trkpt><trkpt lat="47.548584" lon="13.677409"><ele>512.31</ele></trkpt><trkpt lat="47.549142" lon="13.678234"><ele>512.4</ele></trkpt><trkpt lat="47.549544" lon="13.678888"><ele>508.6</ele><time>2021-08-03T05:47:28Z</time></trkpt><trkpt lat="47.549825" lon="13.679463"><ele>510.23</ele></trkpt><trkpt lat="47.549992" lon="13.679906"><ele>510.4</ele></trkpt><trkpt lat="47.550167" lon="13.680529"><ele>508.8</ele></trkpt><trkpt lat="47.550698" lon="13.682673"><ele>517.4</ele></trkpt><trkpt lat="47.550821" lon="13.68293"><ele>513.32</ele></trkpt><trkpt lat="47.55094" lon="13.683078"><ele>512.5</ele></trkpt><trkpt lat="47.551124" lon="13.683215"><ele>512.96</ele></trkpt><trkpt lat="47.552352" lon="13.684027"><ele>511.87</ele></trkpt><trkpt lat="47.552599" lon="13.684235"><ele>512.8</ele></trkpt><trkpt lat="47.552714" lon="13.684274"><ele>512.8</ele></trkpt><trkpt lat="47.553735" lon="13.684939"><ele>511.8</ele><time>2021-08-03T05:51:33Z</time></trkpt><trkpt lat="47.553809" lon="13.68429"><ele>511.55</ele></trkpt><trkpt lat="47.553802" lon="13.684108"><ele>511.56</ele></trkpt><trkpt lat="47.553755" lon="13.68385"><ele>511.67</ele></trkpt><trkpt lat="47.553769" lon="13.683695"><ele>511.73</ele></trkpt><trkpt lat="47.553933" lon="13.683044"><ele>511.79</ele></trkpt><trkpt lat="47.554211" lon="13.682303"><ele>511.8</ele></trkpt><trkpt lat="47.554424" lon="13.681393"><ele>511.6</ele></trkpt><trkpt lat="47.554521" lon="13.680623"><ele>509.43</ele></trkpt><trkpt lat="47.554685" lon="13.679736"><ele>509.18</ele></trkpt><trkpt lat="47.55468" lon="13.679105"><ele>508.73</ele></trkpt><trkpt lat="47.55473" lon="13.67856"><ele>508.69</ele></trkpt><trkpt lat="47.554749" lon="13.678509"><ele>508.8</ele><time>2021-08-03T05:53:43Z</time></trkpt><trkpt lat="47.554956" lon="13.678136"><ele>508.96</ele></trkpt><trkpt lat="47.555005" lon="13.678077"><ele>508.67</ele></trkpt><trkpt lat="47.555126" lon="13.67801"><ele>508.2</ele></trkpt><trkpt lat="47.555316" lon="13.677977"><ele>508.2</ele><time>2021-08-03T05:54:03Z</time></trkpt><trkpt lat="47.555326" lon="13.677975"><ele>508.2</ele><time>2021-08-03T05:54:04Z</time></trkpt><trkpt lat="47.555387" lon="13.677704"><ele>506.11</ele></trkpt><trkpt lat="47.555709" lon="13.67705"><ele>505.66</ele></trkpt><trkpt lat="47.555773" lon="13.676949"><ele>505.5</ele></trkpt><trkpt lat="47.55589" lon="13.676847"><ele>505.36</ele></trkpt><trkpt lat="47.556019" lon="13.676803"><ele>505.41</ele></trkpt><trkpt lat="47.556286" lon="13.676773"><ele>505.46</ele></trkpt><trkpt lat="47.556471" lon="13.67681"><ele>505.34</ele></trkpt><trkpt lat="47.556611" lon="13.676869"><ele>504.48</ele><time>2021-08-03T05:55:01Z</time></trkpt></trkseg><trkseg><trkpt lat="47.556611" lon="13.676869"><ele>504.48</ele><time>2021-08-03T05:27:10Z</time></trkpt><trkpt lat="47.557137" lon="13.677139"><ele>503.6</ele><time>2021-08-03T05:27:29Z</time></trkpt><trkpt lat="47.55711" lon="13.677324"><ele>504.17</ele></trkpt><trkpt lat="47.557124" lon="13.677492"><ele>504.25</ele></trkpt><trkpt lat="47.557217" lon="13.67773"><ele>504.35</ele></trkpt><trkpt lat="47.557299" lon="13.677856"><ele>504.28</ele></trkpt><trkpt lat="47.557483" lon="13.677984"><ele>504.21</ele></trkpt><trkpt lat="47.557728" lon="13.678055"><ele>504.68</ele></trkpt><trkpt lat="47.557815" lon="13.678135"><ele>504.78</ele></trkpt><trkpt lat="47.558014" lon="13.678418"><ele>505.02</ele></trkpt><trkpt lat="47.558117" lon="13.678533"><ele>504.94</ele></trkpt><trkpt lat="47.558322" lon="13.678609"><ele>505.85</ele></trkpt><trkpt lat="47.558489" lon="13.678761"><ele>506.4</ele><time>2021-08-03T05:28:32Z</time></trkpt><trkpt lat="47.558417" lon="13.679069"><ele>506.4</ele><time>2021-08-03T05:28:40Z</time></trkpt><trkpt lat="47.558776" lon="13.679289"><ele>507.8</ele><time>2021-08-03T05:28:51Z</time></trkpt><trkpt lat="47.558669" lon="13.679733"><ele>507.8</ele><time>2021-08-03T05:29:00Z</time></trkpt><trkpt lat="47.558587" lon="13.679729"><ele>507.8</ele></trkpt><trkpt lat="47.558548" lon="13.679788"><ele>507.8</ele></trkpt><trkpt lat="47.55854" lon="13.679868"><ele>507.8</ele></trkpt><trkpt lat="47.558579" lon="13.679958"><ele>507.8</ele></trkpt><trkpt lat="47.558627" lon="13.679978"><ele>507.8</ele></trkpt><trkpt lat="47.55869" lon="13.679939"><ele>507.8</ele></trkpt><trkpt lat="47.558797" lon="13.680059"><ele>508.19</ele></trkpt><trkpt lat="47.559197" lon="13.680327"><ele>515.0</ele><time>2021-08-03T05:29:24Z</time></trkpt><trkpt lat="47.559279" lon="13.680116"><ele>517.08</ele></trkpt><trkpt lat="47.559589" lon="13.679785"><ele>517.41</ele></trkpt><trkpt lat="47.55969" lon="13.679578"><ele>517.17</ele></trkpt><trkpt lat="47.559709" lon="13.679461"><ele>518.2</ele><time>2021-08-03T05:29:42Z</time></trkpt><trkpt lat="47.559824" lon="13.679285"><ele>533.56</ele></trkpt><trkpt lat="47.560131" lon="13.678621"><ele>535.2</ele></trkpt><trkpt lat="47.560231" lon="13.67846"><ele>541.87</ele></trkpt><trkpt lat="47.560709" lon="13.677369"><ele>569.65</ele></trkpt><trkpt lat="47.560858" lon="13.676959"><ele>578.85</ele></trkpt><trkpt lat="47.560986" lon="13.676349"><ele>574.12</ele></trkpt><trkpt lat="47.561026" lon="13.675849"><ele>598.75</ele></trkpt><trkpt lat="47.561018" lon="13.675389"><ele>600.66</ele></trkpt><trkpt lat="47.560968" lon="13.674927"><ele>602.48</ele></trkpt><trkpt lat="47.560856" lon="13.674508"><ele>609.8</ele><time>2021-08-03T05:31:14Z</time></trkpt><trkpt lat="47.560626" lon="13.673857"><ele>550.68</ele></trkpt><trkpt lat="47.560396" lon="13.673047"><ele>552.06</ele></trkpt><trkpt lat="47.560328" lon="13.672692"><ele>553.6</ele></trkpt><trkpt lat="47.56031" lon="13.671942"><ele>543.8</ele></trkpt><trkpt lat="47.560329" lon="13.670891"><ele>544.97</ele></trkpt><trkpt lat="47.56031" lon="13.670721"><ele>544.97</ele></trkpt><trkpt lat="47.560214" lon="13.670261"><ele>544.9</ele></trkpt><trkpt lat="47.560244" lon="13.66992"><ele>546.26</ele></trkpt><trkpt lat="47.560291" lon="13.669719"><ele>546.35</ele></trkpt><trkpt lat="47.560359" lon="13.669524"><ele>547.68</ele></trkpt><trkpt lat="47.56058" lon="13.669055"><ele>550.13</ele></trkpt><trkpt lat="47.560823" lon="13.668439"><ele>556.17</ele></trkpt><trkpt lat="47.561221" lon="13.667758"><ele>561.92</ele></trkpt><trkpt lat="47.561416" lon="13.667517"><ele>562.5</ele></trkpt><trkpt lat="47.561573" lon="13.667286"><ele>564.22</ele></trkpt><trkpt lat="47.561916" lon="13.666875"><ele>566.27</ele></trkpt><trkpt lat="47.562157" lon="13.666537"><ele>564.24</ele></trkpt><trkpt lat="47.562596" lon="13.665713"><ele>550.58</ele></trkpt><trkpt lat="47.562847" lon="13.66499"><ele>541.96</ele></trkpt><trkpt lat="47.563376" lon="13.664147"><ele>529.55</ele></trkpt><trkpt lat="47.563629" lon="13.663842"><ele>525.65</ele></trkpt><trkpt lat="47.563912" lon="13.663619"><ele>522.54</ele></trkpt><trkpt lat="47.563976" lon="13.663539"><ele>521.28</ele></trkpt><trkpt lat="47.56402" lon="13.663389"><ele>520.47</ele></trkpt><trkpt lat="47.564059" lon="13.663317"><ele>520.03</ele></trkpt><trkpt lat="47.564937" lon="13.663069"><ele>522.02</ele></trkpt><trkpt lat="47.565276" lon="13.66302"><ele>521.92</ele></trkpt><trkpt lat="47.565505" lon="13.662942"><ele>521.69</ele></trkpt><trkpt lat="47.565734" lon="13.662811"><ele>521.3</ele></trkpt><trkpt lat="47.565981" lon="13.662633"><ele>520.99</ele></trkpt><trkpt lat="47.56664" lon="13.66209"><ele>519.51</ele></trkpt><trkpt lat="47.566886" lon="13.661947"><ele>519.86</ele></trkpt><trkpt lat="47.567102" lon="13.661873"><ele>519.73</ele></trkpt><trkpt lat="47.567466" lon="13.661877"><ele>519.4</ele><time>2021-08-03T05:36:08Z</time></trkpt><trkpt lat="47.567492" lon="13.661853"><ele>516.62</ele></trkpt><trkpt lat="47.567521" lon="13.661752"><ele>517.94</ele></trkpt><trkpt lat="47.567516" lon="13.661599"><ele>509.0</ele><time>2021-08-03T05:36:19Z</time></trkpt><trkpt lat="47.567534" lon="13.661604"><ele>515.3</ele></trkpt><trkpt lat="47.567606" lon="13.661855"><ele>516.9</ele></trkpt><trkpt lat="47.567617" lon="13.661961"><ele>521.6</ele><time>2021-08-03T05:36:32Z</time></trkpt><trkpt lat="47.567859" lon="13.661978"><ele>521.6</ele></trkpt><trkpt lat="47.568154" lon="13.662068"><ele>517.29</ele></trkpt><trkpt lat="47.568431" lon="13.662187"><ele>516.26</ele></trkpt><trkpt lat="47.568727" lon="13.662381"><ele>515.72</ele></trkpt><trkpt lat="47.568934" lon="13.662579"><ele>516.13</ele></trkpt><trkpt lat="47.569076" lon="13.662747"><ele>516.74</ele></trkpt><trkpt lat="47.569471" lon="13.663296"><ele>507.4</ele></trkpt><trkpt lat="47.569613" lon="13.663698"><ele>510.28</ele></trkpt><trkpt lat="47.56976" lon="13.664281"><ele>512.8</ele></trkpt><trkpt lat="47.569893" lon="13.664949"><ele>515.7</ele></trkpt><trkpt lat="47.569889" lon="13.665195"><ele>516.16</ele></trkpt><trkpt lat="47.569997" lon="13.665684"><ele>517.2</ele></trkpt><trkpt lat="47.569981" lon="13.665742"><ele>517.2</ele></trkpt><trkpt lat="47.569937" lon="13.665778"><ele>517.2</ele></trkpt><trkpt lat="47.570006" lon="13.666295"><ele>503.0</ele></trkpt><trkpt lat="47.570117" lon="13.66635"><ele>505.52</ele></trkpt><trkpt lat="47.570265" lon="13.666641"><ele>505.24</ele></trkpt><trkpt lat="47.570283" lon="13.666874"><ele>505.61</ele></trkpt><trkpt lat="47.570373" lon="13.667171"><ele>506.24</ele></trkpt><trkpt lat="47.570598" lon="13.66746"><ele>508.6</ele><time>2021-08-03T05:42:21Z</time></trkpt><trkpt lat="47.570961" lon="13.667976"><ele>517.91</ele></trkpt><trkpt lat="47.571118" lon="13.668115"><ele>517.42</ele></trkpt><trkpt lat="47.571199" lon="13.668276"><ele>517.09</ele></trkpt><trkpt lat="47.571286" lon="13.668504"><ele>517.91</ele></trkpt><trkpt lat="47.571473" lon="13.668604"><ele>518.48</ele></trkpt><trkpt lat="47.571932" lon="13.668704"><ele>518.25</ele></trkpt><trkpt lat="47.572082" lon="13.668779"><ele>516.32</ele></trkpt><trkpt lat="47.572705" lon="13.669275"><ele>514.03</ele></trkpt><trkpt lat="47.572811" lon="13.669291"><ele>513.43</ele></trkpt><trkpt lat="47.573199" lon="13.669483"><ele>513.26</ele></trkpt><trkpt lat="47.573513" lon="13.669708"><ele>513.5</ele></trkpt><trkpt lat="47.57397" lon="13.669916"><ele>514.21</ele></trkpt><trkpt lat="47.574332" lon="13.670023"><ele>513.57</ele></trkpt><trkpt lat="47.574428" lon="13.670109"><ele>513.76</ele></trkpt><trkpt lat="47.574596" lon="13.670108"><ele>513.89</ele></trkpt><trkpt lat="47.574852" lon="13.670188"><ele>514.36</ele></trkpt><trkpt lat="47.575115" lon="13.670347"><ele>514.17</ele></trkpt><trkpt lat="47.575436" lon="13.670597"><ele>513.81</ele></trkpt><trkpt lat="47.575485" lon="13.670661"><ele>513.49</ele></trkpt><trkpt lat="47.575494" lon="13.670714"><ele>510.0</ele><time>2021-08-03T05:46:04Z</time></trkpt><trkpt lat="47.57545" lon="13.670908"><ele>528.05</ele></trkpt><trkpt lat="47.575468" lon="13.670942"><ele>527.94</ele></trkpt><trkpt lat="47.575644" lon="13.671088"><ele>527.76</ele></trkpt><trkpt lat="47.57575" lon="13.671261"><ele>527.59</ele></trkpt><trkpt lat="47.575823" lon="13.671328"><ele>527.51</ele></trkpt><trkpt lat="47.576152" lon="13.67155"><ele>526.39</ele></trkpt><trkpt lat="47.576407" lon="13.671655"><ele>525.74</ele></trkpt><trkpt lat="47.576464" lon="13.671796"><ele>527.63</ele></trkpt><trkpt lat="47.57648" lon="13.671912"><ele>528.49</ele></trkpt><trkpt lat="47.576515" lon="13.671981"><ele>543.2</ele><time>2021-08-03T05:46:41Z</time></trkpt><trkpt lat="47.576554" lon="13.672004"><ele>540.77</ele></trkpt><trkpt lat="47.576741" lon="13.671858"><ele>540.74</ele></trkpt><trkpt lat="47.576788" lon="13.671855"><ele>540.82</ele></trkpt><trkpt lat="47.576951" lon="13.67204"><ele>540.85</ele></trkpt><trkpt lat="47.577028" lon="13.672063"><ele>540.86</ele></trkpt><trkpt lat="47.577254" lon="13.672025"><ele>540.51</ele></trkpt><trkpt lat="47.577527" lon="13.671928"><ele>539.59</ele></trkpt><trkpt lat="47.577765" lon="13.67194"><ele>539.31</ele></trkpt><trkpt lat="47.578025" lon="13.671996"><ele>538.95</ele></trkpt><trkpt lat="47.578205" lon="13.672064"><ele>538.59</ele></trkpt><trkpt lat="47.5784" lon="13.67217"><ele>537.66</ele></trkpt><trkpt lat="47.578656" lon="13.672238"><ele>536.44</ele></trkpt><trkpt lat="47.578699" lon="13.672284"><ele>536.15</ele></trkpt><trkpt lat="47.578719" lon="13.672352"><ele>535.86</ele></trkpt><trkpt lat="47.578729" lon="13.672568"><ele>535.92</ele><time>2021-08-03T05:48:04Z</time></trkpt></trkseg><trkseg><trkpt lat="47.578729" lon="13.672568"><ele>535.92</ele><time>2021-08-03T05:27:10Z</time></trkpt><trkpt lat="47.578754" lon="13.672698"><ele>536.35</ele></trkpt><trkpt lat="47.578848" lon="13.672878"><ele>537.05</ele></trkpt><trkpt lat="47.578889" lon="13.67291"><ele>537.41</ele></trkpt><trkpt lat="47.578973" lon="13.672936"><ele>537.69</ele></trkpt><trkpt lat="47.579468" lon="13.67292"><ele>537.8</ele></trkpt><trkpt lat="47.57964" lon="13.672946"><ele>537.69</ele></trkpt><trkpt lat="47.580236" lon="13.67322"><ele>537.4</ele></trkpt><trkpt lat="47.58042" lon="13.673251"><ele>540.33</ele></trkpt><trkpt lat="47.580625" lon="13.673261"><ele>540.37</ele></trkpt><trkpt lat="47.580772" lon="13.673222"><ele>540.33</ele></trkpt><trkpt lat="47.580903" lon="13.67315"><ele>540.34</ele></trkpt><trkpt lat="47.581074" lon="13.673004"><ele>540.28</ele></trkpt><trkpt lat="47.581215" lon="13.67294"><ele>540.52</ele></trkpt><trkpt lat="47.581464" lon="13.672764"><ele>540.86</ele></trkpt><trkpt lat="47.581532" lon="13.672737"><ele>541.16</ele></trkpt><trkpt lat="47.581584" lon="13.672762"><ele>541.6</ele></trkpt><trkpt lat="47.581707" lon="13.67293"><ele>541.66</ele></trkpt><trkpt lat="47.581796" lon="13.672965"><ele>542.02</ele></trkpt><trkpt lat="47.582229" lon="13.672879"><ele>542.98</ele></trkpt><trkpt lat="47.58236" lon="13.672832"><ele>543.54</ele></trkpt><trkpt lat="47.582454" lon="13.67283"><ele>543.94</ele></trkpt><trkpt lat="47.58267" lon="13.673027"><ele>545.13</ele></trkpt><trkpt lat="47.582745" lon="13.673027"><ele>545.49</ele></trkpt><trkpt lat="47.582819" lon="13.672963"><ele>546.14</ele></trkpt><trkpt lat="47.582862" lon="13.672862"><ele>546.46</ele></trkpt><trkpt lat="47.582921" lon="13.672621"><ele>547.12</ele></trkpt><trkpt lat="47.582952" lon="13.672582"><ele>547.48</ele></trkpt><trkpt lat="47.583341" lon="13.672585"><ele>549.72</ele></trkpt><trkpt lat="47.583484" lon="13.672565"><ele>550.38</ele></trkpt><trkpt lat="47.583634" lon="13.67258"><ele>551.05</ele></trkpt><trkpt lat="47.583944" lon="13.672546"><ele>553.15</ele></trkpt><trkpt lat="47.584441" lon="13.67235"><ele>555.58</ele></trkpt><trkpt lat="47.584693" lon="13.672071"><ele>560.51</ele></trkpt><trkpt lat="47.585015" lon="13.671856"><ele>560.86</ele></trkpt><trkpt lat="47.58519" lon="13.671781"><ele>561.73</ele></trkpt><trkpt lat="47.585331" lon="13.671696"><ele>562.48</ele></trkpt><trkpt lat="47.585488" lon="13.671678"><ele>567.8</ele></trkpt><trkpt lat="47.585693" lon="13.671725"><ele>565.8</ele></trkpt><trkpt lat="47.585908" lon="13.671697"><ele>567.51</ele></trkpt><trkpt lat="47.586112" lon="13.671556"><ele>566.41</ele></trkpt><trkpt lat="47.586238" lon="13.671433"><ele>565.47</ele></trkpt><trkpt lat="47.586423" lon="13.671323"><ele>559.8</ele><time>2021-08-03T05:31:29Z</time></trkpt><trkpt lat="47.586937" lon="13.671043"><ele>551.65</ele></trkpt><trkpt lat="47.587311" lon="13.670781"><ele>551.63</ele></trkpt><trkpt lat="47.587533" lon="13.670439"><ele>550.07</ele></trkpt><trkpt lat="47.587694" lon="13.670323"><ele>548.32</ele></trkpt><trkpt lat="47.587875" lon="13.670378"><ele>547.62</ele></trkpt><trkpt lat="47.588076" lon="13.670492"><ele>540.6</ele></trkpt><trkpt lat="47.588328" lon="13.670602"><ele>543.68</ele></trkpt><trkpt lat="47.588538" lon="13.670662"><ele>543.88</ele></trkpt><trkpt lat="47.588639" lon="13.67066"><ele>543.89</ele></trkpt><trkpt lat="47.58873" lon="13.670628"><ele>543.89</ele></trkpt><trkpt lat="47.588873" lon="13.670541"><ele>544.03</ele></trkpt><trkpt lat="47.589199" lon="13.670239"><ele>544.88</ele></trkpt><trkpt lat="47.589358" lon="13.670127"><ele>545.4</ele></trkpt><trkpt lat="47.589715" lon="13.66975"><ele>545.62</ele></trkpt><trkpt lat="47.589878" lon="13.669549"><ele>545.7</ele></trkpt><trkpt lat="47.590251" lon="13.66867"><ele>546.0</ele><time>2021-08-03T05:33:12Z</time></trkpt><trkpt lat="47.590218" lon="13.668636"><ele>546.0</ele></trkpt><trkpt lat="47.590169" lon="13.668528"><ele>533.08</ele></trkpt><trkpt lat="47.590168" lon="13.66835"><ele>533.72</ele></trkpt><trkpt lat="47.590232" lon="13.667863"><ele>533.77</ele></trkpt><trkpt lat="47.590286" lon="13.667666"><ele>533.79</ele></trkpt><trkpt lat="47.590436" lon="13.667336"><ele>533.31</ele></trkpt><trkpt lat="47.590521" lon="13.667193"><ele>532.84</ele></trkpt><trkpt lat="47.590561" lon="13.667096"><ele>532.38</ele></trkpt><trkpt lat="47.590572" lon="13.667015"><ele>531.95</ele></trkpt><trkpt lat="47.590547" lon="13.66691"><ele>531.16</ele></trkpt><trkpt lat="47.590496" lon="13.666819"><ele>530.79</ele></trkpt><trkpt lat="47.59045" lon="13.666785"><ele>530.44</ele></trkpt><trkpt lat="47.590294" lon="13.666818"><ele>529.79</ele></trkpt><trkpt lat="47.590227" lon="13.666857"><ele>529.49</ele></trkpt><trkpt lat="47.590175" lon="13.66686"><ele>523.8</ele></trkpt><trkpt lat="47.590126" lon="13.66681"><ele>521.03</ele></trkpt><trkpt lat="47.590094" lon="13.666758"><ele>521.49</ele></trkpt><trkpt lat="47.590066" lon="13.666573"><ele>514.2</ele></trkpt><trkpt lat="47.590144" lon="13.666442"><ele>514.2</ele></trkpt><trkpt lat="47.590549" lon="13.665915"><ele>511.18</ele></trkpt><trkpt lat="47.590729" lon="13.665592"><ele>510.45</ele></trkpt><trkpt lat="47.590857" lon="13.665401"><ele>511.04</ele></trkpt><trkpt lat="47.591392" lon="13.664907"><ele>507.8</ele></trkpt><trkpt lat="47.591894" lon="13.664511"><ele>509.28</ele></trkpt><trkpt lat="47.592032" lon="13.664466"><ele>509.24</ele></trkpt><trkpt lat="47.592406" lon="13.664202"><ele>509.28</ele></trkpt><trkpt lat="47.592568" lon="13.664014"><ele>508.67</ele></trkpt><trkpt lat="47.592723" lon="13.663887"><ele>508.48</ele></trkpt><trkpt lat="47.592877" lon="13.663797"><ele>507.99</ele></trkpt><trkpt lat="47.593546" lon="13.663518"><ele>507.37</ele><time>2021-08-03T05:35:30Z</time></trkpt></trkseg><trkseg><trkpt lat="47.593546" lon="13.663518"><ele>507.37</ele><time>2021-08-03T05:27:10Z</time></trkpt><trkpt lat="47.594126" lon="13.663293"><ele>504.2</ele><time>2021-08-03T05:27:23Z</time></trkpt><trkpt lat="47.594207" lon="13.663294"><ele>506.67</ele></trkpt><trkpt lat="47.594578" lon="13.663149"><ele>506.72</ele></trkpt><trkpt lat="47.594831" lon="13.663136"><ele>507.07</ele></trkpt><trkpt lat="47.595142" lon="13.663147"><ele>507.43</ele></trkpt><trkpt lat="47.595321" lon="13.663178"><ele>507.59</ele></trkpt><trkpt lat="47.59578" lon="13.663311"><ele>508.93</ele></trkpt><trkpt lat="47.595994" lon="13.663342"><ele>509.94</ele></trkpt><trkpt lat="47.596208" lon="13.663302"><ele>510.48</ele></trkpt><trkpt lat="47.596347" lon="13.663302"><ele>510.57</ele></trkpt><trkpt lat="47.59663" lon="13.663377"><ele>511.27</ele></trkpt><trkpt lat="47.596725" lon="13.663348"><ele>513.08</ele></trkpt><trkpt lat="47.596793" lon="13.663275"><ele>513.18</ele></trkpt><trkpt lat="47.596882" lon="13.663133"><ele>513.79</ele></trkpt><trkpt lat="47.597028" lon="13.663024"><ele>514.41</ele></trkpt><trkpt lat="47.59729" lon="13.662919"><ele>517.42</ele></trkpt><trkpt lat="47.597838" lon="13.662366"><ele>518.07</ele></trkpt><trkpt lat="47.598029" lon="13.662241"><ele>517.62</ele></trkpt><trkpt lat="47.598185" lon="13.662199"><ele>517.53</ele></trkpt><trkpt lat="47.598294" lon="13.662142"><ele>517.49</ele></trkpt><trkpt lat="47.598449" lon="13.661963"><ele>518.84</ele></trkpt><trkpt lat="47.598804" lon="13.661627"><ele>519.39</ele></trkpt><trkpt lat="47.59886" lon="13.661605"><ele>519.24</ele></trkpt><trkpt lat="47.598905" lon="13.661528"><ele>519.12</ele></trkpt><trkpt lat="47.599329" lon="13.661202"><ele>520.49</ele></trkpt><trkpt lat="47.599509" lon="13.660987"><ele>521.7</ele></trkpt><trkpt lat="47.599595" lon="13.660813"><ele>521.42</ele></trkpt><trkpt lat="47.59969" lon="13.660291"><ele>520.83</ele></trkpt><trkpt lat="47.59981" lon="13.659924"><ele>521.12</ele></trkpt><trkpt lat="47.599871" lon="13.65985"><ele>515.2</ele></trkpt><trkpt lat="47.599904" lon="13.65872"><ele>514.03</ele></trkpt><trkpt lat="47.599941" lon="13.658545"><ele>513.82</ele></trkpt><trkpt lat="47.600174" lon="13.657755"><ele>513.68</ele></trkpt><trkpt lat="47.600294" lon="13.65758"><ele>513.58</ele></trkpt><trkpt lat="47.600699" lon="13.657087"><ele>513.29</ele></trkpt><trkpt lat="47.600933" lon="13.656735"><ele>514.35</ele></trkpt><trkpt lat="47.601106" lon="13.656561"><ele>514.11</ele></trkpt><trkpt lat="47.601859" lon="13.655957"><ele>514.83</ele></trkpt><trkpt lat="47.602028" lon="13.655843"><ele>514.76</ele></trkpt><trkpt lat="47.602311" lon="13.655792"><ele>514.03</ele></trkpt><trkpt lat="47.603926" lon="13.654721"><ele>514.64</ele></trkpt><trkpt lat="47.604806" lon="13.654205"><ele>512.89</ele></trkpt><trkpt lat="47.605107" lon="13.65395"><ele>512.38</ele></trkpt><trkpt lat="47.6054" lon="13.65364"><ele>511.93</ele></trkpt><trkpt lat="47.605687" lon="13.653516"><ele>511.38</ele></trkpt><trkpt lat="47.605768" lon="13.653515"><ele>511.32</ele></trkpt><trkpt lat="47.606178" lon="13.653696"><ele>511.07</ele></trkpt><trkpt lat="47.606286" lon="13.653727"><ele>511.1</ele></trkpt><trkpt lat="47.606401" lon="13.653729"><ele>511.13</ele></trkpt><trkpt lat="47.606506" lon="13.653687"><ele>511.21</ele></trkpt><trkpt lat="47.60661" lon="13.653616"><ele>511.24</ele></trkpt><trkpt lat="47.606987" lon="13.653238"><ele>511.44</ele></trkpt><trkpt lat="47.607242" lon="13.653083"><ele>511.34</ele></trkpt><trkpt lat="47.607441" lon="13.653023"><ele>511.24</ele></trkpt><trkpt lat="47.6077" lon="13.65299"><ele>511.14</ele></trkpt><trkpt lat="47.607925" lon="13.653008"><ele>510.96</ele></trkpt><trkpt lat="47.608394" lon="13.653089"><ele>510.76</ele></trkpt><trkpt lat="47.60854" lon="13.653071"><ele>510.96</ele></trkpt><trkpt lat="47.608645" lon="13.653023"><ele>511.18</ele></trkpt><trkpt lat="47.608905" lon="13.652737"><ele>511.42</ele></trkpt><trkpt lat="47.609113" lon="13.652565"><ele>515.18</ele></trkpt><trkpt lat="47.609725" lon="13.651924"><ele>515.0</ele></trkpt><trkpt lat="47.609892" lon="13.651679"><ele>514.92</ele></trkpt><trkpt lat="47.610034" lon="13.651433"><ele>516.07</ele></trkpt><trkpt lat="47.610874" lon="13.649205"><ele>520.2</ele><time>2021-08-03T05:37:14Z</time></trkpt><trkpt lat="47.611082" lon="13.649212"><ele>520.2</ele><time>2021-08-03T05:37:19Z</time></trkpt><trkpt lat="47.611231" lon="13.64875"><ele>517.61</ele></trkpt><trkpt lat="47.611374" lon="13.64839"><ele>517.93</ele></trkpt><trkpt lat="47.611793" lon="13.64775"><ele>519.8</ele></trkpt><trkpt lat="47.612052" lon="13.647128"><ele>519.43</ele></trkpt><trkpt lat="47.612157" lon="13.64695"><ele>519.6</ele></trkpt><trkpt lat="47.612227" lon="13.64677"><ele>519.79</ele></trkpt><trkpt lat="47.612295" lon="13.646689"><ele>519.99</ele></trkpt><trkpt lat="47.61246" lon="13.646604"><ele>520.42</ele></trkpt><trkpt lat="47.612505" lon="13.646507"><ele>520.65</ele></trkpt><trkpt lat="47.612549" lon="13.64625"><ele>523.4</ele><time>2021-08-03T05:38:16Z</time></trkpt><trkpt lat="47.612869" lon="13.646228"><ele>523.4</ele></trkpt><trkpt lat="47.613035" lon="13.646254"><ele>523.4</ele></trkpt><trkpt lat="47.613328" lon="13.646343"><ele>529.24</ele></trkpt><trkpt lat="47.613483" lon="13.646337"><ele>530.17</ele></trkpt><trkpt lat="47.613595" lon="13.646294"><ele>530.68</ele></trkpt><trkpt lat="47.613707" lon="13.646208"><ele>531.15</ele></trkpt><trkpt lat="47.613844" lon="13.645999"><ele>531.61</ele></trkpt><trkpt lat="47.613936" lon="13.645892"><ele>532.0</ele></trkpt><trkpt lat="47.614189" lon="13.645658"><ele>532.13</ele></trkpt><trkpt lat="47.614441" lon="13.645477"><ele>532.88</ele></trkpt><trkpt lat="47.614616" lon="13.645384"><ele>533.15</ele></trkpt><trkpt lat="47.614753" lon="13.645364"><ele>533.64</ele></trkpt><trkpt lat="47.614884" lon="13.645295"><ele>533.92</ele></trkpt><trkpt lat="47.61566" lon="13.64467"><ele>534.91</ele></trkpt><trkpt lat="47.615857" lon="13.644489"><ele>535.2</ele></trkpt><trkpt lat="47.616092" lon="13.64444"><ele>536.8</ele></trkpt><trkpt lat="47.616186" lon="13.644393"><ele>536.8</ele></trkpt><trkpt lat="47.616507" lon="13.644021"><ele>533.36</ele></trkpt><trkpt lat="47.61671" lon="13.643824"><ele>533.41</ele></trkpt><trkpt lat="47.616967" lon="13.643622"><ele>533.66</ele></trkpt><trkpt lat="47.617326" lon="13.643479"><ele>532.6</ele></trkpt><trkpt lat="47.617626" lon="13.643294"><ele>529.51</ele></trkpt><trkpt lat="47.617763" lon="13.643186"><ele>529.59</ele></trkpt><trkpt lat="47.618192" lon="13.642691"><ele>529.88</ele></trkpt><trkpt lat="47.618303" lon="13.64254"><ele>529.0</ele><time>2021-08-03T05:40:40Z</time></trkpt><trkpt lat="47.618717" lon="13.642625"><ele>529.65</ele></trkpt><trkpt lat="47.619022" lon="13.642812"><ele>529.8</ele></trkpt><trkpt lat="47.619226" lon="13.643002"><ele>531.96</ele></trkpt><trkpt lat="47.619379" lon="13.643173"><ele>532.59</ele></trkpt><trkpt lat="47.619606" lon="13.643566"><ele>533.17</ele></trkpt><trkpt lat="47.619802" lon="13.643812"><ele>533.31</ele></trkpt><trkpt lat="47.620269" lon="13.644293"><ele>533.75</ele></trkpt><trkpt lat="47.620454" lon="13.644412"><ele>533.69</ele></trkpt><trkpt lat="47.621011" lon="13.644694"><ele>535.47</ele></trkpt><trkpt lat="47.621446" lon="13.644954"><ele>537.0</ele></trkpt><trkpt lat="47.622197" lon="13.64557"><ele>541.15</ele></trkpt><trkpt lat="47.622921" lon="13.646227"><ele>542.4</ele><time>2021-08-03T05:42:38Z</time></trkpt><trkpt lat="47.623792" lon="13.645268"><ele>542.8</ele><time>2021-08-03T05:43:02Z</time></trkpt><trkpt lat="47.623805" lon="13.645116"><ele>542.28</ele></trkpt><trkpt lat="47.62384" lon="13.644948"><ele>542.1</ele></trkpt><trkpt lat="47.623951" lon="13.644812"><ele>541.4</ele></trkpt><trkpt lat="47.624025" lon="13.644789"><ele>541.4</ele><time>2021-08-03T05:43:15Z</time></trkpt><trkpt lat="47.623854" lon="13.644435"><ele>541.4</ele><time>2021-08-03T05:43:44Z</time></trkpt></trkseg><trkseg><trkpt lat="47.623854" lon="13.644435"><ele>541.4</ele><time>2021-08-03T05:27:10Z</time></trkpt></trkseg></trk></gpx>        
